<?xml version="1.0" encoding="UTF-8" standalone="no" ?>
<gpx xmlns="http://www.topografix.com/GPX/1/1" xmlns:xsi="http://www.w3.org/2001/XMLSchema-instance" xsi:schemaLocation="http://www.topografix.com/GPX/1/1 http://www.topografix.com/GPX/1/1/gpx.xsd" version="1.1" creator="VisuGPX - https://www.visugpx.com">
  <metadata>
    <name>007SG70-8054614</name>
    <desc><![CDATA[
01]]></desc>
  </metadata>
  <trk>
    <name><![CDATA[007SG70-8054614]]></name>
    <trkseg>
      <trkpt lat="46.69912" lon="-1.93386">
        <ele>4</ele>
        <time>2018-01-11T21:52:52Z</time>
      </trkpt>
      <trkpt lat="46.69911" lon="-1.93386">
        <ele>4</ele>
        <time>2018-01-11T21:53:52Z</time>
      </trkpt>
      <trkpt lat="46.69909" lon="-1.93385">
        <ele>4</ele>
        <time>2018-01-11T21:54:52Z</time>
      </trkpt>
      <trkpt lat="46.69908" lon="-1.93383">
        <ele>4</ele>
        <time>2018-01-11T21:55:52Z</time>
      </trkpt>
      <trkpt lat="46.69908" lon="-1.93383">
        <ele>4</ele>
        <time>2018-01-11T21:56:52Z</time>
      </trkpt>
      <trkpt lat="46.69901" lon="-1.93383">
        <ele>5</ele>
        <time>2018-01-11T21:57:52Z</time>
      </trkpt>
      <trkpt lat="46.69898" lon="-1.93383">
        <ele>5</ele>
        <time>2018-01-11T21:58:52Z</time>
      </trkpt>
      <trkpt lat="46.69892" lon="-1.93385">
        <ele>5</ele>
        <time>2018-01-11T21:59:52Z</time>
      </trkpt>
      <trkpt lat="46.69824" lon="-1.93411">
        <ele>5</ele>
        <time>2018-01-11T22:00:52Z</time>
      </trkpt>
      <trkpt lat="46.69806" lon="-1.93419">
        <ele>5</ele>
        <time>2018-01-11T22:01:52Z</time>
      </trkpt>
      <trkpt lat="46.69798" lon="-1.93421">
        <ele>5</ele>
        <time>2018-01-11T22:02:52Z</time>
      </trkpt>
      <trkpt lat="46.69797" lon="-1.93421">
        <ele>5</ele>
        <time>2018-01-11T22:03:52Z</time>
      </trkpt>
      <trkpt lat="46.69793" lon="-1.9342">
        <ele>5</ele>
        <time>2018-01-11T22:04:52Z</time>
      </trkpt>
      <trkpt lat="46.69793" lon="-1.93421">
        <ele>5</ele>
        <time>2018-01-11T22:05:52Z</time>
      </trkpt>
      <trkpt lat="46.69793" lon="-1.93422">
        <ele>5</ele>
        <time>2018-01-11T22:06:52Z</time>
      </trkpt>
      <trkpt lat="46.69793" lon="-1.93423">
        <ele>5</ele>
        <time>2018-01-11T22:07:52Z</time>
      </trkpt>
      <trkpt lat="46.69793" lon="-1.93424">
        <ele>5</ele>
        <time>2018-01-11T22:08:52Z</time>
      </trkpt>
      <trkpt lat="46.69792" lon="-1.93425">
        <ele>5</ele>
        <time>2018-01-11T22:09:52Z</time>
      </trkpt>
      <trkpt lat="46.69792" lon="-1.93426">
        <ele>5</ele>
        <time>2018-01-11T22:10:52Z</time>
      </trkpt>
      <trkpt lat="46.69791" lon="-1.93426">
        <ele>5</ele>
        <time>2018-01-11T22:11:52Z</time>
      </trkpt>
      <trkpt lat="46.69791" lon="-1.93427">
        <ele>5</ele>
        <time>2018-01-11T22:12:52Z</time>
      </trkpt>
      <trkpt lat="46.6979" lon="-1.93427">
        <ele>5</ele>
        <time>2018-01-11T22:13:52Z</time>
      </trkpt>
      <trkpt lat="46.6979" lon="-1.93428">
        <ele>5</ele>
        <time>2018-01-11T22:14:52Z</time>
      </trkpt>
      <trkpt lat="46.69789" lon="-1.93428">
        <ele>5</ele>
        <time>2018-01-11T22:15:52Z</time>
      </trkpt>
      <trkpt lat="46.69788" lon="-1.93428">
        <ele>5</ele>
        <time>2018-01-11T22:16:52Z</time>
      </trkpt>
      <trkpt lat="46.69788" lon="-1.93427">
        <ele>5</ele>
        <time>2018-01-11T22:17:52Z</time>
      </trkpt>
      <trkpt lat="46.69787" lon="-1.93427">
        <ele>5</ele>
        <time>2018-01-11T22:18:52Z</time>
      </trkpt>
      <trkpt lat="46.69787" lon="-1.93426">
        <ele>5</ele>
        <time>2018-01-11T22:19:52Z</time>
      </trkpt>
      <trkpt lat="46.69786" lon="-1.93426">
        <ele>5</ele>
        <time>2018-01-11T22:20:52Z</time>
      </trkpt>
      <trkpt lat="46.69786" lon="-1.93425">
        <ele>5</ele>
        <time>2018-01-11T22:21:52Z</time>
      </trkpt>
      <trkpt lat="46.69786" lon="-1.93424">
        <ele>5</ele>
        <time>2018-01-11T22:22:52Z</time>
      </trkpt>
      <trkpt lat="46.69785" lon="-1.93424">
        <ele>5</ele>
        <time>2018-01-11T22:23:52Z</time>
      </trkpt>
      <trkpt lat="46.69785" lon="-1.93423">
        <ele>5</ele>
        <time>2018-01-11T22:24:52Z</time>
      </trkpt>
      <trkpt lat="46.69785" lon="-1.93422">
        <ele>5</ele>
        <time>2018-01-11T22:25:52Z</time>
      </trkpt>
      <trkpt lat="46.69779" lon="-1.9342">
        <ele>5</ele>
        <time>2018-01-11T22:26:52Z</time>
      </trkpt>
      <trkpt lat="46.69776" lon="-1.9342">
        <ele>5</ele>
        <time>2018-01-11T22:27:52Z</time>
      </trkpt>
      <trkpt lat="46.69772" lon="-1.9342">
        <ele>5</ele>
        <time>2018-01-11T22:28:52Z</time>
      </trkpt>
      <trkpt lat="46.69762" lon="-1.93423">
        <ele>5</ele>
        <time>2018-01-11T22:29:52Z</time>
      </trkpt>
      <trkpt lat="46.69759" lon="-1.93424">
        <ele>5</ele>
        <time>2018-01-11T22:30:52Z</time>
      </trkpt>
      <trkpt lat="46.69721" lon="-1.93434">
        <ele>5</ele>
        <time>2018-01-11T22:31:52Z</time>
      </trkpt>
      <trkpt lat="46.69714" lon="-1.93435">
        <ele>5</ele>
        <time>2018-01-11T22:32:52Z</time>
      </trkpt>
      <trkpt lat="46.69697" lon="-1.93436">
        <ele>5</ele>
        <time>2018-01-11T22:33:52Z</time>
      </trkpt>
      <trkpt lat="46.69685" lon="-1.93435">
        <ele>5</ele>
        <time>2018-01-11T22:34:52Z</time>
      </trkpt>
      <trkpt lat="46.69633" lon="-1.93423">
        <ele>5</ele>
        <time>2018-01-11T22:35:52Z</time>
      </trkpt>
      <trkpt lat="46.69633" lon="-1.93423">
        <ele>5</ele>
        <time>2018-01-11T22:36:52Z</time>
      </trkpt>
      <trkpt lat="46.69633" lon="-1.93424">
        <ele>4</ele>
        <time>2018-01-11T22:37:52Z</time>
      </trkpt>
      <trkpt lat="46.69633" lon="-1.93425">
        <ele>4</ele>
        <time>2018-01-11T22:38:52Z</time>
      </trkpt>
      <trkpt lat="46.69633" lon="-1.93426">
        <ele>4</ele>
        <time>2018-01-11T22:39:52Z</time>
      </trkpt>
      <trkpt lat="46.69633" lon="-1.93427">
        <ele>4</ele>
        <time>2018-01-11T22:40:52Z</time>
      </trkpt>
      <trkpt lat="46.69633" lon="-1.93428">
        <ele>4</ele>
        <time>2018-01-11T22:41:52Z</time>
      </trkpt>
      <trkpt lat="46.69633" lon="-1.93429">
        <ele>4</ele>
        <time>2018-01-11T22:42:52Z</time>
      </trkpt>
      <trkpt lat="46.69633" lon="-1.9343">
        <ele>4</ele>
        <time>2018-01-11T22:43:52Z</time>
      </trkpt>
      <trkpt lat="46.69632" lon="-1.9343">
        <ele>4</ele>
        <time>2018-01-11T22:44:52Z</time>
      </trkpt>
      <trkpt lat="46.69632" lon="-1.93431">
        <ele>4</ele>
        <time>2018-01-11T22:45:52Z</time>
      </trkpt>
      <trkpt lat="46.69632" lon="-1.93432">
        <ele>4</ele>
        <time>2018-01-11T22:46:52Z</time>
      </trkpt>
      <trkpt lat="46.69631" lon="-1.93432">
        <ele>4</ele>
        <time>2018-01-11T22:47:52Z</time>
      </trkpt>
      <trkpt lat="46.69631" lon="-1.93433">
        <ele>4</ele>
        <time>2018-01-11T22:48:52Z</time>
      </trkpt>
      <trkpt lat="46.69631" lon="-1.93434">
        <ele>4</ele>
        <time>2018-01-11T22:49:52Z</time>
      </trkpt>
      <trkpt lat="46.6963" lon="-1.93434">
        <ele>4</ele>
        <time>2018-01-11T22:50:52Z</time>
      </trkpt>
      <trkpt lat="46.6963" lon="-1.93435">
        <ele>4</ele>
        <time>2018-01-11T22:51:52Z</time>
      </trkpt>
      <trkpt lat="46.69629" lon="-1.93435">
        <ele>4</ele>
        <time>2018-01-11T22:52:52Z</time>
      </trkpt>
      <trkpt lat="46.69629" lon="-1.93436">
        <ele>4</ele>
        <time>2018-01-11T22:53:52Z</time>
      </trkpt>
      <trkpt lat="46.69628" lon="-1.93436">
        <ele>4</ele>
        <time>2018-01-11T22:54:52Z</time>
      </trkpt>
      <trkpt lat="46.69627" lon="-1.93436">
        <ele>4</ele>
        <time>2018-01-11T22:55:52Z</time>
      </trkpt>
      <trkpt lat="46.69627" lon="-1.93437">
        <ele>4</ele>
        <time>2018-01-11T22:56:52Z</time>
      </trkpt>
      <trkpt lat="46.69626" lon="-1.93437">
        <ele>4</ele>
        <time>2018-01-11T22:57:52Z</time>
      </trkpt>
      <trkpt lat="46.69625" lon="-1.93437">
        <ele>4</ele>
        <time>2018-01-11T22:58:52Z</time>
      </trkpt>
      <trkpt lat="46.69624" lon="-1.93437">
        <ele>4</ele>
        <time>2018-01-11T22:59:52Z</time>
      </trkpt>
      <trkpt lat="46.69623" lon="-1.93437">
        <ele>4</ele>
        <time>2018-01-11T23:00:52Z</time>
      </trkpt>
      <trkpt lat="46.69622" lon="-1.93436">
        <ele>4</ele>
        <time>2018-01-11T23:01:52Z</time>
      </trkpt>
      <trkpt lat="46.69621" lon="-1.93436">
        <ele>4</ele>
        <time>2018-01-11T23:02:52Z</time>
      </trkpt>
      <trkpt lat="46.6962" lon="-1.93435">
        <ele>4</ele>
        <time>2018-01-11T23:03:52Z</time>
      </trkpt>
      <trkpt lat="46.69619" lon="-1.93434">
        <ele>4</ele>
        <time>2018-01-11T23:04:52Z</time>
      </trkpt>
      <trkpt lat="46.69619" lon="-1.93433">
        <ele>4</ele>
        <time>2018-01-11T23:05:52Z</time>
      </trkpt>
      <trkpt lat="46.69618" lon="-1.93433">
        <ele>4</ele>
        <time>2018-01-11T23:06:52Z</time>
      </trkpt>
      <trkpt lat="46.69618" lon="-1.93432">
        <ele>4</ele>
        <time>2018-01-11T23:07:52Z</time>
      </trkpt>
      <trkpt lat="46.69618" lon="-1.93431">
        <ele>4</ele>
        <time>2018-01-11T23:08:52Z</time>
      </trkpt>
      <trkpt lat="46.69617" lon="-1.93431">
        <ele>4</ele>
        <time>2018-01-11T23:09:52Z</time>
      </trkpt>
      <trkpt lat="46.69617" lon="-1.9343">
        <ele>4</ele>
        <time>2018-01-11T23:10:52Z</time>
      </trkpt>
      <trkpt lat="46.69617" lon="-1.93429">
        <ele>4</ele>
        <time>2018-01-11T23:11:52Z</time>
      </trkpt>
      <trkpt lat="46.69617" lon="-1.93428">
        <ele>4</ele>
        <time>2018-01-11T23:12:52Z</time>
      </trkpt>
      <trkpt lat="46.69616" lon="-1.93428">
        <ele>4</ele>
        <time>2018-01-11T23:13:52Z</time>
      </trkpt>
      <trkpt lat="46.69616" lon="-1.93427">
        <ele>4</ele>
        <time>2018-01-11T23:14:52Z</time>
      </trkpt>
      <trkpt lat="46.69616" lon="-1.93426">
        <ele>4</ele>
        <time>2018-01-11T23:15:52Z</time>
      </trkpt>
      <trkpt lat="46.69616" lon="-1.93425">
        <ele>4</ele>
        <time>2018-01-11T23:16:52Z</time>
      </trkpt>
      <trkpt lat="46.69616" lon="-1.93424">
        <ele>4</ele>
        <time>2018-01-11T23:17:52Z</time>
      </trkpt>
      <trkpt lat="46.69616" lon="-1.93423">
        <ele>4</ele>
        <time>2018-01-11T23:18:52Z</time>
      </trkpt>
      <trkpt lat="46.69616" lon="-1.93422">
        <ele>4</ele>
        <time>2018-01-11T23:19:52Z</time>
      </trkpt>
      <trkpt lat="46.69616" lon="-1.93421">
        <ele>4</ele>
        <time>2018-01-11T23:20:52Z</time>
      </trkpt>
      <trkpt lat="46.69617" lon="-1.93421">
        <ele>4</ele>
        <time>2018-01-11T23:21:52Z</time>
      </trkpt>
      <trkpt lat="46.69617" lon="-1.9342">
        <ele>4</ele>
        <time>2018-01-11T23:22:52Z</time>
      </trkpt>
      <trkpt lat="46.69607" lon="-1.93416">
        <ele>4</ele>
        <time>2018-01-11T23:23:52Z</time>
      </trkpt>
      <trkpt lat="46.69587" lon="-1.93404">
        <ele>4</ele>
        <time>2018-01-11T23:24:52Z</time>
      </trkpt>
      <trkpt lat="46.69551" lon="-1.93388">
        <ele>4</ele>
        <time>2018-01-11T23:25:52Z</time>
      </trkpt>
      <trkpt lat="46.69518" lon="-1.93374">
        <ele>4</ele>
        <time>2018-01-11T23:26:52Z</time>
      </trkpt>
      <trkpt lat="46.69507" lon="-1.9337">
        <ele>4</ele>
        <time>2018-01-11T23:27:52Z</time>
      </trkpt>
      <trkpt lat="46.69503" lon="-1.93368">
        <ele>4</ele>
        <time>2018-01-11T23:28:52Z</time>
      </trkpt>
      <trkpt lat="46.69498" lon="-1.93366">
        <ele>4</ele>
        <time>2018-01-11T23:29:52Z</time>
      </trkpt>
      <trkpt lat="46.6946" lon="-1.93349">
        <ele>4</ele>
        <time>2018-01-11T23:30:52Z</time>
      </trkpt>
      <trkpt lat="46.69431" lon="-1.93336">
        <ele>4</ele>
        <time>2018-01-11T23:31:52Z</time>
      </trkpt>
      <trkpt lat="46.69426" lon="-1.93334">
        <ele>4</ele>
        <time>2018-01-11T23:32:52Z</time>
      </trkpt>
      <trkpt lat="46.69421" lon="-1.93333">
        <ele>4</ele>
        <time>2018-01-11T23:33:52Z</time>
      </trkpt>
      <trkpt lat="46.69416" lon="-1.93331">
        <ele>4</ele>
        <time>2018-01-11T23:34:52Z</time>
      </trkpt>
      <trkpt lat="46.69405" lon="-1.9333">
        <ele>4</ele>
        <time>2018-01-11T23:35:52Z</time>
      </trkpt>
      <trkpt lat="46.69394" lon="-1.93333">
        <ele>4</ele>
        <time>2018-01-11T23:36:52Z</time>
      </trkpt>
      <trkpt lat="46.69394" lon="-1.93333">
        <ele>4</ele>
        <time>2018-01-11T23:37:52Z</time>
      </trkpt>
      <trkpt lat="46.69394" lon="-1.93334">
        <ele>4</ele>
        <time>2018-01-11T23:38:52Z</time>
      </trkpt>
      <trkpt lat="46.69394" lon="-1.93335">
        <ele>4</ele>
        <time>2018-01-11T23:39:52Z</time>
      </trkpt>
      <trkpt lat="46.69393" lon="-1.93335">
        <ele>4</ele>
        <time>2018-01-11T23:40:52Z</time>
      </trkpt>
      <trkpt lat="46.69393" lon="-1.93336">
        <ele>4</ele>
        <time>2018-01-11T23:41:52Z</time>
      </trkpt>
      <trkpt lat="46.69392" lon="-1.93336">
        <ele>4</ele>
        <time>2018-01-11T23:42:52Z</time>
      </trkpt>
      <trkpt lat="46.69392" lon="-1.93337">
        <ele>4</ele>
        <time>2018-01-11T23:43:52Z</time>
      </trkpt>
      <trkpt lat="46.69391" lon="-1.93337">
        <ele>4</ele>
        <time>2018-01-11T23:44:52Z</time>
      </trkpt>
      <trkpt lat="46.6939" lon="-1.93338">
        <ele>4</ele>
        <time>2018-01-11T23:45:52Z</time>
      </trkpt>
      <trkpt lat="46.69389" lon="-1.93338">
        <ele>4</ele>
        <time>2018-01-11T23:46:52Z</time>
      </trkpt>
      <trkpt lat="46.69388" lon="-1.93338">
        <ele>4</ele>
        <time>2018-01-11T23:47:52Z</time>
      </trkpt>
      <trkpt lat="46.69387" lon="-1.93338">
        <ele>4</ele>
        <time>2018-01-11T23:48:52Z</time>
      </trkpt>
      <trkpt lat="46.69386" lon="-1.93338">
        <ele>4</ele>
        <time>2018-01-11T23:49:52Z</time>
      </trkpt>
      <trkpt lat="46.69385" lon="-1.93338">
        <ele>4</ele>
        <time>2018-01-11T23:50:52Z</time>
      </trkpt>
      <trkpt lat="46.69384" lon="-1.93338">
        <ele>4</ele>
        <time>2018-01-11T23:51:52Z</time>
      </trkpt>
      <trkpt lat="46.69384" lon="-1.93337">
        <ele>4</ele>
        <time>2018-01-11T23:52:52Z</time>
      </trkpt>
      <trkpt lat="46.69383" lon="-1.93337">
        <ele>4</ele>
        <time>2018-01-11T23:53:52Z</time>
      </trkpt>
      <trkpt lat="46.69383" lon="-1.93336">
        <ele>4</ele>
        <time>2018-01-11T23:54:52Z</time>
      </trkpt>
      <trkpt lat="46.69382" lon="-1.93336">
        <ele>4</ele>
        <time>2018-01-11T23:55:52Z</time>
      </trkpt>
      <trkpt lat="46.69382" lon="-1.93335">
        <ele>4</ele>
        <time>2018-01-11T23:56:52Z</time>
      </trkpt>
      <trkpt lat="46.69381" lon="-1.93335">
        <ele>4</ele>
        <time>2018-01-11T23:57:52Z</time>
      </trkpt>
      <trkpt lat="46.69381" lon="-1.93334">
        <ele>4</ele>
        <time>2018-01-11T23:58:52Z</time>
      </trkpt>
      <trkpt lat="46.6938" lon="-1.93333">
        <ele>4</ele>
        <time>2018-01-11T23:59:52Z</time>
      </trkpt>
      <trkpt lat="46.6938" lon="-1.93332">
        <ele>4</ele>
        <time>2018-01-12T00:00:52Z</time>
      </trkpt>
      <trkpt lat="46.69379" lon="-1.93332">
        <ele>4</ele>
        <time>2018-01-12T00:01:52Z</time>
      </trkpt>
      <trkpt lat="46.69379" lon="-1.93331">
        <ele>4</ele>
        <time>2018-01-12T00:02:52Z</time>
      </trkpt>
      <trkpt lat="46.69379" lon="-1.9333">
        <ele>4</ele>
        <time>2018-01-12T00:03:52Z</time>
      </trkpt>
      <trkpt lat="46.69379" lon="-1.93329">
        <ele>4</ele>
        <time>2018-01-12T00:04:52Z</time>
      </trkpt>
      <trkpt lat="46.69376" lon="-1.93327">
        <ele>4</ele>
        <time>2018-01-12T00:05:52Z</time>
      </trkpt>
      <trkpt lat="46.69367" lon="-1.93325">
        <ele>4</ele>
        <time>2018-01-12T00:06:52Z</time>
      </trkpt>
      <trkpt lat="46.69363" lon="-1.93325">
        <ele>4</ele>
        <time>2018-01-12T00:07:52Z</time>
      </trkpt>
      <trkpt lat="46.69356" lon="-1.93325">
        <ele>4</ele>
        <time>2018-01-12T00:08:52Z</time>
      </trkpt>
      <trkpt lat="46.69353" lon="-1.93324">
        <ele>4</ele>
        <time>2018-01-12T00:09:52Z</time>
      </trkpt>
      <trkpt lat="46.69315" lon="-1.93317">
        <ele>4</ele>
        <time>2018-01-12T00:10:52Z</time>
      </trkpt>
      <trkpt lat="46.69286" lon="-1.93313">
        <ele>4</ele>
        <time>2018-01-12T00:11:52Z</time>
      </trkpt>
      <trkpt lat="46.6924" lon="-1.93303">
        <ele>3</ele>
        <time>2018-01-12T00:12:52Z</time>
      </trkpt>
      <trkpt lat="46.69218" lon="-1.933">
        <ele>3</ele>
        <time>2018-01-12T00:13:52Z</time>
      </trkpt>
      <trkpt lat="46.69217" lon="-1.933">
        <ele>3</ele>
        <time>2018-01-12T00:14:52Z</time>
      </trkpt>
      <trkpt lat="46.69209" lon="-1.93298">
        <ele>3</ele>
        <time>2018-01-12T00:15:52Z</time>
      </trkpt>
      <trkpt lat="46.69203" lon="-1.93298">
        <ele>3</ele>
        <time>2018-01-12T00:16:52Z</time>
      </trkpt>
      <trkpt lat="46.69197" lon="-1.93299">
        <ele>3</ele>
        <time>2018-01-12T00:17:52Z</time>
      </trkpt>
      <trkpt lat="46.69182" lon="-1.93301">
        <ele>3</ele>
        <time>2018-01-12T00:18:52Z</time>
      </trkpt>
      <trkpt lat="46.69182" lon="-1.93301">
        <ele>3</ele>
        <time>2018-01-12T00:19:52Z</time>
      </trkpt>
      <trkpt lat="46.6918" lon="-1.93305">
        <ele>3</ele>
        <time>2018-01-12T00:20:52Z</time>
      </trkpt>
      <trkpt lat="46.69177" lon="-1.93307">
        <ele>3</ele>
        <time>2018-01-12T00:21:52Z</time>
      </trkpt>
      <trkpt lat="46.69173" lon="-1.93307">
        <ele>3</ele>
        <time>2018-01-12T00:22:52Z</time>
      </trkpt>
      <trkpt lat="46.69169" lon="-1.93306">
        <ele>3</ele>
        <time>2018-01-12T00:23:52Z</time>
      </trkpt>
      <trkpt lat="46.69167" lon="-1.93304">
        <ele>3</ele>
        <time>2018-01-12T00:24:52Z</time>
      </trkpt>
      <trkpt lat="46.69165" lon="-1.93301">
        <ele>3</ele>
        <time>2018-01-12T00:25:52Z</time>
      </trkpt>
      <trkpt lat="46.69164" lon="-1.93298">
        <ele>3</ele>
        <time>2018-01-12T00:26:52Z</time>
      </trkpt>
      <trkpt lat="46.69163" lon="-1.93296">
        <ele>3</ele>
        <time>2018-01-12T00:27:52Z</time>
      </trkpt>
      <trkpt lat="46.69163" lon="-1.93293">
        <ele>2</ele>
        <time>2018-01-12T00:28:52Z</time>
      </trkpt>
      <trkpt lat="46.69163" lon="-1.93289">
        <ele>2</ele>
        <time>2018-01-12T00:29:52Z</time>
      </trkpt>
      <trkpt lat="46.69165" lon="-1.93285">
        <ele>2</ele>
        <time>2018-01-12T00:30:52Z</time>
      </trkpt>
      <trkpt lat="46.69169" lon="-1.9328">
        <ele>2</ele>
        <time>2018-01-12T00:31:52Z</time>
      </trkpt>
      <trkpt lat="46.69166" lon="-1.93273">
        <ele>2</ele>
        <time>2018-01-12T00:32:52Z</time>
      </trkpt>
      <trkpt lat="46.69166" lon="-1.93263">
        <ele>2</ele>
        <time>2018-01-12T00:33:52Z</time>
      </trkpt>
      <trkpt lat="46.69167" lon="-1.93252">
        <ele>2</ele>
        <time>2018-01-12T00:34:52Z</time>
      </trkpt>
      <trkpt lat="46.69169" lon="-1.93244">
        <ele>2</ele>
        <time>2018-01-12T00:35:52Z</time>
      </trkpt>
      <trkpt lat="46.69177" lon="-1.93193">
        <ele>4</ele>
        <time>2018-01-12T00:36:52Z</time>
      </trkpt>
      <trkpt lat="46.69179" lon="-1.9318">
        <ele>4</ele>
        <time>2018-01-12T00:37:52Z</time>
      </trkpt>
      <trkpt lat="46.69182" lon="-1.93159">
        <ele>4</ele>
        <time>2018-01-12T00:38:52Z</time>
      </trkpt>
      <trkpt lat="46.69183" lon="-1.9315">
        <ele>4</ele>
        <time>2018-01-12T00:39:52Z</time>
      </trkpt>
      <trkpt lat="46.69186" lon="-1.93138">
        <ele>4</ele>
        <time>2018-01-12T00:40:52Z</time>
      </trkpt>
      <trkpt lat="46.69187" lon="-1.93134">
        <ele>4</ele>
        <time>2018-01-12T00:41:52Z</time>
      </trkpt>
      <trkpt lat="46.6919" lon="-1.93125">
        <ele>4</ele>
        <time>2018-01-12T00:42:52Z</time>
      </trkpt>
      <trkpt lat="46.69194" lon="-1.93117">
        <ele>4</ele>
        <time>2018-01-12T00:43:52Z</time>
      </trkpt>
      <trkpt lat="46.69201" lon="-1.93103">
        <ele>4</ele>
        <time>2018-01-12T00:44:52Z</time>
      </trkpt>
      <trkpt lat="46.6921" lon="-1.93085">
        <ele>5</ele>
        <time>2018-01-12T00:45:52Z</time>
      </trkpt>
      <trkpt lat="46.69219" lon="-1.93065">
        <ele>5</ele>
        <time>2018-01-12T00:46:52Z</time>
      </trkpt>
      <trkpt lat="46.69224" lon="-1.93053">
        <ele>5</ele>
        <time>2018-01-12T00:47:52Z</time>
      </trkpt>
      <trkpt lat="46.69224" lon="-1.93053">
        <ele>5</ele>
        <time>2018-01-12T00:48:52Z</time>
      </trkpt>
      <trkpt lat="46.69217" lon="-1.93046">
        <ele>5</ele>
        <time>2018-01-12T00:49:52Z</time>
      </trkpt>
      <trkpt lat="46.69194" lon="-1.93026">
        <ele>5</ele>
        <time>2018-01-12T00:50:52Z</time>
      </trkpt>
      <trkpt lat="46.69175" lon="-1.93009">
        <ele>4</ele>
        <time>2018-01-12T00:51:52Z</time>
      </trkpt>
      <trkpt lat="46.6917" lon="-1.93005">
        <ele>4</ele>
        <time>2018-01-12T00:52:52Z</time>
      </trkpt>
      <trkpt lat="46.69154" lon="-1.92991">
        <ele>4</ele>
        <time>2018-01-12T00:53:52Z</time>
      </trkpt>
      <trkpt lat="46.69133" lon="-1.92971">
        <ele>4</ele>
        <time>2018-01-12T00:54:52Z</time>
      </trkpt>
      <trkpt lat="46.69107" lon="-1.92948">
        <ele>4</ele>
        <time>2018-01-12T00:55:52Z</time>
      </trkpt>
      <trkpt lat="46.69095" lon="-1.92938">
        <ele>4</ele>
        <time>2018-01-12T00:56:52Z</time>
      </trkpt>
      <trkpt lat="46.69068" lon="-1.92907">
        <ele>4</ele>
        <time>2018-01-12T00:57:52Z</time>
      </trkpt>
      <trkpt lat="46.69055" lon="-1.9289">
        <ele>4</ele>
        <time>2018-01-12T00:58:52Z</time>
      </trkpt>
      <trkpt lat="46.69038" lon="-1.92867">
        <ele>4</ele>
        <time>2018-01-12T00:59:52Z</time>
      </trkpt>
      <trkpt lat="46.69014" lon="-1.92836">
        <ele>4</ele>
        <time>2018-01-12T01:00:52Z</time>
      </trkpt>
      <trkpt lat="46.68993" lon="-1.92806">
        <ele>4</ele>
        <time>2018-01-12T01:01:52Z</time>
      </trkpt>
      <trkpt lat="46.68992" lon="-1.92805">
        <ele>4</ele>
        <time>2018-01-12T01:02:52Z</time>
      </trkpt>
      <trkpt lat="46.68977" lon="-1.92784">
        <ele>4</ele>
        <time>2018-01-12T01:03:52Z</time>
      </trkpt>
      <trkpt lat="46.68969" lon="-1.92774">
        <ele>4</ele>
        <time>2018-01-12T01:04:52Z</time>
      </trkpt>
      <trkpt lat="46.68965" lon="-1.92769">
        <ele>4</ele>
        <time>2018-01-12T01:05:52Z</time>
      </trkpt>
      <trkpt lat="46.68955" lon="-1.92755">
        <ele>4</ele>
        <time>2018-01-12T01:06:52Z</time>
      </trkpt>
      <trkpt lat="46.68947" lon="-1.92747">
        <ele>4</ele>
        <time>2018-01-12T01:07:52Z</time>
      </trkpt>
      <trkpt lat="46.68936" lon="-1.92737">
        <ele>4</ele>
        <time>2018-01-12T01:08:52Z</time>
      </trkpt>
      <trkpt lat="46.68926" lon="-1.9273">
        <ele>4</ele>
        <time>2018-01-12T01:09:52Z</time>
      </trkpt>
      <trkpt lat="46.68913" lon="-1.92723">
        <ele>4</ele>
        <time>2018-01-12T01:10:52Z</time>
      </trkpt>
      <trkpt lat="46.68897" lon="-1.92716">
        <ele>4</ele>
        <time>2018-01-12T01:11:52Z</time>
      </trkpt>
      <trkpt lat="46.68881" lon="-1.92711">
        <ele>5</ele>
        <time>2018-01-12T01:12:52Z</time>
      </trkpt>
      <trkpt lat="46.68869" lon="-1.92706">
        <ele>5</ele>
        <time>2018-01-12T01:13:52Z</time>
      </trkpt>
      <trkpt lat="46.6886" lon="-1.92704">
        <ele>6</ele>
        <time>2018-01-12T01:14:52Z</time>
      </trkpt>
      <trkpt lat="46.68859" lon="-1.92704">
        <ele>6</ele>
        <time>2018-01-12T01:15:52Z</time>
      </trkpt>
      <trkpt lat="46.68851" lon="-1.92698">
        <ele>6</ele>
        <time>2018-01-12T01:16:52Z</time>
      </trkpt>
      <trkpt lat="46.68851" lon="-1.92698">
        <ele>6</ele>
        <time>2018-01-12T01:17:52Z</time>
      </trkpt>
      <trkpt lat="46.68851" lon="-1.92699">
        <ele>6</ele>
        <time>2018-01-12T01:18:52Z</time>
      </trkpt>
      <trkpt lat="46.6885" lon="-1.92699">
        <ele>6</ele>
        <time>2018-01-12T01:19:52Z</time>
      </trkpt>
      <trkpt lat="46.68849" lon="-1.927">
        <ele>6</ele>
        <time>2018-01-12T01:20:52Z</time>
      </trkpt>
      <trkpt lat="46.68848" lon="-1.927">
        <ele>6</ele>
        <time>2018-01-12T01:21:52Z</time>
      </trkpt>
      <trkpt lat="46.68848" lon="-1.92701">
        <ele>6</ele>
        <time>2018-01-12T01:22:52Z</time>
      </trkpt>
      <trkpt lat="46.68847" lon="-1.92701">
        <ele>6</ele>
        <time>2018-01-12T01:23:52Z</time>
      </trkpt>
      <trkpt lat="46.68846" lon="-1.92701">
        <ele>6</ele>
        <time>2018-01-12T01:24:52Z</time>
      </trkpt>
      <trkpt lat="46.68845" lon="-1.92701">
        <ele>6</ele>
        <time>2018-01-12T01:25:52Z</time>
      </trkpt>
      <trkpt lat="46.68844" lon="-1.92701">
        <ele>7</ele>
        <time>2018-01-12T01:26:52Z</time>
      </trkpt>
      <trkpt lat="46.68844" lon="-1.927">
        <ele>7</ele>
        <time>2018-01-12T01:27:52Z</time>
      </trkpt>
      <trkpt lat="46.68843" lon="-1.927">
        <ele>7</ele>
        <time>2018-01-12T01:28:52Z</time>
      </trkpt>
      <trkpt lat="46.68842" lon="-1.92699">
        <ele>7</ele>
        <time>2018-01-12T01:29:52Z</time>
      </trkpt>
      <trkpt lat="46.68837" lon="-1.927">
        <ele>7</ele>
        <time>2018-01-12T01:30:52Z</time>
      </trkpt>
      <trkpt lat="46.68833" lon="-1.92701">
        <ele>7</ele>
        <time>2018-01-12T01:31:52Z</time>
      </trkpt>
      <trkpt lat="46.68828" lon="-1.927">
        <ele>7</ele>
        <time>2018-01-12T01:32:52Z</time>
      </trkpt>
      <trkpt lat="46.68827" lon="-1.927">
        <ele>7</ele>
        <time>2018-01-12T01:33:52Z</time>
      </trkpt>
      <trkpt lat="46.68827" lon="-1.92701">
        <ele>7</ele>
        <time>2018-01-12T01:34:52Z</time>
      </trkpt>
      <trkpt lat="46.68826" lon="-1.92701">
        <ele>7</ele>
        <time>2018-01-12T01:35:52Z</time>
      </trkpt>
      <trkpt lat="46.68826" lon="-1.92702">
        <ele>7</ele>
        <time>2018-01-12T01:36:52Z</time>
      </trkpt>
      <trkpt lat="46.68825" lon="-1.92702">
        <ele>7</ele>
        <time>2018-01-12T01:37:52Z</time>
      </trkpt>
      <trkpt lat="46.68825" lon="-1.92703">
        <ele>7</ele>
        <time>2018-01-12T01:38:52Z</time>
      </trkpt>
      <trkpt lat="46.68824" lon="-1.92703">
        <ele>7</ele>
        <time>2018-01-12T01:39:52Z</time>
      </trkpt>
      <trkpt lat="46.68823" lon="-1.92703">
        <ele>7</ele>
        <time>2018-01-12T01:40:52Z</time>
      </trkpt>
      <trkpt lat="46.68822" lon="-1.92703">
        <ele>7</ele>
        <time>2018-01-12T01:41:52Z</time>
      </trkpt>
      <trkpt lat="46.68821" lon="-1.92703">
        <ele>7</ele>
        <time>2018-01-12T01:42:52Z</time>
      </trkpt>
      <trkpt lat="46.68821" lon="-1.92702">
        <ele>7</ele>
        <time>2018-01-12T01:43:52Z</time>
      </trkpt>
      <trkpt lat="46.6882" lon="-1.92702">
        <ele>7</ele>
        <time>2018-01-12T01:44:52Z</time>
      </trkpt>
      <trkpt lat="46.6882" lon="-1.92701">
        <ele>7</ele>
        <time>2018-01-12T01:45:52Z</time>
      </trkpt>
      <trkpt lat="46.68819" lon="-1.92701">
        <ele>7</ele>
        <time>2018-01-12T01:46:52Z</time>
      </trkpt>
      <trkpt lat="46.68819" lon="-1.927">
        <ele>7</ele>
        <time>2018-01-12T01:47:52Z</time>
      </trkpt>
      <trkpt lat="46.68818" lon="-1.927">
        <ele>7</ele>
        <time>2018-01-12T01:48:52Z</time>
      </trkpt>
      <trkpt lat="46.68818" lon="-1.92699">
        <ele>7</ele>
        <time>2018-01-12T01:49:52Z</time>
      </trkpt>
      <trkpt lat="46.68818" lon="-1.92698">
        <ele>7</ele>
        <time>2018-01-12T01:50:52Z</time>
      </trkpt>
      <trkpt lat="46.68817" lon="-1.92698">
        <ele>7</ele>
        <time>2018-01-12T01:51:52Z</time>
      </trkpt>
      <trkpt lat="46.68817" lon="-1.92697">
        <ele>7</ele>
        <time>2018-01-12T01:52:52Z</time>
      </trkpt>
      <trkpt lat="46.68817" lon="-1.92696">
        <ele>7</ele>
        <time>2018-01-12T01:53:52Z</time>
      </trkpt>
      <trkpt lat="46.68817" lon="-1.92695">
        <ele>7</ele>
        <time>2018-01-12T01:54:52Z</time>
      </trkpt>
      <trkpt lat="46.68817" lon="-1.92694">
        <ele>7</ele>
        <time>2018-01-12T01:55:52Z</time>
      </trkpt>
      <trkpt lat="46.68817" lon="-1.92693">
        <ele>7</ele>
        <time>2018-01-12T01:56:52Z</time>
      </trkpt>
      <trkpt lat="46.68817" lon="-1.92692">
        <ele>7</ele>
        <time>2018-01-12T01:57:52Z</time>
      </trkpt>
      <trkpt lat="46.68817" lon="-1.92691">
        <ele>7</ele>
        <time>2018-01-12T01:58:52Z</time>
      </trkpt>
      <trkpt lat="46.68817" lon="-1.9269">
        <ele>7</ele>
        <time>2018-01-12T01:59:52Z</time>
      </trkpt>
      <trkpt lat="46.68804" lon="-1.92685">
        <ele>7</ele>
        <time>2018-01-12T02:00:52Z</time>
      </trkpt>
      <trkpt lat="46.68787" lon="-1.9268">
        <ele>8</ele>
        <time>2018-01-12T02:01:52Z</time>
      </trkpt>
      <trkpt lat="46.68776" lon="-1.92676">
        <ele>8</ele>
        <time>2018-01-12T02:02:52Z</time>
      </trkpt>
      <trkpt lat="46.6876" lon="-1.92669">
        <ele>8</ele>
        <time>2018-01-12T02:03:52Z</time>
      </trkpt>
      <trkpt lat="46.68759" lon="-1.92668">
        <ele>8</ele>
        <time>2018-01-12T02:04:52Z</time>
      </trkpt>
      <trkpt lat="46.68733" lon="-1.92654">
        <ele>8</ele>
        <time>2018-01-12T02:05:52Z</time>
      </trkpt>
      <trkpt lat="46.68732" lon="-1.92654">
        <ele>8</ele>
        <time>2018-01-12T02:06:52Z</time>
      </trkpt>
      <trkpt lat="46.68707" lon="-1.92638">
        <ele>9</ele>
        <time>2018-01-12T02:07:52Z</time>
      </trkpt>
      <trkpt lat="46.68669" lon="-1.92615">
        <ele>10</ele>
        <time>2018-01-12T02:08:52Z</time>
      </trkpt>
      <trkpt lat="46.68651" lon="-1.92602">
        <ele>10</ele>
        <time>2018-01-12T02:09:52Z</time>
      </trkpt>
      <trkpt lat="46.68644" lon="-1.92596">
        <ele>10</ele>
        <time>2018-01-12T02:10:52Z</time>
      </trkpt>
      <trkpt lat="46.68635" lon="-1.92588">
        <ele>10</ele>
        <time>2018-01-12T02:11:52Z</time>
      </trkpt>
      <trkpt lat="46.68634" lon="-1.92586">
        <ele>10</ele>
        <time>2018-01-12T02:12:52Z</time>
      </trkpt>
      <trkpt lat="46.68629" lon="-1.9258">
        <ele>10</ele>
        <time>2018-01-12T02:13:52Z</time>
      </trkpt>
      <trkpt lat="46.68625" lon="-1.92575">
        <ele>10</ele>
        <time>2018-01-12T02:14:52Z</time>
      </trkpt>
      <trkpt lat="46.68616" lon="-1.92563">
        <ele>10</ele>
        <time>2018-01-12T02:15:52Z</time>
      </trkpt>
      <trkpt lat="46.68605" lon="-1.92548">
        <ele>10</ele>
        <time>2018-01-12T02:16:52Z</time>
      </trkpt>
      <trkpt lat="46.68594" lon="-1.92534">
        <ele>10</ele>
        <time>2018-01-12T02:17:52Z</time>
      </trkpt>
      <trkpt lat="46.68589" lon="-1.92528">
        <ele>10</ele>
        <time>2018-01-12T02:18:52Z</time>
      </trkpt>
      <trkpt lat="46.68567" lon="-1.925">
        <ele>10</ele>
        <time>2018-01-12T02:19:52Z</time>
      </trkpt>
      <trkpt lat="46.68549" lon="-1.92476">
        <ele>10</ele>
        <time>2018-01-12T02:20:52Z</time>
      </trkpt>
      <trkpt lat="46.68538" lon="-1.92464">
        <ele>10</ele>
        <time>2018-01-12T02:21:52Z</time>
      </trkpt>
      <trkpt lat="46.68532" lon="-1.92456">
        <ele>10</ele>
        <time>2018-01-12T02:22:52Z</time>
      </trkpt>
      <trkpt lat="46.68528" lon="-1.9245">
        <ele>10</ele>
        <time>2018-01-12T02:23:52Z</time>
      </trkpt>
      <trkpt lat="46.68514" lon="-1.92436">
        <ele>10</ele>
        <time>2018-01-12T02:24:52Z</time>
      </trkpt>
      <trkpt lat="46.68505" lon="-1.92428">
        <ele>10</ele>
        <time>2018-01-12T02:25:52Z</time>
      </trkpt>
      <trkpt lat="46.68495" lon="-1.9242">
        <ele>10</ele>
        <time>2018-01-12T02:26:52Z</time>
      </trkpt>
      <trkpt lat="46.68487" lon="-1.92415">
        <ele>10</ele>
        <time>2018-01-12T02:27:52Z</time>
      </trkpt>
      <trkpt lat="46.68481" lon="-1.92411">
        <ele>10</ele>
        <time>2018-01-12T02:28:52Z</time>
      </trkpt>
      <trkpt lat="46.68472" lon="-1.92408">
        <ele>10</ele>
        <time>2018-01-12T02:29:52Z</time>
      </trkpt>
      <trkpt lat="46.68463" lon="-1.92406">
        <ele>10</ele>
        <time>2018-01-12T02:30:52Z</time>
      </trkpt>
      <trkpt lat="46.68454" lon="-1.92404">
        <ele>10</ele>
        <time>2018-01-12T02:31:52Z</time>
      </trkpt>
      <trkpt lat="46.68447" lon="-1.92403">
        <ele>10</ele>
        <time>2018-01-12T02:32:52Z</time>
      </trkpt>
      <trkpt lat="46.68435" lon="-1.924">
        <ele>10</ele>
        <time>2018-01-12T02:33:52Z</time>
      </trkpt>
      <trkpt lat="46.68426" lon="-1.92396">
        <ele>10</ele>
        <time>2018-01-12T02:34:52Z</time>
      </trkpt>
      <trkpt lat="46.68413" lon="-1.92388">
        <ele>10</ele>
        <time>2018-01-12T02:35:52Z</time>
      </trkpt>
      <trkpt lat="46.68403" lon="-1.9238">
        <ele>10</ele>
        <time>2018-01-12T02:36:52Z</time>
      </trkpt>
      <trkpt lat="46.68389" lon="-1.92363">
        <ele>10</ele>
        <time>2018-01-12T02:37:52Z</time>
      </trkpt>
      <trkpt lat="46.6838" lon="-1.92351">
        <ele>10</ele>
        <time>2018-01-12T02:38:52Z</time>
      </trkpt>
      <trkpt lat="46.68377" lon="-1.92346">
        <ele>10</ele>
        <time>2018-01-12T02:39:52Z</time>
      </trkpt>
      <trkpt lat="46.6837" lon="-1.92334">
        <ele>10</ele>
        <time>2018-01-12T02:40:52Z</time>
      </trkpt>
      <trkpt lat="46.68355" lon="-1.92305">
        <ele>10</ele>
        <time>2018-01-12T02:41:52Z</time>
      </trkpt>
      <trkpt lat="46.6833" lon="-1.92261">
        <ele>9</ele>
        <time>2018-01-12T02:42:52Z</time>
      </trkpt>
      <trkpt lat="46.6832" lon="-1.92245">
        <ele>9</ele>
        <time>2018-01-12T02:43:52Z</time>
      </trkpt>
      <trkpt lat="46.68306" lon="-1.92219">
        <ele>9</ele>
        <time>2018-01-12T02:44:52Z</time>
      </trkpt>
      <trkpt lat="46.68291" lon="-1.92193">
        <ele>8</ele>
        <time>2018-01-12T02:45:52Z</time>
      </trkpt>
      <trkpt lat="46.68286" lon="-1.92186">
        <ele>8</ele>
        <time>2018-01-12T02:46:52Z</time>
      </trkpt>
      <trkpt lat="46.68277" lon="-1.92172">
        <ele>8</ele>
        <time>2018-01-12T02:47:52Z</time>
      </trkpt>
      <trkpt lat="46.68267" lon="-1.92157">
        <ele>7</ele>
        <time>2018-01-12T02:48:52Z</time>
      </trkpt>
      <trkpt lat="46.68255" lon="-1.9214">
        <ele>7</ele>
        <time>2018-01-12T02:49:52Z</time>
      </trkpt>
      <trkpt lat="46.6823" lon="-1.92107">
        <ele>7</ele>
        <time>2018-01-12T02:50:52Z</time>
      </trkpt>
      <trkpt lat="46.68227" lon="-1.92103">
        <ele>7</ele>
        <time>2018-01-12T02:51:52Z</time>
      </trkpt>
      <trkpt lat="46.68224" lon="-1.92098">
        <ele>7</ele>
        <time>2018-01-12T02:52:52Z</time>
      </trkpt>
      <trkpt lat="46.68224" lon="-1.92097">
        <ele>7</ele>
        <time>2018-01-12T02:53:52Z</time>
      </trkpt>
      <trkpt lat="46.6822" lon="-1.92091">
        <ele>7</ele>
        <time>2018-01-12T02:54:52Z</time>
      </trkpt>
      <trkpt lat="46.68208" lon="-1.92073">
        <ele>7</ele>
        <time>2018-01-12T02:55:52Z</time>
      </trkpt>
      <trkpt lat="46.68198" lon="-1.92057">
        <ele>7</ele>
        <time>2018-01-12T02:56:52Z</time>
      </trkpt>
      <trkpt lat="46.68174" lon="-1.92025">
        <ele>8</ele>
        <time>2018-01-12T02:57:52Z</time>
      </trkpt>
      <trkpt lat="46.68158" lon="-1.92003">
        <ele>8</ele>
        <time>2018-01-12T02:58:52Z</time>
      </trkpt>
      <trkpt lat="46.68115" lon="-1.91941">
        <ele>8</ele>
        <time>2018-01-12T02:59:52Z</time>
      </trkpt>
      <trkpt lat="46.68083" lon="-1.91897">
        <ele>8</ele>
        <time>2018-01-12T03:00:52Z</time>
      </trkpt>
      <trkpt lat="46.68057" lon="-1.91858">
        <ele>8</ele>
        <time>2018-01-12T03:01:52Z</time>
      </trkpt>
      <trkpt lat="46.68041" lon="-1.91836">
        <ele>8</ele>
        <time>2018-01-12T03:02:52Z</time>
      </trkpt>
      <trkpt lat="46.68033" lon="-1.91825">
        <ele>8</ele>
        <time>2018-01-12T03:03:52Z</time>
      </trkpt>
      <trkpt lat="46.68022" lon="-1.91808">
        <ele>8</ele>
        <time>2018-01-12T03:04:52Z</time>
      </trkpt>
      <trkpt lat="46.68" lon="-1.91776">
        <ele>8</ele>
        <time>2018-01-12T03:05:52Z</time>
      </trkpt>
      <trkpt lat="46.67972" lon="-1.91737">
        <ele>7</ele>
        <time>2018-01-12T03:06:52Z</time>
      </trkpt>
      <trkpt lat="46.67947" lon="-1.91703">
        <ele>7</ele>
        <time>2018-01-12T03:07:52Z</time>
      </trkpt>
      <trkpt lat="46.67928" lon="-1.91675">
        <ele>7</ele>
        <time>2018-01-12T03:08:52Z</time>
      </trkpt>
      <trkpt lat="46.67898" lon="-1.91633">
        <ele>7</ele>
        <time>2018-01-12T03:09:52Z</time>
      </trkpt>
      <trkpt lat="46.67883" lon="-1.91611">
        <ele>6</ele>
        <time>2018-01-12T03:10:52Z</time>
      </trkpt>
      <trkpt lat="46.67864" lon="-1.91583">
        <ele>6</ele>
        <time>2018-01-12T03:11:52Z</time>
      </trkpt>
      <trkpt lat="46.6784" lon="-1.91552">
        <ele>6</ele>
        <time>2018-01-12T03:12:52Z</time>
      </trkpt>
      <trkpt lat="46.67831" lon="-1.91538">
        <ele>6</ele>
        <time>2018-01-12T03:13:52Z</time>
      </trkpt>
      <trkpt lat="46.67783" lon="-1.91471">
        <ele>6</ele>
        <time>2018-01-12T03:14:52Z</time>
      </trkpt>
      <trkpt lat="46.67747" lon="-1.9142">
        <ele>6</ele>
        <time>2018-01-12T03:15:52Z</time>
      </trkpt>
      <trkpt lat="46.67743" lon="-1.91414">
        <ele>6</ele>
        <time>2018-01-12T03:16:52Z</time>
      </trkpt>
      <trkpt lat="46.67704" lon="-1.91358">
        <ele>5</ele>
        <time>2018-01-12T03:17:52Z</time>
      </trkpt>
      <trkpt lat="46.67662" lon="-1.91298">
        <ele>5</ele>
        <time>2018-01-12T03:18:52Z</time>
      </trkpt>
      <trkpt lat="46.67634" lon="-1.91261">
        <ele>5</ele>
        <time>2018-01-12T03:19:52Z</time>
      </trkpt>
      <trkpt lat="46.67612" lon="-1.91228">
        <ele>5</ele>
        <time>2018-01-12T03:20:52Z</time>
      </trkpt>
      <trkpt lat="46.67587" lon="-1.91194">
        <ele>6</ele>
        <time>2018-01-12T03:21:52Z</time>
      </trkpt>
      <trkpt lat="46.67578" lon="-1.91181">
        <ele>6</ele>
        <time>2018-01-12T03:22:52Z</time>
      </trkpt>
      <trkpt lat="46.67546" lon="-1.91137">
        <ele>5</ele>
        <time>2018-01-12T03:23:52Z</time>
      </trkpt>
      <trkpt lat="46.67518" lon="-1.91097">
        <ele>5</ele>
        <time>2018-01-12T03:24:52Z</time>
      </trkpt>
      <trkpt lat="46.6749" lon="-1.9106">
        <ele>5</ele>
        <time>2018-01-12T03:25:52Z</time>
      </trkpt>
      <trkpt lat="46.67469" lon="-1.9103">
        <ele>4</ele>
        <time>2018-01-12T03:26:52Z</time>
      </trkpt>
      <trkpt lat="46.67456" lon="-1.9101">
        <ele>4</ele>
        <time>2018-01-12T03:27:52Z</time>
      </trkpt>
      <trkpt lat="46.67452" lon="-1.91005">
        <ele>4</ele>
        <time>2018-01-12T03:28:52Z</time>
      </trkpt>
      <trkpt lat="46.67446" lon="-1.90996">
        <ele>4</ele>
        <time>2018-01-12T03:29:52Z</time>
      </trkpt>
      <trkpt lat="46.6744" lon="-1.90984">
        <ele>4</ele>
        <time>2018-01-12T03:30:52Z</time>
      </trkpt>
      <trkpt lat="46.67435" lon="-1.90971">
        <ele>3</ele>
        <time>2018-01-12T03:31:52Z</time>
      </trkpt>
      <trkpt lat="46.67435" lon="-1.90971">
        <ele>3</ele>
        <time>2018-01-12T03:32:52Z</time>
      </trkpt>
      <trkpt lat="46.67432" lon="-1.90969">
        <ele>3</ele>
        <time>2018-01-12T03:33:52Z</time>
      </trkpt>
      <trkpt lat="46.6743" lon="-1.90968">
        <ele>3</ele>
        <time>2018-01-12T03:34:52Z</time>
      </trkpt>
      <trkpt lat="46.67429" lon="-1.90967">
        <ele>3</ele>
        <time>2018-01-12T03:35:52Z</time>
      </trkpt>
      <trkpt lat="46.67427" lon="-1.90965">
        <ele>3</ele>
        <time>2018-01-12T03:36:52Z</time>
      </trkpt>
      <trkpt lat="46.67426" lon="-1.90964">
        <ele>3</ele>
        <time>2018-01-12T03:37:52Z</time>
      </trkpt>
      <trkpt lat="46.67424" lon="-1.90962">
        <ele>3</ele>
        <time>2018-01-12T03:38:52Z</time>
      </trkpt>
      <trkpt lat="46.67423" lon="-1.9096">
        <ele>3</ele>
        <time>2018-01-12T03:39:52Z</time>
      </trkpt>
      <trkpt lat="46.67422" lon="-1.90958">
        <ele>3</ele>
        <time>2018-01-12T03:40:52Z</time>
      </trkpt>
      <trkpt lat="46.67421" lon="-1.90956">
        <ele>3</ele>
        <time>2018-01-12T03:41:52Z</time>
      </trkpt>
      <trkpt lat="46.6742" lon="-1.90953">
        <ele>3</ele>
        <time>2018-01-12T03:42:52Z</time>
      </trkpt>
      <trkpt lat="46.6742" lon="-1.90951">
        <ele>3</ele>
        <time>2018-01-12T03:43:52Z</time>
      </trkpt>
      <trkpt lat="46.6742" lon="-1.9095">
        <ele>3</ele>
        <time>2018-01-12T03:44:52Z</time>
      </trkpt>
      <trkpt lat="46.67419" lon="-1.9095">
        <ele>3</ele>
        <time>2018-01-12T03:45:52Z</time>
      </trkpt>
      <trkpt lat="46.67419" lon="-1.90949">
        <ele>3</ele>
        <time>2018-01-12T03:46:52Z</time>
      </trkpt>
      <trkpt lat="46.67419" lon="-1.90948">
        <ele>3</ele>
        <time>2018-01-12T03:47:52Z</time>
      </trkpt>
      <trkpt lat="46.67419" lon="-1.90947">
        <ele>3</ele>
        <time>2018-01-12T03:48:52Z</time>
      </trkpt>
      <trkpt lat="46.67419" lon="-1.90946">
        <ele>3</ele>
        <time>2018-01-12T03:49:52Z</time>
      </trkpt>
      <trkpt lat="46.67414" lon="-1.90938">
        <ele>3</ele>
        <time>2018-01-12T03:50:52Z</time>
      </trkpt>
      <trkpt lat="46.67409" lon="-1.90932">
        <ele>3</ele>
        <time>2018-01-12T03:51:52Z</time>
      </trkpt>
      <trkpt lat="46.67407" lon="-1.90929">
        <ele>3</ele>
        <time>2018-01-12T03:52:52Z</time>
      </trkpt>
      <trkpt lat="46.67405" lon="-1.90925">
        <ele>3</ele>
        <time>2018-01-12T03:53:52Z</time>
      </trkpt>
      <trkpt lat="46.67398" lon="-1.90917">
        <ele>3</ele>
        <time>2018-01-12T03:54:52Z</time>
      </trkpt>
      <trkpt lat="46.67384" lon="-1.90901">
        <ele>3</ele>
        <time>2018-01-12T03:55:52Z</time>
      </trkpt>
      <trkpt lat="46.67344" lon="-1.90854">
        <ele>2</ele>
        <time>2018-01-12T03:56:52Z</time>
      </trkpt>
      <trkpt lat="46.67339" lon="-1.90844">
        <ele>2</ele>
        <time>2018-01-12T03:57:52Z</time>
      </trkpt>
      <trkpt lat="46.67336" lon="-1.9084">
        <ele>2</ele>
        <time>2018-01-12T03:58:52Z</time>
      </trkpt>
      <trkpt lat="46.67333" lon="-1.90837">
        <ele>2</ele>
        <time>2018-01-12T03:59:52Z</time>
      </trkpt>
      <trkpt lat="46.6733" lon="-1.90833">
        <ele>2</ele>
        <time>2018-01-12T04:00:52Z</time>
      </trkpt>
      <trkpt lat="46.67327" lon="-1.90829">
        <ele>2</ele>
        <time>2018-01-12T04:01:52Z</time>
      </trkpt>
      <trkpt lat="46.67323" lon="-1.90824">
        <ele>2</ele>
        <time>2018-01-12T04:02:52Z</time>
      </trkpt>
      <trkpt lat="46.6732" lon="-1.90819">
        <ele>2</ele>
        <time>2018-01-12T04:03:52Z</time>
      </trkpt>
      <trkpt lat="46.67313" lon="-1.9081">
        <ele>2</ele>
        <time>2018-01-12T04:04:52Z</time>
      </trkpt>
      <trkpt lat="46.67301" lon="-1.90794">
        <ele>2</ele>
        <time>2018-01-12T04:05:52Z</time>
      </trkpt>
      <trkpt lat="46.67282" lon="-1.90767">
        <ele>3</ele>
        <time>2018-01-12T04:06:52Z</time>
      </trkpt>
      <trkpt lat="46.67255" lon="-1.90729">
        <ele>3</ele>
        <time>2018-01-12T04:07:52Z</time>
      </trkpt>
      <trkpt lat="46.67226" lon="-1.90688">
        <ele>4</ele>
        <time>2018-01-12T04:08:52Z</time>
      </trkpt>
      <trkpt lat="46.67205" lon="-1.90658">
        <ele>4</ele>
        <time>2018-01-12T04:09:52Z</time>
      </trkpt>
      <trkpt lat="46.67166" lon="-1.90604">
        <ele>5</ele>
        <time>2018-01-12T04:10:52Z</time>
      </trkpt>
      <trkpt lat="46.67105" lon="-1.90518">
        <ele>5</ele>
        <time>2018-01-12T04:11:52Z</time>
      </trkpt>
      <trkpt lat="46.67097" lon="-1.90511">
        <ele>5</ele>
        <time>2018-01-12T04:12:52Z</time>
      </trkpt>
      <trkpt lat="46.67055" lon="-1.90456">
        <ele>5</ele>
        <time>2018-01-12T04:13:52Z</time>
      </trkpt>
      <trkpt lat="46.67046" lon="-1.90444">
        <ele>5</ele>
        <time>2018-01-12T04:14:52Z</time>
      </trkpt>
      <trkpt lat="46.67037" lon="-1.9043">
        <ele>5</ele>
        <time>2018-01-12T04:15:52Z</time>
      </trkpt>
      <trkpt lat="46.67034" lon="-1.90427">
        <ele>5</ele>
        <time>2018-01-12T04:16:52Z</time>
      </trkpt>
      <trkpt lat="46.67019" lon="-1.90408">
        <ele>5</ele>
        <time>2018-01-12T04:17:52Z</time>
      </trkpt>
      <trkpt lat="46.67018" lon="-1.90407">
        <ele>5</ele>
        <time>2018-01-12T04:18:52Z</time>
      </trkpt>
      <trkpt lat="46.67017" lon="-1.90406">
        <ele>5</ele>
        <time>2018-01-12T04:19:52Z</time>
      </trkpt>
      <trkpt lat="46.67016" lon="-1.90404">
        <ele>5</ele>
        <time>2018-01-12T04:20:52Z</time>
      </trkpt>
      <trkpt lat="46.67014" lon="-1.90402">
        <ele>5</ele>
        <time>2018-01-12T04:21:52Z</time>
      </trkpt>
      <trkpt lat="46.67012" lon="-1.90399">
        <ele>5</ele>
        <time>2018-01-12T04:22:52Z</time>
      </trkpt>
      <trkpt lat="46.66999" lon="-1.9038">
        <ele>5</ele>
        <time>2018-01-12T04:23:52Z</time>
      </trkpt>
      <trkpt lat="46.66997" lon="-1.90377">
        <ele>5</ele>
        <time>2018-01-12T04:24:52Z</time>
      </trkpt>
      <trkpt lat="46.66995" lon="-1.90374">
        <ele>5</ele>
        <time>2018-01-12T04:25:52Z</time>
      </trkpt>
      <trkpt lat="46.66993" lon="-1.90372">
        <ele>5</ele>
        <time>2018-01-12T04:26:52Z</time>
      </trkpt>
      <trkpt lat="46.66982" lon="-1.90356">
        <ele>5</ele>
        <time>2018-01-12T04:27:52Z</time>
      </trkpt>
      <trkpt lat="46.66982" lon="-1.90356">
        <ele>5</ele>
        <time>2018-01-12T04:28:52Z</time>
      </trkpt>
      <trkpt lat="46.66981" lon="-1.90356">
        <ele>5</ele>
        <time>2018-01-12T04:29:52Z</time>
      </trkpt>
      <trkpt lat="46.66979" lon="-1.90355">
        <ele>5</ele>
        <time>2018-01-12T04:30:52Z</time>
      </trkpt>
      <trkpt lat="46.66978" lon="-1.90355">
        <ele>5</ele>
        <time>2018-01-12T04:31:52Z</time>
      </trkpt>
      <trkpt lat="46.66977" lon="-1.90354">
        <ele>5</ele>
        <time>2018-01-12T04:32:52Z</time>
      </trkpt>
      <trkpt lat="46.66976" lon="-1.90353">
        <ele>5</ele>
        <time>2018-01-12T04:33:52Z</time>
      </trkpt>
      <trkpt lat="46.66975" lon="-1.90352">
        <ele>5</ele>
        <time>2018-01-12T04:34:52Z</time>
      </trkpt>
      <trkpt lat="46.66974" lon="-1.90351">
        <ele>5</ele>
        <time>2018-01-12T04:35:52Z</time>
      </trkpt>
      <trkpt lat="46.66973" lon="-1.9035">
        <ele>5</ele>
        <time>2018-01-12T04:36:52Z</time>
      </trkpt>
      <trkpt lat="46.66972" lon="-1.90349">
        <ele>5</ele>
        <time>2018-01-12T04:37:52Z</time>
      </trkpt>
      <trkpt lat="46.66971" lon="-1.90348">
        <ele>5</ele>
        <time>2018-01-12T04:38:52Z</time>
      </trkpt>
      <trkpt lat="46.6697" lon="-1.90346">
        <ele>5</ele>
        <time>2018-01-12T04:39:52Z</time>
      </trkpt>
      <trkpt lat="46.66969" lon="-1.90345">
        <ele>5</ele>
        <time>2018-01-12T04:40:52Z</time>
      </trkpt>
      <trkpt lat="46.66969" lon="-1.90343">
        <ele>5</ele>
        <time>2018-01-12T04:41:52Z</time>
      </trkpt>
      <trkpt lat="46.66968" lon="-1.90341">
        <ele>5</ele>
        <time>2018-01-12T04:42:52Z</time>
      </trkpt>
      <trkpt lat="46.66968" lon="-1.9034">
        <ele>5</ele>
        <time>2018-01-12T04:43:52Z</time>
      </trkpt>
      <trkpt lat="46.66967" lon="-1.90338">
        <ele>5</ele>
        <time>2018-01-12T04:44:52Z</time>
      </trkpt>
      <trkpt lat="46.66967" lon="-1.90335">
        <ele>5</ele>
        <time>2018-01-12T04:45:52Z</time>
      </trkpt>
      <trkpt lat="46.66967" lon="-1.90331">
        <ele>5</ele>
        <time>2018-01-12T04:46:52Z</time>
      </trkpt>
      <trkpt lat="46.66967" lon="-1.9033">
        <ele>5</ele>
        <time>2018-01-12T04:47:52Z</time>
      </trkpt>
      <trkpt lat="46.66967" lon="-1.90328">
        <ele>5</ele>
        <time>2018-01-12T04:48:52Z</time>
      </trkpt>
      <trkpt lat="46.66967" lon="-1.90326">
        <ele>5</ele>
        <time>2018-01-12T04:49:52Z</time>
      </trkpt>
      <trkpt lat="46.66968" lon="-1.90324">
        <ele>5</ele>
        <time>2018-01-12T04:50:52Z</time>
      </trkpt>
      <trkpt lat="46.66968" lon="-1.90323">
        <ele>5</ele>
        <time>2018-01-12T04:51:52Z</time>
      </trkpt>
      <trkpt lat="46.66968" lon="-1.90321">
        <ele>5</ele>
        <time>2018-01-12T04:52:52Z</time>
      </trkpt>
      <trkpt lat="46.66969" lon="-1.90319">
        <ele>5</ele>
        <time>2018-01-12T04:53:52Z</time>
      </trkpt>
      <trkpt lat="46.6697" lon="-1.90318">
        <ele>5</ele>
        <time>2018-01-12T04:54:52Z</time>
      </trkpt>
      <trkpt lat="46.6697" lon="-1.90316">
        <ele>5</ele>
        <time>2018-01-12T04:55:52Z</time>
      </trkpt>
      <trkpt lat="46.66971" lon="-1.90315">
        <ele>5</ele>
        <time>2018-01-12T04:56:52Z</time>
      </trkpt>
      <trkpt lat="46.66972" lon="-1.90314">
        <ele>5</ele>
        <time>2018-01-12T04:57:52Z</time>
      </trkpt>
      <trkpt lat="46.66973" lon="-1.90313">
        <ele>5</ele>
        <time>2018-01-12T04:58:52Z</time>
      </trkpt>
      <trkpt lat="46.66974" lon="-1.90312">
        <ele>5</ele>
        <time>2018-01-12T04:59:52Z</time>
      </trkpt>
      <trkpt lat="46.66975" lon="-1.90311">
        <ele>6</ele>
        <time>2018-01-12T05:00:52Z</time>
      </trkpt>
      <trkpt lat="46.66976" lon="-1.9031">
        <ele>6</ele>
        <time>2018-01-12T05:01:52Z</time>
      </trkpt>
      <trkpt lat="46.66976" lon="-1.90309">
        <ele>6</ele>
        <time>2018-01-12T05:02:52Z</time>
      </trkpt>
      <trkpt lat="46.66977" lon="-1.90309">
        <ele>6</ele>
        <time>2018-01-12T05:03:52Z</time>
      </trkpt>
      <trkpt lat="46.66978" lon="-1.90309">
        <ele>6</ele>
        <time>2018-01-12T05:04:52Z</time>
      </trkpt>
      <trkpt lat="46.66978" lon="-1.90308">
        <ele>6</ele>
        <time>2018-01-12T05:05:52Z</time>
      </trkpt>
      <trkpt lat="46.66981" lon="-1.903">
        <ele>6</ele>
        <time>2018-01-12T05:06:52Z</time>
      </trkpt>
      <trkpt lat="46.66985" lon="-1.90285">
        <ele>6</ele>
        <time>2018-01-12T05:07:52Z</time>
      </trkpt>
      <trkpt lat="46.66988" lon="-1.90274">
        <ele>6</ele>
        <time>2018-01-12T05:08:52Z</time>
      </trkpt>
      <trkpt lat="46.6699" lon="-1.90259">
        <ele>7</ele>
        <time>2018-01-12T05:09:52Z</time>
      </trkpt>
      <trkpt lat="46.66985" lon="-1.90224">
        <ele>7</ele>
        <time>2018-01-12T05:10:52Z</time>
      </trkpt>
      <trkpt lat="46.66981" lon="-1.90197">
        <ele>8</ele>
        <time>2018-01-12T05:11:52Z</time>
      </trkpt>
      <trkpt lat="46.66977" lon="-1.90166">
        <ele>8</ele>
        <time>2018-01-12T05:12:52Z</time>
      </trkpt>
      <trkpt lat="46.66972" lon="-1.9013">
        <ele>9</ele>
        <time>2018-01-12T05:13:52Z</time>
      </trkpt>
      <trkpt lat="46.66968" lon="-1.90096">
        <ele>9</ele>
        <time>2018-01-12T05:14:52Z</time>
      </trkpt>
      <trkpt lat="46.66964" lon="-1.9006">
        <ele>10</ele>
        <time>2018-01-12T05:15:52Z</time>
      </trkpt>
      <trkpt lat="46.66963" lon="-1.90055">
        <ele>10</ele>
        <time>2018-01-12T05:16:52Z</time>
      </trkpt>
      <trkpt lat="46.6696" lon="-1.90028">
        <ele>10</ele>
        <time>2018-01-12T05:17:52Z</time>
      </trkpt>
      <trkpt lat="46.66955" lon="-1.89998">
        <ele>10</ele>
        <time>2018-01-12T05:18:52Z</time>
      </trkpt>
      <trkpt lat="46.66951" lon="-1.8996">
        <ele>10</ele>
        <time>2018-01-12T05:19:52Z</time>
      </trkpt>
      <trkpt lat="46.66949" lon="-1.89948">
        <ele>11</ele>
        <time>2018-01-12T05:20:52Z</time>
      </trkpt>
      <trkpt lat="46.66944" lon="-1.89914">
        <ele>11</ele>
        <time>2018-01-12T05:21:52Z</time>
      </trkpt>
      <trkpt lat="46.6694" lon="-1.89885">
        <ele>11</ele>
        <time>2018-01-12T05:22:52Z</time>
      </trkpt>
      <trkpt lat="46.66938" lon="-1.89867">
        <ele>11</ele>
        <time>2018-01-12T05:23:52Z</time>
      </trkpt>
      <trkpt lat="46.66932" lon="-1.89826">
        <ele>11</ele>
        <time>2018-01-12T05:24:52Z</time>
      </trkpt>
      <trkpt lat="46.66931" lon="-1.8982">
        <ele>11</ele>
        <time>2018-01-12T05:25:52Z</time>
      </trkpt>
      <trkpt lat="46.66928" lon="-1.89797">
        <ele>11</ele>
        <time>2018-01-12T05:26:52Z</time>
      </trkpt>
      <trkpt lat="46.66928" lon="-1.89795">
        <ele>11</ele>
        <time>2018-01-12T05:27:52Z</time>
      </trkpt>
      <trkpt lat="46.66925" lon="-1.89768">
        <ele>11</ele>
        <time>2018-01-12T05:28:52Z</time>
      </trkpt>
      <trkpt lat="46.66922" lon="-1.89752">
        <ele>11</ele>
        <time>2018-01-12T05:29:52Z</time>
      </trkpt>
      <trkpt lat="46.6692" lon="-1.89738">
        <ele>11</ele>
        <time>2018-01-12T05:30:52Z</time>
      </trkpt>
      <trkpt lat="46.66917" lon="-1.89712">
        <ele>11</ele>
        <time>2018-01-12T05:31:52Z</time>
      </trkpt>
      <trkpt lat="46.66915" lon="-1.89697">
        <ele>12</ele>
        <time>2018-01-12T05:32:52Z</time>
      </trkpt>
      <trkpt lat="46.66911" lon="-1.89666">
        <ele>12</ele>
        <time>2018-01-12T05:33:52Z</time>
      </trkpt>
      <trkpt lat="46.66911" lon="-1.89664">
        <ele>12</ele>
        <time>2018-01-12T05:34:52Z</time>
      </trkpt>
      <trkpt lat="46.66904" lon="-1.89615">
        <ele>12</ele>
        <time>2018-01-12T05:35:52Z</time>
      </trkpt>
      <trkpt lat="46.66898" lon="-1.89575">
        <ele>13</ele>
        <time>2018-01-12T05:36:52Z</time>
      </trkpt>
      <trkpt lat="46.66897" lon="-1.89564">
        <ele>13</ele>
        <time>2018-01-12T05:37:52Z</time>
      </trkpt>
      <trkpt lat="46.66896" lon="-1.89555">
        <ele>12</ele>
        <time>2018-01-12T05:38:52Z</time>
      </trkpt>
      <trkpt lat="46.66894" lon="-1.89545">
        <ele>12</ele>
        <time>2018-01-12T05:39:52Z</time>
      </trkpt>
      <trkpt lat="46.66891" lon="-1.89517">
        <ele>12</ele>
        <time>2018-01-12T05:40:52Z</time>
      </trkpt>
      <trkpt lat="46.6689" lon="-1.89515">
        <ele>12</ele>
        <time>2018-01-12T05:41:52Z</time>
      </trkpt>
      <trkpt lat="46.66888" lon="-1.89499">
        <ele>12</ele>
        <time>2018-01-12T05:42:52Z</time>
      </trkpt>
      <trkpt lat="46.66887" lon="-1.89492">
        <ele>12</ele>
        <time>2018-01-12T05:43:52Z</time>
      </trkpt>
      <trkpt lat="46.66886" lon="-1.89484">
        <ele>12</ele>
        <time>2018-01-12T05:44:52Z</time>
      </trkpt>
      <trkpt lat="46.66886" lon="-1.89475">
        <ele>12</ele>
        <time>2018-01-12T05:45:52Z</time>
      </trkpt>
      <trkpt lat="46.66885" lon="-1.89467">
        <ele>12</ele>
        <time>2018-01-12T05:46:52Z</time>
      </trkpt>
      <trkpt lat="46.66885" lon="-1.8946">
        <ele>12</ele>
        <time>2018-01-12T05:47:52Z</time>
      </trkpt>
      <trkpt lat="46.66884" lon="-1.89451">
        <ele>12</ele>
        <time>2018-01-12T05:48:52Z</time>
      </trkpt>
      <trkpt lat="46.66884" lon="-1.89439">
        <ele>12</ele>
        <time>2018-01-12T05:49:52Z</time>
      </trkpt>
      <trkpt lat="46.66884" lon="-1.89421">
        <ele>12</ele>
        <time>2018-01-12T05:50:52Z</time>
      </trkpt>
      <trkpt lat="46.66885" lon="-1.89403">
        <ele>12</ele>
        <time>2018-01-12T05:51:52Z</time>
      </trkpt>
      <trkpt lat="46.66887" lon="-1.89385">
        <ele>12</ele>
        <time>2018-01-12T05:52:52Z</time>
      </trkpt>
      <trkpt lat="46.66889" lon="-1.89376">
        <ele>12</ele>
        <time>2018-01-12T05:53:52Z</time>
      </trkpt>
      <trkpt lat="46.66892" lon="-1.89362">
        <ele>12</ele>
        <time>2018-01-12T05:54:52Z</time>
      </trkpt>
      <trkpt lat="46.66896" lon="-1.89347">
        <ele>11</ele>
        <time>2018-01-12T05:55:52Z</time>
      </trkpt>
      <trkpt lat="46.66899" lon="-1.89335">
        <ele>11</ele>
        <time>2018-01-12T05:56:52Z</time>
      </trkpt>
      <trkpt lat="46.66901" lon="-1.89329">
        <ele>11</ele>
        <time>2018-01-12T05:57:52Z</time>
      </trkpt>
      <trkpt lat="46.66906" lon="-1.89314">
        <ele>11</ele>
        <time>2018-01-12T05:58:52Z</time>
      </trkpt>
      <trkpt lat="46.66909" lon="-1.89305">
        <ele>11</ele>
        <time>2018-01-12T05:59:52Z</time>
      </trkpt>
      <trkpt lat="46.66914" lon="-1.89286">
        <ele>11</ele>
        <time>2018-01-12T06:00:52Z</time>
      </trkpt>
      <trkpt lat="46.6691" lon="-1.89283">
        <ele>11</ele>
        <time>2018-01-12T06:01:52Z</time>
      </trkpt>
      <trkpt lat="46.66909" lon="-1.89278">
        <ele>11</ele>
        <time>2018-01-12T06:02:52Z</time>
      </trkpt>
      <trkpt lat="46.66909" lon="-1.89272">
        <ele>11</ele>
        <time>2018-01-12T06:03:52Z</time>
      </trkpt>
      <trkpt lat="46.66911" lon="-1.89267">
        <ele>11</ele>
        <time>2018-01-12T06:04:52Z</time>
      </trkpt>
      <trkpt lat="46.66914" lon="-1.89264">
        <ele>11</ele>
        <time>2018-01-12T06:05:52Z</time>
      </trkpt>
      <trkpt lat="46.66917" lon="-1.89263">
        <ele>11</ele>
        <time>2018-01-12T06:06:52Z</time>
      </trkpt>
      <trkpt lat="46.66919" lon="-1.89263">
        <ele>11</ele>
        <time>2018-01-12T06:07:52Z</time>
      </trkpt>
      <trkpt lat="46.66922" lon="-1.89264">
        <ele>11</ele>
        <time>2018-01-12T06:08:52Z</time>
      </trkpt>
      <trkpt lat="46.66926" lon="-1.89253">
        <ele>11</ele>
        <time>2018-01-12T06:09:52Z</time>
      </trkpt>
      <trkpt lat="46.66929" lon="-1.89245">
        <ele>11</ele>
        <time>2018-01-12T06:10:52Z</time>
      </trkpt>
      <trkpt lat="46.66941" lon="-1.89208">
        <ele>10</ele>
        <time>2018-01-12T06:11:52Z</time>
      </trkpt>
      <trkpt lat="46.66945" lon="-1.89198">
        <ele>10</ele>
        <time>2018-01-12T06:12:52Z</time>
      </trkpt>
      <trkpt lat="46.66954" lon="-1.89171">
        <ele>10</ele>
        <time>2018-01-12T06:13:52Z</time>
      </trkpt>
      <trkpt lat="46.66961" lon="-1.89149">
        <ele>10</ele>
        <time>2018-01-12T06:14:52Z</time>
      </trkpt>
      <trkpt lat="46.66969" lon="-1.89126">
        <ele>10</ele>
        <time>2018-01-12T06:15:52Z</time>
      </trkpt>
      <trkpt lat="46.66982" lon="-1.89082">
        <ele>9</ele>
        <time>2018-01-12T06:16:52Z</time>
      </trkpt>
      <trkpt lat="46.66985" lon="-1.89069">
        <ele>9</ele>
        <time>2018-01-12T06:17:52Z</time>
      </trkpt>
      <trkpt lat="46.66988" lon="-1.89056">
        <ele>8</ele>
        <time>2018-01-12T06:18:52Z</time>
      </trkpt>
      <trkpt lat="46.6699" lon="-1.89048">
        <ele>8</ele>
        <time>2018-01-12T06:19:52Z</time>
      </trkpt>
      <trkpt lat="46.66991" lon="-1.89041">
        <ele>8</ele>
        <time>2018-01-12T06:20:52Z</time>
      </trkpt>
      <trkpt lat="46.66993" lon="-1.89033">
        <ele>8</ele>
        <time>2018-01-12T06:21:52Z</time>
      </trkpt>
      <trkpt lat="46.66995" lon="-1.89024">
        <ele>8</ele>
        <time>2018-01-12T06:22:52Z</time>
      </trkpt>
      <trkpt lat="46.66998" lon="-1.8901">
        <ele>7</ele>
        <time>2018-01-12T06:23:52Z</time>
      </trkpt>
      <trkpt lat="46.67001" lon="-1.88998">
        <ele>7</ele>
        <time>2018-01-12T06:24:52Z</time>
      </trkpt>
      <trkpt lat="46.67003" lon="-1.88989">
        <ele>7</ele>
        <time>2018-01-12T06:25:52Z</time>
      </trkpt>
      <trkpt lat="46.67008" lon="-1.88964">
        <ele>7</ele>
        <time>2018-01-12T06:26:52Z</time>
      </trkpt>
      <trkpt lat="46.6701" lon="-1.88956">
        <ele>7</ele>
        <time>2018-01-12T06:27:52Z</time>
      </trkpt>
      <trkpt lat="46.67013" lon="-1.88939">
        <ele>8</ele>
        <time>2018-01-12T06:28:52Z</time>
      </trkpt>
      <trkpt lat="46.67016" lon="-1.88929">
        <ele>8</ele>
        <time>2018-01-12T06:29:52Z</time>
      </trkpt>
      <trkpt lat="46.67023" lon="-1.88898">
        <ele>8</ele>
        <time>2018-01-12T06:30:52Z</time>
      </trkpt>
      <trkpt lat="46.67029" lon="-1.88866">
        <ele>9</ele>
        <time>2018-01-12T06:31:52Z</time>
      </trkpt>
      <trkpt lat="46.67033" lon="-1.88851">
        <ele>10</ele>
        <time>2018-01-12T06:32:52Z</time>
      </trkpt>
      <trkpt lat="46.67039" lon="-1.88825">
        <ele>10</ele>
        <time>2018-01-12T06:33:52Z</time>
      </trkpt>
      <trkpt lat="46.67041" lon="-1.88816">
        <ele>10</ele>
        <time>2018-01-12T06:34:52Z</time>
      </trkpt>
      <trkpt lat="46.67047" lon="-1.88789">
        <ele>10</ele>
        <time>2018-01-12T06:35:52Z</time>
      </trkpt>
      <trkpt lat="46.67051" lon="-1.88769">
        <ele>11</ele>
        <time>2018-01-12T06:36:52Z</time>
      </trkpt>
      <trkpt lat="46.67056" lon="-1.88749">
        <ele>11</ele>
        <time>2018-01-12T06:37:52Z</time>
      </trkpt>
      <trkpt lat="46.67053" lon="-1.88747">
        <ele>11</ele>
        <time>2018-01-12T06:38:52Z</time>
      </trkpt>
      <trkpt lat="46.67051" lon="-1.88745">
        <ele>11</ele>
        <time>2018-01-12T06:39:52Z</time>
      </trkpt>
      <trkpt lat="46.6705" lon="-1.88741">
        <ele>11</ele>
        <time>2018-01-12T06:40:52Z</time>
      </trkpt>
      <trkpt lat="46.67049" lon="-1.88737">
        <ele>11</ele>
        <time>2018-01-12T06:41:52Z</time>
      </trkpt>
      <trkpt lat="46.67049" lon="-1.88732">
        <ele>11</ele>
        <time>2018-01-12T06:42:52Z</time>
      </trkpt>
      <trkpt lat="46.6705" lon="-1.88728">
        <ele>11</ele>
        <time>2018-01-12T06:43:52Z</time>
      </trkpt>
      <trkpt lat="46.67052" lon="-1.88726">
        <ele>11</ele>
        <time>2018-01-12T06:44:52Z</time>
      </trkpt>
      <trkpt lat="46.67054" lon="-1.88725">
        <ele>11</ele>
        <time>2018-01-12T06:45:52Z</time>
      </trkpt>
      <trkpt lat="46.67057" lon="-1.88724">
        <ele>11</ele>
        <time>2018-01-12T06:46:52Z</time>
      </trkpt>
      <trkpt lat="46.67061" lon="-1.88725">
        <ele>11</ele>
        <time>2018-01-12T06:47:52Z</time>
      </trkpt>
      <trkpt lat="46.67063" lon="-1.88716">
        <ele>11</ele>
        <time>2018-01-12T06:48:52Z</time>
      </trkpt>
      <trkpt lat="46.6708" lon="-1.88641">
        <ele>12</ele>
        <time>2018-01-12T06:49:52Z</time>
      </trkpt>
      <trkpt lat="46.67081" lon="-1.88634">
        <ele>12</ele>
        <time>2018-01-12T06:50:52Z</time>
      </trkpt>
      <trkpt lat="46.67091" lon="-1.8859">
        <ele>12</ele>
        <time>2018-01-12T06:51:52Z</time>
      </trkpt>
      <trkpt lat="46.67092" lon="-1.88586">
        <ele>12</ele>
        <time>2018-01-12T06:52:52Z</time>
      </trkpt>
      <trkpt lat="46.67103" lon="-1.88538">
        <ele>12</ele>
        <time>2018-01-12T06:53:52Z</time>
      </trkpt>
      <trkpt lat="46.67108" lon="-1.8852">
        <ele>12</ele>
        <time>2018-01-12T06:54:52Z</time>
      </trkpt>
      <trkpt lat="46.67113" lon="-1.88499">
        <ele>11</ele>
        <time>2018-01-12T06:55:52Z</time>
      </trkpt>
      <trkpt lat="46.6712" lon="-1.88468">
        <ele>11</ele>
        <time>2018-01-12T06:56:52Z</time>
      </trkpt>
      <trkpt lat="46.67128" lon="-1.88428">
        <ele>10</ele>
        <time>2018-01-12T06:57:52Z</time>
      </trkpt>
      <trkpt lat="46.67133" lon="-1.88408">
        <ele>10</ele>
        <time>2018-01-12T06:58:52Z</time>
      </trkpt>
      <trkpt lat="46.67135" lon="-1.88398">
        <ele>10</ele>
        <time>2018-01-12T06:59:52Z</time>
      </trkpt>
      <trkpt lat="46.67136" lon="-1.88388">
        <ele>10</ele>
        <time>2018-01-12T07:00:52Z</time>
      </trkpt>
      <trkpt lat="46.67138" lon="-1.88377">
        <ele>10</ele>
        <time>2018-01-12T07:01:52Z</time>
      </trkpt>
      <trkpt lat="46.67138" lon="-1.88369">
        <ele>9</ele>
        <time>2018-01-12T07:02:52Z</time>
      </trkpt>
      <trkpt lat="46.67139" lon="-1.88365">
        <ele>9</ele>
        <time>2018-01-12T07:03:52Z</time>
      </trkpt>
      <trkpt lat="46.67139" lon="-1.88356">
        <ele>9</ele>
        <time>2018-01-12T07:04:52Z</time>
      </trkpt>
      <trkpt lat="46.67139" lon="-1.88342">
        <ele>9</ele>
        <time>2018-01-12T07:05:52Z</time>
      </trkpt>
      <trkpt lat="46.67139" lon="-1.88336">
        <ele>9</ele>
        <time>2018-01-12T07:06:52Z</time>
      </trkpt>
      <trkpt lat="46.67139" lon="-1.8833">
        <ele>9</ele>
        <time>2018-01-12T07:07:52Z</time>
      </trkpt>
      <trkpt lat="46.67139" lon="-1.88324">
        <ele>9</ele>
        <time>2018-01-12T07:08:52Z</time>
      </trkpt>
      <trkpt lat="46.6714" lon="-1.88317">
        <ele>9</ele>
        <time>2018-01-12T07:09:52Z</time>
      </trkpt>
      <trkpt lat="46.67141" lon="-1.88306">
        <ele>9</ele>
        <time>2018-01-12T07:10:52Z</time>
      </trkpt>
      <trkpt lat="46.67141" lon="-1.88301">
        <ele>9</ele>
        <time>2018-01-12T07:11:52Z</time>
      </trkpt>
      <trkpt lat="46.67142" lon="-1.88295">
        <ele>9</ele>
        <time>2018-01-12T07:12:52Z</time>
      </trkpt>
      <trkpt lat="46.67143" lon="-1.88289">
        <ele>9</ele>
        <time>2018-01-12T07:13:52Z</time>
      </trkpt>
      <trkpt lat="46.67146" lon="-1.88277">
        <ele>8</ele>
        <time>2018-01-12T07:14:52Z</time>
      </trkpt>
      <trkpt lat="46.67148" lon="-1.8827">
        <ele>8</ele>
        <time>2018-01-12T07:15:52Z</time>
      </trkpt>
      <trkpt lat="46.67149" lon="-1.88266">
        <ele>8</ele>
        <time>2018-01-12T07:16:52Z</time>
      </trkpt>
      <trkpt lat="46.67152" lon="-1.88256">
        <ele>8</ele>
        <time>2018-01-12T07:17:52Z</time>
      </trkpt>
      <trkpt lat="46.67155" lon="-1.88246">
        <ele>8</ele>
        <time>2018-01-12T07:18:52Z</time>
      </trkpt>
      <trkpt lat="46.67156" lon="-1.88241">
        <ele>8</ele>
        <time>2018-01-12T07:19:52Z</time>
      </trkpt>
      <trkpt lat="46.67158" lon="-1.88235">
        <ele>8</ele>
        <time>2018-01-12T07:20:52Z</time>
      </trkpt>
      <trkpt lat="46.67159" lon="-1.8823">
        <ele>8</ele>
        <time>2018-01-12T07:21:52Z</time>
      </trkpt>
      <trkpt lat="46.67159" lon="-1.88229">
        <ele>8</ele>
        <time>2018-01-12T07:22:52Z</time>
      </trkpt>
      <trkpt lat="46.67162" lon="-1.8822">
        <ele>8</ele>
        <time>2018-01-12T07:23:52Z</time>
      </trkpt>
      <trkpt lat="46.67161" lon="-1.8822">
        <ele>8</ele>
        <time>2018-01-12T07:24:52Z</time>
      </trkpt>
      <trkpt lat="46.67161" lon="-1.88219">
        <ele>8</ele>
        <time>2018-01-12T07:25:52Z</time>
      </trkpt>
      <trkpt lat="46.6716" lon="-1.88219">
        <ele>8</ele>
        <time>2018-01-12T07:26:52Z</time>
      </trkpt>
      <trkpt lat="46.6716" lon="-1.88218">
        <ele>8</ele>
        <time>2018-01-12T07:27:52Z</time>
      </trkpt>
      <trkpt lat="46.67159" lon="-1.88218">
        <ele>8</ele>
        <time>2018-01-12T07:28:52Z</time>
      </trkpt>
      <trkpt lat="46.67159" lon="-1.88217">
        <ele>8</ele>
        <time>2018-01-12T07:29:52Z</time>
      </trkpt>
      <trkpt lat="46.67158" lon="-1.88216">
        <ele>8</ele>
        <time>2018-01-12T07:30:52Z</time>
      </trkpt>
      <trkpt lat="46.67158" lon="-1.88215">
        <ele>7</ele>
        <time>2018-01-12T07:31:52Z</time>
      </trkpt>
      <trkpt lat="46.67157" lon="-1.88215">
        <ele>7</ele>
        <time>2018-01-12T07:32:52Z</time>
      </trkpt>
      <trkpt lat="46.67157" lon="-1.88214">
        <ele>7</ele>
        <time>2018-01-12T07:33:52Z</time>
      </trkpt>
      <trkpt lat="46.67157" lon="-1.88213">
        <ele>7</ele>
        <time>2018-01-12T07:34:52Z</time>
      </trkpt>
      <trkpt lat="46.67157" lon="-1.88212">
        <ele>7</ele>
        <time>2018-01-12T07:35:52Z</time>
      </trkpt>
      <trkpt lat="46.67157" lon="-1.88211">
        <ele>7</ele>
        <time>2018-01-12T07:36:52Z</time>
      </trkpt>
      <trkpt lat="46.67156" lon="-1.8821">
        <ele>7</ele>
        <time>2018-01-12T07:37:52Z</time>
      </trkpt>
      <trkpt lat="46.67156" lon="-1.88209">
        <ele>7</ele>
        <time>2018-01-12T07:38:52Z</time>
      </trkpt>
      <trkpt lat="46.67156" lon="-1.88208">
        <ele>7</ele>
        <time>2018-01-12T07:39:52Z</time>
      </trkpt>
      <trkpt lat="46.67156" lon="-1.88207">
        <ele>7</ele>
        <time>2018-01-12T07:40:52Z</time>
      </trkpt>
      <trkpt lat="46.67156" lon="-1.88206">
        <ele>7</ele>
        <time>2018-01-12T07:41:52Z</time>
      </trkpt>
      <trkpt lat="46.67157" lon="-1.88205">
        <ele>7</ele>
        <time>2018-01-12T07:42:52Z</time>
      </trkpt>
      <trkpt lat="46.67157" lon="-1.88204">
        <ele>7</ele>
        <time>2018-01-12T07:43:52Z</time>
      </trkpt>
      <trkpt lat="46.67157" lon="-1.88203">
        <ele>7</ele>
        <time>2018-01-12T07:44:52Z</time>
      </trkpt>
      <trkpt lat="46.67157" lon="-1.88202">
        <ele>7</ele>
        <time>2018-01-12T07:45:52Z</time>
      </trkpt>
      <trkpt lat="46.67158" lon="-1.88201">
        <ele>7</ele>
        <time>2018-01-12T07:46:52Z</time>
      </trkpt>
      <trkpt lat="46.67158" lon="-1.882">
        <ele>7</ele>
        <time>2018-01-12T07:47:52Z</time>
      </trkpt>
      <trkpt lat="46.67159" lon="-1.88199">
        <ele>7</ele>
        <time>2018-01-12T07:48:52Z</time>
      </trkpt>
      <trkpt lat="46.67159" lon="-1.88198">
        <ele>7</ele>
        <time>2018-01-12T07:49:52Z</time>
      </trkpt>
      <trkpt lat="46.6716" lon="-1.88198">
        <ele>7</ele>
        <time>2018-01-12T07:50:52Z</time>
      </trkpt>
      <trkpt lat="46.6716" lon="-1.88197">
        <ele>7</ele>
        <time>2018-01-12T07:51:52Z</time>
      </trkpt>
      <trkpt lat="46.67161" lon="-1.88197">
        <ele>7</ele>
        <time>2018-01-12T07:52:52Z</time>
      </trkpt>
      <trkpt lat="46.67161" lon="-1.88196">
        <ele>7</ele>
        <time>2018-01-12T07:53:52Z</time>
      </trkpt>
      <trkpt lat="46.67162" lon="-1.88196">
        <ele>7</ele>
        <time>2018-01-12T07:54:52Z</time>
      </trkpt>
      <trkpt lat="46.67162" lon="-1.88195">
        <ele>7</ele>
        <time>2018-01-12T07:55:52Z</time>
      </trkpt>
      <trkpt lat="46.67163" lon="-1.88195">
        <ele>7</ele>
        <time>2018-01-12T07:56:52Z</time>
      </trkpt>
      <trkpt lat="46.67164" lon="-1.88195">
        <ele>7</ele>
        <time>2018-01-12T07:57:52Z</time>
      </trkpt>
      <trkpt lat="46.67165" lon="-1.88195">
        <ele>7</ele>
        <time>2018-01-12T07:58:52Z</time>
      </trkpt>
      <trkpt lat="46.67166" lon="-1.88195">
        <ele>7</ele>
        <time>2018-01-12T07:59:52Z</time>
      </trkpt>
      <trkpt lat="46.67167" lon="-1.88195">
        <ele>7</ele>
        <time>2018-01-12T08:00:52Z</time>
      </trkpt>
      <trkpt lat="46.67168" lon="-1.88195">
        <ele>7</ele>
        <time>2018-01-12T08:01:52Z</time>
      </trkpt>
      <trkpt lat="46.67172" lon="-1.88182">
        <ele>7</ele>
        <time>2018-01-12T08:02:52Z</time>
      </trkpt>
      <trkpt lat="46.67173" lon="-1.88176">
        <ele>7</ele>
        <time>2018-01-12T08:03:52Z</time>
      </trkpt>
      <trkpt lat="46.67174" lon="-1.8817">
        <ele>7</ele>
        <time>2018-01-12T08:04:52Z</time>
      </trkpt>
      <trkpt lat="46.67178" lon="-1.88145">
        <ele>8</ele>
        <time>2018-01-12T08:05:52Z</time>
      </trkpt>
      <trkpt lat="46.67183" lon="-1.88109">
        <ele>8</ele>
        <time>2018-01-12T08:06:52Z</time>
      </trkpt>
      <trkpt lat="46.67187" lon="-1.88081">
        <ele>9</ele>
        <time>2018-01-12T08:07:52Z</time>
      </trkpt>
      <trkpt lat="46.67193" lon="-1.88041">
        <ele>9</ele>
        <time>2018-01-12T08:08:52Z</time>
      </trkpt>
      <trkpt lat="46.67198" lon="-1.88006">
        <ele>10</ele>
        <time>2018-01-12T08:09:52Z</time>
      </trkpt>
      <trkpt lat="46.67202" lon="-1.87978">
        <ele>10</ele>
        <time>2018-01-12T08:10:52Z</time>
      </trkpt>
      <trkpt lat="46.67205" lon="-1.87955">
        <ele>10</ele>
        <time>2018-01-12T08:11:52Z</time>
      </trkpt>
      <trkpt lat="46.67208" lon="-1.87929">
        <ele>10</ele>
        <time>2018-01-12T08:12:52Z</time>
      </trkpt>
      <trkpt lat="46.67211" lon="-1.87909">
        <ele>10</ele>
        <time>2018-01-12T08:13:52Z</time>
      </trkpt>
      <trkpt lat="46.67213" lon="-1.87887">
        <ele>10</ele>
        <time>2018-01-12T08:14:52Z</time>
      </trkpt>
      <trkpt lat="46.67213" lon="-1.87872">
        <ele>10</ele>
        <time>2018-01-12T08:15:52Z</time>
      </trkpt>
      <trkpt lat="46.67213" lon="-1.87857">
        <ele>10</ele>
        <time>2018-01-12T08:16:52Z</time>
      </trkpt>
      <trkpt lat="46.67213" lon="-1.87839">
        <ele>10</ele>
        <time>2018-01-12T08:17:52Z</time>
      </trkpt>
      <trkpt lat="46.67213" lon="-1.87822">
        <ele>10</ele>
        <time>2018-01-12T08:18:52Z</time>
      </trkpt>
      <trkpt lat="46.67212" lon="-1.878">
        <ele>10</ele>
        <time>2018-01-12T08:19:52Z</time>
      </trkpt>
      <trkpt lat="46.67212" lon="-1.87783">
        <ele>10</ele>
        <time>2018-01-12T08:20:52Z</time>
      </trkpt>
      <trkpt lat="46.67212" lon="-1.87767">
        <ele>10</ele>
        <time>2018-01-12T08:21:52Z</time>
      </trkpt>
      <trkpt lat="46.67213" lon="-1.87744">
        <ele>10</ele>
        <time>2018-01-12T08:22:52Z</time>
      </trkpt>
      <trkpt lat="46.67214" lon="-1.87723">
        <ele>10</ele>
        <time>2018-01-12T08:23:52Z</time>
      </trkpt>
      <trkpt lat="46.67215" lon="-1.87698">
        <ele>11</ele>
        <time>2018-01-12T08:24:52Z</time>
      </trkpt>
      <trkpt lat="46.67217" lon="-1.87673">
        <ele>11</ele>
        <time>2018-01-12T08:25:52Z</time>
      </trkpt>
      <trkpt lat="46.67218" lon="-1.87652">
        <ele>11</ele>
        <time>2018-01-12T08:26:52Z</time>
      </trkpt>
      <trkpt lat="46.67219" lon="-1.87634">
        <ele>11</ele>
        <time>2018-01-12T08:27:52Z</time>
      </trkpt>
      <trkpt lat="46.67221" lon="-1.87616">
        <ele>11</ele>
        <time>2018-01-12T08:28:52Z</time>
      </trkpt>
      <trkpt lat="46.67224" lon="-1.87603">
        <ele>12</ele>
        <time>2018-01-12T08:29:52Z</time>
      </trkpt>
      <trkpt lat="46.67225" lon="-1.87591">
        <ele>12</ele>
        <time>2018-01-12T08:30:52Z</time>
      </trkpt>
      <trkpt lat="46.67226" lon="-1.8758">
        <ele>12</ele>
        <time>2018-01-12T08:31:52Z</time>
      </trkpt>
      <trkpt lat="46.6723" lon="-1.8755">
        <ele>12</ele>
        <time>2018-01-12T08:32:52Z</time>
      </trkpt>
      <trkpt lat="46.67232" lon="-1.87531">
        <ele>12</ele>
        <time>2018-01-12T08:33:52Z</time>
      </trkpt>
      <trkpt lat="46.67236" lon="-1.87498">
        <ele>12</ele>
        <time>2018-01-12T08:34:52Z</time>
      </trkpt>
      <trkpt lat="46.67243" lon="-1.87445">
        <ele>12</ele>
        <time>2018-01-12T08:35:52Z</time>
      </trkpt>
      <trkpt lat="46.67247" lon="-1.87411">
        <ele>12</ele>
        <time>2018-01-12T08:36:52Z</time>
      </trkpt>
      <trkpt lat="46.67247" lon="-1.87407">
        <ele>12</ele>
        <time>2018-01-12T08:37:52Z</time>
      </trkpt>
      <trkpt lat="46.6725" lon="-1.87377">
        <ele>12</ele>
        <time>2018-01-12T08:38:52Z</time>
      </trkpt>
      <trkpt lat="46.67251" lon="-1.87373">
        <ele>12</ele>
        <time>2018-01-12T08:39:52Z</time>
      </trkpt>
      <trkpt lat="46.67254" lon="-1.87333">
        <ele>11</ele>
        <time>2018-01-12T08:40:52Z</time>
      </trkpt>
      <trkpt lat="46.67256" lon="-1.87307">
        <ele>11</ele>
        <time>2018-01-12T08:41:52Z</time>
      </trkpt>
      <trkpt lat="46.6726" lon="-1.87256">
        <ele>10</ele>
        <time>2018-01-12T08:42:52Z</time>
      </trkpt>
      <trkpt lat="46.67261" lon="-1.87244">
        <ele>9</ele>
        <time>2018-01-12T08:43:52Z</time>
      </trkpt>
      <trkpt lat="46.67263" lon="-1.87218">
        <ele>9</ele>
        <time>2018-01-12T08:44:52Z</time>
      </trkpt>
      <trkpt lat="46.67264" lon="-1.87205">
        <ele>9</ele>
        <time>2018-01-12T08:45:52Z</time>
      </trkpt>
      <trkpt lat="46.67265" lon="-1.8718">
        <ele>8</ele>
        <time>2018-01-12T08:46:52Z</time>
      </trkpt>
      <trkpt lat="46.67267" lon="-1.87155">
        <ele>8</ele>
        <time>2018-01-12T08:47:52Z</time>
      </trkpt>
      <trkpt lat="46.67269" lon="-1.8713">
        <ele>9</ele>
        <time>2018-01-12T08:48:52Z</time>
      </trkpt>
      <trkpt lat="46.67272" lon="-1.87082">
        <ele>9</ele>
        <time>2018-01-12T08:49:52Z</time>
      </trkpt>
      <trkpt lat="46.67272" lon="-1.8707">
        <ele>9</ele>
        <time>2018-01-12T08:50:52Z</time>
      </trkpt>
      <trkpt lat="46.67273" lon="-1.87048">
        <ele>9</ele>
        <time>2018-01-12T08:51:52Z</time>
      </trkpt>
      <trkpt lat="46.67273" lon="-1.87028">
        <ele>8</ele>
        <time>2018-01-12T08:52:52Z</time>
      </trkpt>
      <trkpt lat="46.67271" lon="-1.87013">
        <ele>8</ele>
        <time>2018-01-12T08:53:52Z</time>
      </trkpt>
      <trkpt lat="46.67269" lon="-1.87004">
        <ele>7</ele>
        <time>2018-01-12T08:54:52Z</time>
      </trkpt>
      <trkpt lat="46.67267" lon="-1.86994">
        <ele>7</ele>
        <time>2018-01-12T08:55:52Z</time>
      </trkpt>
      <trkpt lat="46.67263" lon="-1.86983">
        <ele>6</ele>
        <time>2018-01-12T08:56:52Z</time>
      </trkpt>
      <trkpt lat="46.6726" lon="-1.86974">
        <ele>6</ele>
        <time>2018-01-12T08:57:52Z</time>
      </trkpt>
      <trkpt lat="46.67256" lon="-1.86965">
        <ele>5</ele>
        <time>2018-01-12T08:58:52Z</time>
      </trkpt>
      <trkpt lat="46.67251" lon="-1.86955">
        <ele>5</ele>
        <time>2018-01-12T08:59:52Z</time>
      </trkpt>
      <trkpt lat="46.67246" lon="-1.86946">
        <ele>5</ele>
        <time>2018-01-12T09:00:52Z</time>
      </trkpt>
      <trkpt lat="46.67228" lon="-1.8691">
        <ele>4</ele>
        <time>2018-01-12T09:01:52Z</time>
      </trkpt>
      <trkpt lat="46.67213" lon="-1.86883">
        <ele>3</ele>
        <time>2018-01-12T09:02:52Z</time>
      </trkpt>
      <trkpt lat="46.67209" lon="-1.86876">
        <ele>3</ele>
        <time>2018-01-12T09:03:52Z</time>
      </trkpt>
      <trkpt lat="46.67205" lon="-1.86869">
        <ele>3</ele>
        <time>2018-01-12T09:04:52Z</time>
      </trkpt>
      <trkpt lat="46.67202" lon="-1.86862">
        <ele>3</ele>
        <time>2018-01-12T09:05:52Z</time>
      </trkpt>
      <trkpt lat="46.67189" lon="-1.86841">
        <ele>3</ele>
        <time>2018-01-12T09:06:52Z</time>
      </trkpt>
      <trkpt lat="46.6718" lon="-1.86819">
        <ele>4</ele>
        <time>2018-01-12T09:07:52Z</time>
      </trkpt>
      <trkpt lat="46.67179" lon="-1.86815">
        <ele>4</ele>
        <time>2018-01-12T09:08:52Z</time>
      </trkpt>
      <trkpt lat="46.67177" lon="-1.86808">
        <ele>4</ele>
        <time>2018-01-12T09:09:52Z</time>
      </trkpt>
      <trkpt lat="46.67173" lon="-1.86797">
        <ele>4</ele>
        <time>2018-01-12T09:10:52Z</time>
      </trkpt>
      <trkpt lat="46.6717" lon="-1.86785">
        <ele>4</ele>
        <time>2018-01-12T09:11:52Z</time>
      </trkpt>
      <trkpt lat="46.67169" lon="-1.86772">
        <ele>5</ele>
        <time>2018-01-12T09:12:52Z</time>
      </trkpt>
      <trkpt lat="46.67167" lon="-1.86759">
        <ele>5</ele>
        <time>2018-01-12T09:13:52Z</time>
      </trkpt>
      <trkpt lat="46.67166" lon="-1.8675">
        <ele>5</ele>
        <time>2018-01-12T09:14:52Z</time>
      </trkpt>
      <trkpt lat="46.67166" lon="-1.86747">
        <ele>5</ele>
        <time>2018-01-12T09:15:52Z</time>
      </trkpt>
      <trkpt lat="46.67166" lon="-1.86732">
        <ele>6</ele>
        <time>2018-01-12T09:16:52Z</time>
      </trkpt>
      <trkpt lat="46.67166" lon="-1.86708">
        <ele>7</ele>
        <time>2018-01-12T09:17:52Z</time>
      </trkpt>
      <trkpt lat="46.67166" lon="-1.86704">
        <ele>7</ele>
        <time>2018-01-12T09:18:52Z</time>
      </trkpt>
      <trkpt lat="46.67166" lon="-1.86696">
        <ele>7</ele>
        <time>2018-01-12T09:19:52Z</time>
      </trkpt>
      <trkpt lat="46.67167" lon="-1.86684">
        <ele>7</ele>
        <time>2018-01-12T09:20:52Z</time>
      </trkpt>
      <trkpt lat="46.67168" lon="-1.86673">
        <ele>8</ele>
        <time>2018-01-12T09:21:52Z</time>
      </trkpt>
      <trkpt lat="46.67168" lon="-1.86671">
        <ele>8</ele>
        <time>2018-01-12T09:22:52Z</time>
      </trkpt>
      <trkpt lat="46.6717" lon="-1.86659">
        <ele>8</ele>
        <time>2018-01-12T09:23:52Z</time>
      </trkpt>
      <trkpt lat="46.67171" lon="-1.86648">
        <ele>8</ele>
        <time>2018-01-12T09:24:52Z</time>
      </trkpt>
      <trkpt lat="46.67172" lon="-1.86647">
        <ele>8</ele>
        <time>2018-01-12T09:25:52Z</time>
      </trkpt>
      <trkpt lat="46.67174" lon="-1.86635">
        <ele>8</ele>
        <time>2018-01-12T09:26:52Z</time>
      </trkpt>
      <trkpt lat="46.67176" lon="-1.86622">
        <ele>8</ele>
        <time>2018-01-12T09:27:52Z</time>
      </trkpt>
      <trkpt lat="46.67179" lon="-1.8661">
        <ele>8</ele>
        <time>2018-01-12T09:28:52Z</time>
      </trkpt>
      <trkpt lat="46.67183" lon="-1.86598">
        <ele>8</ele>
        <time>2018-01-12T09:29:52Z</time>
      </trkpt>
      <trkpt lat="46.6719" lon="-1.86574">
        <ele>8</ele>
        <time>2018-01-12T09:30:52Z</time>
      </trkpt>
      <trkpt lat="46.67196" lon="-1.86555">
        <ele>8</ele>
        <time>2018-01-12T09:31:52Z</time>
      </trkpt>
      <trkpt lat="46.67196" lon="-1.86553">
        <ele>8</ele>
        <time>2018-01-12T09:32:52Z</time>
      </trkpt>
      <trkpt lat="46.67202" lon="-1.86536">
        <ele>9</ele>
        <time>2018-01-12T09:33:52Z</time>
      </trkpt>
      <trkpt lat="46.67206" lon="-1.86523">
        <ele>9</ele>
        <time>2018-01-12T09:34:52Z</time>
      </trkpt>
      <trkpt lat="46.67214" lon="-1.86498">
        <ele>9</ele>
        <time>2018-01-12T09:35:52Z</time>
      </trkpt>
      <trkpt lat="46.67223" lon="-1.86467">
        <ele>10</ele>
        <time>2018-01-12T09:36:52Z</time>
      </trkpt>
      <trkpt lat="46.67229" lon="-1.86444">
        <ele>10</ele>
        <time>2018-01-12T09:37:52Z</time>
      </trkpt>
      <trkpt lat="46.67234" lon="-1.86421">
        <ele>10</ele>
        <time>2018-01-12T09:38:52Z</time>
      </trkpt>
      <trkpt lat="46.67235" lon="-1.86411">
        <ele>10</ele>
        <time>2018-01-12T09:39:52Z</time>
      </trkpt>
      <trkpt lat="46.67237" lon="-1.86399">
        <ele>10</ele>
        <time>2018-01-12T09:40:52Z</time>
      </trkpt>
      <trkpt lat="46.67241" lon="-1.8637">
        <ele>10</ele>
        <time>2018-01-12T09:41:52Z</time>
      </trkpt>
      <trkpt lat="46.67243" lon="-1.86336">
        <ele>10</ele>
        <time>2018-01-12T09:42:52Z</time>
      </trkpt>
      <trkpt lat="46.67245" lon="-1.863">
        <ele>10</ele>
        <time>2018-01-12T09:43:52Z</time>
      </trkpt>
      <trkpt lat="46.67246" lon="-1.86272">
        <ele>10</ele>
        <time>2018-01-12T09:44:52Z</time>
      </trkpt>
      <trkpt lat="46.67248" lon="-1.86257">
        <ele>10</ele>
        <time>2018-01-12T09:45:52Z</time>
      </trkpt>
      <trkpt lat="46.6725" lon="-1.86243">
        <ele>10</ele>
        <time>2018-01-12T09:46:52Z</time>
      </trkpt>
      <trkpt lat="46.67252" lon="-1.86237">
        <ele>11</ele>
        <time>2018-01-12T09:47:52Z</time>
      </trkpt>
      <trkpt lat="46.67255" lon="-1.86227">
        <ele>11</ele>
        <time>2018-01-12T09:48:52Z</time>
      </trkpt>
      <trkpt lat="46.67262" lon="-1.86208">
        <ele>11</ele>
        <time>2018-01-12T09:49:52Z</time>
      </trkpt>
      <trkpt lat="46.6727" lon="-1.86185">
        <ele>12</ele>
        <time>2018-01-12T09:50:52Z</time>
      </trkpt>
      <trkpt lat="46.67276" lon="-1.86168">
        <ele>12</ele>
        <time>2018-01-12T09:51:52Z</time>
      </trkpt>
      <trkpt lat="46.67277" lon="-1.86165">
        <ele>12</ele>
        <time>2018-01-12T09:52:52Z</time>
      </trkpt>
      <trkpt lat="46.67283" lon="-1.86141">
        <ele>12</ele>
        <time>2018-01-12T09:53:52Z</time>
      </trkpt>
      <trkpt lat="46.67288" lon="-1.8612">
        <ele>12</ele>
        <time>2018-01-12T09:54:52Z</time>
      </trkpt>
      <trkpt lat="46.67292" lon="-1.86098">
        <ele>12</ele>
        <time>2018-01-12T09:55:52Z</time>
      </trkpt>
      <trkpt lat="46.67295" lon="-1.86076">
        <ele>13</ele>
        <time>2018-01-12T09:56:52Z</time>
      </trkpt>
      <trkpt lat="46.67296" lon="-1.86068">
        <ele>13</ele>
        <time>2018-01-12T09:57:52Z</time>
      </trkpt>
      <trkpt lat="46.67298" lon="-1.86053">
        <ele>13</ele>
        <time>2018-01-12T09:58:52Z</time>
      </trkpt>
      <trkpt lat="46.673" lon="-1.86038">
        <ele>13</ele>
        <time>2018-01-12T09:59:52Z</time>
      </trkpt>
      <trkpt lat="46.67301" lon="-1.86022">
        <ele>14</ele>
        <time>2018-01-12T10:00:52Z</time>
      </trkpt>
      <trkpt lat="46.67305" lon="-1.85977">
        <ele>15</ele>
        <time>2018-01-12T10:01:52Z</time>
      </trkpt>
      <trkpt lat="46.67306" lon="-1.85959">
        <ele>15</ele>
        <time>2018-01-12T10:02:52Z</time>
      </trkpt>
      <trkpt lat="46.67306" lon="-1.8593">
        <ele>15</ele>
        <time>2018-01-12T10:03:52Z</time>
      </trkpt>
      <trkpt lat="46.67306" lon="-1.859">
        <ele>15</ele>
        <time>2018-01-12T10:04:52Z</time>
      </trkpt>
      <trkpt lat="46.67305" lon="-1.85869">
        <ele>16</ele>
        <time>2018-01-12T10:05:52Z</time>
      </trkpt>
      <trkpt lat="46.67304" lon="-1.8584">
        <ele>16</ele>
        <time>2018-01-12T10:06:52Z</time>
      </trkpt>
      <trkpt lat="46.67302" lon="-1.8581">
        <ele>16</ele>
        <time>2018-01-12T10:07:52Z</time>
      </trkpt>
      <trkpt lat="46.67299" lon="-1.85767">
        <ele>16</ele>
        <time>2018-01-12T10:08:52Z</time>
      </trkpt>
      <trkpt lat="46.67295" lon="-1.85721">
        <ele>15</ele>
        <time>2018-01-12T10:09:52Z</time>
      </trkpt>
      <trkpt lat="46.67291" lon="-1.85677">
        <ele>15</ele>
        <time>2018-01-12T10:10:52Z</time>
      </trkpt>
      <trkpt lat="46.67288" lon="-1.85647">
        <ele>15</ele>
        <time>2018-01-12T10:11:52Z</time>
      </trkpt>
      <trkpt lat="46.67285" lon="-1.85601">
        <ele>16</ele>
        <time>2018-01-12T10:12:52Z</time>
      </trkpt>
      <trkpt lat="46.67281" lon="-1.85556">
        <ele>17</ele>
        <time>2018-01-12T10:13:52Z</time>
      </trkpt>
      <trkpt lat="46.67279" lon="-1.85526">
        <ele>17</ele>
        <time>2018-01-12T10:14:52Z</time>
      </trkpt>
      <trkpt lat="46.67275" lon="-1.8548">
        <ele>18</ele>
        <time>2018-01-12T10:15:52Z</time>
      </trkpt>
      <trkpt lat="46.67271" lon="-1.85421">
        <ele>18</ele>
        <time>2018-01-12T10:16:52Z</time>
      </trkpt>
      <trkpt lat="46.67269" lon="-1.85388">
        <ele>19</ele>
        <time>2018-01-12T10:17:52Z</time>
      </trkpt>
      <trkpt lat="46.67266" lon="-1.85362">
        <ele>19</ele>
        <time>2018-01-12T10:18:52Z</time>
      </trkpt>
      <trkpt lat="46.67263" lon="-1.85339">
        <ele>20</ele>
        <time>2018-01-12T10:19:52Z</time>
      </trkpt>
      <trkpt lat="46.6726" lon="-1.85321">
        <ele>20</ele>
        <time>2018-01-12T10:20:52Z</time>
      </trkpt>
      <trkpt lat="46.67255" lon="-1.85296">
        <ele>19</ele>
        <time>2018-01-12T10:21:52Z</time>
      </trkpt>
      <trkpt lat="46.67248" lon="-1.85268">
        <ele>19</ele>
        <time>2018-01-12T10:22:52Z</time>
      </trkpt>
      <trkpt lat="46.67239" lon="-1.85237">
        <ele>19</ele>
        <time>2018-01-12T10:23:52Z</time>
      </trkpt>
      <trkpt lat="46.67224" lon="-1.85184">
        <ele>19</ele>
        <time>2018-01-12T10:24:52Z</time>
      </trkpt>
      <trkpt lat="46.67214" lon="-1.8515">
        <ele>19</ele>
        <time>2018-01-12T10:25:52Z</time>
      </trkpt>
      <trkpt lat="46.67201" lon="-1.85109">
        <ele>19</ele>
        <time>2018-01-12T10:26:52Z</time>
      </trkpt>
      <trkpt lat="46.6719" lon="-1.85073">
        <ele>19</ele>
        <time>2018-01-12T10:27:52Z</time>
      </trkpt>
      <trkpt lat="46.67185" lon="-1.85055">
        <ele>19</ele>
        <time>2018-01-12T10:28:52Z</time>
      </trkpt>
      <trkpt lat="46.67178" lon="-1.85027">
        <ele>19</ele>
        <time>2018-01-12T10:29:52Z</time>
      </trkpt>
      <trkpt lat="46.67175" lon="-1.85014">
        <ele>18</ele>
        <time>2018-01-12T10:30:52Z</time>
      </trkpt>
      <trkpt lat="46.67172" lon="-1.84999">
        <ele>18</ele>
        <time>2018-01-12T10:31:52Z</time>
      </trkpt>
      <trkpt lat="46.67168" lon="-1.84972">
        <ele>18</ele>
        <time>2018-01-12T10:32:52Z</time>
      </trkpt>
      <trkpt lat="46.67166" lon="-1.84956">
        <ele>18</ele>
        <time>2018-01-12T10:33:52Z</time>
      </trkpt>
      <trkpt lat="46.67165" lon="-1.84941">
        <ele>18</ele>
        <time>2018-01-12T10:34:52Z</time>
      </trkpt>
      <trkpt lat="46.67164" lon="-1.84926">
        <ele>18</ele>
        <time>2018-01-12T10:35:52Z</time>
      </trkpt>
      <trkpt lat="46.67164" lon="-1.84898">
        <ele>18</ele>
        <time>2018-01-12T10:36:52Z</time>
      </trkpt>
      <trkpt lat="46.67164" lon="-1.84883">
        <ele>18</ele>
        <time>2018-01-12T10:37:52Z</time>
      </trkpt>
      <trkpt lat="46.67165" lon="-1.84868">
        <ele>18</ele>
        <time>2018-01-12T10:38:52Z</time>
      </trkpt>
      <trkpt lat="46.67167" lon="-1.8484">
        <ele>18</ele>
        <time>2018-01-12T10:39:52Z</time>
      </trkpt>
      <trkpt lat="46.67171" lon="-1.84811">
        <ele>18</ele>
        <time>2018-01-12T10:40:52Z</time>
      </trkpt>
      <trkpt lat="46.67175" lon="-1.8478">
        <ele>19</ele>
        <time>2018-01-12T10:41:52Z</time>
      </trkpt>
      <trkpt lat="46.67175" lon="-1.84769">
        <ele>19</ele>
        <time>2018-01-12T10:42:52Z</time>
      </trkpt>
      <trkpt lat="46.67182" lon="-1.84714">
        <ele>20</ele>
        <time>2018-01-12T10:43:52Z</time>
      </trkpt>
      <trkpt lat="46.67191" lon="-1.84651">
        <ele>20</ele>
        <time>2018-01-12T10:44:52Z</time>
      </trkpt>
      <trkpt lat="46.67198" lon="-1.84599">
        <ele>20</ele>
        <time>2018-01-12T10:45:52Z</time>
      </trkpt>
      <trkpt lat="46.67205" lon="-1.84549">
        <ele>20</ele>
        <time>2018-01-12T10:46:52Z</time>
      </trkpt>
      <trkpt lat="46.67212" lon="-1.84497">
        <ele>21</ele>
        <time>2018-01-12T10:47:52Z</time>
      </trkpt>
      <trkpt lat="46.67219" lon="-1.84446">
        <ele>21</ele>
        <time>2018-01-12T10:48:52Z</time>
      </trkpt>
      <trkpt lat="46.67224" lon="-1.84411">
        <ele>21</ele>
        <time>2018-01-12T10:49:52Z</time>
      </trkpt>
      <trkpt lat="46.67226" lon="-1.84398">
        <ele>21</ele>
        <time>2018-01-12T10:50:52Z</time>
      </trkpt>
      <trkpt lat="46.6723" lon="-1.84361">
        <ele>21</ele>
        <time>2018-01-12T10:51:52Z</time>
      </trkpt>
      <trkpt lat="46.67237" lon="-1.84309">
        <ele>22</ele>
        <time>2018-01-12T10:52:52Z</time>
      </trkpt>
      <trkpt lat="46.67241" lon="-1.84276">
        <ele>22</ele>
        <time>2018-01-12T10:53:52Z</time>
      </trkpt>
      <trkpt lat="46.67245" lon="-1.84242">
        <ele>22</ele>
        <time>2018-01-12T10:54:52Z</time>
      </trkpt>
      <trkpt lat="46.67247" lon="-1.84225">
        <ele>21</ele>
        <time>2018-01-12T10:55:52Z</time>
      </trkpt>
      <trkpt lat="46.67248" lon="-1.84207">
        <ele>21</ele>
        <time>2018-01-12T10:56:52Z</time>
      </trkpt>
      <trkpt lat="46.6725" lon="-1.84185">
        <ele>20</ele>
        <time>2018-01-12T10:57:52Z</time>
      </trkpt>
      <trkpt lat="46.67251" lon="-1.84138">
        <ele>20</ele>
        <time>2018-01-12T10:58:52Z</time>
      </trkpt>
      <trkpt lat="46.67252" lon="-1.84121">
        <ele>20</ele>
        <time>2018-01-12T10:59:52Z</time>
      </trkpt>
      <trkpt lat="46.67254" lon="-1.84058">
        <ele>21</ele>
        <time>2018-01-12T11:00:52Z</time>
      </trkpt>
      <trkpt lat="46.67256" lon="-1.83985">
        <ele>22</ele>
        <time>2018-01-12T11:01:52Z</time>
      </trkpt>
      <trkpt lat="46.67257" lon="-1.83925">
        <ele>23</ele>
        <time>2018-01-12T11:02:52Z</time>
      </trkpt>
      <trkpt lat="46.67257" lon="-1.83897">
        <ele>23</ele>
        <time>2018-01-12T11:03:52Z</time>
      </trkpt>
      <trkpt lat="46.67256" lon="-1.83874">
        <ele>23</ele>
        <time>2018-01-12T11:04:52Z</time>
      </trkpt>
      <trkpt lat="46.67254" lon="-1.83845">
        <ele>23</ele>
        <time>2018-01-12T11:05:52Z</time>
      </trkpt>
      <trkpt lat="46.67252" lon="-1.83824">
        <ele>23</ele>
        <time>2018-01-12T11:06:52Z</time>
      </trkpt>
      <trkpt lat="46.67252" lon="-1.8382">
        <ele>23</ele>
        <time>2018-01-12T11:07:52Z</time>
      </trkpt>
      <trkpt lat="46.67251" lon="-1.83814">
        <ele>23</ele>
        <time>2018-01-12T11:08:52Z</time>
      </trkpt>
      <trkpt lat="46.67246" lon="-1.83765">
        <ele>23</ele>
        <time>2018-01-12T11:09:52Z</time>
      </trkpt>
      <trkpt lat="46.67241" lon="-1.83718">
        <ele>22</ele>
        <time>2018-01-12T11:10:52Z</time>
      </trkpt>
      <trkpt lat="46.67236" lon="-1.83657">
        <ele>21</ele>
        <time>2018-01-12T11:11:52Z</time>
      </trkpt>
      <trkpt lat="46.67229" lon="-1.83588">
        <ele>20</ele>
        <time>2018-01-12T11:12:52Z</time>
      </trkpt>
      <trkpt lat="46.67226" lon="-1.83557">
        <ele>20</ele>
        <time>2018-01-12T11:13:52Z</time>
      </trkpt>
      <trkpt lat="46.67223" lon="-1.8354">
        <ele>20</ele>
        <time>2018-01-12T11:14:52Z</time>
      </trkpt>
      <trkpt lat="46.67218" lon="-1.83519">
        <ele>20</ele>
        <time>2018-01-12T11:15:52Z</time>
      </trkpt>
      <trkpt lat="46.67214" lon="-1.83501">
        <ele>21</ele>
        <time>2018-01-12T11:16:52Z</time>
      </trkpt>
      <trkpt lat="46.67207" lon="-1.83477">
        <ele>21</ele>
        <time>2018-01-12T11:17:52Z</time>
      </trkpt>
      <trkpt lat="46.67201" lon="-1.83461">
        <ele>21</ele>
        <time>2018-01-12T11:18:52Z</time>
      </trkpt>
      <trkpt lat="46.67196" lon="-1.83446">
        <ele>21</ele>
        <time>2018-01-12T11:19:52Z</time>
      </trkpt>
      <trkpt lat="46.67186" lon="-1.83413">
        <ele>21</ele>
        <time>2018-01-12T11:20:52Z</time>
      </trkpt>
      <trkpt lat="46.67174" lon="-1.83374">
        <ele>22</ele>
        <time>2018-01-12T11:21:52Z</time>
      </trkpt>
      <trkpt lat="46.6716" lon="-1.83332">
        <ele>23</ele>
        <time>2018-01-12T11:22:52Z</time>
      </trkpt>
      <trkpt lat="46.67147" lon="-1.83295">
        <ele>22</ele>
        <time>2018-01-12T11:23:52Z</time>
      </trkpt>
      <trkpt lat="46.67135" lon="-1.83267">
        <ele>22</ele>
        <time>2018-01-12T11:24:52Z</time>
      </trkpt>
      <trkpt lat="46.6712" lon="-1.8323">
        <ele>22</ele>
        <time>2018-01-12T11:25:52Z</time>
      </trkpt>
      <trkpt lat="46.67104" lon="-1.83196">
        <ele>21</ele>
        <time>2018-01-12T11:26:52Z</time>
      </trkpt>
      <trkpt lat="46.67088" lon="-1.83161">
        <ele>21</ele>
        <time>2018-01-12T11:27:52Z</time>
      </trkpt>
      <trkpt lat="46.67068" lon="-1.83121">
        <ele>20</ele>
        <time>2018-01-12T11:28:52Z</time>
      </trkpt>
      <trkpt lat="46.67064" lon="-1.83112">
        <ele>20</ele>
        <time>2018-01-12T11:29:52Z</time>
      </trkpt>
      <trkpt lat="46.67063" lon="-1.83109">
        <ele>20</ele>
        <time>2018-01-12T11:30:52Z</time>
      </trkpt>
      <trkpt lat="46.67051" lon="-1.83086">
        <ele>19</ele>
        <time>2018-01-12T11:31:52Z</time>
      </trkpt>
      <trkpt lat="46.6704" lon="-1.83062">
        <ele>19</ele>
        <time>2018-01-12T11:32:52Z</time>
      </trkpt>
      <trkpt lat="46.67035" lon="-1.8305">
        <ele>18</ele>
        <time>2018-01-12T11:33:52Z</time>
      </trkpt>
      <trkpt lat="46.6703" lon="-1.83036">
        <ele>18</ele>
        <time>2018-01-12T11:34:52Z</time>
      </trkpt>
      <trkpt lat="46.67022" lon="-1.8301">
        <ele>18</ele>
        <time>2018-01-12T11:35:52Z</time>
      </trkpt>
      <trkpt lat="46.67014" lon="-1.82981">
        <ele>18</ele>
        <time>2018-01-12T11:36:52Z</time>
      </trkpt>
      <trkpt lat="46.67012" lon="-1.82975">
        <ele>18</ele>
        <time>2018-01-12T11:37:52Z</time>
      </trkpt>
      <trkpt lat="46.67012" lon="-1.82973">
        <ele>18</ele>
        <time>2018-01-12T11:38:52Z</time>
      </trkpt>
      <trkpt lat="46.67007" lon="-1.82957">
        <ele>18</ele>
        <time>2018-01-12T11:39:52Z</time>
      </trkpt>
      <trkpt lat="46.67005" lon="-1.82947">
        <ele>18</ele>
        <time>2018-01-12T11:40:52Z</time>
      </trkpt>
      <trkpt lat="46.67001" lon="-1.8293">
        <ele>18</ele>
        <time>2018-01-12T11:41:52Z</time>
      </trkpt>
      <trkpt lat="46.66997" lon="-1.82913">
        <ele>18</ele>
        <time>2018-01-12T11:42:52Z</time>
      </trkpt>
      <trkpt lat="46.66996" lon="-1.82904">
        <ele>18</ele>
        <time>2018-01-12T11:43:52Z</time>
      </trkpt>
      <trkpt lat="46.66995" lon="-1.82892">
        <ele>18</ele>
        <time>2018-01-12T11:44:52Z</time>
      </trkpt>
      <trkpt lat="46.66995" lon="-1.82876">
        <ele>18</ele>
        <time>2018-01-12T11:45:52Z</time>
      </trkpt>
      <trkpt lat="46.66995" lon="-1.82867">
        <ele>18</ele>
        <time>2018-01-12T11:46:52Z</time>
      </trkpt>
      <trkpt lat="46.66995" lon="-1.8286">
        <ele>18</ele>
        <time>2018-01-12T11:47:52Z</time>
      </trkpt>
      <trkpt lat="46.66995" lon="-1.82856">
        <ele>18</ele>
        <time>2018-01-12T11:48:52Z</time>
      </trkpt>
      <trkpt lat="46.66996" lon="-1.8285">
        <ele>18</ele>
        <time>2018-01-12T11:49:52Z</time>
      </trkpt>
      <trkpt lat="46.66997" lon="-1.82846">
        <ele>18</ele>
        <time>2018-01-12T11:50:52Z</time>
      </trkpt>
      <trkpt lat="46.67002" lon="-1.82833">
        <ele>18</ele>
        <time>2018-01-12T11:51:52Z</time>
      </trkpt>
      <trkpt lat="46.6701" lon="-1.82811">
        <ele>18</ele>
        <time>2018-01-12T11:52:52Z</time>
      </trkpt>
      <trkpt lat="46.67016" lon="-1.82794">
        <ele>18</ele>
        <time>2018-01-12T11:53:52Z</time>
      </trkpt>
      <trkpt lat="46.67021" lon="-1.82782">
        <ele>18</ele>
        <time>2018-01-12T11:54:52Z</time>
      </trkpt>
      <trkpt lat="46.67025" lon="-1.82771">
        <ele>18</ele>
        <time>2018-01-12T11:55:52Z</time>
      </trkpt>
      <trkpt lat="46.67029" lon="-1.82759">
        <ele>18</ele>
        <time>2018-01-12T11:56:52Z</time>
      </trkpt>
      <trkpt lat="46.67034" lon="-1.8274">
        <ele>19</ele>
        <time>2018-01-12T11:57:52Z</time>
      </trkpt>
      <trkpt lat="46.67039" lon="-1.82724">
        <ele>20</ele>
        <time>2018-01-12T11:58:52Z</time>
      </trkpt>
      <trkpt lat="46.67042" lon="-1.82709">
        <ele>20</ele>
        <time>2018-01-12T11:59:52Z</time>
      </trkpt>
      <trkpt lat="46.67043" lon="-1.82709">
        <ele>21</ele>
        <time>2018-01-12T12:00:52Z</time>
      </trkpt>
      <trkpt lat="46.67045" lon="-1.82699">
        <ele>21</ele>
        <time>2018-01-12T12:01:52Z</time>
      </trkpt>
      <trkpt lat="46.67045" lon="-1.82694">
        <ele>21</ele>
        <time>2018-01-12T12:02:52Z</time>
      </trkpt>
      <trkpt lat="46.67045" lon="-1.82694">
        <ele>21</ele>
        <time>2018-01-12T12:03:52Z</time>
      </trkpt>
      <trkpt lat="46.67045" lon="-1.82687">
        <ele>22</ele>
        <time>2018-01-12T12:04:52Z</time>
      </trkpt>
      <trkpt lat="46.67048" lon="-1.82684">
        <ele>22</ele>
        <time>2018-01-12T12:05:52Z</time>
      </trkpt>
      <trkpt lat="46.67059" lon="-1.82675">
        <ele>22</ele>
        <time>2018-01-12T12:06:52Z</time>
      </trkpt>
      <trkpt lat="46.67059" lon="-1.82675">
        <ele>22</ele>
        <time>2018-01-12T12:07:52Z</time>
      </trkpt>
      <trkpt lat="46.6706" lon="-1.82674">
        <ele>22</ele>
        <time>2018-01-12T12:08:52Z</time>
      </trkpt>
      <trkpt lat="46.6706" lon="-1.82673">
        <ele>22</ele>
        <time>2018-01-12T12:09:52Z</time>
      </trkpt>
      <trkpt lat="46.6706" lon="-1.82672">
        <ele>22</ele>
        <time>2018-01-12T12:10:52Z</time>
      </trkpt>
      <trkpt lat="46.6706" lon="-1.82671">
        <ele>23</ele>
        <time>2018-01-12T12:11:52Z</time>
      </trkpt>
      <trkpt lat="46.67061" lon="-1.8267">
        <ele>23</ele>
        <time>2018-01-12T12:12:52Z</time>
      </trkpt>
      <trkpt lat="46.67061" lon="-1.82669">
        <ele>23</ele>
        <time>2018-01-12T12:13:52Z</time>
      </trkpt>
      <trkpt lat="46.67061" lon="-1.82668">
        <ele>23</ele>
        <time>2018-01-12T12:14:52Z</time>
      </trkpt>
      <trkpt lat="46.67062" lon="-1.82667">
        <ele>23</ele>
        <time>2018-01-12T12:15:52Z</time>
      </trkpt>
      <trkpt lat="46.67063" lon="-1.82666">
        <ele>23</ele>
        <time>2018-01-12T12:16:52Z</time>
      </trkpt>
      <trkpt lat="46.67063" lon="-1.82665">
        <ele>23</ele>
        <time>2018-01-12T12:17:52Z</time>
      </trkpt>
      <trkpt lat="46.67064" lon="-1.82665">
        <ele>23</ele>
        <time>2018-01-12T12:18:52Z</time>
      </trkpt>
      <trkpt lat="46.67064" lon="-1.82664">
        <ele>23</ele>
        <time>2018-01-12T12:19:52Z</time>
      </trkpt>
      <trkpt lat="46.67065" lon="-1.82663">
        <ele>23</ele>
        <time>2018-01-12T12:20:52Z</time>
      </trkpt>
      <trkpt lat="46.67066" lon="-1.82663">
        <ele>23</ele>
        <time>2018-01-12T12:21:52Z</time>
      </trkpt>
      <trkpt lat="46.67067" lon="-1.82662">
        <ele>23</ele>
        <time>2018-01-12T12:22:52Z</time>
      </trkpt>
      <trkpt lat="46.67068" lon="-1.82662">
        <ele>23</ele>
        <time>2018-01-12T12:23:52Z</time>
      </trkpt>
      <trkpt lat="46.67069" lon="-1.82662">
        <ele>23</ele>
        <time>2018-01-12T12:24:52Z</time>
      </trkpt>
      <trkpt lat="46.67069" lon="-1.82661">
        <ele>23</ele>
        <time>2018-01-12T12:25:52Z</time>
      </trkpt>
      <trkpt lat="46.6707" lon="-1.82661">
        <ele>23</ele>
        <time>2018-01-12T12:26:52Z</time>
      </trkpt>
      <trkpt lat="46.67074" lon="-1.82649">
        <ele>24</ele>
        <time>2018-01-12T12:27:52Z</time>
      </trkpt>
      <trkpt lat="46.67077" lon="-1.82641">
        <ele>24</ele>
        <time>2018-01-12T12:28:52Z</time>
      </trkpt>
      <trkpt lat="46.67078" lon="-1.82634">
        <ele>25</ele>
        <time>2018-01-12T12:29:52Z</time>
      </trkpt>
      <trkpt lat="46.67079" lon="-1.82617">
        <ele>25</ele>
        <time>2018-01-12T12:30:52Z</time>
      </trkpt>
      <trkpt lat="46.6708" lon="-1.82612">
        <ele>26</ele>
        <time>2018-01-12T12:31:52Z</time>
      </trkpt>
      <trkpt lat="46.6708" lon="-1.82607">
        <ele>26</ele>
        <time>2018-01-12T12:32:52Z</time>
      </trkpt>
      <trkpt lat="46.67082" lon="-1.82601">
        <ele>26</ele>
        <time>2018-01-12T12:33:52Z</time>
      </trkpt>
      <trkpt lat="46.67084" lon="-1.82595">
        <ele>26</ele>
        <time>2018-01-12T12:34:52Z</time>
      </trkpt>
      <trkpt lat="46.67086" lon="-1.82589">
        <ele>27</ele>
        <time>2018-01-12T12:35:52Z</time>
      </trkpt>
      <trkpt lat="46.67088" lon="-1.82583">
        <ele>27</ele>
        <time>2018-01-12T12:36:52Z</time>
      </trkpt>
      <trkpt lat="46.67092" lon="-1.82577">
        <ele>27</ele>
        <time>2018-01-12T12:37:52Z</time>
      </trkpt>
      <trkpt lat="46.67098" lon="-1.82565">
        <ele>28</ele>
        <time>2018-01-12T12:38:52Z</time>
      </trkpt>
      <trkpt lat="46.67106" lon="-1.82553">
        <ele>29</ele>
        <time>2018-01-12T12:39:52Z</time>
      </trkpt>
      <trkpt lat="46.67113" lon="-1.82541">
        <ele>29</ele>
        <time>2018-01-12T12:40:52Z</time>
      </trkpt>
      <trkpt lat="46.67128" lon="-1.82518">
        <ele>30</ele>
        <time>2018-01-12T12:41:52Z</time>
      </trkpt>
      <trkpt lat="46.67136" lon="-1.82506">
        <ele>31</ele>
        <time>2018-01-12T12:42:52Z</time>
      </trkpt>
      <trkpt lat="46.67143" lon="-1.82493">
        <ele>31</ele>
        <time>2018-01-12T12:43:52Z</time>
      </trkpt>
      <trkpt lat="46.67149" lon="-1.8248">
        <ele>31</ele>
        <time>2018-01-12T12:44:52Z</time>
      </trkpt>
      <trkpt lat="46.67158" lon="-1.82461">
        <ele>31</ele>
        <time>2018-01-12T12:45:52Z</time>
      </trkpt>
      <trkpt lat="46.67172" lon="-1.82433">
        <ele>31</ele>
        <time>2018-01-12T12:46:52Z</time>
      </trkpt>
      <trkpt lat="46.67192" lon="-1.8239">
        <ele>32</ele>
        <time>2018-01-12T12:47:52Z</time>
      </trkpt>
      <trkpt lat="46.67207" lon="-1.82355">
        <ele>32</ele>
        <time>2018-01-12T12:48:52Z</time>
      </trkpt>
      <trkpt lat="46.67223" lon="-1.82319">
        <ele>32</ele>
        <time>2018-01-12T12:49:52Z</time>
      </trkpt>
      <trkpt lat="46.67229" lon="-1.82304">
        <ele>32</ele>
        <time>2018-01-12T12:50:52Z</time>
      </trkpt>
      <trkpt lat="46.67235" lon="-1.82289">
        <ele>32</ele>
        <time>2018-01-12T12:51:52Z</time>
      </trkpt>
      <trkpt lat="46.67245" lon="-1.82267">
        <ele>32</ele>
        <time>2018-01-12T12:52:52Z</time>
      </trkpt>
      <trkpt lat="46.67251" lon="-1.82252">
        <ele>32</ele>
        <time>2018-01-12T12:53:52Z</time>
      </trkpt>
      <trkpt lat="46.67261" lon="-1.8223">
        <ele>32</ele>
        <time>2018-01-12T12:54:52Z</time>
      </trkpt>
      <trkpt lat="46.6727" lon="-1.82207">
        <ele>32</ele>
        <time>2018-01-12T12:55:52Z</time>
      </trkpt>
      <trkpt lat="46.6728" lon="-1.82178">
        <ele>32</ele>
        <time>2018-01-12T12:56:52Z</time>
      </trkpt>
      <trkpt lat="46.67285" lon="-1.82162">
        <ele>32</ele>
        <time>2018-01-12T12:57:52Z</time>
      </trkpt>
      <trkpt lat="46.6729" lon="-1.82148">
        <ele>32</ele>
        <time>2018-01-12T12:58:52Z</time>
      </trkpt>
      <trkpt lat="46.67305" lon="-1.82105">
        <ele>32</ele>
        <time>2018-01-12T12:59:52Z</time>
      </trkpt>
      <trkpt lat="46.6731" lon="-1.8209">
        <ele>32</ele>
        <time>2018-01-12T13:00:52Z</time>
      </trkpt>
      <trkpt lat="46.67317" lon="-1.82062">
        <ele>33</ele>
        <time>2018-01-12T13:01:52Z</time>
      </trkpt>
      <trkpt lat="46.67327" lon="-1.82026">
        <ele>33</ele>
        <time>2018-01-12T13:02:52Z</time>
      </trkpt>
      <trkpt lat="46.6733" lon="-1.82015">
        <ele>33</ele>
        <time>2018-01-12T13:03:52Z</time>
      </trkpt>
      <trkpt lat="46.67337" lon="-1.81992">
        <ele>33</ele>
        <time>2018-01-12T13:04:52Z</time>
      </trkpt>
      <trkpt lat="46.67347" lon="-1.8196">
        <ele>33</ele>
        <time>2018-01-12T13:05:52Z</time>
      </trkpt>
      <trkpt lat="46.67353" lon="-1.81943">
        <ele>33</ele>
        <time>2018-01-12T13:06:52Z</time>
      </trkpt>
      <trkpt lat="46.67364" lon="-1.81917">
        <ele>32</ele>
        <time>2018-01-12T13:07:52Z</time>
      </trkpt>
      <trkpt lat="46.67373" lon="-1.81897">
        <ele>32</ele>
        <time>2018-01-12T13:08:52Z</time>
      </trkpt>
      <trkpt lat="46.67386" lon="-1.81865">
        <ele>32</ele>
        <time>2018-01-12T13:09:52Z</time>
      </trkpt>
      <trkpt lat="46.67391" lon="-1.81851">
        <ele>32</ele>
        <time>2018-01-12T13:10:52Z</time>
      </trkpt>
      <trkpt lat="46.67395" lon="-1.81838">
        <ele>32</ele>
        <time>2018-01-12T13:11:52Z</time>
      </trkpt>
      <trkpt lat="46.67399" lon="-1.81824">
        <ele>32</ele>
        <time>2018-01-12T13:12:52Z</time>
      </trkpt>
      <trkpt lat="46.67402" lon="-1.81808">
        <ele>32</ele>
        <time>2018-01-12T13:13:52Z</time>
      </trkpt>
      <trkpt lat="46.67406" lon="-1.81783">
        <ele>32</ele>
        <time>2018-01-12T13:14:52Z</time>
      </trkpt>
      <trkpt lat="46.6741" lon="-1.8174">
        <ele>32</ele>
        <time>2018-01-12T13:15:52Z</time>
      </trkpt>
      <trkpt lat="46.67414" lon="-1.81695">
        <ele>32</ele>
        <time>2018-01-12T13:16:52Z</time>
      </trkpt>
      <trkpt lat="46.67416" lon="-1.81674">
        <ele>32</ele>
        <time>2018-01-12T13:17:52Z</time>
      </trkpt>
      <trkpt lat="46.67418" lon="-1.81652">
        <ele>32</ele>
        <time>2018-01-12T13:18:52Z</time>
      </trkpt>
      <trkpt lat="46.67422" lon="-1.81623">
        <ele>32</ele>
        <time>2018-01-12T13:19:52Z</time>
      </trkpt>
      <trkpt lat="46.67426" lon="-1.81595">
        <ele>32</ele>
        <time>2018-01-12T13:20:52Z</time>
      </trkpt>
      <trkpt lat="46.67432" lon="-1.81568">
        <ele>33</ele>
        <time>2018-01-12T13:21:52Z</time>
      </trkpt>
      <trkpt lat="46.67442" lon="-1.81528">
        <ele>34</ele>
        <time>2018-01-12T13:22:52Z</time>
      </trkpt>
      <trkpt lat="46.67449" lon="-1.81501">
        <ele>35</ele>
        <time>2018-01-12T13:23:52Z</time>
      </trkpt>
      <trkpt lat="46.67457" lon="-1.81468">
        <ele>35</ele>
        <time>2018-01-12T13:24:52Z</time>
      </trkpt>
      <trkpt lat="46.67465" lon="-1.81438">
        <ele>35</ele>
        <time>2018-01-12T13:25:52Z</time>
      </trkpt>
      <trkpt lat="46.67471" lon="-1.8142">
        <ele>35</ele>
        <time>2018-01-12T13:26:52Z</time>
      </trkpt>
      <trkpt lat="46.67481" lon="-1.81393">
        <ele>35</ele>
        <time>2018-01-12T13:27:52Z</time>
      </trkpt>
      <trkpt lat="46.67488" lon="-1.8137">
        <ele>35</ele>
        <time>2018-01-12T13:28:52Z</time>
      </trkpt>
      <trkpt lat="46.67493" lon="-1.81347">
        <ele>35</ele>
        <time>2018-01-12T13:29:52Z</time>
      </trkpt>
      <trkpt lat="46.67498" lon="-1.81323">
        <ele>35</ele>
        <time>2018-01-12T13:30:52Z</time>
      </trkpt>
      <trkpt lat="46.67501" lon="-1.81301">
        <ele>35</ele>
        <time>2018-01-12T13:31:52Z</time>
      </trkpt>
      <trkpt lat="46.67503" lon="-1.81276">
        <ele>36</ele>
        <time>2018-01-12T13:32:52Z</time>
      </trkpt>
      <trkpt lat="46.67504" lon="-1.81254">
        <ele>36</ele>
        <time>2018-01-12T13:33:52Z</time>
      </trkpt>
      <trkpt lat="46.67504" lon="-1.81229">
        <ele>36</ele>
        <time>2018-01-12T13:34:52Z</time>
      </trkpt>
      <trkpt lat="46.67505" lon="-1.81206">
        <ele>35</ele>
        <time>2018-01-12T13:35:52Z</time>
      </trkpt>
      <trkpt lat="46.67505" lon="-1.81181">
        <ele>34</ele>
        <time>2018-01-12T13:36:52Z</time>
      </trkpt>
      <trkpt lat="46.67506" lon="-1.81156">
        <ele>34</ele>
        <time>2018-01-12T13:37:52Z</time>
      </trkpt>
      <trkpt lat="46.67506" lon="-1.81131">
        <ele>33</ele>
        <time>2018-01-12T13:38:52Z</time>
      </trkpt>
      <trkpt lat="46.67508" lon="-1.81105">
        <ele>32</ele>
        <time>2018-01-12T13:39:52Z</time>
      </trkpt>
      <trkpt lat="46.67511" lon="-1.81078">
        <ele>31</ele>
        <time>2018-01-12T13:40:52Z</time>
      </trkpt>
      <trkpt lat="46.67514" lon="-1.81053">
        <ele>32</ele>
        <time>2018-01-12T13:41:52Z</time>
      </trkpt>
      <trkpt lat="46.67518" lon="-1.81026">
        <ele>32</ele>
        <time>2018-01-12T13:42:52Z</time>
      </trkpt>
      <trkpt lat="46.67521" lon="-1.81013">
        <ele>32</ele>
        <time>2018-01-12T13:43:52Z</time>
      </trkpt>
      <trkpt lat="46.67525" lon="-1.80989">
        <ele>33</ele>
        <time>2018-01-12T13:44:52Z</time>
      </trkpt>
      <trkpt lat="46.67545" lon="-1.80903">
        <ele>35</ele>
        <time>2018-01-12T13:45:52Z</time>
      </trkpt>
      <trkpt lat="46.67555" lon="-1.80865">
        <ele>35</ele>
        <time>2018-01-12T13:46:52Z</time>
      </trkpt>
      <trkpt lat="46.67562" lon="-1.80834">
        <ele>35</ele>
        <time>2018-01-12T13:47:52Z</time>
      </trkpt>
      <trkpt lat="46.67565" lon="-1.80813">
        <ele>36</ele>
        <time>2018-01-12T13:48:52Z</time>
      </trkpt>
      <trkpt lat="46.67569" lon="-1.80785">
        <ele>36</ele>
        <time>2018-01-12T13:49:52Z</time>
      </trkpt>
      <trkpt lat="46.67571" lon="-1.80759">
        <ele>36</ele>
        <time>2018-01-12T13:50:52Z</time>
      </trkpt>
      <trkpt lat="46.67573" lon="-1.80732">
        <ele>36</ele>
        <time>2018-01-12T13:51:52Z</time>
      </trkpt>
      <trkpt lat="46.67573" lon="-1.80715">
        <ele>36</ele>
        <time>2018-01-12T13:52:52Z</time>
      </trkpt>
      <trkpt lat="46.67572" lon="-1.80697">
        <ele>37</ele>
        <time>2018-01-12T13:53:52Z</time>
      </trkpt>
      <trkpt lat="46.67571" lon="-1.80684">
        <ele>37</ele>
        <time>2018-01-12T13:54:52Z</time>
      </trkpt>
      <trkpt lat="46.6757" lon="-1.80645">
        <ele>37</ele>
        <time>2018-01-12T13:55:52Z</time>
      </trkpt>
      <trkpt lat="46.67571" lon="-1.80611">
        <ele>38</ele>
        <time>2018-01-12T13:56:52Z</time>
      </trkpt>
      <trkpt lat="46.67571" lon="-1.80579">
        <ele>38</ele>
        <time>2018-01-12T13:57:52Z</time>
      </trkpt>
      <trkpt lat="46.67572" lon="-1.80542">
        <ele>37</ele>
        <time>2018-01-12T13:58:52Z</time>
      </trkpt>
      <trkpt lat="46.67572" lon="-1.80522">
        <ele>37</ele>
        <time>2018-01-12T13:59:52Z</time>
      </trkpt>
      <trkpt lat="46.67571" lon="-1.80495">
        <ele>37</ele>
        <time>2018-01-12T14:00:52Z</time>
      </trkpt>
      <trkpt lat="46.67571" lon="-1.80464">
        <ele>37</ele>
        <time>2018-01-12T14:01:52Z</time>
      </trkpt>
      <trkpt lat="46.67571" lon="-1.80439">
        <ele>37</ele>
        <time>2018-01-12T14:02:52Z</time>
      </trkpt>
      <trkpt lat="46.6757" lon="-1.80409">
        <ele>37</ele>
        <time>2018-01-12T14:03:52Z</time>
      </trkpt>
      <trkpt lat="46.6757" lon="-1.80378">
        <ele>37</ele>
        <time>2018-01-12T14:04:52Z</time>
      </trkpt>
      <trkpt lat="46.6757" lon="-1.80352">
        <ele>37</ele>
        <time>2018-01-12T14:05:52Z</time>
      </trkpt>
      <trkpt lat="46.67569" lon="-1.80328">
        <ele>37</ele>
        <time>2018-01-12T14:06:52Z</time>
      </trkpt>
      <trkpt lat="46.67569" lon="-1.8031">
        <ele>37</ele>
        <time>2018-01-12T14:07:52Z</time>
      </trkpt>
      <trkpt lat="46.67566" lon="-1.80289">
        <ele>36</ele>
        <time>2018-01-12T14:08:52Z</time>
      </trkpt>
      <trkpt lat="46.67564" lon="-1.80267">
        <ele>36</ele>
        <time>2018-01-12T14:09:52Z</time>
      </trkpt>
      <trkpt lat="46.67559" lon="-1.80243">
        <ele>36</ele>
        <time>2018-01-12T14:10:52Z</time>
      </trkpt>
      <trkpt lat="46.67555" lon="-1.80217">
        <ele>36</ele>
        <time>2018-01-12T14:11:52Z</time>
      </trkpt>
      <trkpt lat="46.67551" lon="-1.80193">
        <ele>36</ele>
        <time>2018-01-12T14:12:52Z</time>
      </trkpt>
      <trkpt lat="46.67549" lon="-1.80168">
        <ele>37</ele>
        <time>2018-01-12T14:13:52Z</time>
      </trkpt>
      <trkpt lat="46.67548" lon="-1.8014">
        <ele>37</ele>
        <time>2018-01-12T14:14:52Z</time>
      </trkpt>
      <trkpt lat="46.67548" lon="-1.80112">
        <ele>38</ele>
        <time>2018-01-12T14:15:52Z</time>
      </trkpt>
      <trkpt lat="46.67549" lon="-1.80084">
        <ele>38</ele>
        <time>2018-01-12T14:16:52Z</time>
      </trkpt>
      <trkpt lat="46.6755" lon="-1.80059">
        <ele>38</ele>
        <time>2018-01-12T14:17:52Z</time>
      </trkpt>
      <trkpt lat="46.67553" lon="-1.80032">
        <ele>39</ele>
        <time>2018-01-12T14:18:52Z</time>
      </trkpt>
      <trkpt lat="46.67553" lon="-1.80026">
        <ele>39</ele>
        <time>2018-01-12T14:19:52Z</time>
      </trkpt>
      <trkpt lat="46.67556" lon="-1.79998">
        <ele>39</ele>
        <time>2018-01-12T14:20:52Z</time>
      </trkpt>
      <trkpt lat="46.67558" lon="-1.79986">
        <ele>39</ele>
        <time>2018-01-12T14:21:52Z</time>
      </trkpt>
      <trkpt lat="46.6756" lon="-1.79973">
        <ele>39</ele>
        <time>2018-01-12T14:22:52Z</time>
      </trkpt>
      <trkpt lat="46.67561" lon="-1.79961">
        <ele>40</ele>
        <time>2018-01-12T14:23:52Z</time>
      </trkpt>
      <trkpt lat="46.67568" lon="-1.79939">
        <ele>40</ele>
        <time>2018-01-12T14:24:52Z</time>
      </trkpt>
      <trkpt lat="46.67575" lon="-1.79917">
        <ele>41</ele>
        <time>2018-01-12T14:25:52Z</time>
      </trkpt>
      <trkpt lat="46.67579" lon="-1.79906">
        <ele>41</ele>
        <time>2018-01-12T14:26:52Z</time>
      </trkpt>
      <trkpt lat="46.67583" lon="-1.79895">
        <ele>41</ele>
        <time>2018-01-12T14:27:52Z</time>
      </trkpt>
      <trkpt lat="46.67589" lon="-1.79878">
        <ele>42</ele>
        <time>2018-01-12T14:28:52Z</time>
      </trkpt>
      <trkpt lat="46.67594" lon="-1.79861">
        <ele>42</ele>
        <time>2018-01-12T14:29:52Z</time>
      </trkpt>
      <trkpt lat="46.67597" lon="-1.79849">
        <ele>42</ele>
        <time>2018-01-12T14:30:52Z</time>
      </trkpt>
      <trkpt lat="46.67599" lon="-1.79837">
        <ele>42</ele>
        <time>2018-01-12T14:31:52Z</time>
      </trkpt>
      <trkpt lat="46.67601" lon="-1.79826">
        <ele>42</ele>
        <time>2018-01-12T14:32:52Z</time>
      </trkpt>
      <trkpt lat="46.67603" lon="-1.79809">
        <ele>42</ele>
        <time>2018-01-12T14:33:52Z</time>
      </trkpt>
      <trkpt lat="46.67604" lon="-1.79787">
        <ele>42</ele>
        <time>2018-01-12T14:34:52Z</time>
      </trkpt>
      <trkpt lat="46.67605" lon="-1.79761">
        <ele>41</ele>
        <time>2018-01-12T14:35:52Z</time>
      </trkpt>
      <trkpt lat="46.67607" lon="-1.79732">
        <ele>41</ele>
        <time>2018-01-12T14:36:52Z</time>
      </trkpt>
      <trkpt lat="46.6761" lon="-1.79707">
        <ele>41</ele>
        <time>2018-01-12T14:37:52Z</time>
      </trkpt>
      <trkpt lat="46.67613" lon="-1.79687">
        <ele>41</ele>
        <time>2018-01-12T14:38:52Z</time>
      </trkpt>
      <trkpt lat="46.6762" lon="-1.79658">
        <ele>40</ele>
        <time>2018-01-12T14:39:52Z</time>
      </trkpt>
      <trkpt lat="46.67625" lon="-1.79639">
        <ele>40</ele>
        <time>2018-01-12T14:40:52Z</time>
      </trkpt>
      <trkpt lat="46.6763" lon="-1.79615">
        <ele>40</ele>
        <time>2018-01-12T14:41:52Z</time>
      </trkpt>
      <trkpt lat="46.67633" lon="-1.79592">
        <ele>40</ele>
        <time>2018-01-12T14:42:52Z</time>
      </trkpt>
      <trkpt lat="46.67634" lon="-1.79568">
        <ele>40</ele>
        <time>2018-01-12T14:43:52Z</time>
      </trkpt>
      <trkpt lat="46.67634" lon="-1.79556">
        <ele>40</ele>
        <time>2018-01-12T14:44:52Z</time>
      </trkpt>
      <trkpt lat="46.67634" lon="-1.79544">
        <ele>40</ele>
        <time>2018-01-12T14:45:52Z</time>
      </trkpt>
      <trkpt lat="46.67631" lon="-1.79521">
        <ele>39</ele>
        <time>2018-01-12T14:46:52Z</time>
      </trkpt>
      <trkpt lat="46.67629" lon="-1.79509">
        <ele>39</ele>
        <time>2018-01-12T14:47:52Z</time>
      </trkpt>
      <trkpt lat="46.67627" lon="-1.79499">
        <ele>39</ele>
        <time>2018-01-12T14:48:52Z</time>
      </trkpt>
      <trkpt lat="46.67623" lon="-1.79488">
        <ele>40</ele>
        <time>2018-01-12T14:49:52Z</time>
      </trkpt>
      <trkpt lat="46.6762" lon="-1.79477">
        <ele>40</ele>
        <time>2018-01-12T14:50:52Z</time>
      </trkpt>
      <trkpt lat="46.67609" lon="-1.7945">
        <ele>40</ele>
        <time>2018-01-12T14:51:52Z</time>
      </trkpt>
      <trkpt lat="46.67599" lon="-1.79426">
        <ele>41</ele>
        <time>2018-01-12T14:52:52Z</time>
      </trkpt>
      <trkpt lat="46.67596" lon="-1.79417">
        <ele>41</ele>
        <time>2018-01-12T14:53:52Z</time>
      </trkpt>
      <trkpt lat="46.67593" lon="-1.79407">
        <ele>41</ele>
        <time>2018-01-12T14:54:52Z</time>
      </trkpt>
      <trkpt lat="46.6759" lon="-1.79398">
        <ele>41</ele>
        <time>2018-01-12T14:55:52Z</time>
      </trkpt>
      <trkpt lat="46.67586" lon="-1.79387">
        <ele>41</ele>
        <time>2018-01-12T14:56:52Z</time>
      </trkpt>
      <trkpt lat="46.67583" lon="-1.79372">
        <ele>42</ele>
        <time>2018-01-12T14:57:52Z</time>
      </trkpt>
      <trkpt lat="46.67581" lon="-1.79355">
        <ele>42</ele>
        <time>2018-01-12T14:58:52Z</time>
      </trkpt>
      <trkpt lat="46.6758" lon="-1.7934">
        <ele>42</ele>
        <time>2018-01-12T14:59:52Z</time>
      </trkpt>
      <trkpt lat="46.6758" lon="-1.79328">
        <ele>42</ele>
        <time>2018-01-12T15:00:52Z</time>
      </trkpt>
      <trkpt lat="46.67579" lon="-1.79279">
        <ele>43</ele>
        <time>2018-01-12T15:01:52Z</time>
      </trkpt>
      <trkpt lat="46.67578" lon="-1.79253">
        <ele>43</ele>
        <time>2018-01-12T15:02:52Z</time>
      </trkpt>
      <trkpt lat="46.67577" lon="-1.79214">
        <ele>43</ele>
        <time>2018-01-12T15:03:52Z</time>
      </trkpt>
      <trkpt lat="46.67576" lon="-1.79175">
        <ele>43</ele>
        <time>2018-01-12T15:04:52Z</time>
      </trkpt>
      <trkpt lat="46.67576" lon="-1.79159">
        <ele>43</ele>
        <time>2018-01-12T15:05:52Z</time>
      </trkpt>
      <trkpt lat="46.67576" lon="-1.79128">
        <ele>42</ele>
        <time>2018-01-12T15:06:52Z</time>
      </trkpt>
      <trkpt lat="46.67575" lon="-1.79106">
        <ele>42</ele>
        <time>2018-01-12T15:07:52Z</time>
      </trkpt>
      <trkpt lat="46.67572" lon="-1.79082">
        <ele>42</ele>
        <time>2018-01-12T15:08:52Z</time>
      </trkpt>
      <trkpt lat="46.67569" lon="-1.79056">
        <ele>41</ele>
        <time>2018-01-12T15:09:52Z</time>
      </trkpt>
      <trkpt lat="46.67565" lon="-1.79025">
        <ele>41</ele>
        <time>2018-01-12T15:10:52Z</time>
      </trkpt>
      <trkpt lat="46.67559" lon="-1.7899">
        <ele>40</ele>
        <time>2018-01-12T15:11:52Z</time>
      </trkpt>
      <trkpt lat="46.67556" lon="-1.78967">
        <ele>39</ele>
        <time>2018-01-12T15:12:52Z</time>
      </trkpt>
      <trkpt lat="46.67551" lon="-1.78936">
        <ele>37</ele>
        <time>2018-01-12T15:13:52Z</time>
      </trkpt>
      <trkpt lat="46.67545" lon="-1.78909">
        <ele>36</ele>
        <time>2018-01-12T15:14:52Z</time>
      </trkpt>
      <trkpt lat="46.6754" lon="-1.78889">
        <ele>36</ele>
        <time>2018-01-12T15:15:52Z</time>
      </trkpt>
      <trkpt lat="46.67532" lon="-1.7886">
        <ele>36</ele>
        <time>2018-01-12T15:16:52Z</time>
      </trkpt>
      <trkpt lat="46.67527" lon="-1.78838">
        <ele>36</ele>
        <time>2018-01-12T15:17:52Z</time>
      </trkpt>
      <trkpt lat="46.67523" lon="-1.78821">
        <ele>36</ele>
        <time>2018-01-12T15:18:52Z</time>
      </trkpt>
      <trkpt lat="46.67515" lon="-1.78791">
        <ele>36</ele>
        <time>2018-01-12T15:19:52Z</time>
      </trkpt>
      <trkpt lat="46.67513" lon="-1.78783">
        <ele>36</ele>
        <time>2018-01-12T15:20:52Z</time>
      </trkpt>
      <trkpt lat="46.67506" lon="-1.78755">
        <ele>36</ele>
        <time>2018-01-12T15:21:52Z</time>
      </trkpt>
      <trkpt lat="46.67499" lon="-1.78726">
        <ele>36</ele>
        <time>2018-01-12T15:22:52Z</time>
      </trkpt>
      <trkpt lat="46.67491" lon="-1.78695">
        <ele>36</ele>
        <time>2018-01-12T15:23:52Z</time>
      </trkpt>
      <trkpt lat="46.67481" lon="-1.78658">
        <ele>36</ele>
        <time>2018-01-12T15:24:52Z</time>
      </trkpt>
      <trkpt lat="46.67471" lon="-1.78619">
        <ele>35</ele>
        <time>2018-01-12T15:25:52Z</time>
      </trkpt>
      <trkpt lat="46.67465" lon="-1.78601">
        <ele>35</ele>
        <time>2018-01-12T15:26:52Z</time>
      </trkpt>
      <trkpt lat="46.67462" lon="-1.78591">
        <ele>35</ele>
        <time>2018-01-12T15:27:52Z</time>
      </trkpt>
      <trkpt lat="46.67457" lon="-1.78584">
        <ele>36</ele>
        <time>2018-01-12T15:28:52Z</time>
      </trkpt>
      <trkpt lat="46.67454" lon="-1.78576">
        <ele>36</ele>
        <time>2018-01-12T15:29:52Z</time>
      </trkpt>
      <trkpt lat="46.6745" lon="-1.7857">
        <ele>36</ele>
        <time>2018-01-12T15:30:52Z</time>
      </trkpt>
      <trkpt lat="46.67448" lon="-1.78566">
        <ele>36</ele>
        <time>2018-01-12T15:31:52Z</time>
      </trkpt>
      <trkpt lat="46.67445" lon="-1.78562">
        <ele>36</ele>
        <time>2018-01-12T15:32:52Z</time>
      </trkpt>
      <trkpt lat="46.67442" lon="-1.78559">
        <ele>36</ele>
        <time>2018-01-12T15:33:52Z</time>
      </trkpt>
      <trkpt lat="46.67435" lon="-1.78542">
        <ele>36</ele>
        <time>2018-01-12T15:34:52Z</time>
      </trkpt>
      <trkpt lat="46.67433" lon="-1.78533">
        <ele>36</ele>
        <time>2018-01-12T15:35:52Z</time>
      </trkpt>
      <trkpt lat="46.67431" lon="-1.78524">
        <ele>36</ele>
        <time>2018-01-12T15:36:52Z</time>
      </trkpt>
      <trkpt lat="46.67421" lon="-1.78499">
        <ele>36</ele>
        <time>2018-01-12T15:37:52Z</time>
      </trkpt>
      <trkpt lat="46.6741" lon="-1.78476">
        <ele>36</ele>
        <time>2018-01-12T15:38:52Z</time>
      </trkpt>
      <trkpt lat="46.67402" lon="-1.78457">
        <ele>37</ele>
        <time>2018-01-12T15:39:52Z</time>
      </trkpt>
      <trkpt lat="46.67389" lon="-1.78426">
        <ele>37</ele>
        <time>2018-01-12T15:40:52Z</time>
      </trkpt>
      <trkpt lat="46.67379" lon="-1.78401">
        <ele>37</ele>
        <time>2018-01-12T15:41:52Z</time>
      </trkpt>
      <trkpt lat="46.67373" lon="-1.78382">
        <ele>37</ele>
        <time>2018-01-12T15:42:52Z</time>
      </trkpt>
      <trkpt lat="46.67368" lon="-1.78363">
        <ele>37</ele>
        <time>2018-01-12T15:43:52Z</time>
      </trkpt>
      <trkpt lat="46.67362" lon="-1.78345">
        <ele>37</ele>
        <time>2018-01-12T15:44:52Z</time>
      </trkpt>
      <trkpt lat="46.67355" lon="-1.78325">
        <ele>37</ele>
        <time>2018-01-12T15:45:52Z</time>
      </trkpt>
      <trkpt lat="46.67351" lon="-1.78317">
        <ele>37</ele>
        <time>2018-01-12T15:46:52Z</time>
      </trkpt>
      <trkpt lat="46.67347" lon="-1.78309">
        <ele>37</ele>
        <time>2018-01-12T15:47:52Z</time>
      </trkpt>
      <trkpt lat="46.67341" lon="-1.78301">
        <ele>37</ele>
        <time>2018-01-12T15:48:52Z</time>
      </trkpt>
      <trkpt lat="46.67336" lon="-1.78294">
        <ele>37</ele>
        <time>2018-01-12T15:49:52Z</time>
      </trkpt>
      <trkpt lat="46.6733" lon="-1.78289">
        <ele>37</ele>
        <time>2018-01-12T15:50:52Z</time>
      </trkpt>
      <trkpt lat="46.67324" lon="-1.78284">
        <ele>37</ele>
        <time>2018-01-12T15:51:52Z</time>
      </trkpt>
      <trkpt lat="46.67315" lon="-1.78278">
        <ele>37</ele>
        <time>2018-01-12T15:52:52Z</time>
      </trkpt>
      <trkpt lat="46.67307" lon="-1.78274">
        <ele>37</ele>
        <time>2018-01-12T15:53:52Z</time>
      </trkpt>
      <trkpt lat="46.67273" lon="-1.78259">
        <ele>37</ele>
        <time>2018-01-12T15:54:52Z</time>
      </trkpt>
      <trkpt lat="46.67251" lon="-1.78249">
        <ele>37</ele>
        <time>2018-01-12T15:55:52Z</time>
      </trkpt>
      <trkpt lat="46.67221" lon="-1.78237">
        <ele>38</ele>
        <time>2018-01-12T15:56:52Z</time>
      </trkpt>
      <trkpt lat="46.67208" lon="-1.7823">
        <ele>38</ele>
        <time>2018-01-12T15:57:52Z</time>
      </trkpt>
      <trkpt lat="46.67201" lon="-1.78226">
        <ele>38</ele>
        <time>2018-01-12T15:58:52Z</time>
      </trkpt>
      <trkpt lat="46.67196" lon="-1.78221">
        <ele>39</ele>
        <time>2018-01-12T15:59:52Z</time>
      </trkpt>
      <trkpt lat="46.67186" lon="-1.78212">
        <ele>39</ele>
        <time>2018-01-12T16:00:52Z</time>
      </trkpt>
      <trkpt lat="46.67181" lon="-1.78202">
        <ele>39</ele>
        <time>2018-01-12T16:01:52Z</time>
      </trkpt>
      <trkpt lat="46.67176" lon="-1.78192">
        <ele>39</ele>
        <time>2018-01-12T16:02:52Z</time>
      </trkpt>
      <trkpt lat="46.67174" lon="-1.78185">
        <ele>40</ele>
        <time>2018-01-12T16:03:52Z</time>
      </trkpt>
      <trkpt lat="46.67172" lon="-1.78177">
        <ele>40</ele>
        <time>2018-01-12T16:04:52Z</time>
      </trkpt>
      <trkpt lat="46.67169" lon="-1.78158">
        <ele>40</ele>
        <time>2018-01-12T16:05:52Z</time>
      </trkpt>
      <trkpt lat="46.67165" lon="-1.78136">
        <ele>40</ele>
        <time>2018-01-12T16:06:52Z</time>
      </trkpt>
      <trkpt lat="46.67161" lon="-1.78106">
        <ele>41</ele>
        <time>2018-01-12T16:07:52Z</time>
      </trkpt>
      <trkpt lat="46.67158" lon="-1.78077">
        <ele>41</ele>
        <time>2018-01-12T16:08:52Z</time>
      </trkpt>
      <trkpt lat="46.67157" lon="-1.7806">
        <ele>41</ele>
        <time>2018-01-12T16:09:52Z</time>
      </trkpt>
      <trkpt lat="46.67155" lon="-1.78038">
        <ele>41</ele>
        <time>2018-01-12T16:10:52Z</time>
      </trkpt>
      <trkpt lat="46.67155" lon="-1.78015">
        <ele>41</ele>
        <time>2018-01-12T16:11:52Z</time>
      </trkpt>
      <trkpt lat="46.67154" lon="-1.77993">
        <ele>41</ele>
        <time>2018-01-12T16:12:52Z</time>
      </trkpt>
      <trkpt lat="46.67152" lon="-1.77971">
        <ele>42</ele>
        <time>2018-01-12T16:13:52Z</time>
      </trkpt>
      <trkpt lat="46.67147" lon="-1.77951">
        <ele>42</ele>
        <time>2018-01-12T16:14:52Z</time>
      </trkpt>
      <trkpt lat="46.6714" lon="-1.77931">
        <ele>42</ele>
        <time>2018-01-12T16:15:52Z</time>
      </trkpt>
      <trkpt lat="46.67132" lon="-1.77911">
        <ele>43</ele>
        <time>2018-01-12T16:16:52Z</time>
      </trkpt>
      <trkpt lat="46.67116" lon="-1.77878">
        <ele>43</ele>
        <time>2018-01-12T16:17:52Z</time>
      </trkpt>
      <trkpt lat="46.67095" lon="-1.77835">
        <ele>43</ele>
        <time>2018-01-12T16:18:52Z</time>
      </trkpt>
      <trkpt lat="46.67069" lon="-1.77781">
        <ele>44</ele>
        <time>2018-01-12T16:19:52Z</time>
      </trkpt>
      <trkpt lat="46.6706" lon="-1.77764">
        <ele>44</ele>
        <time>2018-01-12T16:20:52Z</time>
      </trkpt>
      <trkpt lat="46.67055" lon="-1.77752">
        <ele>44</ele>
        <time>2018-01-12T16:21:52Z</time>
      </trkpt>
      <trkpt lat="46.67054" lon="-1.7775">
        <ele>44</ele>
        <time>2018-01-12T16:22:52Z</time>
      </trkpt>
      <trkpt lat="46.67033" lon="-1.77706">
        <ele>45</ele>
        <time>2018-01-12T16:23:52Z</time>
      </trkpt>
      <trkpt lat="46.67016" lon="-1.77669">
        <ele>45</ele>
        <time>2018-01-12T16:24:52Z</time>
      </trkpt>
      <trkpt lat="46.66998" lon="-1.77631">
        <ele>45</ele>
        <time>2018-01-12T16:25:52Z</time>
      </trkpt>
      <trkpt lat="46.66984" lon="-1.77605">
        <ele>46</ele>
        <time>2018-01-12T16:26:52Z</time>
      </trkpt>
      <trkpt lat="46.66971" lon="-1.77577">
        <ele>46</ele>
        <time>2018-01-12T16:27:52Z</time>
      </trkpt>
      <trkpt lat="46.66962" lon="-1.77558">
        <ele>46</ele>
        <time>2018-01-12T16:28:52Z</time>
      </trkpt>
      <trkpt lat="46.6696" lon="-1.77551">
        <ele>46</ele>
        <time>2018-01-12T16:29:52Z</time>
      </trkpt>
      <trkpt lat="46.66959" lon="-1.77544">
        <ele>46</ele>
        <time>2018-01-12T16:30:52Z</time>
      </trkpt>
      <trkpt lat="46.66958" lon="-1.77537">
        <ele>47</ele>
        <time>2018-01-12T16:31:52Z</time>
      </trkpt>
      <trkpt lat="46.66957" lon="-1.77528">
        <ele>47</ele>
        <time>2018-01-12T16:32:52Z</time>
      </trkpt>
      <trkpt lat="46.66957" lon="-1.7752">
        <ele>47</ele>
        <time>2018-01-12T16:33:52Z</time>
      </trkpt>
      <trkpt lat="46.66957" lon="-1.77515">
        <ele>47</ele>
        <time>2018-01-12T16:34:52Z</time>
      </trkpt>
      <trkpt lat="46.66957" lon="-1.7751">
        <ele>47</ele>
        <time>2018-01-12T16:35:52Z</time>
      </trkpt>
      <trkpt lat="46.66958" lon="-1.77501">
        <ele>47</ele>
        <time>2018-01-12T16:36:52Z</time>
      </trkpt>
      <trkpt lat="46.6696" lon="-1.77493">
        <ele>47</ele>
        <time>2018-01-12T16:37:52Z</time>
      </trkpt>
      <trkpt lat="46.66962" lon="-1.77484">
        <ele>47</ele>
        <time>2018-01-12T16:38:52Z</time>
      </trkpt>
      <trkpt lat="46.66964" lon="-1.77476">
        <ele>47</ele>
        <time>2018-01-12T16:39:52Z</time>
      </trkpt>
      <trkpt lat="46.66967" lon="-1.77465">
        <ele>47</ele>
        <time>2018-01-12T16:40:52Z</time>
      </trkpt>
      <trkpt lat="46.66971" lon="-1.77451">
        <ele>47</ele>
        <time>2018-01-12T16:41:52Z</time>
      </trkpt>
      <trkpt lat="46.6698" lon="-1.77417">
        <ele>47</ele>
        <time>2018-01-12T16:42:52Z</time>
      </trkpt>
      <trkpt lat="46.66988" lon="-1.77391">
        <ele>47</ele>
        <time>2018-01-12T16:43:52Z</time>
      </trkpt>
      <trkpt lat="46.66994" lon="-1.77369">
        <ele>47</ele>
        <time>2018-01-12T16:44:52Z</time>
      </trkpt>
      <trkpt lat="46.67001" lon="-1.77341">
        <ele>48</ele>
        <time>2018-01-12T16:45:52Z</time>
      </trkpt>
      <trkpt lat="46.67005" lon="-1.77325">
        <ele>48</ele>
        <time>2018-01-12T16:46:52Z</time>
      </trkpt>
      <trkpt lat="46.67008" lon="-1.77312">
        <ele>48</ele>
        <time>2018-01-12T16:47:52Z</time>
      </trkpt>
      <trkpt lat="46.6701" lon="-1.77298">
        <ele>48</ele>
        <time>2018-01-12T16:48:52Z</time>
      </trkpt>
      <trkpt lat="46.67015" lon="-1.77269">
        <ele>49</ele>
        <time>2018-01-12T16:49:52Z</time>
      </trkpt>
      <trkpt lat="46.67021" lon="-1.77237">
        <ele>49</ele>
        <time>2018-01-12T16:50:52Z</time>
      </trkpt>
      <trkpt lat="46.6703" lon="-1.77186">
        <ele>49</ele>
        <time>2018-01-12T16:51:52Z</time>
      </trkpt>
      <trkpt lat="46.67038" lon="-1.77144">
        <ele>50</ele>
        <time>2018-01-12T16:52:52Z</time>
      </trkpt>
      <trkpt lat="46.67044" lon="-1.77105">
        <ele>50</ele>
        <time>2018-01-12T16:53:52Z</time>
      </trkpt>
      <trkpt lat="46.67048" lon="-1.77084">
        <ele>51</ele>
        <time>2018-01-12T16:54:52Z</time>
      </trkpt>
      <trkpt lat="46.6705" lon="-1.77071">
        <ele>51</ele>
        <time>2018-01-12T16:55:52Z</time>
      </trkpt>
      <trkpt lat="46.6705" lon="-1.77066">
        <ele>51</ele>
        <time>2018-01-12T16:56:52Z</time>
      </trkpt>
      <trkpt lat="46.67052" lon="-1.77057">
        <ele>51</ele>
        <time>2018-01-12T16:57:52Z</time>
      </trkpt>
      <trkpt lat="46.67053" lon="-1.77046">
        <ele>51</ele>
        <time>2018-01-12T16:58:52Z</time>
      </trkpt>
      <trkpt lat="46.67055" lon="-1.77029">
        <ele>51</ele>
        <time>2018-01-12T16:59:52Z</time>
      </trkpt>
      <trkpt lat="46.67061" lon="-1.7699">
        <ele>52</ele>
        <time>2018-01-12T17:00:52Z</time>
      </trkpt>
      <trkpt lat="46.67067" lon="-1.76944">
        <ele>52</ele>
        <time>2018-01-12T17:01:52Z</time>
      </trkpt>
      <trkpt lat="46.6707" lon="-1.76927">
        <ele>52</ele>
        <time>2018-01-12T17:02:52Z</time>
      </trkpt>
      <trkpt lat="46.67073" lon="-1.76914">
        <ele>52</ele>
        <time>2018-01-12T17:03:52Z</time>
      </trkpt>
      <trkpt lat="46.67075" lon="-1.76904">
        <ele>52</ele>
        <time>2018-01-12T17:04:52Z</time>
      </trkpt>
      <trkpt lat="46.67084" lon="-1.76857">
        <ele>52</ele>
        <time>2018-01-12T17:05:52Z</time>
      </trkpt>
      <trkpt lat="46.67095" lon="-1.76807">
        <ele>52</ele>
        <time>2018-01-12T17:06:52Z</time>
      </trkpt>
      <trkpt lat="46.67103" lon="-1.76772">
        <ele>52</ele>
        <time>2018-01-12T17:07:52Z</time>
      </trkpt>
      <trkpt lat="46.67104" lon="-1.76764">
        <ele>52</ele>
        <time>2018-01-12T17:08:52Z</time>
      </trkpt>
      <trkpt lat="46.67107" lon="-1.76753">
        <ele>52</ele>
        <time>2018-01-12T17:09:52Z</time>
      </trkpt>
      <trkpt lat="46.67108" lon="-1.76743">
        <ele>52</ele>
        <time>2018-01-12T17:10:52Z</time>
      </trkpt>
      <trkpt lat="46.67109" lon="-1.76734">
        <ele>52</ele>
        <time>2018-01-12T17:11:52Z</time>
      </trkpt>
      <trkpt lat="46.6711" lon="-1.76721">
        <ele>52</ele>
        <time>2018-01-12T17:12:52Z</time>
      </trkpt>
      <trkpt lat="46.67112" lon="-1.76704">
        <ele>52</ele>
        <time>2018-01-12T17:13:52Z</time>
      </trkpt>
      <trkpt lat="46.67114" lon="-1.76683">
        <ele>51</ele>
        <time>2018-01-12T17:14:52Z</time>
      </trkpt>
      <trkpt lat="46.67115" lon="-1.76663">
        <ele>51</ele>
        <time>2018-01-12T17:15:52Z</time>
      </trkpt>
      <trkpt lat="46.67117" lon="-1.7664">
        <ele>51</ele>
        <time>2018-01-12T17:16:52Z</time>
      </trkpt>
      <trkpt lat="46.67119" lon="-1.76618">
        <ele>51</ele>
        <time>2018-01-12T17:17:52Z</time>
      </trkpt>
      <trkpt lat="46.67121" lon="-1.76604">
        <ele>50</ele>
        <time>2018-01-12T17:18:52Z</time>
      </trkpt>
      <trkpt lat="46.67121" lon="-1.76598">
        <ele>50</ele>
        <time>2018-01-12T17:19:52Z</time>
      </trkpt>
      <trkpt lat="46.67123" lon="-1.76589">
        <ele>50</ele>
        <time>2018-01-12T17:20:52Z</time>
      </trkpt>
      <trkpt lat="46.67125" lon="-1.76581">
        <ele>50</ele>
        <time>2018-01-12T17:21:52Z</time>
      </trkpt>
      <trkpt lat="46.67126" lon="-1.76576">
        <ele>50</ele>
        <time>2018-01-12T17:22:52Z</time>
      </trkpt>
      <trkpt lat="46.6713" lon="-1.7656">
        <ele>50</ele>
        <time>2018-01-12T17:23:52Z</time>
      </trkpt>
      <trkpt lat="46.67133" lon="-1.76546">
        <ele>50</ele>
        <time>2018-01-12T17:24:52Z</time>
      </trkpt>
      <trkpt lat="46.6714" lon="-1.76523">
        <ele>50</ele>
        <time>2018-01-12T17:25:52Z</time>
      </trkpt>
      <trkpt lat="46.6715" lon="-1.76484">
        <ele>50</ele>
        <time>2018-01-12T17:26:52Z</time>
      </trkpt>
      <trkpt lat="46.67166" lon="-1.76425">
        <ele>50</ele>
        <time>2018-01-12T17:27:52Z</time>
      </trkpt>
      <trkpt lat="46.67171" lon="-1.76406">
        <ele>50</ele>
        <time>2018-01-12T17:28:52Z</time>
      </trkpt>
      <trkpt lat="46.67176" lon="-1.76389">
        <ele>51</ele>
        <time>2018-01-12T17:29:52Z</time>
      </trkpt>
      <trkpt lat="46.6718" lon="-1.7638">
        <ele>51</ele>
        <time>2018-01-12T17:30:52Z</time>
      </trkpt>
      <trkpt lat="46.67182" lon="-1.76374">
        <ele>51</ele>
        <time>2018-01-12T17:31:52Z</time>
      </trkpt>
      <trkpt lat="46.67184" lon="-1.76371">
        <ele>51</ele>
        <time>2018-01-12T17:32:52Z</time>
      </trkpt>
      <trkpt lat="46.67187" lon="-1.76364">
        <ele>51</ele>
        <time>2018-01-12T17:33:52Z</time>
      </trkpt>
      <trkpt lat="46.672" lon="-1.76338">
        <ele>51</ele>
        <time>2018-01-12T17:34:52Z</time>
      </trkpt>
      <trkpt lat="46.67207" lon="-1.76324">
        <ele>51</ele>
        <time>2018-01-12T17:35:52Z</time>
      </trkpt>
      <trkpt lat="46.67214" lon="-1.76309">
        <ele>51</ele>
        <time>2018-01-12T17:36:52Z</time>
      </trkpt>
      <trkpt lat="46.67226" lon="-1.76284">
        <ele>51</ele>
        <time>2018-01-12T17:37:52Z</time>
      </trkpt>
      <trkpt lat="46.67234" lon="-1.76268">
        <ele>51</ele>
        <time>2018-01-12T17:38:52Z</time>
      </trkpt>
      <trkpt lat="46.67244" lon="-1.76243">
        <ele>51</ele>
        <time>2018-01-12T17:39:52Z</time>
      </trkpt>
      <trkpt lat="46.67249" lon="-1.76231">
        <ele>51</ele>
        <time>2018-01-12T17:40:52Z</time>
      </trkpt>
      <trkpt lat="46.67255" lon="-1.76217">
        <ele>51</ele>
        <time>2018-01-12T17:41:52Z</time>
      </trkpt>
      <trkpt lat="46.67262" lon="-1.76199">
        <ele>52</ele>
        <time>2018-01-12T17:42:52Z</time>
      </trkpt>
      <trkpt lat="46.67267" lon="-1.76183">
        <ele>52</ele>
        <time>2018-01-12T17:43:52Z</time>
      </trkpt>
      <trkpt lat="46.67269" lon="-1.76175">
        <ele>52</ele>
        <time>2018-01-12T17:44:52Z</time>
      </trkpt>
      <trkpt lat="46.6727" lon="-1.76168">
        <ele>52</ele>
        <time>2018-01-12T17:45:52Z</time>
      </trkpt>
      <trkpt lat="46.67272" lon="-1.76156">
        <ele>52</ele>
        <time>2018-01-12T17:46:52Z</time>
      </trkpt>
      <trkpt lat="46.67274" lon="-1.76138">
        <ele>52</ele>
        <time>2018-01-12T17:47:52Z</time>
      </trkpt>
      <trkpt lat="46.67277" lon="-1.76114">
        <ele>52</ele>
        <time>2018-01-12T17:48:52Z</time>
      </trkpt>
      <trkpt lat="46.67281" lon="-1.7608">
        <ele>52</ele>
        <time>2018-01-12T17:49:52Z</time>
      </trkpt>
      <trkpt lat="46.67285" lon="-1.76045">
        <ele>52</ele>
        <time>2018-01-12T17:50:52Z</time>
      </trkpt>
      <trkpt lat="46.67289" lon="-1.76008">
        <ele>52</ele>
        <time>2018-01-12T17:51:52Z</time>
      </trkpt>
      <trkpt lat="46.67292" lon="-1.75975">
        <ele>52</ele>
        <time>2018-01-12T17:52:52Z</time>
      </trkpt>
      <trkpt lat="46.67295" lon="-1.75945">
        <ele>52</ele>
        <time>2018-01-12T17:53:52Z</time>
      </trkpt>
      <trkpt lat="46.67298" lon="-1.75924">
        <ele>52</ele>
        <time>2018-01-12T17:54:52Z</time>
      </trkpt>
      <trkpt lat="46.67296" lon="-1.75918">
        <ele>52</ele>
        <time>2018-01-12T17:55:52Z</time>
      </trkpt>
      <trkpt lat="46.67297" lon="-1.75892">
        <ele>52</ele>
        <time>2018-01-12T17:56:52Z</time>
      </trkpt>
      <trkpt lat="46.67296" lon="-1.75877">
        <ele>52</ele>
        <time>2018-01-12T17:57:52Z</time>
      </trkpt>
      <trkpt lat="46.67296" lon="-1.75877">
        <ele>52</ele>
        <time>2018-01-12T17:58:52Z</time>
      </trkpt>
      <trkpt lat="46.67283" lon="-1.75878">
        <ele>52</ele>
        <time>2018-01-12T17:59:52Z</time>
      </trkpt>
      <trkpt lat="46.67279" lon="-1.75877">
        <ele>52</ele>
        <time>2018-01-12T18:00:52Z</time>
      </trkpt>
      <trkpt lat="46.67263" lon="-1.75887">
        <ele>51</ele>
        <time>2018-01-12T18:01:52Z</time>
      </trkpt>
      <trkpt lat="46.67229" lon="-1.75909">
        <ele>51</ele>
        <time>2018-01-12T18:02:52Z</time>
      </trkpt>
      <trkpt lat="46.67193" lon="-1.75932">
        <ele>51</ele>
        <time>2018-01-12T18:03:52Z</time>
      </trkpt>
      <trkpt lat="46.67171" lon="-1.75946">
        <ele>51</ele>
        <time>2018-01-12T18:04:52Z</time>
      </trkpt>
      <trkpt lat="46.67154" lon="-1.75957">
        <ele>52</ele>
        <time>2018-01-12T18:05:52Z</time>
      </trkpt>
      <trkpt lat="46.67148" lon="-1.7596">
        <ele>52</ele>
        <time>2018-01-12T18:06:52Z</time>
      </trkpt>
      <trkpt lat="46.67141" lon="-1.75963">
        <ele>52</ele>
        <time>2018-01-12T18:07:52Z</time>
      </trkpt>
      <trkpt lat="46.67137" lon="-1.75963">
        <ele>52</ele>
        <time>2018-01-12T18:08:52Z</time>
      </trkpt>
      <trkpt lat="46.67132" lon="-1.75964">
        <ele>52</ele>
        <time>2018-01-12T18:09:52Z</time>
      </trkpt>
      <trkpt lat="46.67127" lon="-1.75962">
        <ele>52</ele>
        <time>2018-01-12T18:10:52Z</time>
      </trkpt>
      <trkpt lat="46.67123" lon="-1.7596">
        <ele>52</ele>
        <time>2018-01-12T18:11:52Z</time>
      </trkpt>
      <trkpt lat="46.6712" lon="-1.75958">
        <ele>52</ele>
        <time>2018-01-12T18:12:52Z</time>
      </trkpt>
      <trkpt lat="46.67117" lon="-1.75955">
        <ele>52</ele>
        <time>2018-01-12T18:13:52Z</time>
      </trkpt>
      <trkpt lat="46.67114" lon="-1.75952">
        <ele>52</ele>
        <time>2018-01-12T18:14:52Z</time>
      </trkpt>
      <trkpt lat="46.67112" lon="-1.75949">
        <ele>52</ele>
        <time>2018-01-12T18:15:52Z</time>
      </trkpt>
      <trkpt lat="46.67109" lon="-1.75944">
        <ele>52</ele>
        <time>2018-01-12T18:16:52Z</time>
      </trkpt>
      <trkpt lat="46.67104" lon="-1.75932">
        <ele>51</ele>
        <time>2018-01-12T18:17:52Z</time>
      </trkpt>
      <trkpt lat="46.67084" lon="-1.75884">
        <ele>51</ele>
        <time>2018-01-12T18:18:52Z</time>
      </trkpt>
      <trkpt lat="46.67081" lon="-1.75878">
        <ele>51</ele>
        <time>2018-01-12T18:19:52Z</time>
      </trkpt>
      <trkpt lat="46.67073" lon="-1.75856">
        <ele>51</ele>
        <time>2018-01-12T18:20:52Z</time>
      </trkpt>
      <trkpt lat="46.6707" lon="-1.75846">
        <ele>51</ele>
        <time>2018-01-12T18:21:52Z</time>
      </trkpt>
      <trkpt lat="46.67069" lon="-1.75843">
        <ele>51</ele>
        <time>2018-01-12T18:22:52Z</time>
      </trkpt>
      <trkpt lat="46.67067" lon="-1.75837">
        <ele>51</ele>
        <time>2018-01-12T18:23:52Z</time>
      </trkpt>
      <trkpt lat="46.67065" lon="-1.75828">
        <ele>51</ele>
        <time>2018-01-12T18:24:52Z</time>
      </trkpt>
      <trkpt lat="46.67063" lon="-1.75815">
        <ele>51</ele>
        <time>2018-01-12T18:25:52Z</time>
      </trkpt>
      <trkpt lat="46.67061" lon="-1.75808">
        <ele>51</ele>
        <time>2018-01-12T18:26:52Z</time>
      </trkpt>
      <trkpt lat="46.6706" lon="-1.75803">
        <ele>51</ele>
        <time>2018-01-12T18:27:52Z</time>
      </trkpt>
      <trkpt lat="46.6706" lon="-1.758">
        <ele>51</ele>
        <time>2018-01-12T18:28:52Z</time>
      </trkpt>
      <trkpt lat="46.67059" lon="-1.75797">
        <ele>51</ele>
        <time>2018-01-12T18:29:52Z</time>
      </trkpt>
      <trkpt lat="46.67058" lon="-1.75795">
        <ele>51</ele>
        <time>2018-01-12T18:30:52Z</time>
      </trkpt>
      <trkpt lat="46.67057" lon="-1.7579">
        <ele>51</ele>
        <time>2018-01-12T18:31:52Z</time>
      </trkpt>
      <trkpt lat="46.67055" lon="-1.75783">
        <ele>51</ele>
        <time>2018-01-12T18:32:52Z</time>
      </trkpt>
      <trkpt lat="46.67053" lon="-1.75777">
        <ele>51</ele>
        <time>2018-01-12T18:33:52Z</time>
      </trkpt>
      <trkpt lat="46.67048" lon="-1.75765">
        <ele>51</ele>
        <time>2018-01-12T18:34:52Z</time>
      </trkpt>
      <trkpt lat="46.67037" lon="-1.75737">
        <ele>51</ele>
        <time>2018-01-12T18:35:52Z</time>
      </trkpt>
      <trkpt lat="46.67036" lon="-1.75731">
        <ele>51</ele>
        <time>2018-01-12T18:36:52Z</time>
      </trkpt>
      <trkpt lat="46.67026" lon="-1.75699">
        <ele>51</ele>
        <time>2018-01-12T18:37:52Z</time>
      </trkpt>
      <trkpt lat="46.67023" lon="-1.7569">
        <ele>51</ele>
        <time>2018-01-12T18:38:52Z</time>
      </trkpt>
      <trkpt lat="46.67021" lon="-1.75683">
        <ele>51</ele>
        <time>2018-01-12T18:39:52Z</time>
      </trkpt>
      <trkpt lat="46.67018" lon="-1.75673">
        <ele>51</ele>
        <time>2018-01-12T18:40:52Z</time>
      </trkpt>
      <trkpt lat="46.67017" lon="-1.75667">
        <ele>51</ele>
        <time>2018-01-12T18:41:52Z</time>
      </trkpt>
      <trkpt lat="46.67015" lon="-1.75662">
        <ele>50</ele>
        <time>2018-01-12T18:42:52Z</time>
      </trkpt>
      <trkpt lat="46.67013" lon="-1.75658">
        <ele>50</ele>
        <time>2018-01-12T18:43:52Z</time>
      </trkpt>
      <trkpt lat="46.6701" lon="-1.75651">
        <ele>50</ele>
        <time>2018-01-12T18:44:52Z</time>
      </trkpt>
      <trkpt lat="46.67008" lon="-1.75646">
        <ele>50</ele>
        <time>2018-01-12T18:45:52Z</time>
      </trkpt>
      <trkpt lat="46.67004" lon="-1.7564">
        <ele>50</ele>
        <time>2018-01-12T18:46:52Z</time>
      </trkpt>
      <trkpt lat="46.67001" lon="-1.75635">
        <ele>49</ele>
        <time>2018-01-12T18:47:52Z</time>
      </trkpt>
      <trkpt lat="46.66998" lon="-1.75631">
        <ele>49</ele>
        <time>2018-01-12T18:48:52Z</time>
      </trkpt>
      <trkpt lat="46.66996" lon="-1.75628">
        <ele>49</ele>
        <time>2018-01-12T18:49:52Z</time>
      </trkpt>
      <trkpt lat="46.66994" lon="-1.75627">
        <ele>49</ele>
        <time>2018-01-12T18:50:52Z</time>
      </trkpt>
      <trkpt lat="46.66993" lon="-1.75625">
        <ele>49</ele>
        <time>2018-01-12T18:51:52Z</time>
      </trkpt>
      <trkpt lat="46.66981" lon="-1.75618">
        <ele>48</ele>
        <time>2018-01-12T18:52:52Z</time>
      </trkpt>
      <trkpt lat="46.66978" lon="-1.75616">
        <ele>48</ele>
        <time>2018-01-12T18:53:52Z</time>
      </trkpt>
      <trkpt lat="46.66973" lon="-1.75615">
        <ele>48</ele>
        <time>2018-01-12T18:54:52Z</time>
      </trkpt>
      <trkpt lat="46.6696" lon="-1.75611">
        <ele>48</ele>
        <time>2018-01-12T18:55:52Z</time>
      </trkpt>
      <trkpt lat="46.66934" lon="-1.75606">
        <ele>48</ele>
        <time>2018-01-12T18:56:52Z</time>
      </trkpt>
      <trkpt lat="46.66921" lon="-1.75604">
        <ele>48</ele>
        <time>2018-01-12T18:57:52Z</time>
      </trkpt>
      <trkpt lat="46.66911" lon="-1.75601">
        <ele>47</ele>
        <time>2018-01-12T18:58:52Z</time>
      </trkpt>
      <trkpt lat="46.669" lon="-1.75598">
        <ele>47</ele>
        <time>2018-01-12T18:59:52Z</time>
      </trkpt>
      <trkpt lat="46.66895" lon="-1.75596">
        <ele>47</ele>
        <time>2018-01-12T19:00:52Z</time>
      </trkpt>
      <trkpt lat="46.6689" lon="-1.75594">
        <ele>47</ele>
        <time>2018-01-12T19:01:52Z</time>
      </trkpt>
      <trkpt lat="46.66884" lon="-1.75591">
        <ele>47</ele>
        <time>2018-01-12T19:02:52Z</time>
      </trkpt>
      <trkpt lat="46.66879" lon="-1.75589">
        <ele>47</ele>
        <time>2018-01-12T19:03:52Z</time>
      </trkpt>
      <trkpt lat="46.66876" lon="-1.75587">
        <ele>47</ele>
        <time>2018-01-12T19:04:52Z</time>
      </trkpt>
      <trkpt lat="46.66872" lon="-1.75583">
        <ele>47</ele>
        <time>2018-01-12T19:05:52Z</time>
      </trkpt>
      <trkpt lat="46.66864" lon="-1.75578">
        <ele>47</ele>
        <time>2018-01-12T19:06:52Z</time>
      </trkpt>
      <trkpt lat="46.66859" lon="-1.75573">
        <ele>46</ele>
        <time>2018-01-12T19:07:52Z</time>
      </trkpt>
      <trkpt lat="46.66854" lon="-1.75568">
        <ele>46</ele>
        <time>2018-01-12T19:08:52Z</time>
      </trkpt>
      <trkpt lat="46.66839" lon="-1.75552">
        <ele>45</ele>
        <time>2018-01-12T19:09:52Z</time>
      </trkpt>
      <trkpt lat="46.66831" lon="-1.75542">
        <ele>45</ele>
        <time>2018-01-12T19:10:52Z</time>
      </trkpt>
      <trkpt lat="46.66819" lon="-1.7553">
        <ele>45</ele>
        <time>2018-01-12T19:11:52Z</time>
      </trkpt>
      <trkpt lat="46.66808" lon="-1.75521">
        <ele>45</ele>
        <time>2018-01-12T19:12:52Z</time>
      </trkpt>
      <trkpt lat="46.66803" lon="-1.75517">
        <ele>45</ele>
        <time>2018-01-12T19:13:52Z</time>
      </trkpt>
      <trkpt lat="46.66797" lon="-1.75513">
        <ele>45</ele>
        <time>2018-01-12T19:14:52Z</time>
      </trkpt>
      <trkpt lat="46.66786" lon="-1.75508">
        <ele>46</ele>
        <time>2018-01-12T19:15:52Z</time>
      </trkpt>
      <trkpt lat="46.66775" lon="-1.75504">
        <ele>46</ele>
        <time>2018-01-12T19:16:52Z</time>
      </trkpt>
      <trkpt lat="46.6676" lon="-1.75499">
        <ele>46</ele>
        <time>2018-01-12T19:17:52Z</time>
      </trkpt>
      <trkpt lat="46.66737" lon="-1.75493">
        <ele>47</ele>
        <time>2018-01-12T19:18:52Z</time>
      </trkpt>
      <trkpt lat="46.66715" lon="-1.75487">
        <ele>48</ele>
        <time>2018-01-12T19:19:52Z</time>
      </trkpt>
      <trkpt lat="46.66698" lon="-1.75484">
        <ele>48</ele>
        <time>2018-01-12T19:20:52Z</time>
      </trkpt>
      <trkpt lat="46.66686" lon="-1.75483">
        <ele>49</ele>
        <time>2018-01-12T19:21:52Z</time>
      </trkpt>
      <trkpt lat="46.66678" lon="-1.75484">
        <ele>49</ele>
        <time>2018-01-12T19:22:52Z</time>
      </trkpt>
      <trkpt lat="46.66669" lon="-1.75485">
        <ele>50</ele>
        <time>2018-01-12T19:23:52Z</time>
      </trkpt>
      <trkpt lat="46.66651" lon="-1.75488">
        <ele>50</ele>
        <time>2018-01-12T19:24:52Z</time>
      </trkpt>
      <trkpt lat="46.6663" lon="-1.75492">
        <ele>50</ele>
        <time>2018-01-12T19:25:52Z</time>
      </trkpt>
      <trkpt lat="46.66623" lon="-1.75493">
        <ele>50</ele>
        <time>2018-01-12T19:26:52Z</time>
      </trkpt>
      <trkpt lat="46.66615" lon="-1.75493">
        <ele>50</ele>
        <time>2018-01-12T19:27:52Z</time>
      </trkpt>
      <trkpt lat="46.66606" lon="-1.75491">
        <ele>50</ele>
        <time>2018-01-12T19:28:52Z</time>
      </trkpt>
      <trkpt lat="46.666" lon="-1.75488">
        <ele>50</ele>
        <time>2018-01-12T19:29:52Z</time>
      </trkpt>
      <trkpt lat="46.66592" lon="-1.75484">
        <ele>50</ele>
        <time>2018-01-12T19:30:52Z</time>
      </trkpt>
      <trkpt lat="46.66592" lon="-1.75484">
        <ele>50</ele>
        <time>2018-01-12T19:31:52Z</time>
      </trkpt>
      <trkpt lat="46.66577" lon="-1.75476">
        <ele>50</ele>
        <time>2018-01-12T19:32:52Z</time>
      </trkpt>
      <trkpt lat="46.66571" lon="-1.75472">
        <ele>49</ele>
        <time>2018-01-12T19:33:52Z</time>
      </trkpt>
      <trkpt lat="46.66562" lon="-1.75468">
        <ele>49</ele>
        <time>2018-01-12T19:34:52Z</time>
      </trkpt>
      <trkpt lat="46.66555" lon="-1.75466">
        <ele>48</ele>
        <time>2018-01-12T19:35:52Z</time>
      </trkpt>
      <trkpt lat="46.66548" lon="-1.75464">
        <ele>48</ele>
        <time>2018-01-12T19:36:52Z</time>
      </trkpt>
      <trkpt lat="46.6654" lon="-1.75463">
        <ele>48</ele>
        <time>2018-01-12T19:37:52Z</time>
      </trkpt>
      <trkpt lat="46.66531" lon="-1.75462">
        <ele>47</ele>
        <time>2018-01-12T19:38:52Z</time>
      </trkpt>
      <trkpt lat="46.66521" lon="-1.75462">
        <ele>47</ele>
        <time>2018-01-12T19:39:52Z</time>
      </trkpt>
      <trkpt lat="46.66511" lon="-1.75463">
        <ele>46</ele>
        <time>2018-01-12T19:40:52Z</time>
      </trkpt>
      <trkpt lat="46.66503" lon="-1.75465">
        <ele>45</ele>
        <time>2018-01-12T19:41:52Z</time>
      </trkpt>
      <trkpt lat="46.66494" lon="-1.75467">
        <ele>44</ele>
        <time>2018-01-12T19:42:52Z</time>
      </trkpt>
      <trkpt lat="46.66484" lon="-1.7547">
        <ele>43</ele>
        <time>2018-01-12T19:43:52Z</time>
      </trkpt>
      <trkpt lat="46.66471" lon="-1.75473">
        <ele>41</ele>
        <time>2018-01-12T19:44:52Z</time>
      </trkpt>
      <trkpt lat="46.66458" lon="-1.75475">
        <ele>39</ele>
        <time>2018-01-12T19:45:52Z</time>
      </trkpt>
      <trkpt lat="46.6645" lon="-1.75476">
        <ele>38</ele>
        <time>2018-01-12T19:46:52Z</time>
      </trkpt>
      <trkpt lat="46.66439" lon="-1.75477">
        <ele>37</ele>
        <time>2018-01-12T19:47:52Z</time>
      </trkpt>
      <trkpt lat="46.66432" lon="-1.75475">
        <ele>36</ele>
        <time>2018-01-12T19:48:52Z</time>
      </trkpt>
      <trkpt lat="46.66427" lon="-1.75474">
        <ele>35</ele>
        <time>2018-01-12T19:49:52Z</time>
      </trkpt>
      <trkpt lat="46.6642" lon="-1.75473">
        <ele>34</ele>
        <time>2018-01-12T19:50:52Z</time>
      </trkpt>
      <trkpt lat="46.66413" lon="-1.75471">
        <ele>34</ele>
        <time>2018-01-12T19:51:52Z</time>
      </trkpt>
      <trkpt lat="46.66407" lon="-1.7547">
        <ele>33</ele>
        <time>2018-01-12T19:52:52Z</time>
      </trkpt>
      <trkpt lat="46.66401" lon="-1.75468">
        <ele>33</ele>
        <time>2018-01-12T19:53:52Z</time>
      </trkpt>
      <trkpt lat="46.66386" lon="-1.75462">
        <ele>32</ele>
        <time>2018-01-12T19:54:52Z</time>
      </trkpt>
      <trkpt lat="46.66379" lon="-1.75459">
        <ele>32</ele>
        <time>2018-01-12T19:55:52Z</time>
      </trkpt>
      <trkpt lat="46.66371" lon="-1.75455">
        <ele>31</ele>
        <time>2018-01-12T19:56:52Z</time>
      </trkpt>
      <trkpt lat="46.66364" lon="-1.75451">
        <ele>31</ele>
        <time>2018-01-12T19:57:52Z</time>
      </trkpt>
      <trkpt lat="46.66357" lon="-1.75446">
        <ele>31</ele>
        <time>2018-01-12T19:58:52Z</time>
      </trkpt>
      <trkpt lat="46.66351" lon="-1.7544">
        <ele>31</ele>
        <time>2018-01-12T19:59:52Z</time>
      </trkpt>
      <trkpt lat="46.66349" lon="-1.75437">
        <ele>31</ele>
        <time>2018-01-12T20:00:52Z</time>
      </trkpt>
      <trkpt lat="46.66345" lon="-1.75432">
        <ele>31</ele>
        <time>2018-01-12T20:01:52Z</time>
      </trkpt>
      <trkpt lat="46.6634" lon="-1.75423">
        <ele>32</ele>
        <time>2018-01-12T20:02:52Z</time>
      </trkpt>
      <trkpt lat="46.66337" lon="-1.75416">
        <ele>32</ele>
        <time>2018-01-12T20:03:52Z</time>
      </trkpt>
      <trkpt lat="46.66334" lon="-1.75411">
        <ele>32</ele>
        <time>2018-01-12T20:04:52Z</time>
      </trkpt>
      <trkpt lat="46.66332" lon="-1.75406">
        <ele>31</ele>
        <time>2018-01-12T20:05:52Z</time>
      </trkpt>
      <trkpt lat="46.66329" lon="-1.75404">
        <ele>31</ele>
        <time>2018-01-12T20:06:52Z</time>
      </trkpt>
      <trkpt lat="46.66326" lon="-1.75402">
        <ele>31</ele>
        <time>2018-01-12T20:07:52Z</time>
      </trkpt>
      <trkpt lat="46.66325" lon="-1.754">
        <ele>30</ele>
        <time>2018-01-12T20:08:52Z</time>
      </trkpt>
      <trkpt lat="46.66321" lon="-1.75399">
        <ele>30</ele>
        <time>2018-01-12T20:09:52Z</time>
      </trkpt>
      <trkpt lat="46.66317" lon="-1.75397">
        <ele>30</ele>
        <time>2018-01-12T20:10:52Z</time>
      </trkpt>
      <trkpt lat="46.66312" lon="-1.75396">
        <ele>30</ele>
        <time>2018-01-12T20:11:52Z</time>
      </trkpt>
      <trkpt lat="46.66305" lon="-1.75395">
        <ele>30</ele>
        <time>2018-01-12T20:12:52Z</time>
      </trkpt>
      <trkpt lat="46.663" lon="-1.75394">
        <ele>30</ele>
        <time>2018-01-12T20:13:52Z</time>
      </trkpt>
      <trkpt lat="46.66292" lon="-1.75394">
        <ele>29</ele>
        <time>2018-01-12T20:14:52Z</time>
      </trkpt>
      <trkpt lat="46.66281" lon="-1.75393">
        <ele>29</ele>
        <time>2018-01-12T20:15:52Z</time>
      </trkpt>
      <trkpt lat="46.66276" lon="-1.75393">
        <ele>29</ele>
        <time>2018-01-12T20:16:52Z</time>
      </trkpt>
      <trkpt lat="46.66249" lon="-1.75393">
        <ele>29</ele>
        <time>2018-01-12T20:17:52Z</time>
      </trkpt>
      <trkpt lat="46.66221" lon="-1.75392">
        <ele>28</ele>
        <time>2018-01-12T20:18:52Z</time>
      </trkpt>
      <trkpt lat="46.66205" lon="-1.75391">
        <ele>28</ele>
        <time>2018-01-12T20:19:52Z</time>
      </trkpt>
      <trkpt lat="46.66175" lon="-1.75389">
        <ele>27</ele>
        <time>2018-01-12T20:20:52Z</time>
      </trkpt>
      <trkpt lat="46.66157" lon="-1.75387">
        <ele>26</ele>
        <time>2018-01-12T20:21:52Z</time>
      </trkpt>
      <trkpt lat="46.66153" lon="-1.75386">
        <ele>26</ele>
        <time>2018-01-12T20:22:52Z</time>
      </trkpt>
      <trkpt lat="46.66148" lon="-1.75385">
        <ele>26</ele>
        <time>2018-01-12T20:23:52Z</time>
      </trkpt>
      <trkpt lat="46.66129" lon="-1.75381">
        <ele>24</ele>
        <time>2018-01-12T20:24:52Z</time>
      </trkpt>
      <trkpt lat="46.66105" lon="-1.75375">
        <ele>23</ele>
        <time>2018-01-12T20:25:52Z</time>
      </trkpt>
      <trkpt lat="46.66093" lon="-1.75372">
        <ele>22</ele>
        <time>2018-01-12T20:26:52Z</time>
      </trkpt>
      <trkpt lat="46.66083" lon="-1.75369">
        <ele>21</ele>
        <time>2018-01-12T20:27:52Z</time>
      </trkpt>
      <trkpt lat="46.66068" lon="-1.75366">
        <ele>20</ele>
        <time>2018-01-12T20:28:52Z</time>
      </trkpt>
      <trkpt lat="46.66037" lon="-1.75359">
        <ele>17</ele>
        <time>2018-01-12T20:29:52Z</time>
      </trkpt>
      <trkpt lat="46.66032" lon="-1.75357">
        <ele>17</ele>
        <time>2018-01-12T20:30:52Z</time>
      </trkpt>
      <trkpt lat="46.66028" lon="-1.75355">
        <ele>16</ele>
        <time>2018-01-12T20:31:52Z</time>
      </trkpt>
      <trkpt lat="46.66024" lon="-1.75353">
        <ele>16</ele>
        <time>2018-01-12T20:32:52Z</time>
      </trkpt>
      <trkpt lat="46.66018" lon="-1.75349">
        <ele>15</ele>
        <time>2018-01-12T20:33:52Z</time>
      </trkpt>
      <trkpt lat="46.66014" lon="-1.75343">
        <ele>15</ele>
        <time>2018-01-12T20:34:52Z</time>
      </trkpt>
      <trkpt lat="46.66011" lon="-1.7534">
        <ele>15</ele>
        <time>2018-01-12T20:35:52Z</time>
      </trkpt>
      <trkpt lat="46.6601" lon="-1.75336">
        <ele>15</ele>
        <time>2018-01-12T20:36:52Z</time>
      </trkpt>
      <trkpt lat="46.66008" lon="-1.75331">
        <ele>15</ele>
        <time>2018-01-12T20:37:52Z</time>
      </trkpt>
      <trkpt lat="46.66007" lon="-1.75326">
        <ele>15</ele>
        <time>2018-01-12T20:38:52Z</time>
      </trkpt>
      <trkpt lat="46.66007" lon="-1.75321">
        <ele>15</ele>
        <time>2018-01-12T20:39:52Z</time>
      </trkpt>
      <trkpt lat="46.66006" lon="-1.75314">
        <ele>15</ele>
        <time>2018-01-12T20:40:52Z</time>
      </trkpt>
      <trkpt lat="46.66007" lon="-1.75308">
        <ele>15</ele>
        <time>2018-01-12T20:41:52Z</time>
      </trkpt>
      <trkpt lat="46.66008" lon="-1.75302">
        <ele>15</ele>
        <time>2018-01-12T20:42:52Z</time>
      </trkpt>
      <trkpt lat="46.6601" lon="-1.75297">
        <ele>15</ele>
        <time>2018-01-12T20:43:52Z</time>
      </trkpt>
      <trkpt lat="46.66012" lon="-1.75292">
        <ele>15</ele>
        <time>2018-01-12T20:44:52Z</time>
      </trkpt>
      <trkpt lat="46.66032" lon="-1.75257">
        <ele>15</ele>
        <time>2018-01-12T20:45:52Z</time>
      </trkpt>
      <trkpt lat="46.66065" lon="-1.75197">
        <ele>12</ele>
        <time>2018-01-12T20:46:52Z</time>
      </trkpt>
      <trkpt lat="46.66069" lon="-1.7519">
        <ele>12</ele>
        <time>2018-01-12T20:47:52Z</time>
      </trkpt>
      <trkpt lat="46.66073" lon="-1.75183">
        <ele>12</ele>
        <time>2018-01-12T20:48:52Z</time>
      </trkpt>
      <trkpt lat="46.6611" lon="-1.75122">
        <ele>13</ele>
        <time>2018-01-12T20:49:52Z</time>
      </trkpt>
      <trkpt lat="46.66147" lon="-1.75058">
        <ele>14</ele>
        <time>2018-01-12T20:50:52Z</time>
      </trkpt>
      <trkpt lat="46.66157" lon="-1.7504">
        <ele>15</ele>
        <time>2018-01-12T20:51:52Z</time>
      </trkpt>
      <trkpt lat="46.6617" lon="-1.75019">
        <ele>15</ele>
        <time>2018-01-12T20:52:52Z</time>
      </trkpt>
      <trkpt lat="46.66183" lon="-1.74997">
        <ele>16</ele>
        <time>2018-01-12T20:53:52Z</time>
      </trkpt>
      <trkpt lat="46.66194" lon="-1.74977">
        <ele>16</ele>
        <time>2018-01-12T20:54:52Z</time>
      </trkpt>
      <trkpt lat="46.66197" lon="-1.74972">
        <ele>16</ele>
        <time>2018-01-12T20:55:52Z</time>
      </trkpt>
      <trkpt lat="46.662" lon="-1.74967">
        <ele>16</ele>
        <time>2018-01-12T20:56:52Z</time>
      </trkpt>
      <trkpt lat="46.66202" lon="-1.74961">
        <ele>16</ele>
        <time>2018-01-12T20:57:52Z</time>
      </trkpt>
      <trkpt lat="46.66204" lon="-1.74956">
        <ele>16</ele>
        <time>2018-01-12T20:58:52Z</time>
      </trkpt>
      <trkpt lat="46.66206" lon="-1.74952">
        <ele>16</ele>
        <time>2018-01-12T20:59:52Z</time>
      </trkpt>
      <trkpt lat="46.66207" lon="-1.74949">
        <ele>16</ele>
        <time>2018-01-12T21:00:52Z</time>
      </trkpt>
      <trkpt lat="46.66208" lon="-1.74945">
        <ele>16</ele>
        <time>2018-01-12T21:01:52Z</time>
      </trkpt>
      <trkpt lat="46.66209" lon="-1.74942">
        <ele>16</ele>
        <time>2018-01-12T21:02:52Z</time>
      </trkpt>
      <trkpt lat="46.66209" lon="-1.74939">
        <ele>16</ele>
        <time>2018-01-12T21:03:52Z</time>
      </trkpt>
      <trkpt lat="46.6621" lon="-1.74935">
        <ele>16</ele>
        <time>2018-01-12T21:04:52Z</time>
      </trkpt>
      <trkpt lat="46.6621" lon="-1.74928">
        <ele>17</ele>
        <time>2018-01-12T21:05:52Z</time>
      </trkpt>
      <trkpt lat="46.6621" lon="-1.74928">
        <ele>17</ele>
        <time>2018-01-12T21:06:52Z</time>
      </trkpt>
      <trkpt lat="46.6621" lon="-1.74924">
        <ele>17</ele>
        <time>2018-01-12T21:07:52Z</time>
      </trkpt>
      <trkpt lat="46.6621" lon="-1.74922">
        <ele>17</ele>
        <time>2018-01-12T21:08:52Z</time>
      </trkpt>
      <trkpt lat="46.6621" lon="-1.7492">
        <ele>17</ele>
        <time>2018-01-12T21:09:52Z</time>
      </trkpt>
      <trkpt lat="46.66209" lon="-1.74918">
        <ele>17</ele>
        <time>2018-01-12T21:10:52Z</time>
      </trkpt>
      <trkpt lat="46.66209" lon="-1.74917">
        <ele>17</ele>
        <time>2018-01-12T21:11:52Z</time>
      </trkpt>
      <trkpt lat="46.66198" lon="-1.74881">
        <ele>18</ele>
        <time>2018-01-12T21:12:52Z</time>
      </trkpt>
      <trkpt lat="46.66194" lon="-1.74866">
        <ele>18</ele>
        <time>2018-01-12T21:13:52Z</time>
      </trkpt>
      <trkpt lat="46.66188" lon="-1.74854">
        <ele>18</ele>
        <time>2018-01-12T21:14:52Z</time>
      </trkpt>
      <trkpt lat="46.66188" lon="-1.74854">
        <ele>18</ele>
        <time>2018-01-12T21:15:52Z</time>
      </trkpt>
      <trkpt lat="46.66182" lon="-1.74852">
        <ele>19</ele>
        <time>2018-01-12T21:16:52Z</time>
      </trkpt>
      <trkpt lat="46.66161" lon="-1.7484">
        <ele>20</ele>
        <time>2018-01-12T21:17:52Z</time>
      </trkpt>
      <trkpt lat="46.66158" lon="-1.74836">
        <ele>20</ele>
        <time>2018-01-12T21:18:52Z</time>
      </trkpt>
      <trkpt lat="46.66154" lon="-1.74831">
        <ele>21</ele>
        <time>2018-01-12T21:19:52Z</time>
      </trkpt>
      <trkpt lat="46.66133" lon="-1.74826">
        <ele>22</ele>
        <time>2018-01-12T21:20:52Z</time>
      </trkpt>
      <trkpt lat="46.66102" lon="-1.74817">
        <ele>24</ele>
        <time>2018-01-12T21:21:52Z</time>
      </trkpt>
      <trkpt lat="46.66082" lon="-1.7481">
        <ele>25</ele>
        <time>2018-01-12T21:22:52Z</time>
      </trkpt>
      <trkpt lat="46.66079" lon="-1.74808">
        <ele>25</ele>
        <time>2018-01-12T21:23:52Z</time>
      </trkpt>
      <trkpt lat="46.66059" lon="-1.74798">
        <ele>26</ele>
        <time>2018-01-12T21:24:52Z</time>
      </trkpt>
      <trkpt lat="46.66049" lon="-1.74794">
        <ele>27</ele>
        <time>2018-01-12T21:25:52Z</time>
      </trkpt>
      <trkpt lat="46.66039" lon="-1.74789">
        <ele>27</ele>
        <time>2018-01-12T21:26:52Z</time>
      </trkpt>
      <trkpt lat="46.66019" lon="-1.74779">
        <ele>29</ele>
        <time>2018-01-12T21:27:52Z</time>
      </trkpt>
      <trkpt lat="46.65994" lon="-1.74768">
        <ele>31</ele>
        <time>2018-01-12T21:28:52Z</time>
      </trkpt>
      <trkpt lat="46.65978" lon="-1.74761">
        <ele>33</ele>
        <time>2018-01-12T21:29:52Z</time>
      </trkpt>
      <trkpt lat="46.65961" lon="-1.74753">
        <ele>35</ele>
        <time>2018-01-12T21:30:52Z</time>
      </trkpt>
      <trkpt lat="46.65952" lon="-1.74748">
        <ele>36</ele>
        <time>2018-01-12T21:31:52Z</time>
      </trkpt>
      <trkpt lat="46.65942" lon="-1.74741">
        <ele>36</ele>
        <time>2018-01-12T21:32:52Z</time>
      </trkpt>
      <trkpt lat="46.65934" lon="-1.74734">
        <ele>37</ele>
        <time>2018-01-12T21:33:52Z</time>
      </trkpt>
      <trkpt lat="46.65917" lon="-1.74719">
        <ele>38</ele>
        <time>2018-01-12T21:34:52Z</time>
      </trkpt>
      <trkpt lat="46.65905" lon="-1.74707">
        <ele>39</ele>
        <time>2018-01-12T21:35:52Z</time>
      </trkpt>
      <trkpt lat="46.65899" lon="-1.74701">
        <ele>39</ele>
        <time>2018-01-12T21:36:52Z</time>
      </trkpt>
      <trkpt lat="46.65893" lon="-1.74694">
        <ele>40</ele>
        <time>2018-01-12T21:37:52Z</time>
      </trkpt>
      <trkpt lat="46.65884" lon="-1.74682">
        <ele>40</ele>
        <time>2018-01-12T21:38:52Z</time>
      </trkpt>
      <trkpt lat="46.65876" lon="-1.74672">
        <ele>41</ele>
        <time>2018-01-12T21:39:52Z</time>
      </trkpt>
      <trkpt lat="46.6587" lon="-1.74664">
        <ele>41</ele>
        <time>2018-01-12T21:40:52Z</time>
      </trkpt>
      <trkpt lat="46.6586" lon="-1.74649">
        <ele>42</ele>
        <time>2018-01-12T21:41:52Z</time>
      </trkpt>
      <trkpt lat="46.65847" lon="-1.74625">
        <ele>43</ele>
        <time>2018-01-12T21:42:52Z</time>
      </trkpt>
      <trkpt lat="46.6583" lon="-1.74597">
        <ele>44</ele>
        <time>2018-01-12T21:43:52Z</time>
      </trkpt>
      <trkpt lat="46.65825" lon="-1.74588">
        <ele>44</ele>
        <time>2018-01-12T21:44:52Z</time>
      </trkpt>
      <trkpt lat="46.65814" lon="-1.7457">
        <ele>44</ele>
        <time>2018-01-12T21:45:52Z</time>
      </trkpt>
      <trkpt lat="46.65808" lon="-1.74561">
        <ele>45</ele>
        <time>2018-01-12T21:46:52Z</time>
      </trkpt>
      <trkpt lat="46.65802" lon="-1.74551">
        <ele>45</ele>
        <time>2018-01-12T21:47:52Z</time>
      </trkpt>
      <trkpt lat="46.65799" lon="-1.74547">
        <ele>45</ele>
        <time>2018-01-12T21:48:52Z</time>
      </trkpt>
      <trkpt lat="46.65796" lon="-1.74542">
        <ele>45</ele>
        <time>2018-01-12T21:49:52Z</time>
      </trkpt>
      <trkpt lat="46.6579" lon="-1.74533">
        <ele>45</ele>
        <time>2018-01-12T21:50:52Z</time>
      </trkpt>
      <trkpt lat="46.65786" lon="-1.74528">
        <ele>45</ele>
        <time>2018-01-12T21:51:52Z</time>
      </trkpt>
      <trkpt lat="46.65781" lon="-1.74522">
        <ele>45</ele>
        <time>2018-01-12T21:52:52Z</time>
      </trkpt>
      <trkpt lat="46.65777" lon="-1.74517">
        <ele>46</ele>
        <time>2018-01-12T21:53:52Z</time>
      </trkpt>
      <trkpt lat="46.65772" lon="-1.74512">
        <ele>46</ele>
        <time>2018-01-12T21:54:52Z</time>
      </trkpt>
      <trkpt lat="46.65764" lon="-1.74505">
        <ele>46</ele>
        <time>2018-01-12T21:55:52Z</time>
      </trkpt>
      <trkpt lat="46.65756" lon="-1.74497">
        <ele>47</ele>
        <time>2018-01-12T21:56:52Z</time>
      </trkpt>
      <trkpt lat="46.65752" lon="-1.74493">
        <ele>47</ele>
        <time>2018-01-12T21:57:52Z</time>
      </trkpt>
      <trkpt lat="46.65748" lon="-1.7449">
        <ele>47</ele>
        <time>2018-01-12T21:58:52Z</time>
      </trkpt>
      <trkpt lat="46.65741" lon="-1.74484">
        <ele>47</ele>
        <time>2018-01-12T21:59:52Z</time>
      </trkpt>
      <trkpt lat="46.65735" lon="-1.74481">
        <ele>47</ele>
        <time>2018-01-12T22:00:52Z</time>
      </trkpt>
      <trkpt lat="46.65731" lon="-1.74478">
        <ele>47</ele>
        <time>2018-01-12T22:01:52Z</time>
      </trkpt>
      <trkpt lat="46.65712" lon="-1.74463">
        <ele>47</ele>
        <time>2018-01-12T22:02:52Z</time>
      </trkpt>
      <trkpt lat="46.65683" lon="-1.74443">
        <ele>48</ele>
        <time>2018-01-12T22:03:52Z</time>
      </trkpt>
      <trkpt lat="46.65679" lon="-1.7444">
        <ele>48</ele>
        <time>2018-01-12T22:04:52Z</time>
      </trkpt>
      <trkpt lat="46.65646" lon="-1.74417">
        <ele>50</ele>
        <time>2018-01-12T22:05:52Z</time>
      </trkpt>
      <trkpt lat="46.65608" lon="-1.7439">
        <ele>51</ele>
        <time>2018-01-12T22:06:52Z</time>
      </trkpt>
      <trkpt lat="46.65576" lon="-1.74369">
        <ele>53</ele>
        <time>2018-01-12T22:07:52Z</time>
      </trkpt>
      <trkpt lat="46.65574" lon="-1.74368">
        <ele>53</ele>
        <time>2018-01-12T22:08:52Z</time>
      </trkpt>
      <trkpt lat="46.65544" lon="-1.74347">
        <ele>53</ele>
        <time>2018-01-12T22:09:52Z</time>
      </trkpt>
      <trkpt lat="46.65542" lon="-1.74345">
        <ele>53</ele>
        <time>2018-01-12T22:10:52Z</time>
      </trkpt>
      <trkpt lat="46.65539" lon="-1.74342">
        <ele>53</ele>
        <time>2018-01-12T22:11:52Z</time>
      </trkpt>
      <trkpt lat="46.65528" lon="-1.74332">
        <ele>53</ele>
        <time>2018-01-12T22:12:52Z</time>
      </trkpt>
      <trkpt lat="46.65524" lon="-1.74328">
        <ele>53</ele>
        <time>2018-01-12T22:13:52Z</time>
      </trkpt>
      <trkpt lat="46.65522" lon="-1.74324">
        <ele>53</ele>
        <time>2018-01-12T22:14:52Z</time>
      </trkpt>
      <trkpt lat="46.65517" lon="-1.74319">
        <ele>53</ele>
        <time>2018-01-12T22:15:52Z</time>
      </trkpt>
      <trkpt lat="46.65512" lon="-1.7431">
        <ele>53</ele>
        <time>2018-01-12T22:16:52Z</time>
      </trkpt>
      <trkpt lat="46.655" lon="-1.74292">
        <ele>53</ele>
        <time>2018-01-12T22:17:52Z</time>
      </trkpt>
      <trkpt lat="46.65494" lon="-1.74282">
        <ele>53</ele>
        <time>2018-01-12T22:18:52Z</time>
      </trkpt>
      <trkpt lat="46.65488" lon="-1.74273">
        <ele>53</ele>
        <time>2018-01-12T22:19:52Z</time>
      </trkpt>
      <trkpt lat="46.65484" lon="-1.74266">
        <ele>53</ele>
        <time>2018-01-12T22:20:52Z</time>
      </trkpt>
      <trkpt lat="46.65464" lon="-1.74227">
        <ele>54</ele>
        <time>2018-01-12T22:21:52Z</time>
      </trkpt>
      <trkpt lat="46.65443" lon="-1.74187">
        <ele>54</ele>
        <time>2018-01-12T22:22:52Z</time>
      </trkpt>
      <trkpt lat="46.65419" lon="-1.74142">
        <ele>55</ele>
        <time>2018-01-12T22:23:52Z</time>
      </trkpt>
      <trkpt lat="46.65405" lon="-1.74116">
        <ele>55</ele>
        <time>2018-01-12T22:24:52Z</time>
      </trkpt>
      <trkpt lat="46.65402" lon="-1.74111">
        <ele>55</ele>
        <time>2018-01-12T22:25:52Z</time>
      </trkpt>
      <trkpt lat="46.65395" lon="-1.741">
        <ele>54</ele>
        <time>2018-01-12T22:26:52Z</time>
      </trkpt>
      <trkpt lat="46.65381" lon="-1.74079">
        <ele>54</ele>
        <time>2018-01-12T22:27:52Z</time>
      </trkpt>
      <trkpt lat="46.65368" lon="-1.74059">
        <ele>54</ele>
        <time>2018-01-12T22:28:52Z</time>
      </trkpt>
      <trkpt lat="46.65348" lon="-1.74029">
        <ele>54</ele>
        <time>2018-01-12T22:29:52Z</time>
      </trkpt>
      <trkpt lat="46.65343" lon="-1.74021">
        <ele>54</ele>
        <time>2018-01-12T22:30:52Z</time>
      </trkpt>
      <trkpt lat="46.65331" lon="-1.74002">
        <ele>54</ele>
        <time>2018-01-12T22:31:52Z</time>
      </trkpt>
      <trkpt lat="46.65321" lon="-1.73986">
        <ele>54</ele>
        <time>2018-01-12T22:32:52Z</time>
      </trkpt>
      <trkpt lat="46.65306" lon="-1.73963">
        <ele>54</ele>
        <time>2018-01-12T22:33:52Z</time>
      </trkpt>
      <trkpt lat="46.65295" lon="-1.73949">
        <ele>53</ele>
        <time>2018-01-12T22:34:52Z</time>
      </trkpt>
      <trkpt lat="46.65283" lon="-1.73934">
        <ele>53</ele>
        <time>2018-01-12T22:35:52Z</time>
      </trkpt>
      <trkpt lat="46.65273" lon="-1.73923">
        <ele>53</ele>
        <time>2018-01-12T22:36:52Z</time>
      </trkpt>
      <trkpt lat="46.65256" lon="-1.73904">
        <ele>53</ele>
        <time>2018-01-12T22:37:52Z</time>
      </trkpt>
      <trkpt lat="46.65254" lon="-1.73903">
        <ele>53</ele>
        <time>2018-01-12T22:38:52Z</time>
      </trkpt>
      <trkpt lat="46.65225" lon="-1.7387">
        <ele>54</ele>
        <time>2018-01-12T22:39:52Z</time>
      </trkpt>
      <trkpt lat="46.65221" lon="-1.73866">
        <ele>54</ele>
        <time>2018-01-12T22:40:52Z</time>
      </trkpt>
      <trkpt lat="46.65188" lon="-1.73827">
        <ele>55</ele>
        <time>2018-01-12T22:41:52Z</time>
      </trkpt>
      <trkpt lat="46.6516" lon="-1.73793">
        <ele>55</ele>
        <time>2018-01-12T22:42:52Z</time>
      </trkpt>
      <trkpt lat="46.65146" lon="-1.73777">
        <ele>55</ele>
        <time>2018-01-12T22:43:52Z</time>
      </trkpt>
      <trkpt lat="46.65134" lon="-1.73765">
        <ele>55</ele>
        <time>2018-01-12T22:44:52Z</time>
      </trkpt>
      <trkpt lat="46.65106" lon="-1.73734">
        <ele>55</ele>
        <time>2018-01-12T22:45:52Z</time>
      </trkpt>
      <trkpt lat="46.651" lon="-1.73728">
        <ele>55</ele>
        <time>2018-01-12T22:46:52Z</time>
      </trkpt>
      <trkpt lat="46.65083" lon="-1.73705">
        <ele>54</ele>
        <time>2018-01-12T22:47:52Z</time>
      </trkpt>
      <trkpt lat="46.65062" lon="-1.73677">
        <ele>54</ele>
        <time>2018-01-12T22:48:52Z</time>
      </trkpt>
      <trkpt lat="46.65049" lon="-1.7366">
        <ele>54</ele>
        <time>2018-01-12T22:49:52Z</time>
      </trkpt>
      <trkpt lat="46.6504" lon="-1.73647">
        <ele>55</ele>
        <time>2018-01-12T22:50:52Z</time>
      </trkpt>
      <trkpt lat="46.65028" lon="-1.73632">
        <ele>55</ele>
        <time>2018-01-12T22:51:52Z</time>
      </trkpt>
      <trkpt lat="46.65016" lon="-1.73618">
        <ele>55</ele>
        <time>2018-01-12T22:52:52Z</time>
      </trkpt>
      <trkpt lat="46.64997" lon="-1.73597">
        <ele>55</ele>
        <time>2018-01-12T22:53:52Z</time>
      </trkpt>
      <trkpt lat="46.64967" lon="-1.73565">
        <ele>55</ele>
        <time>2018-01-12T22:54:52Z</time>
      </trkpt>
      <trkpt lat="46.64959" lon="-1.73555">
        <ele>55</ele>
        <time>2018-01-12T22:55:52Z</time>
      </trkpt>
      <trkpt lat="46.64959" lon="-1.73555">
        <ele>55</ele>
        <time>2018-01-12T22:56:52Z</time>
      </trkpt>
      <trkpt lat="46.64946" lon="-1.73536">
        <ele>55</ele>
        <time>2018-01-12T22:57:52Z</time>
      </trkpt>
      <trkpt lat="46.64935" lon="-1.73517">
        <ele>55</ele>
        <time>2018-01-12T22:58:52Z</time>
      </trkpt>
      <trkpt lat="46.64908" lon="-1.73471">
        <ele>55</ele>
        <time>2018-01-12T22:59:52Z</time>
      </trkpt>
      <trkpt lat="46.64908" lon="-1.73471">
        <ele>55</ele>
        <time>2018-01-12T23:00:52Z</time>
      </trkpt>
      <trkpt lat="46.64891" lon="-1.73442">
        <ele>56</ele>
        <time>2018-01-12T23:01:52Z</time>
      </trkpt>
      <trkpt lat="46.64879" lon="-1.73423">
        <ele>56</ele>
        <time>2018-01-12T23:02:52Z</time>
      </trkpt>
      <trkpt lat="46.64878" lon="-1.73422">
        <ele>56</ele>
        <time>2018-01-12T23:03:52Z</time>
      </trkpt>
      <trkpt lat="46.64857" lon="-1.73384">
        <ele>56</ele>
        <time>2018-01-12T23:04:52Z</time>
      </trkpt>
      <trkpt lat="46.64835" lon="-1.73343">
        <ele>55</ele>
        <time>2018-01-12T23:05:52Z</time>
      </trkpt>
      <trkpt lat="46.64826" lon="-1.73327">
        <ele>55</ele>
        <time>2018-01-12T23:06:52Z</time>
      </trkpt>
      <trkpt lat="46.64816" lon="-1.73307">
        <ele>55</ele>
        <time>2018-01-12T23:07:52Z</time>
      </trkpt>
      <trkpt lat="46.648" lon="-1.73275">
        <ele>56</ele>
        <time>2018-01-12T23:08:52Z</time>
      </trkpt>
      <trkpt lat="46.64776" lon="-1.73225">
        <ele>57</ele>
        <time>2018-01-12T23:09:52Z</time>
      </trkpt>
      <trkpt lat="46.64773" lon="-1.73221">
        <ele>57</ele>
        <time>2018-01-12T23:10:52Z</time>
      </trkpt>
      <trkpt lat="46.6475" lon="-1.73169">
        <ele>58</ele>
        <time>2018-01-12T23:11:52Z</time>
      </trkpt>
      <trkpt lat="46.64731" lon="-1.73126">
        <ele>58</ele>
        <time>2018-01-12T23:12:52Z</time>
      </trkpt>
      <trkpt lat="46.64723" lon="-1.73109">
        <ele>57</ele>
        <time>2018-01-12T23:13:52Z</time>
      </trkpt>
      <trkpt lat="46.64718" lon="-1.73098">
        <ele>57</ele>
        <time>2018-01-12T23:14:52Z</time>
      </trkpt>
      <trkpt lat="46.64704" lon="-1.73071">
        <ele>57</ele>
        <time>2018-01-12T23:15:52Z</time>
      </trkpt>
      <trkpt lat="46.64691" lon="-1.73042">
        <ele>57</ele>
        <time>2018-01-12T23:16:52Z</time>
      </trkpt>
      <trkpt lat="46.64681" lon="-1.73022">
        <ele>57</ele>
        <time>2018-01-12T23:17:52Z</time>
      </trkpt>
      <trkpt lat="46.64676" lon="-1.73011">
        <ele>58</ele>
        <time>2018-01-12T23:18:52Z</time>
      </trkpt>
      <trkpt lat="46.64661" lon="-1.72982">
        <ele>58</ele>
        <time>2018-01-12T23:19:52Z</time>
      </trkpt>
      <trkpt lat="46.64651" lon="-1.72959">
        <ele>58</ele>
        <time>2018-01-12T23:20:52Z</time>
      </trkpt>
      <trkpt lat="46.64646" lon="-1.72948">
        <ele>58</ele>
        <time>2018-01-12T23:21:52Z</time>
      </trkpt>
      <trkpt lat="46.64642" lon="-1.72936">
        <ele>58</ele>
        <time>2018-01-12T23:22:52Z</time>
      </trkpt>
      <trkpt lat="46.64639" lon="-1.72927">
        <ele>58</ele>
        <time>2018-01-12T23:23:52Z</time>
      </trkpt>
      <trkpt lat="46.64637" lon="-1.7292">
        <ele>58</ele>
        <time>2018-01-12T23:24:52Z</time>
      </trkpt>
      <trkpt lat="46.64635" lon="-1.7291">
        <ele>58</ele>
        <time>2018-01-12T23:25:52Z</time>
      </trkpt>
      <trkpt lat="46.64633" lon="-1.72894">
        <ele>58</ele>
        <time>2018-01-12T23:26:52Z</time>
      </trkpt>
      <trkpt lat="46.64631" lon="-1.7287">
        <ele>58</ele>
        <time>2018-01-12T23:27:52Z</time>
      </trkpt>
      <trkpt lat="46.64629" lon="-1.72836">
        <ele>58</ele>
        <time>2018-01-12T23:28:52Z</time>
      </trkpt>
      <trkpt lat="46.64626" lon="-1.72794">
        <ele>58</ele>
        <time>2018-01-12T23:29:52Z</time>
      </trkpt>
      <trkpt lat="46.64622" lon="-1.72744">
        <ele>58</ele>
        <time>2018-01-12T23:30:52Z</time>
      </trkpt>
      <trkpt lat="46.64619" lon="-1.72709">
        <ele>58</ele>
        <time>2018-01-12T23:31:52Z</time>
      </trkpt>
      <trkpt lat="46.64617" lon="-1.72696">
        <ele>58</ele>
        <time>2018-01-12T23:32:52Z</time>
      </trkpt>
      <trkpt lat="46.64616" lon="-1.72687">
        <ele>58</ele>
        <time>2018-01-12T23:33:52Z</time>
      </trkpt>
      <trkpt lat="46.64614" lon="-1.72678">
        <ele>59</ele>
        <time>2018-01-12T23:34:52Z</time>
      </trkpt>
      <trkpt lat="46.64613" lon="-1.72671">
        <ele>59</ele>
        <time>2018-01-12T23:35:52Z</time>
      </trkpt>
      <trkpt lat="46.64611" lon="-1.72664">
        <ele>59</ele>
        <time>2018-01-12T23:36:52Z</time>
      </trkpt>
      <trkpt lat="46.64602" lon="-1.72637">
        <ele>59</ele>
        <time>2018-01-12T23:37:52Z</time>
      </trkpt>
      <trkpt lat="46.64599" lon="-1.7263">
        <ele>59</ele>
        <time>2018-01-12T23:38:52Z</time>
      </trkpt>
      <trkpt lat="46.64593" lon="-1.72615">
        <ele>59</ele>
        <time>2018-01-12T23:39:52Z</time>
      </trkpt>
      <trkpt lat="46.64581" lon="-1.72583">
        <ele>59</ele>
        <time>2018-01-12T23:40:52Z</time>
      </trkpt>
      <trkpt lat="46.64572" lon="-1.72555">
        <ele>59</ele>
        <time>2018-01-12T23:41:52Z</time>
      </trkpt>
      <trkpt lat="46.64561" lon="-1.72518">
        <ele>59</ele>
        <time>2018-01-12T23:42:52Z</time>
      </trkpt>
      <trkpt lat="46.64553" lon="-1.72488">
        <ele>58</ele>
        <time>2018-01-12T23:43:52Z</time>
      </trkpt>
      <trkpt lat="46.64548" lon="-1.72463">
        <ele>58</ele>
        <time>2018-01-12T23:44:52Z</time>
      </trkpt>
      <trkpt lat="46.64547" lon="-1.72462">
        <ele>58</ele>
        <time>2018-01-12T23:45:52Z</time>
      </trkpt>
      <trkpt lat="46.64544" lon="-1.72437">
        <ele>58</ele>
        <time>2018-01-12T23:46:52Z</time>
      </trkpt>
      <trkpt lat="46.64539" lon="-1.72405">
        <ele>58</ele>
        <time>2018-01-12T23:47:52Z</time>
      </trkpt>
      <trkpt lat="46.64534" lon="-1.72366">
        <ele>59</ele>
        <time>2018-01-12T23:48:52Z</time>
      </trkpt>
      <trkpt lat="46.64529" lon="-1.72327">
        <ele>59</ele>
        <time>2018-01-12T23:49:52Z</time>
      </trkpt>
      <trkpt lat="46.64523" lon="-1.72279">
        <ele>59</ele>
        <time>2018-01-12T23:50:52Z</time>
      </trkpt>
      <trkpt lat="46.64523" lon="-1.72277">
        <ele>59</ele>
        <time>2018-01-12T23:51:52Z</time>
      </trkpt>
      <trkpt lat="46.64518" lon="-1.72235">
        <ele>59</ele>
        <time>2018-01-12T23:52:52Z</time>
      </trkpt>
      <trkpt lat="46.64514" lon="-1.72199">
        <ele>58</ele>
        <time>2018-01-12T23:53:52Z</time>
      </trkpt>
      <trkpt lat="46.64512" lon="-1.72175">
        <ele>58</ele>
        <time>2018-01-12T23:54:52Z</time>
      </trkpt>
      <trkpt lat="46.64511" lon="-1.72163">
        <ele>58</ele>
        <time>2018-01-12T23:55:52Z</time>
      </trkpt>
      <trkpt lat="46.6451" lon="-1.7216">
        <ele>58</ele>
        <time>2018-01-12T23:56:52Z</time>
      </trkpt>
      <trkpt lat="46.64507" lon="-1.72123">
        <ele>57</ele>
        <time>2018-01-12T23:57:52Z</time>
      </trkpt>
      <trkpt lat="46.64504" lon="-1.72083">
        <ele>57</ele>
        <time>2018-01-12T23:58:52Z</time>
      </trkpt>
      <trkpt lat="46.64502" lon="-1.7205">
        <ele>57</ele>
        <time>2018-01-12T23:59:52Z</time>
      </trkpt>
      <trkpt lat="46.64498" lon="-1.72014">
        <ele>57</ele>
        <time>2018-01-13T00:00:52Z</time>
      </trkpt>
      <trkpt lat="46.64493" lon="-1.71979">
        <ele>57</ele>
        <time>2018-01-13T00:01:52Z</time>
      </trkpt>
      <trkpt lat="46.6449" lon="-1.71955">
        <ele>57</ele>
        <time>2018-01-13T00:02:52Z</time>
      </trkpt>
      <trkpt lat="46.64484" lon="-1.71923">
        <ele>57</ele>
        <time>2018-01-13T00:03:52Z</time>
      </trkpt>
      <trkpt lat="46.64484" lon="-1.71921">
        <ele>57</ele>
        <time>2018-01-13T00:04:52Z</time>
      </trkpt>
      <trkpt lat="46.64478" lon="-1.71891">
        <ele>57</ele>
        <time>2018-01-13T00:05:52Z</time>
      </trkpt>
      <trkpt lat="46.64471" lon="-1.71863">
        <ele>57</ele>
        <time>2018-01-13T00:06:52Z</time>
      </trkpt>
      <trkpt lat="46.64467" lon="-1.71846">
        <ele>57</ele>
        <time>2018-01-13T00:07:52Z</time>
      </trkpt>
      <trkpt lat="46.64463" lon="-1.71834">
        <ele>56</ele>
        <time>2018-01-13T00:08:52Z</time>
      </trkpt>
      <trkpt lat="46.64457" lon="-1.71818">
        <ele>56</ele>
        <time>2018-01-13T00:09:52Z</time>
      </trkpt>
      <trkpt lat="46.64456" lon="-1.71815">
        <ele>56</ele>
        <time>2018-01-13T00:10:52Z</time>
      </trkpt>
      <trkpt lat="46.64456" lon="-1.71815">
        <ele>56</ele>
        <time>2018-01-13T00:11:52Z</time>
      </trkpt>
      <trkpt lat="46.64449" lon="-1.71799">
        <ele>56</ele>
        <time>2018-01-13T00:12:52Z</time>
      </trkpt>
      <trkpt lat="46.64441" lon="-1.71783">
        <ele>56</ele>
        <time>2018-01-13T00:13:52Z</time>
      </trkpt>
      <trkpt lat="46.64435" lon="-1.7177">
        <ele>56</ele>
        <time>2018-01-13T00:14:52Z</time>
      </trkpt>
      <trkpt lat="46.64431" lon="-1.71761">
        <ele>56</ele>
        <time>2018-01-13T00:15:52Z</time>
      </trkpt>
      <trkpt lat="46.64428" lon="-1.71755">
        <ele>56</ele>
        <time>2018-01-13T00:16:52Z</time>
      </trkpt>
      <trkpt lat="46.64424" lon="-1.71742">
        <ele>56</ele>
        <time>2018-01-13T00:17:52Z</time>
      </trkpt>
      <trkpt lat="46.64422" lon="-1.71734">
        <ele>56</ele>
        <time>2018-01-13T00:18:52Z</time>
      </trkpt>
      <trkpt lat="46.6442" lon="-1.71724">
        <ele>56</ele>
        <time>2018-01-13T00:19:52Z</time>
      </trkpt>
      <trkpt lat="46.64418" lon="-1.71712">
        <ele>56</ele>
        <time>2018-01-13T00:20:52Z</time>
      </trkpt>
      <trkpt lat="46.64413" lon="-1.71677">
        <ele>55</ele>
        <time>2018-01-13T00:21:52Z</time>
      </trkpt>
      <trkpt lat="46.6441" lon="-1.71649">
        <ele>55</ele>
        <time>2018-01-13T00:22:52Z</time>
      </trkpt>
      <trkpt lat="46.64405" lon="-1.71606">
        <ele>53</ele>
        <time>2018-01-13T00:23:52Z</time>
      </trkpt>
      <trkpt lat="46.64404" lon="-1.71589">
        <ele>53</ele>
        <time>2018-01-13T00:24:52Z</time>
      </trkpt>
      <trkpt lat="46.64397" lon="-1.71522">
        <ele>52</ele>
        <time>2018-01-13T00:25:52Z</time>
      </trkpt>
      <trkpt lat="46.64397" lon="-1.71522">
        <ele>52</ele>
        <time>2018-01-13T00:26:52Z</time>
      </trkpt>
      <trkpt lat="46.64414" lon="-1.71523">
        <ele>52</ele>
        <time>2018-01-13T00:27:52Z</time>
      </trkpt>
      <trkpt lat="46.64437" lon="-1.71524">
        <ele>53</ele>
        <time>2018-01-13T00:28:52Z</time>
      </trkpt>
      <trkpt lat="46.64445" lon="-1.71524">
        <ele>53</ele>
        <time>2018-01-13T00:29:52Z</time>
      </trkpt>
      <trkpt lat="46.64476" lon="-1.71523">
        <ele>53</ele>
        <time>2018-01-13T00:30:52Z</time>
      </trkpt>
      <trkpt lat="46.64503" lon="-1.71524">
        <ele>54</ele>
        <time>2018-01-13T00:31:52Z</time>
      </trkpt>
      <trkpt lat="46.64513" lon="-1.71524">
        <ele>54</ele>
        <time>2018-01-13T00:32:52Z</time>
      </trkpt>
      <trkpt lat="46.64513" lon="-1.71524">
        <ele>54</ele>
        <time>2018-01-13T00:33:52Z</time>
      </trkpt>
      <trkpt lat="46.64547" lon="-1.71525">
        <ele>54</ele>
        <time>2018-01-13T00:34:52Z</time>
      </trkpt>
      <trkpt lat="46.64582" lon="-1.71527">
        <ele>54</ele>
        <time>2018-01-13T00:35:52Z</time>
      </trkpt>
      <trkpt lat="46.64599" lon="-1.71528">
        <ele>54</ele>
        <time>2018-01-13T00:36:52Z</time>
      </trkpt>
      <trkpt lat="46.64636" lon="-1.7153">
        <ele>54</ele>
        <time>2018-01-13T00:37:52Z</time>
      </trkpt>
      <trkpt lat="46.64645" lon="-1.7153">
        <ele>54</ele>
        <time>2018-01-13T00:38:52Z</time>
      </trkpt>
      <trkpt lat="46.64685" lon="-1.71531">
        <ele>53</ele>
        <time>2018-01-13T00:39:52Z</time>
      </trkpt>
      <trkpt lat="46.64721" lon="-1.71532">
        <ele>53</ele>
        <time>2018-01-13T00:40:52Z</time>
      </trkpt>
      <trkpt lat="46.64766" lon="-1.71534">
        <ele>52</ele>
        <time>2018-01-13T00:41:52Z</time>
      </trkpt>
      <trkpt lat="46.64808" lon="-1.71536">
        <ele>51</ele>
        <time>2018-01-13T00:42:52Z</time>
      </trkpt>
      <trkpt lat="46.64817" lon="-1.71536">
        <ele>51</ele>
        <time>2018-01-13T00:43:52Z</time>
      </trkpt>
      <trkpt lat="46.64843" lon="-1.71537">
        <ele>51</ele>
        <time>2018-01-13T00:44:52Z</time>
      </trkpt>
      <trkpt lat="46.64882" lon="-1.71538">
        <ele>51</ele>
        <time>2018-01-13T00:45:52Z</time>
      </trkpt>
      <trkpt lat="46.64906" lon="-1.71539">
        <ele>51</ele>
        <time>2018-01-13T00:46:52Z</time>
      </trkpt>
      <trkpt lat="46.64948" lon="-1.71541">
        <ele>51</ele>
        <time>2018-01-13T00:47:52Z</time>
      </trkpt>
      <trkpt lat="46.64987" lon="-1.71542">
        <ele>51</ele>
        <time>2018-01-13T00:48:52Z</time>
      </trkpt>
      <trkpt lat="46.65002" lon="-1.71542">
        <ele>51</ele>
        <time>2018-01-13T00:49:52Z</time>
      </trkpt>
      <trkpt lat="46.65051" lon="-1.71545">
        <ele>51</ele>
        <time>2018-01-13T00:50:52Z</time>
      </trkpt>
      <trkpt lat="46.65101" lon="-1.71547">
        <ele>52</ele>
        <time>2018-01-13T00:51:52Z</time>
      </trkpt>
      <trkpt lat="46.65142" lon="-1.71548">
        <ele>52</ele>
        <time>2018-01-13T00:52:52Z</time>
      </trkpt>
      <trkpt lat="46.65146" lon="-1.71548">
        <ele>52</ele>
        <time>2018-01-13T00:53:52Z</time>
      </trkpt>
      <trkpt lat="46.65186" lon="-1.7155">
        <ele>53</ele>
        <time>2018-01-13T00:54:52Z</time>
      </trkpt>
      <trkpt lat="46.6525" lon="-1.71552">
        <ele>53</ele>
        <time>2018-01-13T00:55:52Z</time>
      </trkpt>
      <trkpt lat="46.65298" lon="-1.71554">
        <ele>52</ele>
        <time>2018-01-13T00:56:52Z</time>
      </trkpt>
      <trkpt lat="46.65309" lon="-1.71554">
        <ele>52</ele>
        <time>2018-01-13T00:57:52Z</time>
      </trkpt>
      <trkpt lat="46.65361" lon="-1.71556">
        <ele>51</ele>
        <time>2018-01-13T00:58:52Z</time>
      </trkpt>
      <trkpt lat="46.65383" lon="-1.71557">
        <ele>50</ele>
        <time>2018-01-13T00:59:52Z</time>
      </trkpt>
      <trkpt lat="46.65404" lon="-1.71557">
        <ele>49</ele>
        <time>2018-01-13T01:00:52Z</time>
      </trkpt>
      <trkpt lat="46.65437" lon="-1.71559">
        <ele>48</ele>
        <time>2018-01-13T01:01:52Z</time>
      </trkpt>
      <trkpt lat="46.65479" lon="-1.7156">
        <ele>47</ele>
        <time>2018-01-13T01:02:52Z</time>
      </trkpt>
      <trkpt lat="46.65516" lon="-1.71561">
        <ele>47</ele>
        <time>2018-01-13T01:03:52Z</time>
      </trkpt>
      <trkpt lat="46.65538" lon="-1.71561">
        <ele>46</ele>
        <time>2018-01-13T01:04:52Z</time>
      </trkpt>
      <trkpt lat="46.65566" lon="-1.71562">
        <ele>45</ele>
        <time>2018-01-13T01:05:52Z</time>
      </trkpt>
      <trkpt lat="46.65591" lon="-1.71563">
        <ele>45</ele>
        <time>2018-01-13T01:06:52Z</time>
      </trkpt>
      <trkpt lat="46.65624" lon="-1.71564">
        <ele>44</ele>
        <time>2018-01-13T01:07:52Z</time>
      </trkpt>
      <trkpt lat="46.65648" lon="-1.71565">
        <ele>43</ele>
        <time>2018-01-13T01:08:52Z</time>
      </trkpt>
      <trkpt lat="46.65666" lon="-1.71565">
        <ele>43</ele>
        <time>2018-01-13T01:09:52Z</time>
      </trkpt>
      <trkpt lat="46.65696" lon="-1.71566">
        <ele>42</ele>
        <time>2018-01-13T01:10:52Z</time>
      </trkpt>
      <trkpt lat="46.65717" lon="-1.71566">
        <ele>42</ele>
        <time>2018-01-13T01:11:52Z</time>
      </trkpt>
      <trkpt lat="46.65763" lon="-1.71568">
        <ele>41</ele>
        <time>2018-01-13T01:12:52Z</time>
      </trkpt>
      <trkpt lat="46.65802" lon="-1.7157">
        <ele>41</ele>
        <time>2018-01-13T01:13:52Z</time>
      </trkpt>
      <trkpt lat="46.6584" lon="-1.71571">
        <ele>40</ele>
        <time>2018-01-13T01:14:52Z</time>
      </trkpt>
      <trkpt lat="46.65878" lon="-1.71572">
        <ele>41</ele>
        <time>2018-01-13T01:15:52Z</time>
      </trkpt>
      <trkpt lat="46.65909" lon="-1.71573">
        <ele>41</ele>
        <time>2018-01-13T01:16:52Z</time>
      </trkpt>
      <trkpt lat="46.65925" lon="-1.71572">
        <ele>41</ele>
        <time>2018-01-13T01:17:52Z</time>
      </trkpt>
      <trkpt lat="46.65949" lon="-1.71573">
        <ele>40</ele>
        <time>2018-01-13T01:18:52Z</time>
      </trkpt>
      <trkpt lat="46.65994" lon="-1.71574">
        <ele>39</ele>
        <time>2018-01-13T01:19:52Z</time>
      </trkpt>
      <trkpt lat="46.6604" lon="-1.71575">
        <ele>37</ele>
        <time>2018-01-13T01:20:52Z</time>
      </trkpt>
      <trkpt lat="46.66087" lon="-1.71576">
        <ele>34</ele>
        <time>2018-01-13T01:21:52Z</time>
      </trkpt>
      <trkpt lat="46.66113" lon="-1.71577">
        <ele>33</ele>
        <time>2018-01-13T01:22:52Z</time>
      </trkpt>
      <trkpt lat="46.66146" lon="-1.71578">
        <ele>33</ele>
        <time>2018-01-13T01:23:52Z</time>
      </trkpt>
      <trkpt lat="46.66169" lon="-1.7158">
        <ele>32</ele>
        <time>2018-01-13T01:24:52Z</time>
      </trkpt>
      <trkpt lat="46.66198" lon="-1.71582">
        <ele>32</ele>
        <time>2018-01-13T01:25:52Z</time>
      </trkpt>
      <trkpt lat="46.66217" lon="-1.71585">
        <ele>32</ele>
        <time>2018-01-13T01:26:52Z</time>
      </trkpt>
      <trkpt lat="46.66248" lon="-1.71589">
        <ele>32</ele>
        <time>2018-01-13T01:27:52Z</time>
      </trkpt>
      <trkpt lat="46.66288" lon="-1.71595">
        <ele>33</ele>
        <time>2018-01-13T01:28:52Z</time>
      </trkpt>
      <trkpt lat="46.66317" lon="-1.71598">
        <ele>34</ele>
        <time>2018-01-13T01:29:52Z</time>
      </trkpt>
      <trkpt lat="46.66363" lon="-1.71605">
        <ele>32</ele>
        <time>2018-01-13T01:30:52Z</time>
      </trkpt>
      <trkpt lat="46.66394" lon="-1.7161">
        <ele>31</ele>
        <time>2018-01-13T01:31:52Z</time>
      </trkpt>
      <trkpt lat="46.66429" lon="-1.71614">
        <ele>29</ele>
        <time>2018-01-13T01:32:52Z</time>
      </trkpt>
      <trkpt lat="46.66461" lon="-1.71619">
        <ele>29</ele>
        <time>2018-01-13T01:33:52Z</time>
      </trkpt>
      <trkpt lat="46.66485" lon="-1.71623">
        <ele>29</ele>
        <time>2018-01-13T01:34:52Z</time>
      </trkpt>
      <trkpt lat="46.66512" lon="-1.71628">
        <ele>29</ele>
        <time>2018-01-13T01:35:52Z</time>
      </trkpt>
      <trkpt lat="46.66569" lon="-1.71638">
        <ele>28</ele>
        <time>2018-01-13T01:36:52Z</time>
      </trkpt>
      <trkpt lat="46.66596" lon="-1.71644">
        <ele>27</ele>
        <time>2018-01-13T01:37:52Z</time>
      </trkpt>
      <trkpt lat="46.66626" lon="-1.71649">
        <ele>26</ele>
        <time>2018-01-13T01:38:52Z</time>
      </trkpt>
      <trkpt lat="46.6667" lon="-1.71658">
        <ele>23</ele>
        <time>2018-01-13T01:39:52Z</time>
      </trkpt>
      <trkpt lat="46.66722" lon="-1.71669">
        <ele>23</ele>
        <time>2018-01-13T01:40:52Z</time>
      </trkpt>
      <trkpt lat="46.66748" lon="-1.71674">
        <ele>23</ele>
        <time>2018-01-13T01:41:52Z</time>
      </trkpt>
      <trkpt lat="46.66794" lon="-1.71682">
        <ele>23</ele>
        <time>2018-01-13T01:42:52Z</time>
      </trkpt>
      <trkpt lat="46.66838" lon="-1.7169">
        <ele>23</ele>
        <time>2018-01-13T01:43:52Z</time>
      </trkpt>
      <trkpt lat="46.66873" lon="-1.71698">
        <ele>22</ele>
        <time>2018-01-13T01:44:52Z</time>
      </trkpt>
      <trkpt lat="46.66906" lon="-1.71704">
        <ele>21</ele>
        <time>2018-01-13T01:45:52Z</time>
      </trkpt>
      <trkpt lat="46.66957" lon="-1.71714">
        <ele>19</ele>
        <time>2018-01-13T01:46:52Z</time>
      </trkpt>
      <trkpt lat="46.66988" lon="-1.71721">
        <ele>17</ele>
        <time>2018-01-13T01:47:52Z</time>
      </trkpt>
      <trkpt lat="46.67032" lon="-1.7173">
        <ele>17</ele>
        <time>2018-01-13T01:48:52Z</time>
      </trkpt>
      <trkpt lat="46.67063" lon="-1.71733">
        <ele>17</ele>
        <time>2018-01-13T01:49:52Z</time>
      </trkpt>
      <trkpt lat="46.67082" lon="-1.71735">
        <ele>17</ele>
        <time>2018-01-13T01:50:52Z</time>
      </trkpt>
      <trkpt lat="46.67101" lon="-1.71735">
        <ele>17</ele>
        <time>2018-01-13T01:51:52Z</time>
      </trkpt>
      <trkpt lat="46.67117" lon="-1.71734">
        <ele>17</ele>
        <time>2018-01-13T01:52:52Z</time>
      </trkpt>
      <trkpt lat="46.67125" lon="-1.71733">
        <ele>16</ele>
        <time>2018-01-13T01:53:52Z</time>
      </trkpt>
      <trkpt lat="46.67144" lon="-1.71728">
        <ele>16</ele>
        <time>2018-01-13T01:54:52Z</time>
      </trkpt>
      <trkpt lat="46.67164" lon="-1.71721">
        <ele>16</ele>
        <time>2018-01-13T01:55:52Z</time>
      </trkpt>
      <trkpt lat="46.67175" lon="-1.71717">
        <ele>16</ele>
        <time>2018-01-13T01:56:52Z</time>
      </trkpt>
      <trkpt lat="46.67187" lon="-1.71713">
        <ele>16</ele>
        <time>2018-01-13T01:57:52Z</time>
      </trkpt>
      <trkpt lat="46.67194" lon="-1.71711">
        <ele>17</ele>
        <time>2018-01-13T01:58:52Z</time>
      </trkpt>
      <trkpt lat="46.6721" lon="-1.717">
        <ele>18</ele>
        <time>2018-01-13T01:59:52Z</time>
      </trkpt>
      <trkpt lat="46.67232" lon="-1.71686">
        <ele>19</ele>
        <time>2018-01-13T02:00:52Z</time>
      </trkpt>
      <trkpt lat="46.67249" lon="-1.7167">
        <ele>21</ele>
        <time>2018-01-13T02:01:52Z</time>
      </trkpt>
      <trkpt lat="46.67252" lon="-1.71668">
        <ele>21</ele>
        <time>2018-01-13T02:02:52Z</time>
      </trkpt>
      <trkpt lat="46.67254" lon="-1.71666">
        <ele>21</ele>
        <time>2018-01-13T02:03:52Z</time>
      </trkpt>
      <trkpt lat="46.67298" lon="-1.71621">
        <ele>23</ele>
        <time>2018-01-13T02:04:52Z</time>
      </trkpt>
      <trkpt lat="46.67314" lon="-1.71604">
        <ele>24</ele>
        <time>2018-01-13T02:05:52Z</time>
      </trkpt>
      <trkpt lat="46.6732" lon="-1.71596">
        <ele>25</ele>
        <time>2018-01-13T02:06:52Z</time>
      </trkpt>
      <trkpt lat="46.67345" lon="-1.7157">
        <ele>27</ele>
        <time>2018-01-13T02:07:52Z</time>
      </trkpt>
      <trkpt lat="46.67371" lon="-1.7154">
        <ele>28</ele>
        <time>2018-01-13T02:08:52Z</time>
      </trkpt>
      <trkpt lat="46.67405" lon="-1.71506">
        <ele>29</ele>
        <time>2018-01-13T02:09:52Z</time>
      </trkpt>
      <trkpt lat="46.67422" lon="-1.7149">
        <ele>30</ele>
        <time>2018-01-13T02:10:52Z</time>
      </trkpt>
      <trkpt lat="46.67436" lon="-1.71479">
        <ele>31</ele>
        <time>2018-01-13T02:11:52Z</time>
      </trkpt>
      <trkpt lat="46.67449" lon="-1.71472">
        <ele>31</ele>
        <time>2018-01-13T02:12:52Z</time>
      </trkpt>
      <trkpt lat="46.67461" lon="-1.71466">
        <ele>32</ele>
        <time>2018-01-13T02:13:52Z</time>
      </trkpt>
      <trkpt lat="46.67475" lon="-1.71462">
        <ele>32</ele>
        <time>2018-01-13T02:14:52Z</time>
      </trkpt>
      <trkpt lat="46.67492" lon="-1.71458">
        <ele>33</ele>
        <time>2018-01-13T02:15:52Z</time>
      </trkpt>
      <trkpt lat="46.67513" lon="-1.71456">
        <ele>34</ele>
        <time>2018-01-13T02:16:52Z</time>
      </trkpt>
      <trkpt lat="46.67534" lon="-1.71455">
        <ele>34</ele>
        <time>2018-01-13T02:17:52Z</time>
      </trkpt>
      <trkpt lat="46.67551" lon="-1.71455">
        <ele>35</ele>
        <time>2018-01-13T02:18:52Z</time>
      </trkpt>
      <trkpt lat="46.67566" lon="-1.71457">
        <ele>36</ele>
        <time>2018-01-13T02:19:52Z</time>
      </trkpt>
      <trkpt lat="46.67577" lon="-1.71458">
        <ele>36</ele>
        <time>2018-01-13T02:20:52Z</time>
      </trkpt>
      <trkpt lat="46.67592" lon="-1.71461">
        <ele>37</ele>
        <time>2018-01-13T02:21:52Z</time>
      </trkpt>
      <trkpt lat="46.67608" lon="-1.71466">
        <ele>38</ele>
        <time>2018-01-13T02:22:52Z</time>
      </trkpt>
      <trkpt lat="46.67625" lon="-1.71475">
        <ele>39</ele>
        <time>2018-01-13T02:23:52Z</time>
      </trkpt>
      <trkpt lat="46.67638" lon="-1.71483">
        <ele>40</ele>
        <time>2018-01-13T02:24:52Z</time>
      </trkpt>
      <trkpt lat="46.67651" lon="-1.71493">
        <ele>41</ele>
        <time>2018-01-13T02:25:52Z</time>
      </trkpt>
      <trkpt lat="46.67664" lon="-1.71505">
        <ele>42</ele>
        <time>2018-01-13T02:26:52Z</time>
      </trkpt>
      <trkpt lat="46.67676" lon="-1.71517">
        <ele>42</ele>
        <time>2018-01-13T02:27:52Z</time>
      </trkpt>
      <trkpt lat="46.67687" lon="-1.71531">
        <ele>42</ele>
        <time>2018-01-13T02:28:52Z</time>
      </trkpt>
      <trkpt lat="46.67701" lon="-1.7155">
        <ele>42</ele>
        <time>2018-01-13T02:29:52Z</time>
      </trkpt>
      <trkpt lat="46.67715" lon="-1.71574">
        <ele>43</ele>
        <time>2018-01-13T02:30:52Z</time>
      </trkpt>
      <trkpt lat="46.67726" lon="-1.71592">
        <ele>43</ele>
        <time>2018-01-13T02:31:52Z</time>
      </trkpt>
      <trkpt lat="46.67736" lon="-1.71611">
        <ele>44</ele>
        <time>2018-01-13T02:32:52Z</time>
      </trkpt>
      <trkpt lat="46.67754" lon="-1.71643">
        <ele>45</ele>
        <time>2018-01-13T02:33:52Z</time>
      </trkpt>
      <trkpt lat="46.67767" lon="-1.71668">
        <ele>46</ele>
        <time>2018-01-13T02:34:52Z</time>
      </trkpt>
      <trkpt lat="46.67782" lon="-1.71697">
        <ele>47</ele>
        <time>2018-01-13T02:35:52Z</time>
      </trkpt>
      <trkpt lat="46.67794" lon="-1.71715">
        <ele>47</ele>
        <time>2018-01-13T02:36:52Z</time>
      </trkpt>
      <trkpt lat="46.67808" lon="-1.71734">
        <ele>47</ele>
        <time>2018-01-13T02:37:52Z</time>
      </trkpt>
      <trkpt lat="46.67822" lon="-1.7175">
        <ele>47</ele>
        <time>2018-01-13T02:38:52Z</time>
      </trkpt>
      <trkpt lat="46.67835" lon="-1.71764">
        <ele>46</ele>
        <time>2018-01-13T02:39:52Z</time>
      </trkpt>
      <trkpt lat="46.6784" lon="-1.7177">
        <ele>46</ele>
        <time>2018-01-13T02:40:52Z</time>
      </trkpt>
      <trkpt lat="46.67846" lon="-1.71775">
        <ele>46</ele>
        <time>2018-01-13T02:41:52Z</time>
      </trkpt>
      <trkpt lat="46.67863" lon="-1.71787">
        <ele>45</ele>
        <time>2018-01-13T02:42:52Z</time>
      </trkpt>
      <trkpt lat="46.67892" lon="-1.71805">
        <ele>44</ele>
        <time>2018-01-13T02:43:52Z</time>
      </trkpt>
      <trkpt lat="46.67922" lon="-1.7182">
        <ele>44</ele>
        <time>2018-01-13T02:44:52Z</time>
      </trkpt>
      <trkpt lat="46.67944" lon="-1.71832">
        <ele>43</ele>
        <time>2018-01-13T02:45:52Z</time>
      </trkpt>
      <trkpt lat="46.6797" lon="-1.71846">
        <ele>44</ele>
        <time>2018-01-13T02:46:52Z</time>
      </trkpt>
      <trkpt lat="46.67993" lon="-1.71858">
        <ele>44</ele>
        <time>2018-01-13T02:47:52Z</time>
      </trkpt>
      <trkpt lat="46.68014" lon="-1.71869">
        <ele>44</ele>
        <time>2018-01-13T02:48:52Z</time>
      </trkpt>
      <trkpt lat="46.68043" lon="-1.71884">
        <ele>45</ele>
        <time>2018-01-13T02:49:52Z</time>
      </trkpt>
      <trkpt lat="46.68072" lon="-1.71899">
        <ele>46</ele>
        <time>2018-01-13T02:50:52Z</time>
      </trkpt>
      <trkpt lat="46.68104" lon="-1.71917">
        <ele>48</ele>
        <time>2018-01-13T02:51:52Z</time>
      </trkpt>
      <trkpt lat="46.68131" lon="-1.71931">
        <ele>48</ele>
        <time>2018-01-13T02:52:52Z</time>
      </trkpt>
      <trkpt lat="46.68161" lon="-1.71947">
        <ele>50</ele>
        <time>2018-01-13T02:53:52Z</time>
      </trkpt>
      <trkpt lat="46.68174" lon="-1.71955">
        <ele>50</ele>
        <time>2018-01-13T02:54:52Z</time>
      </trkpt>
      <trkpt lat="46.68183" lon="-1.71959">
        <ele>51</ele>
        <time>2018-01-13T02:55:52Z</time>
      </trkpt>
      <trkpt lat="46.68205" lon="-1.7197">
        <ele>53</ele>
        <time>2018-01-13T02:56:52Z</time>
      </trkpt>
      <trkpt lat="46.68225" lon="-1.71977">
        <ele>54</ele>
        <time>2018-01-13T02:57:52Z</time>
      </trkpt>
      <trkpt lat="46.68237" lon="-1.71978">
        <ele>55</ele>
        <time>2018-01-13T02:58:52Z</time>
      </trkpt>
      <trkpt lat="46.68246" lon="-1.71981">
        <ele>55</ele>
        <time>2018-01-13T02:59:52Z</time>
      </trkpt>
      <trkpt lat="46.68268" lon="-1.71991">
        <ele>56</ele>
        <time>2018-01-13T03:00:52Z</time>
      </trkpt>
      <trkpt lat="46.68297" lon="-1.72">
        <ele>58</ele>
        <time>2018-01-13T03:01:52Z</time>
      </trkpt>
      <trkpt lat="46.68307" lon="-1.72004">
        <ele>58</ele>
        <time>2018-01-13T03:02:52Z</time>
      </trkpt>
      <trkpt lat="46.68338" lon="-1.72013">
        <ele>59</ele>
        <time>2018-01-13T03:03:52Z</time>
      </trkpt>
      <trkpt lat="46.68342" lon="-1.72015">
        <ele>59</ele>
        <time>2018-01-13T03:04:52Z</time>
      </trkpt>
      <trkpt lat="46.68362" lon="-1.72021">
        <ele>60</ele>
        <time>2018-01-13T03:05:52Z</time>
      </trkpt>
      <trkpt lat="46.68376" lon="-1.72025">
        <ele>60</ele>
        <time>2018-01-13T03:06:52Z</time>
      </trkpt>
      <trkpt lat="46.68382" lon="-1.72027">
        <ele>60</ele>
        <time>2018-01-13T03:07:52Z</time>
      </trkpt>
      <trkpt lat="46.684" lon="-1.7203">
        <ele>61</ele>
        <time>2018-01-13T03:08:52Z</time>
      </trkpt>
      <trkpt lat="46.68418" lon="-1.72032">
        <ele>61</ele>
        <time>2018-01-13T03:09:52Z</time>
      </trkpt>
      <trkpt lat="46.68438" lon="-1.72037">
        <ele>61</ele>
        <time>2018-01-13T03:10:52Z</time>
      </trkpt>
      <trkpt lat="46.68448" lon="-1.72041">
        <ele>60</ele>
        <time>2018-01-13T03:11:52Z</time>
      </trkpt>
      <trkpt lat="46.6846" lon="-1.72046">
        <ele>60</ele>
        <time>2018-01-13T03:12:52Z</time>
      </trkpt>
      <trkpt lat="46.68473" lon="-1.72053">
        <ele>60</ele>
        <time>2018-01-13T03:13:52Z</time>
      </trkpt>
      <trkpt lat="46.68479" lon="-1.72055">
        <ele>59</ele>
        <time>2018-01-13T03:14:52Z</time>
      </trkpt>
      <trkpt lat="46.68492" lon="-1.72061">
        <ele>59</ele>
        <time>2018-01-13T03:15:52Z</time>
      </trkpt>
      <trkpt lat="46.68526" lon="-1.72074">
        <ele>59</ele>
        <time>2018-01-13T03:16:52Z</time>
      </trkpt>
      <trkpt lat="46.68542" lon="-1.7208">
        <ele>59</ele>
        <time>2018-01-13T03:17:52Z</time>
      </trkpt>
      <trkpt lat="46.68544" lon="-1.72081">
        <ele>58</ele>
        <time>2018-01-13T03:18:52Z</time>
      </trkpt>
      <trkpt lat="46.68569" lon="-1.72089">
        <ele>58</ele>
        <time>2018-01-13T03:19:52Z</time>
      </trkpt>
      <trkpt lat="46.68596" lon="-1.72099">
        <ele>58</ele>
        <time>2018-01-13T03:20:52Z</time>
      </trkpt>
      <trkpt lat="46.68612" lon="-1.72104">
        <ele>58</ele>
        <time>2018-01-13T03:21:52Z</time>
      </trkpt>
      <trkpt lat="46.68644" lon="-1.72116">
        <ele>58</ele>
        <time>2018-01-13T03:22:52Z</time>
      </trkpt>
      <trkpt lat="46.68657" lon="-1.72121">
        <ele>58</ele>
        <time>2018-01-13T03:23:52Z</time>
      </trkpt>
      <trkpt lat="46.68667" lon="-1.72124">
        <ele>58</ele>
        <time>2018-01-13T03:24:52Z</time>
      </trkpt>
      <trkpt lat="46.68673" lon="-1.72126">
        <ele>58</ele>
        <time>2018-01-13T03:25:52Z</time>
      </trkpt>
      <trkpt lat="46.68701" lon="-1.72136">
        <ele>58</ele>
        <time>2018-01-13T03:26:52Z</time>
      </trkpt>
      <trkpt lat="46.68713" lon="-1.72139">
        <ele>58</ele>
        <time>2018-01-13T03:27:52Z</time>
      </trkpt>
      <trkpt lat="46.68724" lon="-1.72149">
        <ele>57</ele>
        <time>2018-01-13T03:28:52Z</time>
      </trkpt>
      <trkpt lat="46.68731" lon="-1.72158">
        <ele>57</ele>
        <time>2018-01-13T03:29:52Z</time>
      </trkpt>
      <trkpt lat="46.68734" lon="-1.72156">
        <ele>57</ele>
        <time>2018-01-13T03:30:52Z</time>
      </trkpt>
      <trkpt lat="46.68741" lon="-1.72152">
        <ele>57</ele>
        <time>2018-01-13T03:31:52Z</time>
      </trkpt>
      <trkpt lat="46.68747" lon="-1.72152">
        <ele>57</ele>
        <time>2018-01-13T03:32:52Z</time>
      </trkpt>
      <trkpt lat="46.68758" lon="-1.72153">
        <ele>57</ele>
        <time>2018-01-13T03:33:52Z</time>
      </trkpt>
      <trkpt lat="46.68769" lon="-1.72156">
        <ele>57</ele>
        <time>2018-01-13T03:34:52Z</time>
      </trkpt>
      <trkpt lat="46.68806" lon="-1.72168">
        <ele>57</ele>
        <time>2018-01-13T03:35:52Z</time>
      </trkpt>
      <trkpt lat="46.68839" lon="-1.72179">
        <ele>57</ele>
        <time>2018-01-13T03:36:52Z</time>
      </trkpt>
      <trkpt lat="46.68855" lon="-1.72184">
        <ele>57</ele>
        <time>2018-01-13T03:37:52Z</time>
      </trkpt>
      <trkpt lat="46.68906" lon="-1.722">
        <ele>57</ele>
        <time>2018-01-13T03:38:52Z</time>
      </trkpt>
      <trkpt lat="46.68951" lon="-1.72215">
        <ele>56</ele>
        <time>2018-01-13T03:39:52Z</time>
      </trkpt>
      <trkpt lat="46.68986" lon="-1.72226">
        <ele>55</ele>
        <time>2018-01-13T03:40:52Z</time>
      </trkpt>
      <trkpt lat="46.69024" lon="-1.72238">
        <ele>55</ele>
        <time>2018-01-13T03:41:52Z</time>
      </trkpt>
      <trkpt lat="46.69052" lon="-1.72247">
        <ele>55</ele>
        <time>2018-01-13T03:42:52Z</time>
      </trkpt>
      <trkpt lat="46.69066" lon="-1.72252">
        <ele>55</ele>
        <time>2018-01-13T03:43:52Z</time>
      </trkpt>
      <trkpt lat="46.69089" lon="-1.7226">
        <ele>55</ele>
        <time>2018-01-13T03:44:52Z</time>
      </trkpt>
      <trkpt lat="46.69104" lon="-1.72264">
        <ele>54</ele>
        <time>2018-01-13T03:45:52Z</time>
      </trkpt>
      <trkpt lat="46.69128" lon="-1.72272">
        <ele>54</ele>
        <time>2018-01-13T03:46:52Z</time>
      </trkpt>
      <trkpt lat="46.69132" lon="-1.72273">
        <ele>54</ele>
        <time>2018-01-13T03:47:52Z</time>
      </trkpt>
      <trkpt lat="46.69164" lon="-1.72284">
        <ele>53</ele>
        <time>2018-01-13T03:48:52Z</time>
      </trkpt>
      <trkpt lat="46.69183" lon="-1.7229">
        <ele>53</ele>
        <time>2018-01-13T03:49:52Z</time>
      </trkpt>
      <trkpt lat="46.69187" lon="-1.72291">
        <ele>52</ele>
        <time>2018-01-13T03:50:52Z</time>
      </trkpt>
      <trkpt lat="46.69211" lon="-1.723">
        <ele>52</ele>
        <time>2018-01-13T03:51:52Z</time>
      </trkpt>
      <trkpt lat="46.69243" lon="-1.7231">
        <ele>51</ele>
        <time>2018-01-13T03:52:52Z</time>
      </trkpt>
      <trkpt lat="46.69251" lon="-1.72312">
        <ele>50</ele>
        <time>2018-01-13T03:53:52Z</time>
      </trkpt>
      <trkpt lat="46.69305" lon="-1.7233">
        <ele>50</ele>
        <time>2018-01-13T03:54:52Z</time>
      </trkpt>
      <trkpt lat="46.69319" lon="-1.72335">
        <ele>50</ele>
        <time>2018-01-13T03:55:52Z</time>
      </trkpt>
      <trkpt lat="46.69348" lon="-1.72345">
        <ele>50</ele>
        <time>2018-01-13T03:56:52Z</time>
      </trkpt>
      <trkpt lat="46.69368" lon="-1.72352">
        <ele>49</ele>
        <time>2018-01-13T03:57:52Z</time>
      </trkpt>
      <trkpt lat="46.69405" lon="-1.72364">
        <ele>49</ele>
        <time>2018-01-13T03:58:52Z</time>
      </trkpt>
      <trkpt lat="46.69421" lon="-1.72369">
        <ele>49</ele>
        <time>2018-01-13T03:59:52Z</time>
      </trkpt>
      <trkpt lat="46.69424" lon="-1.7237">
        <ele>49</ele>
        <time>2018-01-13T04:00:52Z</time>
      </trkpt>
      <trkpt lat="46.69461" lon="-1.72382">
        <ele>49</ele>
        <time>2018-01-13T04:01:52Z</time>
      </trkpt>
      <trkpt lat="46.69511" lon="-1.72398">
        <ele>50</ele>
        <time>2018-01-13T04:02:52Z</time>
      </trkpt>
      <trkpt lat="46.69578" lon="-1.72421">
        <ele>51</ele>
        <time>2018-01-13T04:03:52Z</time>
      </trkpt>
      <trkpt lat="46.69614" lon="-1.72432">
        <ele>51</ele>
        <time>2018-01-13T04:04:52Z</time>
      </trkpt>
      <trkpt lat="46.69644" lon="-1.72442">
        <ele>51</ele>
        <time>2018-01-13T04:05:52Z</time>
      </trkpt>
      <trkpt lat="46.69686" lon="-1.72456">
        <ele>51</ele>
        <time>2018-01-13T04:06:52Z</time>
      </trkpt>
      <trkpt lat="46.69703" lon="-1.72462">
        <ele>51</ele>
        <time>2018-01-13T04:07:52Z</time>
      </trkpt>
      <trkpt lat="46.69729" lon="-1.7247">
        <ele>52</ele>
        <time>2018-01-13T04:08:52Z</time>
      </trkpt>
      <trkpt lat="46.69764" lon="-1.72481">
        <ele>52</ele>
        <time>2018-01-13T04:09:52Z</time>
      </trkpt>
      <trkpt lat="46.69801" lon="-1.72494">
        <ele>51</ele>
        <time>2018-01-13T04:10:52Z</time>
      </trkpt>
      <trkpt lat="46.69839" lon="-1.72506">
        <ele>51</ele>
        <time>2018-01-13T04:11:52Z</time>
      </trkpt>
      <trkpt lat="46.69841" lon="-1.72506">
        <ele>51</ele>
        <time>2018-01-13T04:12:52Z</time>
      </trkpt>
      <trkpt lat="46.69848" lon="-1.72509">
        <ele>51</ele>
        <time>2018-01-13T04:13:52Z</time>
      </trkpt>
      <trkpt lat="46.69875" lon="-1.72517">
        <ele>51</ele>
        <time>2018-01-13T04:14:52Z</time>
      </trkpt>
      <trkpt lat="46.69908" lon="-1.72528">
        <ele>52</ele>
        <time>2018-01-13T04:15:52Z</time>
      </trkpt>
      <trkpt lat="46.69947" lon="-1.7254">
        <ele>51</ele>
        <time>2018-01-13T04:16:52Z</time>
      </trkpt>
      <trkpt lat="46.69963" lon="-1.72546">
        <ele>51</ele>
        <time>2018-01-13T04:17:52Z</time>
      </trkpt>
      <trkpt lat="46.69995" lon="-1.72556">
        <ele>51</ele>
        <time>2018-01-13T04:18:52Z</time>
      </trkpt>
      <trkpt lat="46.70038" lon="-1.7257">
        <ele>52</ele>
        <time>2018-01-13T04:19:52Z</time>
      </trkpt>
      <trkpt lat="46.7004" lon="-1.72571">
        <ele>52</ele>
        <time>2018-01-13T04:20:52Z</time>
      </trkpt>
      <trkpt lat="46.70043" lon="-1.72572">
        <ele>52</ele>
        <time>2018-01-13T04:21:52Z</time>
      </trkpt>
      <trkpt lat="46.70068" lon="-1.72579">
        <ele>53</ele>
        <time>2018-01-13T04:22:52Z</time>
      </trkpt>
      <trkpt lat="46.70095" lon="-1.72587">
        <ele>53</ele>
        <time>2018-01-13T04:23:52Z</time>
      </trkpt>
      <trkpt lat="46.70124" lon="-1.72594">
        <ele>54</ele>
        <time>2018-01-13T04:24:52Z</time>
      </trkpt>
      <trkpt lat="46.70147" lon="-1.726">
        <ele>55</ele>
        <time>2018-01-13T04:25:52Z</time>
      </trkpt>
      <trkpt lat="46.70165" lon="-1.72604">
        <ele>55</ele>
        <time>2018-01-13T04:26:52Z</time>
      </trkpt>
      <trkpt lat="46.70181" lon="-1.72606">
        <ele>55</ele>
        <time>2018-01-13T04:27:52Z</time>
      </trkpt>
      <trkpt lat="46.70198" lon="-1.72604">
        <ele>55</ele>
        <time>2018-01-13T04:28:52Z</time>
      </trkpt>
      <trkpt lat="46.70216" lon="-1.726">
        <ele>55</ele>
        <time>2018-01-13T04:29:52Z</time>
      </trkpt>
      <trkpt lat="46.70237" lon="-1.72592">
        <ele>54</ele>
        <time>2018-01-13T04:30:52Z</time>
      </trkpt>
      <trkpt lat="46.70272" lon="-1.7256">
        <ele>54</ele>
        <time>2018-01-13T04:31:52Z</time>
      </trkpt>
      <trkpt lat="46.70298" lon="-1.72527">
        <ele>54</ele>
        <time>2018-01-13T04:32:52Z</time>
      </trkpt>
      <trkpt lat="46.70338" lon="-1.72453">
        <ele>53</ele>
        <time>2018-01-13T04:33:52Z</time>
      </trkpt>
      <trkpt lat="46.70421" lon="-1.72296">
        <ele>52</ele>
        <time>2018-01-13T04:34:52Z</time>
      </trkpt>
      <trkpt lat="46.70444" lon="-1.72269">
        <ele>51</ele>
        <time>2018-01-13T04:35:52Z</time>
      </trkpt>
      <trkpt lat="46.70459" lon="-1.72258">
        <ele>51</ele>
        <time>2018-01-13T04:36:52Z</time>
      </trkpt>
      <trkpt lat="46.70486" lon="-1.72254">
        <ele>50</ele>
        <time>2018-01-13T04:37:52Z</time>
      </trkpt>
      <trkpt lat="46.70496" lon="-1.72254">
        <ele>50</ele>
        <time>2018-01-13T04:38:52Z</time>
      </trkpt>
      <trkpt lat="46.70506" lon="-1.72258">
        <ele>50</ele>
        <time>2018-01-13T04:39:52Z</time>
      </trkpt>
      <trkpt lat="46.70509" lon="-1.72259">
        <ele>50</ele>
        <time>2018-01-13T04:40:52Z</time>
      </trkpt>
      <trkpt lat="46.70529" lon="-1.72259">
        <ele>51</ele>
        <time>2018-01-13T04:41:52Z</time>
      </trkpt>
      <trkpt lat="46.70529" lon="-1.72259">
        <ele>51</ele>
        <time>2018-01-13T04:42:52Z</time>
      </trkpt>
      <trkpt lat="46.7053" lon="-1.72256">
        <ele>51</ele>
        <time>2018-01-13T04:43:52Z</time>
      </trkpt>
      <trkpt lat="46.70531" lon="-1.72254">
        <ele>50</ele>
        <time>2018-01-13T04:44:52Z</time>
      </trkpt>
      <trkpt lat="46.70532" lon="-1.72252">
        <ele>50</ele>
        <time>2018-01-13T04:45:52Z</time>
      </trkpt>
      <trkpt lat="46.70534" lon="-1.7225">
        <ele>50</ele>
        <time>2018-01-13T04:46:52Z</time>
      </trkpt>
      <trkpt lat="46.70535" lon="-1.72248">
        <ele>50</ele>
        <time>2018-01-13T04:47:52Z</time>
      </trkpt>
      <trkpt lat="46.70537" lon="-1.72246">
        <ele>50</ele>
        <time>2018-01-13T04:48:52Z</time>
      </trkpt>
      <trkpt lat="46.70538" lon="-1.72244">
        <ele>50</ele>
        <time>2018-01-13T04:49:52Z</time>
      </trkpt>
      <trkpt lat="46.7054" lon="-1.72242">
        <ele>50</ele>
        <time>2018-01-13T04:50:52Z</time>
      </trkpt>
      <trkpt lat="46.70541" lon="-1.72241">
        <ele>50</ele>
        <time>2018-01-13T04:51:52Z</time>
      </trkpt>
      <trkpt lat="46.70543" lon="-1.72239">
        <ele>51</ele>
        <time>2018-01-13T04:52:52Z</time>
      </trkpt>
      <trkpt lat="46.70546" lon="-1.72238">
        <ele>51</ele>
        <time>2018-01-13T04:53:52Z</time>
      </trkpt>
      <trkpt lat="46.70548" lon="-1.72238">
        <ele>51</ele>
        <time>2018-01-13T04:54:52Z</time>
      </trkpt>
      <trkpt lat="46.7055" lon="-1.72238">
        <ele>51</ele>
        <time>2018-01-13T04:55:52Z</time>
      </trkpt>
      <trkpt lat="46.70553" lon="-1.72239">
        <ele>51</ele>
        <time>2018-01-13T04:56:52Z</time>
      </trkpt>
      <trkpt lat="46.70555" lon="-1.7224">
        <ele>51</ele>
        <time>2018-01-13T04:57:52Z</time>
      </trkpt>
      <trkpt lat="46.70556" lon="-1.7224">
        <ele>51</ele>
        <time>2018-01-13T04:58:52Z</time>
      </trkpt>
      <trkpt lat="46.70564" lon="-1.72246">
        <ele>51</ele>
        <time>2018-01-13T04:59:52Z</time>
      </trkpt>
      <trkpt lat="46.70566" lon="-1.72248">
        <ele>51</ele>
        <time>2018-01-13T05:00:52Z</time>
      </trkpt>
      <trkpt lat="46.70567" lon="-1.72249">
        <ele>51</ele>
        <time>2018-01-13T05:01:52Z</time>
      </trkpt>
      <trkpt lat="46.70568" lon="-1.72252">
        <ele>51</ele>
        <time>2018-01-13T05:02:52Z</time>
      </trkpt>
      <trkpt lat="46.70569" lon="-1.72254">
        <ele>51</ele>
        <time>2018-01-13T05:03:52Z</time>
      </trkpt>
      <trkpt lat="46.7057" lon="-1.72256">
        <ele>51</ele>
        <time>2018-01-13T05:04:52Z</time>
      </trkpt>
      <trkpt lat="46.70571" lon="-1.72258">
        <ele>51</ele>
        <time>2018-01-13T05:05:52Z</time>
      </trkpt>
      <trkpt lat="46.70572" lon="-1.7226">
        <ele>51</ele>
        <time>2018-01-13T05:06:52Z</time>
      </trkpt>
      <trkpt lat="46.70573" lon="-1.72263">
        <ele>51</ele>
        <time>2018-01-13T05:07:52Z</time>
      </trkpt>
      <trkpt lat="46.70574" lon="-1.72265">
        <ele>51</ele>
        <time>2018-01-13T05:08:52Z</time>
      </trkpt>
      <trkpt lat="46.70574" lon="-1.72267">
        <ele>51</ele>
        <time>2018-01-13T05:09:52Z</time>
      </trkpt>
      <trkpt lat="46.70575" lon="-1.72269">
        <ele>51</ele>
        <time>2018-01-13T05:10:52Z</time>
      </trkpt>
      <trkpt lat="46.70575" lon="-1.72271">
        <ele>51</ele>
        <time>2018-01-13T05:11:52Z</time>
      </trkpt>
      <trkpt lat="46.70576" lon="-1.72273">
        <ele>51</ele>
        <time>2018-01-13T05:12:52Z</time>
      </trkpt>
      <trkpt lat="46.70576" lon="-1.72276">
        <ele>52</ele>
        <time>2018-01-13T05:13:52Z</time>
      </trkpt>
      <trkpt lat="46.70577" lon="-1.72278">
        <ele>52</ele>
        <time>2018-01-13T05:14:52Z</time>
      </trkpt>
      <trkpt lat="46.70577" lon="-1.7228">
        <ele>52</ele>
        <time>2018-01-13T05:15:52Z</time>
      </trkpt>
      <trkpt lat="46.70576" lon="-1.72286">
        <ele>52</ele>
        <time>2018-01-13T05:16:52Z</time>
      </trkpt>
      <trkpt lat="46.70575" lon="-1.72292">
        <ele>52</ele>
        <time>2018-01-13T05:17:52Z</time>
      </trkpt>
      <trkpt lat="46.70573" lon="-1.72298">
        <ele>52</ele>
        <time>2018-01-13T05:18:52Z</time>
      </trkpt>
      <trkpt lat="46.7057" lon="-1.72303">
        <ele>52</ele>
        <time>2018-01-13T05:19:52Z</time>
      </trkpt>
      <trkpt lat="46.70567" lon="-1.72308">
        <ele>52</ele>
        <time>2018-01-13T05:20:52Z</time>
      </trkpt>
      <trkpt lat="46.70564" lon="-1.72312">
        <ele>52</ele>
        <time>2018-01-13T05:21:52Z</time>
      </trkpt>
      <trkpt lat="46.70561" lon="-1.72315">
        <ele>53</ele>
        <time>2018-01-13T05:22:52Z</time>
      </trkpt>
      <trkpt lat="46.70557" lon="-1.72318">
        <ele>53</ele>
        <time>2018-01-13T05:23:52Z</time>
      </trkpt>
      <trkpt lat="46.70552" lon="-1.72351">
        <ele>53</ele>
        <time>2018-01-13T05:24:52Z</time>
      </trkpt>
      <trkpt lat="46.7055" lon="-1.7236">
        <ele>53</ele>
        <time>2018-01-13T05:25:52Z</time>
      </trkpt>
      <trkpt lat="46.70549" lon="-1.72388">
        <ele>53</ele>
        <time>2018-01-13T05:26:52Z</time>
      </trkpt>
      <trkpt lat="46.70543" lon="-1.72409">
        <ele>53</ele>
        <time>2018-01-13T05:27:52Z</time>
      </trkpt>
      <trkpt lat="46.70536" lon="-1.72431">
        <ele>52</ele>
        <time>2018-01-13T05:28:52Z</time>
      </trkpt>
      <trkpt lat="46.70521" lon="-1.7246">
        <ele>52</ele>
        <time>2018-01-13T05:29:52Z</time>
      </trkpt>
      <trkpt lat="46.7052" lon="-1.72463">
        <ele>52</ele>
        <time>2018-01-13T05:30:52Z</time>
      </trkpt>
      <trkpt lat="46.705" lon="-1.72503">
        <ele>53</ele>
        <time>2018-01-13T05:31:52Z</time>
      </trkpt>
      <trkpt lat="46.70499" lon="-1.72504">
        <ele>53</ele>
        <time>2018-01-13T05:32:52Z</time>
      </trkpt>
      <trkpt lat="46.70499" lon="-1.72504">
        <ele>53</ele>
        <time>2018-01-13T05:33:52Z</time>
      </trkpt>
      <trkpt lat="46.70527" lon="-1.7253">
        <ele>52</ele>
        <time>2018-01-13T05:34:52Z</time>
      </trkpt>
      <trkpt lat="46.7053" lon="-1.72537">
        <ele>52</ele>
        <time>2018-01-13T05:35:52Z</time>
      </trkpt>
      <trkpt lat="46.70538" lon="-1.72542">
        <ele>52</ele>
        <time>2018-01-13T05:36:52Z</time>
      </trkpt>
      <trkpt lat="46.70548" lon="-1.7255">
        <ele>52</ele>
        <time>2018-01-13T05:37:52Z</time>
      </trkpt>
      <trkpt lat="46.70562" lon="-1.72563">
        <ele>51</ele>
        <time>2018-01-13T05:38:52Z</time>
      </trkpt>
      <trkpt lat="46.70573" lon="-1.72578">
        <ele>51</ele>
        <time>2018-01-13T05:39:52Z</time>
      </trkpt>
      <trkpt lat="46.70576" lon="-1.72582">
        <ele>51</ele>
        <time>2018-01-13T05:40:52Z</time>
      </trkpt>
      <trkpt lat="46.70583" lon="-1.72593">
        <ele>51</ele>
        <time>2018-01-13T05:41:52Z</time>
      </trkpt>
      <trkpt lat="46.70587" lon="-1.72601">
        <ele>51</ele>
        <time>2018-01-13T05:42:52Z</time>
      </trkpt>
      <trkpt lat="46.70593" lon="-1.72611">
        <ele>51</ele>
        <time>2018-01-13T05:43:52Z</time>
      </trkpt>
      <trkpt lat="46.706" lon="-1.72626">
        <ele>51</ele>
        <time>2018-01-13T05:44:52Z</time>
      </trkpt>
      <trkpt lat="46.70606" lon="-1.72639">
        <ele>51</ele>
        <time>2018-01-13T05:45:52Z</time>
      </trkpt>
      <trkpt lat="46.70617" lon="-1.72664">
        <ele>50</ele>
        <time>2018-01-13T05:46:52Z</time>
      </trkpt>
      <trkpt lat="46.70631" lon="-1.72693">
        <ele>50</ele>
        <time>2018-01-13T05:47:52Z</time>
      </trkpt>
      <trkpt lat="46.70646" lon="-1.72721">
        <ele>50</ele>
        <time>2018-01-13T05:48:52Z</time>
      </trkpt>
      <trkpt lat="46.70657" lon="-1.72737">
        <ele>51</ele>
        <time>2018-01-13T05:49:52Z</time>
      </trkpt>
      <trkpt lat="46.70669" lon="-1.72751">
        <ele>51</ele>
        <time>2018-01-13T05:50:52Z</time>
      </trkpt>
      <trkpt lat="46.70691" lon="-1.72771">
        <ele>51</ele>
        <time>2018-01-13T05:51:52Z</time>
      </trkpt>
      <trkpt lat="46.70717" lon="-1.72788">
        <ele>51</ele>
        <time>2018-01-13T05:52:52Z</time>
      </trkpt>
      <trkpt lat="46.70751" lon="-1.72802">
        <ele>51</ele>
        <time>2018-01-13T05:53:52Z</time>
      </trkpt>
      <trkpt lat="46.70795" lon="-1.72817">
        <ele>50</ele>
        <time>2018-01-13T05:54:52Z</time>
      </trkpt>
      <trkpt lat="46.70836" lon="-1.72831">
        <ele>50</ele>
        <time>2018-01-13T05:55:52Z</time>
      </trkpt>
      <trkpt lat="46.70903" lon="-1.72852">
        <ele>49</ele>
        <time>2018-01-13T05:56:52Z</time>
      </trkpt>
      <trkpt lat="46.70947" lon="-1.72866">
        <ele>49</ele>
        <time>2018-01-13T05:57:52Z</time>
      </trkpt>
      <trkpt lat="46.70967" lon="-1.72873">
        <ele>49</ele>
        <time>2018-01-13T05:58:52Z</time>
      </trkpt>
      <trkpt lat="46.70985" lon="-1.72879">
        <ele>50</ele>
        <time>2018-01-13T05:59:52Z</time>
      </trkpt>
      <trkpt lat="46.70989" lon="-1.72881">
        <ele>50</ele>
        <time>2018-01-13T06:00:52Z</time>
      </trkpt>
      <trkpt lat="46.71055" lon="-1.72902">
        <ele>51</ele>
        <time>2018-01-13T06:01:52Z</time>
      </trkpt>
      <trkpt lat="46.71091" lon="-1.72914">
        <ele>51</ele>
        <time>2018-01-13T06:02:52Z</time>
      </trkpt>
      <trkpt lat="46.71137" lon="-1.72929">
        <ele>51</ele>
        <time>2018-01-13T06:03:52Z</time>
      </trkpt>
      <trkpt lat="46.71199" lon="-1.7295">
        <ele>50</ele>
        <time>2018-01-13T06:04:52Z</time>
      </trkpt>
      <trkpt lat="46.71297" lon="-1.72981">
        <ele>49</ele>
        <time>2018-01-13T06:05:52Z</time>
      </trkpt>
      <trkpt lat="46.71378" lon="-1.73007">
        <ele>48</ele>
        <time>2018-01-13T06:06:52Z</time>
      </trkpt>
      <trkpt lat="46.7142" lon="-1.7302">
        <ele>47</ele>
        <time>2018-01-13T06:07:52Z</time>
      </trkpt>
      <trkpt lat="46.71447" lon="-1.73029">
        <ele>47</ele>
        <time>2018-01-13T06:08:52Z</time>
      </trkpt>
      <trkpt lat="46.71456" lon="-1.73032">
        <ele>47</ele>
        <time>2018-01-13T06:09:52Z</time>
      </trkpt>
      <trkpt lat="46.71505" lon="-1.73047">
        <ele>48</ele>
        <time>2018-01-13T06:10:52Z</time>
      </trkpt>
      <trkpt lat="46.7156" lon="-1.73065">
        <ele>49</ele>
        <time>2018-01-13T06:11:52Z</time>
      </trkpt>
      <trkpt lat="46.71581" lon="-1.73071">
        <ele>49</ele>
        <time>2018-01-13T06:12:52Z</time>
      </trkpt>
      <trkpt lat="46.71616" lon="-1.73083">
        <ele>50</ele>
        <time>2018-01-13T06:13:52Z</time>
      </trkpt>
      <trkpt lat="46.71625" lon="-1.73086">
        <ele>51</ele>
        <time>2018-01-13T06:14:52Z</time>
      </trkpt>
      <trkpt lat="46.71657" lon="-1.73097">
        <ele>52</ele>
        <time>2018-01-13T06:15:52Z</time>
      </trkpt>
      <trkpt lat="46.71701" lon="-1.7311">
        <ele>51</ele>
        <time>2018-01-13T06:16:52Z</time>
      </trkpt>
      <trkpt lat="46.71755" lon="-1.73127">
        <ele>50</ele>
        <time>2018-01-13T06:17:52Z</time>
      </trkpt>
      <trkpt lat="46.71807" lon="-1.73143">
        <ele>49</ele>
        <time>2018-01-13T06:18:52Z</time>
      </trkpt>
      <trkpt lat="46.71842" lon="-1.73154">
        <ele>49</ele>
        <time>2018-01-13T06:19:52Z</time>
      </trkpt>
      <trkpt lat="46.71887" lon="-1.73168">
        <ele>48</ele>
        <time>2018-01-13T06:20:52Z</time>
      </trkpt>
      <trkpt lat="46.71953" lon="-1.7319">
        <ele>47</ele>
        <time>2018-01-13T06:21:52Z</time>
      </trkpt>
      <trkpt lat="46.72002" lon="-1.73205">
        <ele>47</ele>
        <time>2018-01-13T06:22:52Z</time>
      </trkpt>
      <trkpt lat="46.7203" lon="-1.73215">
        <ele>47</ele>
        <time>2018-01-13T06:23:52Z</time>
      </trkpt>
      <trkpt lat="46.72083" lon="-1.73232">
        <ele>47</ele>
        <time>2018-01-13T06:24:52Z</time>
      </trkpt>
      <trkpt lat="46.72138" lon="-1.73249">
        <ele>47</ele>
        <time>2018-01-13T06:25:52Z</time>
      </trkpt>
      <trkpt lat="46.72152" lon="-1.73254">
        <ele>47</ele>
        <time>2018-01-13T06:26:52Z</time>
      </trkpt>
      <trkpt lat="46.72162" lon="-1.73257">
        <ele>47</ele>
        <time>2018-01-13T06:27:52Z</time>
      </trkpt>
      <trkpt lat="46.72209" lon="-1.73272">
        <ele>46</ele>
        <time>2018-01-13T06:28:52Z</time>
      </trkpt>
      <trkpt lat="46.72257" lon="-1.73287">
        <ele>45</ele>
        <time>2018-01-13T06:29:52Z</time>
      </trkpt>
      <trkpt lat="46.72331" lon="-1.7331">
        <ele>46</ele>
        <time>2018-01-13T06:30:52Z</time>
      </trkpt>
      <trkpt lat="46.72398" lon="-1.73331">
        <ele>47</ele>
        <time>2018-01-13T06:31:52Z</time>
      </trkpt>
      <trkpt lat="46.72422" lon="-1.73339">
        <ele>47</ele>
        <time>2018-01-13T06:32:52Z</time>
      </trkpt>
      <trkpt lat="46.72488" lon="-1.73359">
        <ele>49</ele>
        <time>2018-01-13T06:33:52Z</time>
      </trkpt>
      <trkpt lat="46.72593" lon="-1.73392">
        <ele>50</ele>
        <time>2018-01-13T06:34:52Z</time>
      </trkpt>
      <trkpt lat="46.72699" lon="-1.73426">
        <ele>47</ele>
        <time>2018-01-13T06:35:52Z</time>
      </trkpt>
      <trkpt lat="46.72783" lon="-1.73452">
        <ele>46</ele>
        <time>2018-01-13T06:36:52Z</time>
      </trkpt>
      <trkpt lat="46.72814" lon="-1.73462">
        <ele>46</ele>
        <time>2018-01-13T06:37:52Z</time>
      </trkpt>
      <trkpt lat="46.72838" lon="-1.7347">
        <ele>46</ele>
        <time>2018-01-13T06:38:52Z</time>
      </trkpt>
      <trkpt lat="46.72878" lon="-1.73482">
        <ele>45</ele>
        <time>2018-01-13T06:39:52Z</time>
      </trkpt>
      <trkpt lat="46.72962" lon="-1.73507">
        <ele>43</ele>
        <time>2018-01-13T06:40:52Z</time>
      </trkpt>
      <trkpt lat="46.7299" lon="-1.73516">
        <ele>42</ele>
        <time>2018-01-13T06:41:52Z</time>
      </trkpt>
      <trkpt lat="46.73" lon="-1.73519">
        <ele>42</ele>
        <time>2018-01-13T06:42:52Z</time>
      </trkpt>
      <trkpt lat="46.73016" lon="-1.73525">
        <ele>42</ele>
        <time>2018-01-13T06:43:52Z</time>
      </trkpt>
      <trkpt lat="46.7303" lon="-1.7353">
        <ele>42</ele>
        <time>2018-01-13T06:44:52Z</time>
      </trkpt>
      <trkpt lat="46.7304" lon="-1.73535">
        <ele>42</ele>
        <time>2018-01-13T06:45:52Z</time>
      </trkpt>
      <trkpt lat="46.73049" lon="-1.73539">
        <ele>42</ele>
        <time>2018-01-13T06:46:52Z</time>
      </trkpt>
      <trkpt lat="46.73059" lon="-1.73544">
        <ele>42</ele>
        <time>2018-01-13T06:47:52Z</time>
      </trkpt>
      <trkpt lat="46.73067" lon="-1.73549">
        <ele>42</ele>
        <time>2018-01-13T06:48:52Z</time>
      </trkpt>
      <trkpt lat="46.73075" lon="-1.73554">
        <ele>42</ele>
        <time>2018-01-13T06:49:52Z</time>
      </trkpt>
      <trkpt lat="46.73087" lon="-1.73563">
        <ele>42</ele>
        <time>2018-01-13T06:50:52Z</time>
      </trkpt>
      <trkpt lat="46.73103" lon="-1.73577">
        <ele>42</ele>
        <time>2018-01-13T06:51:52Z</time>
      </trkpt>
      <trkpt lat="46.7313" lon="-1.73604">
        <ele>42</ele>
        <time>2018-01-13T06:52:52Z</time>
      </trkpt>
      <trkpt lat="46.7315" lon="-1.73629">
        <ele>42</ele>
        <time>2018-01-13T06:53:52Z</time>
      </trkpt>
      <trkpt lat="46.7318" lon="-1.73671">
        <ele>42</ele>
        <time>2018-01-13T06:54:52Z</time>
      </trkpt>
      <trkpt lat="46.732" lon="-1.73698">
        <ele>42</ele>
        <time>2018-01-13T06:55:52Z</time>
      </trkpt>
      <trkpt lat="46.73282" lon="-1.73817">
        <ele>42</ele>
        <time>2018-01-13T06:56:52Z</time>
      </trkpt>
      <trkpt lat="46.73291" lon="-1.7383">
        <ele>42</ele>
        <time>2018-01-13T06:57:52Z</time>
      </trkpt>
      <trkpt lat="46.73346" lon="-1.73908">
        <ele>42</ele>
        <time>2018-01-13T06:58:52Z</time>
      </trkpt>
      <trkpt lat="46.73408" lon="-1.73997">
        <ele>39</ele>
        <time>2018-01-13T06:59:52Z</time>
      </trkpt>
      <trkpt lat="46.73423" lon="-1.74019">
        <ele>39</ele>
        <time>2018-01-13T07:00:52Z</time>
      </trkpt>
      <trkpt lat="46.73461" lon="-1.74073">
        <ele>39</ele>
        <time>2018-01-13T07:01:52Z</time>
      </trkpt>
      <trkpt lat="46.73527" lon="-1.74166">
        <ele>38</ele>
        <time>2018-01-13T07:02:52Z</time>
      </trkpt>
      <trkpt lat="46.73588" lon="-1.74253">
        <ele>36</ele>
        <time>2018-01-13T07:03:52Z</time>
      </trkpt>
      <trkpt lat="46.73628" lon="-1.74309">
        <ele>35</ele>
        <time>2018-01-13T07:04:52Z</time>
      </trkpt>
      <trkpt lat="46.73636" lon="-1.74319">
        <ele>35</ele>
        <time>2018-01-13T07:05:52Z</time>
      </trkpt>
      <trkpt lat="46.7374" lon="-1.74467">
        <ele>33</ele>
        <time>2018-01-13T07:06:52Z</time>
      </trkpt>
      <trkpt lat="46.73807" lon="-1.74562">
        <ele>37</ele>
        <time>2018-01-13T07:07:52Z</time>
      </trkpt>
      <trkpt lat="46.73814" lon="-1.74572">
        <ele>38</ele>
        <time>2018-01-13T07:08:52Z</time>
      </trkpt>
      <trkpt lat="46.7382" lon="-1.74581">
        <ele>38</ele>
        <time>2018-01-13T07:09:52Z</time>
      </trkpt>
      <trkpt lat="46.73827" lon="-1.7459">
        <ele>38</ele>
        <time>2018-01-13T07:10:52Z</time>
      </trkpt>
      <trkpt lat="46.73833" lon="-1.74599">
        <ele>38</ele>
        <time>2018-01-13T07:11:52Z</time>
      </trkpt>
      <trkpt lat="46.7384" lon="-1.74607">
        <ele>38</ele>
        <time>2018-01-13T07:12:52Z</time>
      </trkpt>
      <trkpt lat="46.73848" lon="-1.74615">
        <ele>38</ele>
        <time>2018-01-13T07:13:52Z</time>
      </trkpt>
      <trkpt lat="46.73854" lon="-1.74622">
        <ele>38</ele>
        <time>2018-01-13T07:14:52Z</time>
      </trkpt>
      <trkpt lat="46.73869" lon="-1.74634">
        <ele>38</ele>
        <time>2018-01-13T07:15:52Z</time>
      </trkpt>
      <trkpt lat="46.73877" lon="-1.74639">
        <ele>38</ele>
        <time>2018-01-13T07:16:52Z</time>
      </trkpt>
      <trkpt lat="46.73884" lon="-1.74643">
        <ele>38</ele>
        <time>2018-01-13T07:17:52Z</time>
      </trkpt>
      <trkpt lat="46.73892" lon="-1.74646">
        <ele>38</ele>
        <time>2018-01-13T07:18:52Z</time>
      </trkpt>
      <trkpt lat="46.73899" lon="-1.74649">
        <ele>38</ele>
        <time>2018-01-13T07:19:52Z</time>
      </trkpt>
      <trkpt lat="46.73906" lon="-1.74651">
        <ele>38</ele>
        <time>2018-01-13T07:20:52Z</time>
      </trkpt>
      <trkpt lat="46.73913" lon="-1.74653">
        <ele>38</ele>
        <time>2018-01-13T07:21:52Z</time>
      </trkpt>
      <trkpt lat="46.73919" lon="-1.74654">
        <ele>38</ele>
        <time>2018-01-13T07:22:52Z</time>
      </trkpt>
      <trkpt lat="46.73922" lon="-1.74654">
        <ele>38</ele>
        <time>2018-01-13T07:23:52Z</time>
      </trkpt>
      <trkpt lat="46.7393" lon="-1.74655">
        <ele>38</ele>
        <time>2018-01-13T07:24:52Z</time>
      </trkpt>
      <trkpt lat="46.73938" lon="-1.74655">
        <ele>38</ele>
        <time>2018-01-13T07:25:52Z</time>
      </trkpt>
      <trkpt lat="46.73952" lon="-1.74656">
        <ele>37</ele>
        <time>2018-01-13T07:26:52Z</time>
      </trkpt>
      <trkpt lat="46.73957" lon="-1.74655">
        <ele>37</ele>
        <time>2018-01-13T07:27:52Z</time>
      </trkpt>
      <trkpt lat="46.7396" lon="-1.74655">
        <ele>37</ele>
        <time>2018-01-13T07:28:52Z</time>
      </trkpt>
      <trkpt lat="46.73968" lon="-1.74654">
        <ele>37</ele>
        <time>2018-01-13T07:29:52Z</time>
      </trkpt>
      <trkpt lat="46.74032" lon="-1.74638">
        <ele>36</ele>
        <time>2018-01-13T07:30:52Z</time>
      </trkpt>
      <trkpt lat="46.74046" lon="-1.74636">
        <ele>36</ele>
        <time>2018-01-13T07:31:52Z</time>
      </trkpt>
      <trkpt lat="46.74065" lon="-1.74635">
        <ele>36</ele>
        <time>2018-01-13T07:32:52Z</time>
      </trkpt>
      <trkpt lat="46.74088" lon="-1.74637">
        <ele>36</ele>
        <time>2018-01-13T07:33:52Z</time>
      </trkpt>
      <trkpt lat="46.74113" lon="-1.7464">
        <ele>36</ele>
        <time>2018-01-13T07:34:52Z</time>
      </trkpt>
      <trkpt lat="46.74118" lon="-1.7464">
        <ele>36</ele>
        <time>2018-01-13T07:35:52Z</time>
      </trkpt>
      <trkpt lat="46.74151" lon="-1.74646">
        <ele>36</ele>
        <time>2018-01-13T07:36:52Z</time>
      </trkpt>
      <trkpt lat="46.74172" lon="-1.74652">
        <ele>36</ele>
        <time>2018-01-13T07:37:52Z</time>
      </trkpt>
      <trkpt lat="46.742" lon="-1.7466">
        <ele>34</ele>
        <time>2018-01-13T07:38:52Z</time>
      </trkpt>
      <trkpt lat="46.74217" lon="-1.74665">
        <ele>34</ele>
        <time>2018-01-13T07:39:52Z</time>
      </trkpt>
      <trkpt lat="46.74233" lon="-1.74669">
        <ele>33</ele>
        <time>2018-01-13T07:40:52Z</time>
      </trkpt>
      <trkpt lat="46.74242" lon="-1.74671">
        <ele>32</ele>
        <time>2018-01-13T07:41:52Z</time>
      </trkpt>
      <trkpt lat="46.74247" lon="-1.74672">
        <ele>32</ele>
        <time>2018-01-13T07:42:52Z</time>
      </trkpt>
      <trkpt lat="46.74256" lon="-1.74673">
        <ele>32</ele>
        <time>2018-01-13T07:43:52Z</time>
      </trkpt>
      <trkpt lat="46.74267" lon="-1.74673">
        <ele>32</ele>
        <time>2018-01-13T07:44:52Z</time>
      </trkpt>
      <trkpt lat="46.74279" lon="-1.74673">
        <ele>32</ele>
        <time>2018-01-13T07:45:52Z</time>
      </trkpt>
      <trkpt lat="46.74296" lon="-1.74669">
        <ele>31</ele>
        <time>2018-01-13T07:46:52Z</time>
      </trkpt>
      <trkpt lat="46.74322" lon="-1.74664">
        <ele>31</ele>
        <time>2018-01-13T07:47:52Z</time>
      </trkpt>
      <trkpt lat="46.74375" lon="-1.74651">
        <ele>30</ele>
        <time>2018-01-13T07:48:52Z</time>
      </trkpt>
      <trkpt lat="46.74454" lon="-1.74632">
        <ele>28</ele>
        <time>2018-01-13T07:49:52Z</time>
      </trkpt>
      <trkpt lat="46.74508" lon="-1.74621">
        <ele>26</ele>
        <time>2018-01-13T07:50:52Z</time>
      </trkpt>
      <trkpt lat="46.74533" lon="-1.74615">
        <ele>26</ele>
        <time>2018-01-13T07:51:52Z</time>
      </trkpt>
      <trkpt lat="46.74542" lon="-1.74612">
        <ele>25</ele>
        <time>2018-01-13T07:52:52Z</time>
      </trkpt>
      <trkpt lat="46.74548" lon="-1.7461">
        <ele>25</ele>
        <time>2018-01-13T07:53:52Z</time>
      </trkpt>
      <trkpt lat="46.74551" lon="-1.74609">
        <ele>25</ele>
        <time>2018-01-13T07:54:52Z</time>
      </trkpt>
      <trkpt lat="46.74567" lon="-1.74604">
        <ele>25</ele>
        <time>2018-01-13T07:55:52Z</time>
      </trkpt>
      <trkpt lat="46.74573" lon="-1.74601">
        <ele>25</ele>
        <time>2018-01-13T07:56:52Z</time>
      </trkpt>
      <trkpt lat="46.74578" lon="-1.74598">
        <ele>24</ele>
        <time>2018-01-13T07:57:52Z</time>
      </trkpt>
      <trkpt lat="46.74584" lon="-1.74594">
        <ele>24</ele>
        <time>2018-01-13T07:58:52Z</time>
      </trkpt>
      <trkpt lat="46.74597" lon="-1.74586">
        <ele>24</ele>
        <time>2018-01-13T07:59:52Z</time>
      </trkpt>
      <trkpt lat="46.74597" lon="-1.74586">
        <ele>24</ele>
        <time>2018-01-13T08:00:52Z</time>
      </trkpt>
      <trkpt lat="46.74599" lon="-1.74596">
        <ele>24</ele>
        <time>2018-01-13T08:01:52Z</time>
      </trkpt>
      <trkpt lat="46.746" lon="-1.74603">
        <ele>24</ele>
        <time>2018-01-13T08:02:52Z</time>
      </trkpt>
      <trkpt lat="46.74603" lon="-1.74617">
        <ele>24</ele>
        <time>2018-01-13T08:03:52Z</time>
      </trkpt>
      <trkpt lat="46.74607" lon="-1.74642">
        <ele>25</ele>
        <time>2018-01-13T08:04:52Z</time>
      </trkpt>
      <trkpt lat="46.74611" lon="-1.74666">
        <ele>25</ele>
        <time>2018-01-13T08:05:52Z</time>
      </trkpt>
      <trkpt lat="46.74617" lon="-1.74692">
        <ele>25</ele>
        <time>2018-01-13T08:06:52Z</time>
      </trkpt>
      <trkpt lat="46.74622" lon="-1.74719">
        <ele>25</ele>
        <time>2018-01-13T08:07:52Z</time>
      </trkpt>
      <trkpt lat="46.74631" lon="-1.74766">
        <ele>25</ele>
        <time>2018-01-13T08:08:52Z</time>
      </trkpt>
      <trkpt lat="46.74637" lon="-1.74797">
        <ele>25</ele>
        <time>2018-01-13T08:09:52Z</time>
      </trkpt>
      <trkpt lat="46.74642" lon="-1.74826">
        <ele>25</ele>
        <time>2018-01-13T08:10:52Z</time>
      </trkpt>
      <trkpt lat="46.74647" lon="-1.74852">
        <ele>24</ele>
        <time>2018-01-13T08:11:52Z</time>
      </trkpt>
      <trkpt lat="46.74649" lon="-1.74874">
        <ele>23</ele>
        <time>2018-01-13T08:12:52Z</time>
      </trkpt>
      <trkpt lat="46.7465" lon="-1.74887">
        <ele>23</ele>
        <time>2018-01-13T08:13:52Z</time>
      </trkpt>
      <trkpt lat="46.7465" lon="-1.749">
        <ele>23</ele>
        <time>2018-01-13T08:14:52Z</time>
      </trkpt>
      <trkpt lat="46.74651" lon="-1.74914">
        <ele>22</ele>
        <time>2018-01-13T08:15:52Z</time>
      </trkpt>
      <trkpt lat="46.74651" lon="-1.74928">
        <ele>22</ele>
        <time>2018-01-13T08:16:52Z</time>
      </trkpt>
      <trkpt lat="46.7465" lon="-1.74942">
        <ele>22</ele>
        <time>2018-01-13T08:17:52Z</time>
      </trkpt>
      <trkpt lat="46.74649" lon="-1.74956">
        <ele>23</ele>
        <time>2018-01-13T08:18:52Z</time>
      </trkpt>
      <trkpt lat="46.74648" lon="-1.7497">
        <ele>23</ele>
        <time>2018-01-13T08:19:52Z</time>
      </trkpt>
      <trkpt lat="46.74647" lon="-1.74984">
        <ele>23</ele>
        <time>2018-01-13T08:20:52Z</time>
      </trkpt>
      <trkpt lat="46.74645" lon="-1.74999">
        <ele>23</ele>
        <time>2018-01-13T08:21:52Z</time>
      </trkpt>
      <trkpt lat="46.74643" lon="-1.75013">
        <ele>23</ele>
        <time>2018-01-13T08:22:52Z</time>
      </trkpt>
      <trkpt lat="46.7464" lon="-1.75028">
        <ele>24</ele>
        <time>2018-01-13T08:23:52Z</time>
      </trkpt>
      <trkpt lat="46.74635" lon="-1.75056">
        <ele>25</ele>
        <time>2018-01-13T08:24:52Z</time>
      </trkpt>
      <trkpt lat="46.74628" lon="-1.751">
        <ele>26</ele>
        <time>2018-01-13T08:25:52Z</time>
      </trkpt>
      <trkpt lat="46.74618" lon="-1.75155">
        <ele>26</ele>
        <time>2018-01-13T08:26:52Z</time>
      </trkpt>
      <trkpt lat="46.74608" lon="-1.75205">
        <ele>25</ele>
        <time>2018-01-13T08:27:52Z</time>
      </trkpt>
      <trkpt lat="46.74601" lon="-1.75236">
        <ele>24</ele>
        <time>2018-01-13T08:28:52Z</time>
      </trkpt>
      <trkpt lat="46.74594" lon="-1.75262">
        <ele>24</ele>
        <time>2018-01-13T08:29:52Z</time>
      </trkpt>
      <trkpt lat="46.7459" lon="-1.75279">
        <ele>24</ele>
        <time>2018-01-13T08:30:52Z</time>
      </trkpt>
      <trkpt lat="46.74585" lon="-1.75294">
        <ele>24</ele>
        <time>2018-01-13T08:31:52Z</time>
      </trkpt>
      <trkpt lat="46.74578" lon="-1.75313">
        <ele>24</ele>
        <time>2018-01-13T08:32:52Z</time>
      </trkpt>
      <trkpt lat="46.74569" lon="-1.75336">
        <ele>24</ele>
        <time>2018-01-13T08:33:52Z</time>
      </trkpt>
      <trkpt lat="46.74557" lon="-1.75364">
        <ele>24</ele>
        <time>2018-01-13T08:34:52Z</time>
      </trkpt>
      <trkpt lat="46.74531" lon="-1.75427">
        <ele>23</ele>
        <time>2018-01-13T08:35:52Z</time>
      </trkpt>
      <trkpt lat="46.74503" lon="-1.75493">
        <ele>23</ele>
        <time>2018-01-13T08:36:52Z</time>
      </trkpt>
      <trkpt lat="46.74458" lon="-1.756">
        <ele>20</ele>
        <time>2018-01-13T08:37:52Z</time>
      </trkpt>
      <trkpt lat="46.74438" lon="-1.75646">
        <ele>21</ele>
        <time>2018-01-13T08:38:52Z</time>
      </trkpt>
      <trkpt lat="46.74421" lon="-1.75687">
        <ele>20</ele>
        <time>2018-01-13T08:39:52Z</time>
      </trkpt>
      <trkpt lat="46.74404" lon="-1.75728">
        <ele>20</ele>
        <time>2018-01-13T08:40:52Z</time>
      </trkpt>
      <trkpt lat="46.74383" lon="-1.75777">
        <ele>20</ele>
        <time>2018-01-13T08:41:52Z</time>
      </trkpt>
      <trkpt lat="46.74359" lon="-1.75834">
        <ele>20</ele>
        <time>2018-01-13T08:42:52Z</time>
      </trkpt>
      <trkpt lat="46.74316" lon="-1.7594">
        <ele>20</ele>
        <time>2018-01-13T08:43:52Z</time>
      </trkpt>
      <trkpt lat="46.74294" lon="-1.75991">
        <ele>21</ele>
        <time>2018-01-13T08:44:52Z</time>
      </trkpt>
      <trkpt lat="46.74284" lon="-1.76017">
        <ele>20</ele>
        <time>2018-01-13T08:45:52Z</time>
      </trkpt>
      <trkpt lat="46.74273" lon="-1.7604">
        <ele>20</ele>
        <time>2018-01-13T08:46:52Z</time>
      </trkpt>
      <trkpt lat="46.74262" lon="-1.76064">
        <ele>21</ele>
        <time>2018-01-13T08:47:52Z</time>
      </trkpt>
      <trkpt lat="46.7425" lon="-1.76087">
        <ele>21</ele>
        <time>2018-01-13T08:48:52Z</time>
      </trkpt>
      <trkpt lat="46.74237" lon="-1.7611">
        <ele>21</ele>
        <time>2018-01-13T08:49:52Z</time>
      </trkpt>
      <trkpt lat="46.74218" lon="-1.76144">
        <ele>21</ele>
        <time>2018-01-13T08:50:52Z</time>
      </trkpt>
      <trkpt lat="46.74198" lon="-1.76178">
        <ele>22</ele>
        <time>2018-01-13T08:51:52Z</time>
      </trkpt>
      <trkpt lat="46.7418" lon="-1.76211">
        <ele>23</ele>
        <time>2018-01-13T08:52:52Z</time>
      </trkpt>
      <trkpt lat="46.74169" lon="-1.76234">
        <ele>24</ele>
        <time>2018-01-13T08:53:52Z</time>
      </trkpt>
      <trkpt lat="46.74165" lon="-1.76245">
        <ele>24</ele>
        <time>2018-01-13T08:54:52Z</time>
      </trkpt>
      <trkpt lat="46.7416" lon="-1.76258">
        <ele>24</ele>
        <time>2018-01-13T08:55:52Z</time>
      </trkpt>
      <trkpt lat="46.74156" lon="-1.76271">
        <ele>23</ele>
        <time>2018-01-13T08:56:52Z</time>
      </trkpt>
      <trkpt lat="46.74152" lon="-1.76284">
        <ele>23</ele>
        <time>2018-01-13T08:57:52Z</time>
      </trkpt>
      <trkpt lat="46.74149" lon="-1.76298">
        <ele>23</ele>
        <time>2018-01-13T08:58:52Z</time>
      </trkpt>
      <trkpt lat="46.74146" lon="-1.7631">
        <ele>22</ele>
        <time>2018-01-13T08:59:52Z</time>
      </trkpt>
      <trkpt lat="46.74145" lon="-1.76325">
        <ele>22</ele>
        <time>2018-01-13T09:00:52Z</time>
      </trkpt>
      <trkpt lat="46.74143" lon="-1.76338">
        <ele>21</ele>
        <time>2018-01-13T09:01:52Z</time>
      </trkpt>
      <trkpt lat="46.74141" lon="-1.76353">
        <ele>21</ele>
        <time>2018-01-13T09:02:52Z</time>
      </trkpt>
      <trkpt lat="46.74141" lon="-1.7637">
        <ele>21</ele>
        <time>2018-01-13T09:03:52Z</time>
      </trkpt>
      <trkpt lat="46.7414" lon="-1.76389">
        <ele>20</ele>
        <time>2018-01-13T09:04:52Z</time>
      </trkpt>
      <trkpt lat="46.74139" lon="-1.76446">
        <ele>19</ele>
        <time>2018-01-13T09:05:52Z</time>
      </trkpt>
      <trkpt lat="46.74138" lon="-1.76554">
        <ele>16</ele>
        <time>2018-01-13T09:06:52Z</time>
      </trkpt>
      <trkpt lat="46.74139" lon="-1.76638">
        <ele>14</ele>
        <time>2018-01-13T09:07:52Z</time>
      </trkpt>
      <trkpt lat="46.74139" lon="-1.76723">
        <ele>11</ele>
        <time>2018-01-13T09:08:52Z</time>
      </trkpt>
      <trkpt lat="46.74139" lon="-1.76768">
        <ele>10</ele>
        <time>2018-01-13T09:09:52Z</time>
      </trkpt>
      <trkpt lat="46.74139" lon="-1.76776">
        <ele>11</ele>
        <time>2018-01-13T09:10:52Z</time>
      </trkpt>
      <trkpt lat="46.74139" lon="-1.76781">
        <ele>11</ele>
        <time>2018-01-13T09:11:52Z</time>
      </trkpt>
      <trkpt lat="46.7414" lon="-1.76889">
        <ele>11</ele>
        <time>2018-01-13T09:12:52Z</time>
      </trkpt>
      <trkpt lat="46.7414" lon="-1.76915">
        <ele>11</ele>
        <time>2018-01-13T09:13:52Z</time>
      </trkpt>
      <trkpt lat="46.74139" lon="-1.76937">
        <ele>11</ele>
        <time>2018-01-13T09:14:52Z</time>
      </trkpt>
      <trkpt lat="46.74138" lon="-1.76955">
        <ele>10</ele>
        <time>2018-01-13T09:15:52Z</time>
      </trkpt>
      <trkpt lat="46.74136" lon="-1.76968">
        <ele>10</ele>
        <time>2018-01-13T09:16:52Z</time>
      </trkpt>
      <trkpt lat="46.74135" lon="-1.76981">
        <ele>10</ele>
        <time>2018-01-13T09:17:52Z</time>
      </trkpt>
      <trkpt lat="46.74132" lon="-1.76994">
        <ele>10</ele>
        <time>2018-01-13T09:18:52Z</time>
      </trkpt>
      <trkpt lat="46.74129" lon="-1.77007">
        <ele>10</ele>
        <time>2018-01-13T09:19:52Z</time>
      </trkpt>
      <trkpt lat="46.74122" lon="-1.77035">
        <ele>11</ele>
        <time>2018-01-13T09:20:52Z</time>
      </trkpt>
      <trkpt lat="46.74112" lon="-1.77067">
        <ele>12</ele>
        <time>2018-01-13T09:21:52Z</time>
      </trkpt>
      <trkpt lat="46.74097" lon="-1.77112">
        <ele>14</ele>
        <time>2018-01-13T09:22:52Z</time>
      </trkpt>
      <trkpt lat="46.74079" lon="-1.77166">
        <ele>15</ele>
        <time>2018-01-13T09:23:52Z</time>
      </trkpt>
      <trkpt lat="46.74058" lon="-1.77229">
        <ele>16</ele>
        <time>2018-01-13T09:24:52Z</time>
      </trkpt>
      <trkpt lat="46.74042" lon="-1.77279">
        <ele>16</ele>
        <time>2018-01-13T09:25:52Z</time>
      </trkpt>
      <trkpt lat="46.74017" lon="-1.77356">
        <ele>16</ele>
        <time>2018-01-13T09:26:52Z</time>
      </trkpt>
      <trkpt lat="46.73998" lon="-1.77414">
        <ele>16</ele>
        <time>2018-01-13T09:27:52Z</time>
      </trkpt>
      <trkpt lat="46.7399" lon="-1.77443">
        <ele>16</ele>
        <time>2018-01-13T09:28:52Z</time>
      </trkpt>
      <trkpt lat="46.73986" lon="-1.77462">
        <ele>16</ele>
        <time>2018-01-13T09:29:52Z</time>
      </trkpt>
      <trkpt lat="46.73982" lon="-1.7748">
        <ele>17</ele>
        <time>2018-01-13T09:30:52Z</time>
      </trkpt>
      <trkpt lat="46.7398" lon="-1.77497">
        <ele>17</ele>
        <time>2018-01-13T09:31:52Z</time>
      </trkpt>
      <trkpt lat="46.73977" lon="-1.77528">
        <ele>17</ele>
        <time>2018-01-13T09:32:52Z</time>
      </trkpt>
      <trkpt lat="46.73975" lon="-1.77559">
        <ele>16</ele>
        <time>2018-01-13T09:33:52Z</time>
      </trkpt>
      <trkpt lat="46.73967" lon="-1.77662">
        <ele>16</ele>
        <time>2018-01-13T09:34:52Z</time>
      </trkpt>
      <trkpt lat="46.73965" lon="-1.77681">
        <ele>16</ele>
        <time>2018-01-13T09:35:52Z</time>
      </trkpt>
      <trkpt lat="46.73961" lon="-1.77735">
        <ele>16</ele>
        <time>2018-01-13T09:36:52Z</time>
      </trkpt>
      <trkpt lat="46.73959" lon="-1.77764">
        <ele>16</ele>
        <time>2018-01-13T09:37:52Z</time>
      </trkpt>
      <trkpt lat="46.73954" lon="-1.77822">
        <ele>17</ele>
        <time>2018-01-13T09:38:52Z</time>
      </trkpt>
      <trkpt lat="46.7395" lon="-1.77883">
        <ele>19</ele>
        <time>2018-01-13T09:39:52Z</time>
      </trkpt>
      <trkpt lat="46.73944" lon="-1.77959">
        <ele>20</ele>
        <time>2018-01-13T09:40:52Z</time>
      </trkpt>
      <trkpt lat="46.73939" lon="-1.78038">
        <ele>20</ele>
        <time>2018-01-13T09:41:52Z</time>
      </trkpt>
      <trkpt lat="46.73938" lon="-1.78043">
        <ele>20</ele>
        <time>2018-01-13T09:42:52Z</time>
      </trkpt>
      <trkpt lat="46.73934" lon="-1.78092">
        <ele>20</ele>
        <time>2018-01-13T09:43:52Z</time>
      </trkpt>
      <trkpt lat="46.73933" lon="-1.78105">
        <ele>20</ele>
        <time>2018-01-13T09:44:52Z</time>
      </trkpt>
      <trkpt lat="46.73932" lon="-1.78123">
        <ele>20</ele>
        <time>2018-01-13T09:45:52Z</time>
      </trkpt>
      <trkpt lat="46.73928" lon="-1.78144">
        <ele>20</ele>
        <time>2018-01-13T09:46:52Z</time>
      </trkpt>
      <trkpt lat="46.73925" lon="-1.78164">
        <ele>20</ele>
        <time>2018-01-13T09:47:52Z</time>
      </trkpt>
      <trkpt lat="46.73921" lon="-1.78185">
        <ele>20</ele>
        <time>2018-01-13T09:48:52Z</time>
      </trkpt>
      <trkpt lat="46.73905" lon="-1.78253">
        <ele>20</ele>
        <time>2018-01-13T09:49:52Z</time>
      </trkpt>
      <trkpt lat="46.73895" lon="-1.78298">
        <ele>20</ele>
        <time>2018-01-13T09:50:52Z</time>
      </trkpt>
      <trkpt lat="46.73893" lon="-1.78302">
        <ele>20</ele>
        <time>2018-01-13T09:51:52Z</time>
      </trkpt>
      <trkpt lat="46.73892" lon="-1.78308">
        <ele>20</ele>
        <time>2018-01-13T09:52:52Z</time>
      </trkpt>
      <trkpt lat="46.73884" lon="-1.78341">
        <ele>20</ele>
        <time>2018-01-13T09:53:52Z</time>
      </trkpt>
      <trkpt lat="46.73877" lon="-1.78375">
        <ele>19</ele>
        <time>2018-01-13T09:54:52Z</time>
      </trkpt>
      <trkpt lat="46.73871" lon="-1.78402">
        <ele>17</ele>
        <time>2018-01-13T09:55:52Z</time>
      </trkpt>
      <trkpt lat="46.73869" lon="-1.78415">
        <ele>17</ele>
        <time>2018-01-13T09:56:52Z</time>
      </trkpt>
      <trkpt lat="46.73868" lon="-1.78423">
        <ele>16</ele>
        <time>2018-01-13T09:57:52Z</time>
      </trkpt>
      <trkpt lat="46.73867" lon="-1.78435">
        <ele>16</ele>
        <time>2018-01-13T09:58:52Z</time>
      </trkpt>
      <trkpt lat="46.73866" lon="-1.7845">
        <ele>16</ele>
        <time>2018-01-13T09:59:52Z</time>
      </trkpt>
      <trkpt lat="46.73866" lon="-1.78465">
        <ele>15</ele>
        <time>2018-01-13T10:00:52Z</time>
      </trkpt>
      <trkpt lat="46.73866" lon="-1.7848">
        <ele>15</ele>
        <time>2018-01-13T10:01:52Z</time>
      </trkpt>
      <trkpt lat="46.73866" lon="-1.78483">
        <ele>15</ele>
        <time>2018-01-13T10:02:52Z</time>
      </trkpt>
      <trkpt lat="46.73868" lon="-1.78495">
        <ele>14</ele>
        <time>2018-01-13T10:03:52Z</time>
      </trkpt>
      <trkpt lat="46.73868" lon="-1.78503">
        <ele>14</ele>
        <time>2018-01-13T10:04:52Z</time>
      </trkpt>
      <trkpt lat="46.7387" lon="-1.78512">
        <ele>14</ele>
        <time>2018-01-13T10:05:52Z</time>
      </trkpt>
      <trkpt lat="46.73872" lon="-1.78526">
        <ele>15</ele>
        <time>2018-01-13T10:06:52Z</time>
      </trkpt>
      <trkpt lat="46.73875" lon="-1.7854">
        <ele>15</ele>
        <time>2018-01-13T10:07:52Z</time>
      </trkpt>
      <trkpt lat="46.73879" lon="-1.78557">
        <ele>15</ele>
        <time>2018-01-13T10:08:52Z</time>
      </trkpt>
      <trkpt lat="46.73884" lon="-1.78572">
        <ele>15</ele>
        <time>2018-01-13T10:09:52Z</time>
      </trkpt>
      <trkpt lat="46.73886" lon="-1.78579">
        <ele>15</ele>
        <time>2018-01-13T10:10:52Z</time>
      </trkpt>
      <trkpt lat="46.7389" lon="-1.78591">
        <ele>15</ele>
        <time>2018-01-13T10:11:52Z</time>
      </trkpt>
      <trkpt lat="46.73895" lon="-1.78603">
        <ele>15</ele>
        <time>2018-01-13T10:12:52Z</time>
      </trkpt>
      <trkpt lat="46.73898" lon="-1.7861">
        <ele>15</ele>
        <time>2018-01-13T10:13:52Z</time>
      </trkpt>
      <trkpt lat="46.73901" lon="-1.78617">
        <ele>15</ele>
        <time>2018-01-13T10:14:52Z</time>
      </trkpt>
      <trkpt lat="46.73911" lon="-1.78638">
        <ele>15</ele>
        <time>2018-01-13T10:15:52Z</time>
      </trkpt>
      <trkpt lat="46.73922" lon="-1.78659">
        <ele>15</ele>
        <time>2018-01-13T10:16:52Z</time>
      </trkpt>
      <trkpt lat="46.73933" lon="-1.78681">
        <ele>15</ele>
        <time>2018-01-13T10:17:52Z</time>
      </trkpt>
      <trkpt lat="46.73937" lon="-1.7869">
        <ele>15</ele>
        <time>2018-01-13T10:18:52Z</time>
      </trkpt>
      <trkpt lat="46.7394" lon="-1.787">
        <ele>15</ele>
        <time>2018-01-13T10:19:52Z</time>
      </trkpt>
      <trkpt lat="46.73941" lon="-1.78708">
        <ele>15</ele>
        <time>2018-01-13T10:20:52Z</time>
      </trkpt>
      <trkpt lat="46.73942" lon="-1.78713">
        <ele>15</ele>
        <time>2018-01-13T10:21:52Z</time>
      </trkpt>
      <trkpt lat="46.73943" lon="-1.78717">
        <ele>15</ele>
        <time>2018-01-13T10:22:52Z</time>
      </trkpt>
      <trkpt lat="46.73944" lon="-1.78725">
        <ele>15</ele>
        <time>2018-01-13T10:23:52Z</time>
      </trkpt>
      <trkpt lat="46.73946" lon="-1.78733">
        <ele>15</ele>
        <time>2018-01-13T10:24:52Z</time>
      </trkpt>
      <trkpt lat="46.73949" lon="-1.78739">
        <ele>15</ele>
        <time>2018-01-13T10:25:52Z</time>
      </trkpt>
      <trkpt lat="46.73951" lon="-1.78746">
        <ele>15</ele>
        <time>2018-01-13T10:26:52Z</time>
      </trkpt>
      <trkpt lat="46.73955" lon="-1.78753">
        <ele>15</ele>
        <time>2018-01-13T10:27:52Z</time>
      </trkpt>
      <trkpt lat="46.73959" lon="-1.78761">
        <ele>16</ele>
        <time>2018-01-13T10:28:52Z</time>
      </trkpt>
      <trkpt lat="46.73965" lon="-1.7877">
        <ele>16</ele>
        <time>2018-01-13T10:29:52Z</time>
      </trkpt>
      <trkpt lat="46.7397" lon="-1.78781">
        <ele>16</ele>
        <time>2018-01-13T10:30:52Z</time>
      </trkpt>
      <trkpt lat="46.73985" lon="-1.78809">
        <ele>17</ele>
        <time>2018-01-13T10:31:52Z</time>
      </trkpt>
      <trkpt lat="46.73986" lon="-1.78812">
        <ele>17</ele>
        <time>2018-01-13T10:32:52Z</time>
      </trkpt>
      <trkpt lat="46.73998" lon="-1.78838">
        <ele>18</ele>
        <time>2018-01-13T10:33:52Z</time>
      </trkpt>
      <trkpt lat="46.7401" lon="-1.78872">
        <ele>19</ele>
        <time>2018-01-13T10:34:52Z</time>
      </trkpt>
      <trkpt lat="46.74022" lon="-1.78919">
        <ele>21</ele>
        <time>2018-01-13T10:35:52Z</time>
      </trkpt>
      <trkpt lat="46.74027" lon="-1.78946">
        <ele>21</ele>
        <time>2018-01-13T10:36:52Z</time>
      </trkpt>
      <trkpt lat="46.74029" lon="-1.78959">
        <ele>22</ele>
        <time>2018-01-13T10:37:52Z</time>
      </trkpt>
      <trkpt lat="46.74029" lon="-1.78974">
        <ele>22</ele>
        <time>2018-01-13T10:38:52Z</time>
      </trkpt>
      <trkpt lat="46.7403" lon="-1.78986">
        <ele>22</ele>
        <time>2018-01-13T10:39:52Z</time>
      </trkpt>
      <trkpt lat="46.74029" lon="-1.79017">
        <ele>22</ele>
        <time>2018-01-13T10:40:52Z</time>
      </trkpt>
      <trkpt lat="46.74029" lon="-1.7905">
        <ele>23</ele>
        <time>2018-01-13T10:41:52Z</time>
      </trkpt>
      <trkpt lat="46.74026" lon="-1.79105">
        <ele>23</ele>
        <time>2018-01-13T10:42:52Z</time>
      </trkpt>
      <trkpt lat="46.74026" lon="-1.79136">
        <ele>23</ele>
        <time>2018-01-13T10:43:52Z</time>
      </trkpt>
      <trkpt lat="46.74024" lon="-1.79156">
        <ele>23</ele>
        <time>2018-01-13T10:44:52Z</time>
      </trkpt>
      <trkpt lat="46.74023" lon="-1.79161">
        <ele>23</ele>
        <time>2018-01-13T10:45:52Z</time>
      </trkpt>
      <trkpt lat="46.74022" lon="-1.79166">
        <ele>23</ele>
        <time>2018-01-13T10:46:52Z</time>
      </trkpt>
      <trkpt lat="46.74021" lon="-1.79176">
        <ele>23</ele>
        <time>2018-01-13T10:47:52Z</time>
      </trkpt>
      <trkpt lat="46.74021" lon="-1.79176">
        <ele>23</ele>
        <time>2018-01-13T10:48:52Z</time>
      </trkpt>
      <trkpt lat="46.74023" lon="-1.79177">
        <ele>23</ele>
        <time>2018-01-13T10:49:52Z</time>
      </trkpt>
      <trkpt lat="46.74025" lon="-1.79178">
        <ele>23</ele>
        <time>2018-01-13T10:50:52Z</time>
      </trkpt>
      <trkpt lat="46.74035" lon="-1.79181">
        <ele>23</ele>
        <time>2018-01-13T10:51:52Z</time>
      </trkpt>
      <trkpt lat="46.74042" lon="-1.79183">
        <ele>23</ele>
        <time>2018-01-13T10:52:52Z</time>
      </trkpt>
      <trkpt lat="46.74063" lon="-1.7919">
        <ele>23</ele>
        <time>2018-01-13T10:53:52Z</time>
      </trkpt>
      <trkpt lat="46.74113" lon="-1.79206">
        <ele>24</ele>
        <time>2018-01-13T10:54:52Z</time>
      </trkpt>
      <trkpt lat="46.74136" lon="-1.79214">
        <ele>24</ele>
        <time>2018-01-13T10:55:52Z</time>
      </trkpt>
      <trkpt lat="46.74168" lon="-1.79223">
        <ele>24</ele>
        <time>2018-01-13T10:56:52Z</time>
      </trkpt>
      <trkpt lat="46.74221" lon="-1.79241">
        <ele>24</ele>
        <time>2018-01-13T10:57:52Z</time>
      </trkpt>
      <trkpt lat="46.74255" lon="-1.79251">
        <ele>23</ele>
        <time>2018-01-13T10:58:52Z</time>
      </trkpt>
      <trkpt lat="46.74283" lon="-1.79259">
        <ele>22</ele>
        <time>2018-01-13T10:59:52Z</time>
      </trkpt>
      <trkpt lat="46.7434" lon="-1.79276">
        <ele>21</ele>
        <time>2018-01-13T11:00:52Z</time>
      </trkpt>
      <trkpt lat="46.74356" lon="-1.79281">
        <ele>20</ele>
        <time>2018-01-13T11:01:52Z</time>
      </trkpt>
      <trkpt lat="46.74367" lon="-1.79285">
        <ele>20</ele>
        <time>2018-01-13T11:02:52Z</time>
      </trkpt>
      <trkpt lat="46.74378" lon="-1.79289">
        <ele>19</ele>
        <time>2018-01-13T11:03:52Z</time>
      </trkpt>
      <trkpt lat="46.74387" lon="-1.79294">
        <ele>19</ele>
        <time>2018-01-13T11:04:52Z</time>
      </trkpt>
      <trkpt lat="46.74396" lon="-1.79299">
        <ele>19</ele>
        <time>2018-01-13T11:05:52Z</time>
      </trkpt>
      <trkpt lat="46.74405" lon="-1.79304">
        <ele>19</ele>
        <time>2018-01-13T11:06:52Z</time>
      </trkpt>
      <trkpt lat="46.74416" lon="-1.79313">
        <ele>19</ele>
        <time>2018-01-13T11:07:52Z</time>
      </trkpt>
      <trkpt lat="46.7442" lon="-1.79317">
        <ele>19</ele>
        <time>2018-01-13T11:08:52Z</time>
      </trkpt>
      <trkpt lat="46.74423" lon="-1.7932">
        <ele>18</ele>
        <time>2018-01-13T11:09:52Z</time>
      </trkpt>
      <trkpt lat="46.74426" lon="-1.79323">
        <ele>18</ele>
        <time>2018-01-13T11:10:52Z</time>
      </trkpt>
      <trkpt lat="46.74439" lon="-1.79337">
        <ele>18</ele>
        <time>2018-01-13T11:11:52Z</time>
      </trkpt>
      <trkpt lat="46.74452" lon="-1.79353">
        <ele>18</ele>
        <time>2018-01-13T11:12:52Z</time>
      </trkpt>
      <trkpt lat="46.74469" lon="-1.79377">
        <ele>17</ele>
        <time>2018-01-13T11:13:52Z</time>
      </trkpt>
      <trkpt lat="46.7449" lon="-1.79409">
        <ele>17</ele>
        <time>2018-01-13T11:14:52Z</time>
      </trkpt>
      <trkpt lat="46.74528" lon="-1.79473">
        <ele>16</ele>
        <time>2018-01-13T11:15:52Z</time>
      </trkpt>
      <trkpt lat="46.74548" lon="-1.79503">
        <ele>15</ele>
        <time>2018-01-13T11:16:52Z</time>
      </trkpt>
      <trkpt lat="46.74552" lon="-1.7951">
        <ele>15</ele>
        <time>2018-01-13T11:17:52Z</time>
      </trkpt>
      <trkpt lat="46.74557" lon="-1.79518">
        <ele>15</ele>
        <time>2018-01-13T11:18:52Z</time>
      </trkpt>
      <trkpt lat="46.74562" lon="-1.79524">
        <ele>15</ele>
        <time>2018-01-13T11:19:52Z</time>
      </trkpt>
      <trkpt lat="46.7457" lon="-1.79535">
        <ele>15</ele>
        <time>2018-01-13T11:20:52Z</time>
      </trkpt>
      <trkpt lat="46.74575" lon="-1.7954">
        <ele>15</ele>
        <time>2018-01-13T11:21:52Z</time>
      </trkpt>
      <trkpt lat="46.7458" lon="-1.79546">
        <ele>15</ele>
        <time>2018-01-13T11:22:52Z</time>
      </trkpt>
      <trkpt lat="46.74581" lon="-1.79547">
        <ele>15</ele>
        <time>2018-01-13T11:23:52Z</time>
      </trkpt>
      <trkpt lat="46.74592" lon="-1.79558">
        <ele>15</ele>
        <time>2018-01-13T11:24:52Z</time>
      </trkpt>
      <trkpt lat="46.74594" lon="-1.79561">
        <ele>15</ele>
        <time>2018-01-13T11:25:52Z</time>
      </trkpt>
      <trkpt lat="46.7461" lon="-1.79577">
        <ele>15</ele>
        <time>2018-01-13T11:26:52Z</time>
      </trkpt>
      <trkpt lat="46.74626" lon="-1.7959">
        <ele>15</ele>
        <time>2018-01-13T11:27:52Z</time>
      </trkpt>
      <trkpt lat="46.74636" lon="-1.79599">
        <ele>14</ele>
        <time>2018-01-13T11:28:52Z</time>
      </trkpt>
      <trkpt lat="46.74653" lon="-1.79613">
        <ele>14</ele>
        <time>2018-01-13T11:29:52Z</time>
      </trkpt>
      <trkpt lat="46.74682" lon="-1.79636">
        <ele>13</ele>
        <time>2018-01-13T11:30:52Z</time>
      </trkpt>
      <trkpt lat="46.74687" lon="-1.79641">
        <ele>13</ele>
        <time>2018-01-13T11:31:52Z</time>
      </trkpt>
      <trkpt lat="46.74714" lon="-1.79662">
        <ele>12</ele>
        <time>2018-01-13T11:32:52Z</time>
      </trkpt>
      <trkpt lat="46.74738" lon="-1.79679">
        <ele>10</ele>
        <time>2018-01-13T11:33:52Z</time>
      </trkpt>
      <trkpt lat="46.74751" lon="-1.79688">
        <ele>9</ele>
        <time>2018-01-13T11:34:52Z</time>
      </trkpt>
      <trkpt lat="46.74757" lon="-1.79692">
        <ele>9</ele>
        <time>2018-01-13T11:35:52Z</time>
      </trkpt>
      <trkpt lat="46.74766" lon="-1.79697">
        <ele>9</ele>
        <time>2018-01-13T11:36:52Z</time>
      </trkpt>
      <trkpt lat="46.74774" lon="-1.79701">
        <ele>8</ele>
        <time>2018-01-13T11:37:52Z</time>
      </trkpt>
      <trkpt lat="46.74784" lon="-1.79705">
        <ele>8</ele>
        <time>2018-01-13T11:38:52Z</time>
      </trkpt>
      <trkpt lat="46.74785" lon="-1.79706">
        <ele>8</ele>
        <time>2018-01-13T11:39:52Z</time>
      </trkpt>
      <trkpt lat="46.74801" lon="-1.79712">
        <ele>7</ele>
        <time>2018-01-13T11:40:52Z</time>
      </trkpt>
      <trkpt lat="46.74807" lon="-1.79714">
        <ele>7</ele>
        <time>2018-01-13T11:41:52Z</time>
      </trkpt>
      <trkpt lat="46.74816" lon="-1.79716">
        <ele>7</ele>
        <time>2018-01-13T11:42:52Z</time>
      </trkpt>
      <trkpt lat="46.74825" lon="-1.79719">
        <ele>7</ele>
        <time>2018-01-13T11:43:52Z</time>
      </trkpt>
      <trkpt lat="46.74831" lon="-1.7972">
        <ele>6</ele>
        <time>2018-01-13T11:44:52Z</time>
      </trkpt>
      <trkpt lat="46.74836" lon="-1.79722">
        <ele>6</ele>
        <time>2018-01-13T11:45:52Z</time>
      </trkpt>
      <trkpt lat="46.74838" lon="-1.79723">
        <ele>6</ele>
        <time>2018-01-13T11:46:52Z</time>
      </trkpt>
      <trkpt lat="46.74849" lon="-1.79726">
        <ele>6</ele>
        <time>2018-01-13T11:47:52Z</time>
      </trkpt>
      <trkpt lat="46.74857" lon="-1.79731">
        <ele>6</ele>
        <time>2018-01-13T11:48:52Z</time>
      </trkpt>
      <trkpt lat="46.74866" lon="-1.79737">
        <ele>6</ele>
        <time>2018-01-13T11:49:52Z</time>
      </trkpt>
      <trkpt lat="46.74873" lon="-1.79744">
        <ele>6</ele>
        <time>2018-01-13T11:50:52Z</time>
      </trkpt>
      <trkpt lat="46.7488" lon="-1.79751">
        <ele>6</ele>
        <time>2018-01-13T11:51:52Z</time>
      </trkpt>
      <trkpt lat="46.74887" lon="-1.79761">
        <ele>6</ele>
        <time>2018-01-13T11:52:52Z</time>
      </trkpt>
      <trkpt lat="46.74895" lon="-1.79771">
        <ele>6</ele>
        <time>2018-01-13T11:53:52Z</time>
      </trkpt>
      <trkpt lat="46.74927" lon="-1.79817">
        <ele>6</ele>
        <time>2018-01-13T11:54:52Z</time>
      </trkpt>
      <trkpt lat="46.74954" lon="-1.79854">
        <ele>7</ele>
        <time>2018-01-13T11:55:52Z</time>
      </trkpt>
      <trkpt lat="46.74974" lon="-1.79884">
        <ele>9</ele>
        <time>2018-01-13T11:56:52Z</time>
      </trkpt>
      <trkpt lat="46.74981" lon="-1.79895">
        <ele>10</ele>
        <time>2018-01-13T11:57:52Z</time>
      </trkpt>
      <trkpt lat="46.74988" lon="-1.79908">
        <ele>10</ele>
        <time>2018-01-13T11:58:52Z</time>
      </trkpt>
      <trkpt lat="46.74997" lon="-1.79926">
        <ele>11</ele>
        <time>2018-01-13T11:59:52Z</time>
      </trkpt>
      <trkpt lat="46.75004" lon="-1.79943">
        <ele>12</ele>
        <time>2018-01-13T12:00:52Z</time>
      </trkpt>
      <trkpt lat="46.75011" lon="-1.79963">
        <ele>12</ele>
        <time>2018-01-13T12:01:52Z</time>
      </trkpt>
      <trkpt lat="46.75017" lon="-1.79991">
        <ele>13</ele>
        <time>2018-01-13T12:02:52Z</time>
      </trkpt>
      <trkpt lat="46.75021" lon="-1.80014">
        <ele>13</ele>
        <time>2018-01-13T12:03:52Z</time>
      </trkpt>
      <trkpt lat="46.75026" lon="-1.80044">
        <ele>13</ele>
        <time>2018-01-13T12:04:52Z</time>
      </trkpt>
      <trkpt lat="46.75034" lon="-1.80092">
        <ele>12</ele>
        <time>2018-01-13T12:05:52Z</time>
      </trkpt>
      <trkpt lat="46.75039" lon="-1.80125">
        <ele>12</ele>
        <time>2018-01-13T12:06:52Z</time>
      </trkpt>
      <trkpt lat="46.75039" lon="-1.80127">
        <ele>12</ele>
        <time>2018-01-13T12:07:52Z</time>
      </trkpt>
      <trkpt lat="46.75048" lon="-1.8018">
        <ele>13</ele>
        <time>2018-01-13T12:08:52Z</time>
      </trkpt>
      <trkpt lat="46.75055" lon="-1.80218">
        <ele>15</ele>
        <time>2018-01-13T12:09:52Z</time>
      </trkpt>
      <trkpt lat="46.75059" lon="-1.80247">
        <ele>16</ele>
        <time>2018-01-13T12:10:52Z</time>
      </trkpt>
      <trkpt lat="46.75066" lon="-1.80298">
        <ele>16</ele>
        <time>2018-01-13T12:11:52Z</time>
      </trkpt>
      <trkpt lat="46.75066" lon="-1.803">
        <ele>16</ele>
        <time>2018-01-13T12:12:52Z</time>
      </trkpt>
      <trkpt lat="46.75079" lon="-1.8038">
        <ele>15</ele>
        <time>2018-01-13T12:13:52Z</time>
      </trkpt>
      <trkpt lat="46.75088" lon="-1.80437">
        <ele>14</ele>
        <time>2018-01-13T12:14:52Z</time>
      </trkpt>
      <trkpt lat="46.75097" lon="-1.80489">
        <ele>15</ele>
        <time>2018-01-13T12:15:52Z</time>
      </trkpt>
      <trkpt lat="46.75102" lon="-1.80526">
        <ele>14</ele>
        <time>2018-01-13T12:16:52Z</time>
      </trkpt>
      <trkpt lat="46.75113" lon="-1.80589">
        <ele>14</ele>
        <time>2018-01-13T12:17:52Z</time>
      </trkpt>
      <trkpt lat="46.75115" lon="-1.80604">
        <ele>13</ele>
        <time>2018-01-13T12:18:52Z</time>
      </trkpt>
      <trkpt lat="46.75127" lon="-1.80676">
        <ele>11</ele>
        <time>2018-01-13T12:19:52Z</time>
      </trkpt>
      <trkpt lat="46.7513" lon="-1.80699">
        <ele>11</ele>
        <time>2018-01-13T12:20:52Z</time>
      </trkpt>
      <trkpt lat="46.75135" lon="-1.8073">
        <ele>11</ele>
        <time>2018-01-13T12:21:52Z</time>
      </trkpt>
      <trkpt lat="46.75144" lon="-1.80784">
        <ele>11</ele>
        <time>2018-01-13T12:22:52Z</time>
      </trkpt>
      <trkpt lat="46.75157" lon="-1.80862">
        <ele>11</ele>
        <time>2018-01-13T12:23:52Z</time>
      </trkpt>
      <trkpt lat="46.75169" lon="-1.80939">
        <ele>11</ele>
        <time>2018-01-13T12:24:52Z</time>
      </trkpt>
      <trkpt lat="46.75185" lon="-1.81037">
        <ele>10</ele>
        <time>2018-01-13T12:25:52Z</time>
      </trkpt>
      <trkpt lat="46.75195" lon="-1.81098">
        <ele>10</ele>
        <time>2018-01-13T12:26:52Z</time>
      </trkpt>
      <trkpt lat="46.752" lon="-1.81132">
        <ele>10</ele>
        <time>2018-01-13T12:27:52Z</time>
      </trkpt>
      <trkpt lat="46.75204" lon="-1.81152">
        <ele>10</ele>
        <time>2018-01-13T12:28:52Z</time>
      </trkpt>
      <trkpt lat="46.75207" lon="-1.81169">
        <ele>10</ele>
        <time>2018-01-13T12:29:52Z</time>
      </trkpt>
      <trkpt lat="46.7521" lon="-1.81184">
        <ele>10</ele>
        <time>2018-01-13T12:30:52Z</time>
      </trkpt>
      <trkpt lat="46.75215" lon="-1.81201">
        <ele>10</ele>
        <time>2018-01-13T12:31:52Z</time>
      </trkpt>
      <trkpt lat="46.7522" lon="-1.81224">
        <ele>10</ele>
        <time>2018-01-13T12:32:52Z</time>
      </trkpt>
      <trkpt lat="46.75226" lon="-1.81242">
        <ele>10</ele>
        <time>2018-01-13T12:33:52Z</time>
      </trkpt>
      <trkpt lat="46.75244" lon="-1.81293">
        <ele>10</ele>
        <time>2018-01-13T12:34:52Z</time>
      </trkpt>
      <trkpt lat="46.75256" lon="-1.81322">
        <ele>10</ele>
        <time>2018-01-13T12:35:52Z</time>
      </trkpt>
      <trkpt lat="46.75272" lon="-1.81358">
        <ele>10</ele>
        <time>2018-01-13T12:36:52Z</time>
      </trkpt>
      <trkpt lat="46.75278" lon="-1.81373">
        <ele>10</ele>
        <time>2018-01-13T12:37:52Z</time>
      </trkpt>
      <trkpt lat="46.75311" lon="-1.81446">
        <ele>9</ele>
        <time>2018-01-13T12:38:52Z</time>
      </trkpt>
      <trkpt lat="46.7533" lon="-1.81491">
        <ele>9</ele>
        <time>2018-01-13T12:39:52Z</time>
      </trkpt>
      <trkpt lat="46.75354" lon="-1.81545">
        <ele>8</ele>
        <time>2018-01-13T12:40:52Z</time>
      </trkpt>
      <trkpt lat="46.75378" lon="-1.81599">
        <ele>9</ele>
        <time>2018-01-13T12:41:52Z</time>
      </trkpt>
      <trkpt lat="46.75399" lon="-1.81648">
        <ele>9</ele>
        <time>2018-01-13T12:42:52Z</time>
      </trkpt>
      <trkpt lat="46.75429" lon="-1.81716">
        <ele>9</ele>
        <time>2018-01-13T12:43:52Z</time>
      </trkpt>
      <trkpt lat="46.75447" lon="-1.81754">
        <ele>9</ele>
        <time>2018-01-13T12:44:52Z</time>
      </trkpt>
      <trkpt lat="46.75456" lon="-1.81772">
        <ele>9</ele>
        <time>2018-01-13T12:45:52Z</time>
      </trkpt>
      <trkpt lat="46.7546" lon="-1.81778">
        <ele>9</ele>
        <time>2018-01-13T12:46:52Z</time>
      </trkpt>
      <trkpt lat="46.75467" lon="-1.8179">
        <ele>9</ele>
        <time>2018-01-13T12:47:52Z</time>
      </trkpt>
      <trkpt lat="46.75474" lon="-1.81802">
        <ele>9</ele>
        <time>2018-01-13T12:48:52Z</time>
      </trkpt>
      <trkpt lat="46.75484" lon="-1.81816">
        <ele>9</ele>
        <time>2018-01-13T12:49:52Z</time>
      </trkpt>
      <trkpt lat="46.75493" lon="-1.81829">
        <ele>9</ele>
        <time>2018-01-13T12:50:52Z</time>
      </trkpt>
      <trkpt lat="46.75502" lon="-1.8184">
        <ele>9</ele>
        <time>2018-01-13T12:51:52Z</time>
      </trkpt>
      <trkpt lat="46.75509" lon="-1.8185">
        <ele>9</ele>
        <time>2018-01-13T12:52:52Z</time>
      </trkpt>
      <trkpt lat="46.75516" lon="-1.81858">
        <ele>9</ele>
        <time>2018-01-13T12:53:52Z</time>
      </trkpt>
      <trkpt lat="46.75525" lon="-1.81869">
        <ele>8</ele>
        <time>2018-01-13T12:54:52Z</time>
      </trkpt>
      <trkpt lat="46.75533" lon="-1.81879">
        <ele>8</ele>
        <time>2018-01-13T12:55:52Z</time>
      </trkpt>
      <trkpt lat="46.75541" lon="-1.81887">
        <ele>8</ele>
        <time>2018-01-13T12:56:52Z</time>
      </trkpt>
      <trkpt lat="46.7555" lon="-1.81896">
        <ele>8</ele>
        <time>2018-01-13T12:57:52Z</time>
      </trkpt>
      <trkpt lat="46.75582" lon="-1.81925">
        <ele>7</ele>
        <time>2018-01-13T12:58:52Z</time>
      </trkpt>
      <trkpt lat="46.75614" lon="-1.81951">
        <ele>6</ele>
        <time>2018-01-13T12:59:52Z</time>
      </trkpt>
      <trkpt lat="46.75644" lon="-1.81975">
        <ele>6</ele>
        <time>2018-01-13T13:00:52Z</time>
      </trkpt>
      <trkpt lat="46.75704" lon="-1.82024">
        <ele>6</ele>
        <time>2018-01-13T13:01:52Z</time>
      </trkpt>
      <trkpt lat="46.75739" lon="-1.82054">
        <ele>7</ele>
        <time>2018-01-13T13:02:52Z</time>
      </trkpt>
      <trkpt lat="46.75767" lon="-1.82077">
        <ele>7</ele>
        <time>2018-01-13T13:03:52Z</time>
      </trkpt>
      <trkpt lat="46.75783" lon="-1.8209">
        <ele>7</ele>
        <time>2018-01-13T13:04:52Z</time>
      </trkpt>
      <trkpt lat="46.75796" lon="-1.82103">
        <ele>7</ele>
        <time>2018-01-13T13:05:52Z</time>
      </trkpt>
      <trkpt lat="46.75806" lon="-1.82114">
        <ele>7</ele>
        <time>2018-01-13T13:06:52Z</time>
      </trkpt>
      <trkpt lat="46.75815" lon="-1.82124">
        <ele>7</ele>
        <time>2018-01-13T13:07:52Z</time>
      </trkpt>
      <trkpt lat="46.75824" lon="-1.82136">
        <ele>7</ele>
        <time>2018-01-13T13:08:52Z</time>
      </trkpt>
      <trkpt lat="46.7583" lon="-1.82144">
        <ele>7</ele>
        <time>2018-01-13T13:09:52Z</time>
      </trkpt>
      <trkpt lat="46.7584" lon="-1.82159">
        <ele>7</ele>
        <time>2018-01-13T13:10:52Z</time>
      </trkpt>
      <trkpt lat="46.7585" lon="-1.82177">
        <ele>7</ele>
        <time>2018-01-13T13:11:52Z</time>
      </trkpt>
      <trkpt lat="46.75858" lon="-1.82191">
        <ele>7</ele>
        <time>2018-01-13T13:12:52Z</time>
      </trkpt>
      <trkpt lat="46.75867" lon="-1.82208">
        <ele>7</ele>
        <time>2018-01-13T13:13:52Z</time>
      </trkpt>
      <trkpt lat="46.75877" lon="-1.8223">
        <ele>7</ele>
        <time>2018-01-13T13:14:52Z</time>
      </trkpt>
      <trkpt lat="46.75883" lon="-1.82246">
        <ele>7</ele>
        <time>2018-01-13T13:15:52Z</time>
      </trkpt>
      <trkpt lat="46.75884" lon="-1.82249">
        <ele>7</ele>
        <time>2018-01-13T13:16:52Z</time>
      </trkpt>
      <trkpt lat="46.75886" lon="-1.82253">
        <ele>7</ele>
        <time>2018-01-13T13:17:52Z</time>
      </trkpt>
      <trkpt lat="46.75889" lon="-1.82262">
        <ele>7</ele>
        <time>2018-01-13T13:18:52Z</time>
      </trkpt>
      <trkpt lat="46.75893" lon="-1.82273">
        <ele>7</ele>
        <time>2018-01-13T13:19:52Z</time>
      </trkpt>
      <trkpt lat="46.75897" lon="-1.82285">
        <ele>7</ele>
        <time>2018-01-13T13:20:52Z</time>
      </trkpt>
      <trkpt lat="46.759" lon="-1.82298">
        <ele>7</ele>
        <time>2018-01-13T13:21:52Z</time>
      </trkpt>
      <trkpt lat="46.75905" lon="-1.82318">
        <ele>7</ele>
        <time>2018-01-13T13:22:52Z</time>
      </trkpt>
      <trkpt lat="46.75908" lon="-1.82329">
        <ele>7</ele>
        <time>2018-01-13T13:23:52Z</time>
      </trkpt>
      <trkpt lat="46.75913" lon="-1.82347">
        <ele>7</ele>
        <time>2018-01-13T13:24:52Z</time>
      </trkpt>
      <trkpt lat="46.75923" lon="-1.82387">
        <ele>7</ele>
        <time>2018-01-13T13:25:52Z</time>
      </trkpt>
      <trkpt lat="46.75946" lon="-1.82477">
        <ele>7</ele>
        <time>2018-01-13T13:26:52Z</time>
      </trkpt>
      <trkpt lat="46.75964" lon="-1.82552">
        <ele>8</ele>
        <time>2018-01-13T13:27:52Z</time>
      </trkpt>
      <trkpt lat="46.7598" lon="-1.82616">
        <ele>8</ele>
        <time>2018-01-13T13:28:52Z</time>
      </trkpt>
      <trkpt lat="46.75996" lon="-1.82677">
        <ele>8</ele>
        <time>2018-01-13T13:29:52Z</time>
      </trkpt>
      <trkpt lat="46.76007" lon="-1.8272">
        <ele>8</ele>
        <time>2018-01-13T13:30:52Z</time>
      </trkpt>
      <trkpt lat="46.7601" lon="-1.82731">
        <ele>8</ele>
        <time>2018-01-13T13:31:52Z</time>
      </trkpt>
      <trkpt lat="46.76021" lon="-1.82775">
        <ele>8</ele>
        <time>2018-01-13T13:32:52Z</time>
      </trkpt>
      <trkpt lat="46.76023" lon="-1.82781">
        <ele>8</ele>
        <time>2018-01-13T13:33:52Z</time>
      </trkpt>
      <trkpt lat="46.76032" lon="-1.82816">
        <ele>8</ele>
        <time>2018-01-13T13:34:52Z</time>
      </trkpt>
      <trkpt lat="46.76041" lon="-1.82855">
        <ele>8</ele>
        <time>2018-01-13T13:35:52Z</time>
      </trkpt>
      <trkpt lat="46.76055" lon="-1.82908">
        <ele>7</ele>
        <time>2018-01-13T13:36:52Z</time>
      </trkpt>
      <trkpt lat="46.76062" lon="-1.82937">
        <ele>8</ele>
        <time>2018-01-13T13:37:52Z</time>
      </trkpt>
      <trkpt lat="46.76069" lon="-1.82964">
        <ele>9</ele>
        <time>2018-01-13T13:38:52Z</time>
      </trkpt>
      <trkpt lat="46.76083" lon="-1.8302">
        <ele>11</ele>
        <time>2018-01-13T13:39:52Z</time>
      </trkpt>
      <trkpt lat="46.76093" lon="-1.83059">
        <ele>12</ele>
        <time>2018-01-13T13:40:52Z</time>
      </trkpt>
      <trkpt lat="46.76103" lon="-1.83097">
        <ele>13</ele>
        <time>2018-01-13T13:41:52Z</time>
      </trkpt>
      <trkpt lat="46.76113" lon="-1.83134">
        <ele>13</ele>
        <time>2018-01-13T13:42:52Z</time>
      </trkpt>
      <trkpt lat="46.76126" lon="-1.83183">
        <ele>13</ele>
        <time>2018-01-13T13:43:52Z</time>
      </trkpt>
      <trkpt lat="46.76134" lon="-1.83214">
        <ele>14</ele>
        <time>2018-01-13T13:44:52Z</time>
      </trkpt>
      <trkpt lat="46.76137" lon="-1.83226">
        <ele>14</ele>
        <time>2018-01-13T13:45:52Z</time>
      </trkpt>
      <trkpt lat="46.76147" lon="-1.83267">
        <ele>15</ele>
        <time>2018-01-13T13:46:52Z</time>
      </trkpt>
      <trkpt lat="46.76155" lon="-1.83296">
        <ele>15</ele>
        <time>2018-01-13T13:47:52Z</time>
      </trkpt>
      <trkpt lat="46.76165" lon="-1.83332">
        <ele>16</ele>
        <time>2018-01-13T13:48:52Z</time>
      </trkpt>
      <trkpt lat="46.76182" lon="-1.834">
        <ele>17</ele>
        <time>2018-01-13T13:49:52Z</time>
      </trkpt>
      <trkpt lat="46.76187" lon="-1.83416">
        <ele>17</ele>
        <time>2018-01-13T13:50:52Z</time>
      </trkpt>
      <trkpt lat="46.76199" lon="-1.83463">
        <ele>17</ele>
        <time>2018-01-13T13:51:52Z</time>
      </trkpt>
      <trkpt lat="46.76211" lon="-1.8351">
        <ele>17</ele>
        <time>2018-01-13T13:52:52Z</time>
      </trkpt>
      <trkpt lat="46.76221" lon="-1.83549">
        <ele>17</ele>
        <time>2018-01-13T13:53:52Z</time>
      </trkpt>
      <trkpt lat="46.76223" lon="-1.83558">
        <ele>17</ele>
        <time>2018-01-13T13:54:52Z</time>
      </trkpt>
      <trkpt lat="46.76229" lon="-1.83581">
        <ele>17</ele>
        <time>2018-01-13T13:55:52Z</time>
      </trkpt>
      <trkpt lat="46.76232" lon="-1.83593">
        <ele>17</ele>
        <time>2018-01-13T13:56:52Z</time>
      </trkpt>
      <trkpt lat="46.76235" lon="-1.83602">
        <ele>18</ele>
        <time>2018-01-13T13:57:52Z</time>
      </trkpt>
      <trkpt lat="46.76236" lon="-1.83607">
        <ele>18</ele>
        <time>2018-01-13T13:58:52Z</time>
      </trkpt>
      <trkpt lat="46.76241" lon="-1.83628">
        <ele>18</ele>
        <time>2018-01-13T13:59:52Z</time>
      </trkpt>
      <trkpt lat="46.76242" lon="-1.83635">
        <ele>18</ele>
        <time>2018-01-13T14:00:52Z</time>
      </trkpt>
      <trkpt lat="46.76244" lon="-1.83645">
        <ele>18</ele>
        <time>2018-01-13T14:01:52Z</time>
      </trkpt>
      <trkpt lat="46.76245" lon="-1.83656">
        <ele>19</ele>
        <time>2018-01-13T14:02:52Z</time>
      </trkpt>
      <trkpt lat="46.76247" lon="-1.83667">
        <ele>19</ele>
        <time>2018-01-13T14:03:52Z</time>
      </trkpt>
      <trkpt lat="46.76247" lon="-1.83667">
        <ele>19</ele>
        <time>2018-01-13T14:04:52Z</time>
      </trkpt>
      <trkpt lat="46.7624" lon="-1.83666">
        <ele>19</ele>
        <time>2018-01-13T14:05:52Z</time>
      </trkpt>
      <trkpt lat="46.76234" lon="-1.83668">
        <ele>19</ele>
        <time>2018-01-13T14:06:52Z</time>
      </trkpt>
      <trkpt lat="46.76226" lon="-1.83672">
        <ele>19</ele>
        <time>2018-01-13T14:07:52Z</time>
      </trkpt>
      <trkpt lat="46.76218" lon="-1.83677">
        <ele>19</ele>
        <time>2018-01-13T14:08:52Z</time>
      </trkpt>
      <trkpt lat="46.76212" lon="-1.83682">
        <ele>19</ele>
        <time>2018-01-13T14:09:52Z</time>
      </trkpt>
      <trkpt lat="46.7621" lon="-1.83684">
        <ele>19</ele>
        <time>2018-01-13T14:10:52Z</time>
      </trkpt>
      <trkpt lat="46.76207" lon="-1.83687">
        <ele>19</ele>
        <time>2018-01-13T14:11:52Z</time>
      </trkpt>
      <trkpt lat="46.762" lon="-1.83696">
        <ele>19</ele>
        <time>2018-01-13T14:12:52Z</time>
      </trkpt>
      <trkpt lat="46.76195" lon="-1.83703">
        <ele>19</ele>
        <time>2018-01-13T14:13:52Z</time>
      </trkpt>
      <trkpt lat="46.76191" lon="-1.8371">
        <ele>19</ele>
        <time>2018-01-13T14:14:52Z</time>
      </trkpt>
      <trkpt lat="46.76186" lon="-1.83718">
        <ele>19</ele>
        <time>2018-01-13T14:15:52Z</time>
      </trkpt>
      <trkpt lat="46.76182" lon="-1.83724">
        <ele>20</ele>
        <time>2018-01-13T14:16:52Z</time>
      </trkpt>
      <trkpt lat="46.76182" lon="-1.83724">
        <ele>20</ele>
        <time>2018-01-13T14:17:52Z</time>
      </trkpt>
      <trkpt lat="46.76184" lon="-1.8373">
        <ele>20</ele>
        <time>2018-01-13T14:18:52Z</time>
      </trkpt>
      <trkpt lat="46.76187" lon="-1.83737">
        <ele>20</ele>
        <time>2018-01-13T14:19:52Z</time>
      </trkpt>
      <trkpt lat="46.76191" lon="-1.83745">
        <ele>20</ele>
        <time>2018-01-13T14:20:52Z</time>
      </trkpt>
      <trkpt lat="46.76194" lon="-1.83752">
        <ele>20</ele>
        <time>2018-01-13T14:21:52Z</time>
      </trkpt>
      <trkpt lat="46.76196" lon="-1.8376">
        <ele>20</ele>
        <time>2018-01-13T14:22:52Z</time>
      </trkpt>
      <trkpt lat="46.76198" lon="-1.83765">
        <ele>20</ele>
        <time>2018-01-13T14:23:52Z</time>
      </trkpt>
      <trkpt lat="46.762" lon="-1.8377">
        <ele>20</ele>
        <time>2018-01-13T14:24:52Z</time>
      </trkpt>
      <trkpt lat="46.76202" lon="-1.83774">
        <ele>20</ele>
        <time>2018-01-13T14:25:52Z</time>
      </trkpt>
      <trkpt lat="46.76205" lon="-1.8378">
        <ele>20</ele>
        <time>2018-01-13T14:26:52Z</time>
      </trkpt>
      <trkpt lat="46.76213" lon="-1.83788">
        <ele>20</ele>
        <time>2018-01-13T14:27:52Z</time>
      </trkpt>
      <trkpt lat="46.76219" lon="-1.83793">
        <ele>20</ele>
        <time>2018-01-13T14:28:52Z</time>
      </trkpt>
      <trkpt lat="46.76223" lon="-1.83795">
        <ele>19</ele>
        <time>2018-01-13T14:29:52Z</time>
      </trkpt>
      <trkpt lat="46.76234" lon="-1.83801">
        <ele>19</ele>
        <time>2018-01-13T14:30:52Z</time>
      </trkpt>
      <trkpt lat="46.76246" lon="-1.83807">
        <ele>19</ele>
        <time>2018-01-13T14:31:52Z</time>
      </trkpt>
      <trkpt lat="46.7625" lon="-1.83809">
        <ele>19</ele>
        <time>2018-01-13T14:32:52Z</time>
      </trkpt>
      <trkpt lat="46.7626" lon="-1.83813">
        <ele>19</ele>
        <time>2018-01-13T14:33:52Z</time>
      </trkpt>
      <trkpt lat="46.76284" lon="-1.83821">
        <ele>19</ele>
        <time>2018-01-13T14:34:52Z</time>
      </trkpt>
      <trkpt lat="46.76308" lon="-1.8383">
        <ele>18</ele>
        <time>2018-01-13T14:35:52Z</time>
      </trkpt>
      <trkpt lat="46.76339" lon="-1.83843">
        <ele>18</ele>
        <time>2018-01-13T14:36:52Z</time>
      </trkpt>
      <trkpt lat="46.76352" lon="-1.83849">
        <ele>18</ele>
        <time>2018-01-13T14:37:52Z</time>
      </trkpt>
      <trkpt lat="46.76361" lon="-1.83852">
        <ele>18</ele>
        <time>2018-01-13T14:38:52Z</time>
      </trkpt>
      <trkpt lat="46.76371" lon="-1.83854">
        <ele>18</ele>
        <time>2018-01-13T14:39:52Z</time>
      </trkpt>
      <trkpt lat="46.76376" lon="-1.83855">
        <ele>18</ele>
        <time>2018-01-13T14:40:52Z</time>
      </trkpt>
      <trkpt lat="46.76381" lon="-1.83852">
        <ele>18</ele>
        <time>2018-01-13T14:41:52Z</time>
      </trkpt>
      <trkpt lat="46.76387" lon="-1.83854">
        <ele>18</ele>
        <time>2018-01-13T14:42:52Z</time>
      </trkpt>
      <trkpt lat="46.76399" lon="-1.83855">
        <ele>19</ele>
        <time>2018-01-13T14:43:52Z</time>
      </trkpt>
      <trkpt lat="46.76419" lon="-1.83856">
        <ele>19</ele>
        <time>2018-01-13T14:44:52Z</time>
      </trkpt>
      <trkpt lat="46.76426" lon="-1.83857">
        <ele>19</ele>
        <time>2018-01-13T14:45:52Z</time>
      </trkpt>
      <trkpt lat="46.76429" lon="-1.8386">
        <ele>19</ele>
        <time>2018-01-13T14:46:52Z</time>
      </trkpt>
      <trkpt lat="46.76437" lon="-1.83861">
        <ele>19</ele>
        <time>2018-01-13T14:47:52Z</time>
      </trkpt>
      <trkpt lat="46.76442" lon="-1.83862">
        <ele>19</ele>
        <time>2018-01-13T14:48:52Z</time>
      </trkpt>
      <trkpt lat="46.76446" lon="-1.83862">
        <ele>19</ele>
        <time>2018-01-13T14:49:52Z</time>
      </trkpt>
      <trkpt lat="46.76463" lon="-1.83864">
        <ele>19</ele>
        <time>2018-01-13T14:50:52Z</time>
      </trkpt>
      <trkpt lat="46.76485" lon="-1.83866">
        <ele>19</ele>
        <time>2018-01-13T14:51:52Z</time>
      </trkpt>
      <trkpt lat="46.76503" lon="-1.83869">
        <ele>20</ele>
        <time>2018-01-13T14:52:52Z</time>
      </trkpt>
      <trkpt lat="46.76517" lon="-1.83872">
        <ele>20</ele>
        <time>2018-01-13T14:53:52Z</time>
      </trkpt>
      <trkpt lat="46.76523" lon="-1.83874">
        <ele>20</ele>
        <time>2018-01-13T14:54:52Z</time>
      </trkpt>
      <trkpt lat="46.76529" lon="-1.83876">
        <ele>20</ele>
        <time>2018-01-13T14:55:52Z</time>
      </trkpt>
      <trkpt lat="46.76534" lon="-1.83878">
        <ele>20</ele>
        <time>2018-01-13T14:56:52Z</time>
      </trkpt>
      <trkpt lat="46.76541" lon="-1.8388">
        <ele>20</ele>
        <time>2018-01-13T14:57:52Z</time>
      </trkpt>
      <trkpt lat="46.76545" lon="-1.83882">
        <ele>20</ele>
        <time>2018-01-13T14:58:52Z</time>
      </trkpt>
      <trkpt lat="46.76551" lon="-1.83884">
        <ele>20</ele>
        <time>2018-01-13T14:59:52Z</time>
      </trkpt>
      <trkpt lat="46.76562" lon="-1.83888">
        <ele>20</ele>
        <time>2018-01-13T15:00:52Z</time>
      </trkpt>
      <trkpt lat="46.76566" lon="-1.8389">
        <ele>20</ele>
        <time>2018-01-13T15:01:52Z</time>
      </trkpt>
      <trkpt lat="46.76573" lon="-1.83897">
        <ele>21</ele>
        <time>2018-01-13T15:02:52Z</time>
      </trkpt>
      <trkpt lat="46.76577" lon="-1.83903">
        <ele>21</ele>
        <time>2018-01-13T15:03:52Z</time>
      </trkpt>
      <trkpt lat="46.7658" lon="-1.83907">
        <ele>21</ele>
        <time>2018-01-13T15:04:52Z</time>
      </trkpt>
      <trkpt lat="46.76584" lon="-1.83912">
        <ele>21</ele>
        <time>2018-01-13T15:05:52Z</time>
      </trkpt>
      <trkpt lat="46.76588" lon="-1.8392">
        <ele>21</ele>
        <time>2018-01-13T15:06:52Z</time>
      </trkpt>
      <trkpt lat="46.76591" lon="-1.83927">
        <ele>21</ele>
        <time>2018-01-13T15:07:52Z</time>
      </trkpt>
      <trkpt lat="46.76613" lon="-1.8398">
        <ele>21</ele>
        <time>2018-01-13T15:08:52Z</time>
      </trkpt>
      <trkpt lat="46.76649" lon="-1.84071">
        <ele>20</ele>
        <time>2018-01-13T15:09:52Z</time>
      </trkpt>
      <trkpt lat="46.7665" lon="-1.84074">
        <ele>20</ele>
        <time>2018-01-13T15:10:52Z</time>
      </trkpt>
      <trkpt lat="46.7666" lon="-1.841">
        <ele>20</ele>
        <time>2018-01-13T15:11:52Z</time>
      </trkpt>
      <trkpt lat="46.76682" lon="-1.84155">
        <ele>20</ele>
        <time>2018-01-13T15:12:52Z</time>
      </trkpt>
      <trkpt lat="46.76687" lon="-1.84167">
        <ele>20</ele>
        <time>2018-01-13T15:13:52Z</time>
      </trkpt>
      <trkpt lat="46.76693" lon="-1.84184">
        <ele>20</ele>
        <time>2018-01-13T15:14:52Z</time>
      </trkpt>
      <trkpt lat="46.76698" lon="-1.84199">
        <ele>20</ele>
        <time>2018-01-13T15:15:52Z</time>
      </trkpt>
      <trkpt lat="46.76702" lon="-1.84212">
        <ele>20</ele>
        <time>2018-01-13T15:16:52Z</time>
      </trkpt>
      <trkpt lat="46.76705" lon="-1.84226">
        <ele>20</ele>
        <time>2018-01-13T15:17:52Z</time>
      </trkpt>
      <trkpt lat="46.76707" lon="-1.84237">
        <ele>20</ele>
        <time>2018-01-13T15:18:52Z</time>
      </trkpt>
      <trkpt lat="46.7671" lon="-1.84253">
        <ele>19</ele>
        <time>2018-01-13T15:19:52Z</time>
      </trkpt>
      <trkpt lat="46.76712" lon="-1.84267">
        <ele>19</ele>
        <time>2018-01-13T15:20:52Z</time>
      </trkpt>
      <trkpt lat="46.76713" lon="-1.84291">
        <ele>19</ele>
        <time>2018-01-13T15:21:52Z</time>
      </trkpt>
      <trkpt lat="46.76714" lon="-1.84317">
        <ele>19</ele>
        <time>2018-01-13T15:22:52Z</time>
      </trkpt>
      <trkpt lat="46.76714" lon="-1.84361">
        <ele>19</ele>
        <time>2018-01-13T15:23:52Z</time>
      </trkpt>
      <trkpt lat="46.76714" lon="-1.84368">
        <ele>19</ele>
        <time>2018-01-13T15:24:52Z</time>
      </trkpt>
      <trkpt lat="46.76714" lon="-1.84385">
        <ele>19</ele>
        <time>2018-01-13T15:25:52Z</time>
      </trkpt>
      <trkpt lat="46.76716" lon="-1.84404">
        <ele>18</ele>
        <time>2018-01-13T15:26:52Z</time>
      </trkpt>
      <trkpt lat="46.76718" lon="-1.84424">
        <ele>18</ele>
        <time>2018-01-13T15:27:52Z</time>
      </trkpt>
      <trkpt lat="46.7672" lon="-1.84438">
        <ele>18</ele>
        <time>2018-01-13T15:28:52Z</time>
      </trkpt>
      <trkpt lat="46.76724" lon="-1.84468">
        <ele>18</ele>
        <time>2018-01-13T15:29:52Z</time>
      </trkpt>
      <trkpt lat="46.7673" lon="-1.84503">
        <ele>18</ele>
        <time>2018-01-13T15:30:52Z</time>
      </trkpt>
      <trkpt lat="46.76737" lon="-1.84537">
        <ele>18</ele>
        <time>2018-01-13T15:31:52Z</time>
      </trkpt>
      <trkpt lat="46.7674" lon="-1.84558">
        <ele>18</ele>
        <time>2018-01-13T15:32:52Z</time>
      </trkpt>
      <trkpt lat="46.76749" lon="-1.84613">
        <ele>18</ele>
        <time>2018-01-13T15:33:52Z</time>
      </trkpt>
      <trkpt lat="46.76751" lon="-1.84624">
        <ele>17</ele>
        <time>2018-01-13T15:34:52Z</time>
      </trkpt>
      <trkpt lat="46.76765" lon="-1.84703">
        <ele>17</ele>
        <time>2018-01-13T15:35:52Z</time>
      </trkpt>
      <trkpt lat="46.76777" lon="-1.84769">
        <ele>16</ele>
        <time>2018-01-13T15:36:52Z</time>
      </trkpt>
      <trkpt lat="46.7679" lon="-1.84848">
        <ele>15</ele>
        <time>2018-01-13T15:37:52Z</time>
      </trkpt>
      <trkpt lat="46.76799" lon="-1.84895">
        <ele>15</ele>
        <time>2018-01-13T15:38:52Z</time>
      </trkpt>
      <trkpt lat="46.76802" lon="-1.84914">
        <ele>15</ele>
        <time>2018-01-13T15:39:52Z</time>
      </trkpt>
      <trkpt lat="46.76809" lon="-1.8495">
        <ele>15</ele>
        <time>2018-01-13T15:40:52Z</time>
      </trkpt>
      <trkpt lat="46.76812" lon="-1.84973">
        <ele>15</ele>
        <time>2018-01-13T15:41:52Z</time>
      </trkpt>
      <trkpt lat="46.76814" lon="-1.84994">
        <ele>15</ele>
        <time>2018-01-13T15:42:52Z</time>
      </trkpt>
      <trkpt lat="46.76815" lon="-1.85012">
        <ele>15</ele>
        <time>2018-01-13T15:43:52Z</time>
      </trkpt>
      <trkpt lat="46.76816" lon="-1.85032">
        <ele>15</ele>
        <time>2018-01-13T15:44:52Z</time>
      </trkpt>
      <trkpt lat="46.76817" lon="-1.85053">
        <ele>15</ele>
        <time>2018-01-13T15:45:52Z</time>
      </trkpt>
      <trkpt lat="46.76817" lon="-1.8509">
        <ele>15</ele>
        <time>2018-01-13T15:46:52Z</time>
      </trkpt>
      <trkpt lat="46.76815" lon="-1.85142">
        <ele>14</ele>
        <time>2018-01-13T15:47:52Z</time>
      </trkpt>
      <trkpt lat="46.76815" lon="-1.85176">
        <ele>13</ele>
        <time>2018-01-13T15:48:52Z</time>
      </trkpt>
      <trkpt lat="46.76815" lon="-1.85199">
        <ele>13</ele>
        <time>2018-01-13T15:49:52Z</time>
      </trkpt>
      <trkpt lat="46.76816" lon="-1.85221">
        <ele>13</ele>
        <time>2018-01-13T15:50:52Z</time>
      </trkpt>
      <trkpt lat="46.76818" lon="-1.85241">
        <ele>13</ele>
        <time>2018-01-13T15:51:52Z</time>
      </trkpt>
      <trkpt lat="46.76818" lon="-1.85242">
        <ele>13</ele>
        <time>2018-01-13T15:52:52Z</time>
      </trkpt>
      <trkpt lat="46.76822" lon="-1.85266">
        <ele>13</ele>
        <time>2018-01-13T15:53:52Z</time>
      </trkpt>
      <trkpt lat="46.76828" lon="-1.85291">
        <ele>13</ele>
        <time>2018-01-13T15:54:52Z</time>
      </trkpt>
      <trkpt lat="46.76835" lon="-1.85316">
        <ele>13</ele>
        <time>2018-01-13T15:55:52Z</time>
      </trkpt>
      <trkpt lat="46.76851" lon="-1.85366">
        <ele>13</ele>
        <time>2018-01-13T15:56:52Z</time>
      </trkpt>
      <trkpt lat="46.76857" lon="-1.85383">
        <ele>13</ele>
        <time>2018-01-13T15:57:52Z</time>
      </trkpt>
      <trkpt lat="46.76866" lon="-1.85412">
        <ele>14</ele>
        <time>2018-01-13T15:58:52Z</time>
      </trkpt>
      <trkpt lat="46.76874" lon="-1.85433">
        <ele>14</ele>
        <time>2018-01-13T15:59:52Z</time>
      </trkpt>
      <trkpt lat="46.76894" lon="-1.85495">
        <ele>14</ele>
        <time>2018-01-13T16:00:52Z</time>
      </trkpt>
      <trkpt lat="46.76902" lon="-1.85518">
        <ele>14</ele>
        <time>2018-01-13T16:01:52Z</time>
      </trkpt>
      <trkpt lat="46.76909" lon="-1.85537">
        <ele>14</ele>
        <time>2018-01-13T16:02:52Z</time>
      </trkpt>
      <trkpt lat="46.76915" lon="-1.85553">
        <ele>13</ele>
        <time>2018-01-13T16:03:52Z</time>
      </trkpt>
      <trkpt lat="46.76922" lon="-1.8557">
        <ele>13</ele>
        <time>2018-01-13T16:04:52Z</time>
      </trkpt>
      <trkpt lat="46.76928" lon="-1.85584">
        <ele>13</ele>
        <time>2018-01-13T16:05:52Z</time>
      </trkpt>
      <trkpt lat="46.76932" lon="-1.85591">
        <ele>13</ele>
        <time>2018-01-13T16:06:52Z</time>
      </trkpt>
      <trkpt lat="46.76936" lon="-1.856">
        <ele>12</ele>
        <time>2018-01-13T16:07:52Z</time>
      </trkpt>
      <trkpt lat="46.76961" lon="-1.85652">
        <ele>12</ele>
        <time>2018-01-13T16:08:52Z</time>
      </trkpt>
      <trkpt lat="46.76963" lon="-1.85656">
        <ele>12</ele>
        <time>2018-01-13T16:09:52Z</time>
      </trkpt>
      <trkpt lat="46.76981" lon="-1.8569">
        <ele>12</ele>
        <time>2018-01-13T16:10:52Z</time>
      </trkpt>
      <trkpt lat="46.77" lon="-1.85725">
        <ele>12</ele>
        <time>2018-01-13T16:11:52Z</time>
      </trkpt>
      <trkpt lat="46.7701" lon="-1.85744">
        <ele>13</ele>
        <time>2018-01-13T16:12:52Z</time>
      </trkpt>
      <trkpt lat="46.7702" lon="-1.85765">
        <ele>13</ele>
        <time>2018-01-13T16:13:52Z</time>
      </trkpt>
      <trkpt lat="46.77025" lon="-1.85775">
        <ele>12</ele>
        <time>2018-01-13T16:14:52Z</time>
      </trkpt>
      <trkpt lat="46.77037" lon="-1.85796">
        <ele>12</ele>
        <time>2018-01-13T16:15:52Z</time>
      </trkpt>
      <trkpt lat="46.77069" lon="-1.85859">
        <ele>12</ele>
        <time>2018-01-13T16:16:52Z</time>
      </trkpt>
      <trkpt lat="46.77097" lon="-1.85912">
        <ele>12</ele>
        <time>2018-01-13T16:17:52Z</time>
      </trkpt>
      <trkpt lat="46.77146" lon="-1.86007">
        <ele>9</ele>
        <time>2018-01-13T16:18:52Z</time>
      </trkpt>
      <trkpt lat="46.77179" lon="-1.86071">
        <ele>9</ele>
        <time>2018-01-13T16:19:52Z</time>
      </trkpt>
      <trkpt lat="46.77215" lon="-1.8614">
        <ele>9</ele>
        <time>2018-01-13T16:20:52Z</time>
      </trkpt>
      <trkpt lat="46.77242" lon="-1.86193">
        <ele>9</ele>
        <time>2018-01-13T16:21:52Z</time>
      </trkpt>
      <trkpt lat="46.77248" lon="-1.86204">
        <ele>9</ele>
        <time>2018-01-13T16:22:52Z</time>
      </trkpt>
      <trkpt lat="46.77255" lon="-1.86217">
        <ele>9</ele>
        <time>2018-01-13T16:23:52Z</time>
      </trkpt>
      <trkpt lat="46.77263" lon="-1.86232">
        <ele>9</ele>
        <time>2018-01-13T16:24:52Z</time>
      </trkpt>
      <trkpt lat="46.7727" lon="-1.86244">
        <ele>9</ele>
        <time>2018-01-13T16:25:52Z</time>
      </trkpt>
      <trkpt lat="46.77277" lon="-1.86254">
        <ele>9</ele>
        <time>2018-01-13T16:26:52Z</time>
      </trkpt>
      <trkpt lat="46.77284" lon="-1.86265">
        <ele>9</ele>
        <time>2018-01-13T16:27:52Z</time>
      </trkpt>
      <trkpt lat="46.7729" lon="-1.86274">
        <ele>9</ele>
        <time>2018-01-13T16:28:52Z</time>
      </trkpt>
      <trkpt lat="46.77298" lon="-1.86284">
        <ele>9</ele>
        <time>2018-01-13T16:29:52Z</time>
      </trkpt>
      <trkpt lat="46.77305" lon="-1.86293">
        <ele>8</ele>
        <time>2018-01-13T16:30:52Z</time>
      </trkpt>
      <trkpt lat="46.77314" lon="-1.86303">
        <ele>8</ele>
        <time>2018-01-13T16:31:52Z</time>
      </trkpt>
      <trkpt lat="46.77318" lon="-1.86308">
        <ele>8</ele>
        <time>2018-01-13T16:32:52Z</time>
      </trkpt>
      <trkpt lat="46.77327" lon="-1.86318">
        <ele>8</ele>
        <time>2018-01-13T16:33:52Z</time>
      </trkpt>
      <trkpt lat="46.7742" lon="-1.86419">
        <ele>8</ele>
        <time>2018-01-13T16:34:52Z</time>
      </trkpt>
      <trkpt lat="46.77481" lon="-1.86487">
        <ele>7</ele>
        <time>2018-01-13T16:35:52Z</time>
      </trkpt>
      <trkpt lat="46.77537" lon="-1.86549">
        <ele>7</ele>
        <time>2018-01-13T16:36:52Z</time>
      </trkpt>
      <trkpt lat="46.77568" lon="-1.86583">
        <ele>7</ele>
        <time>2018-01-13T16:37:52Z</time>
      </trkpt>
      <trkpt lat="46.77578" lon="-1.86596">
        <ele>7</ele>
        <time>2018-01-13T16:38:52Z</time>
      </trkpt>
      <trkpt lat="46.77587" lon="-1.86608">
        <ele>7</ele>
        <time>2018-01-13T16:39:52Z</time>
      </trkpt>
      <trkpt lat="46.77594" lon="-1.86622">
        <ele>7</ele>
        <time>2018-01-13T16:40:52Z</time>
      </trkpt>
      <trkpt lat="46.77599" lon="-1.86633">
        <ele>7</ele>
        <time>2018-01-13T16:41:52Z</time>
      </trkpt>
      <trkpt lat="46.77604" lon="-1.86646">
        <ele>7</ele>
        <time>2018-01-13T16:42:52Z</time>
      </trkpt>
      <trkpt lat="46.77609" lon="-1.8666">
        <ele>7</ele>
        <time>2018-01-13T16:43:52Z</time>
      </trkpt>
      <trkpt lat="46.77614" lon="-1.86675">
        <ele>7</ele>
        <time>2018-01-13T16:44:52Z</time>
      </trkpt>
      <trkpt lat="46.77618" lon="-1.86688">
        <ele>7</ele>
        <time>2018-01-13T16:45:52Z</time>
      </trkpt>
      <trkpt lat="46.77622" lon="-1.86702">
        <ele>7</ele>
        <time>2018-01-13T16:46:52Z</time>
      </trkpt>
      <trkpt lat="46.77625" lon="-1.86715">
        <ele>7</ele>
        <time>2018-01-13T16:47:52Z</time>
      </trkpt>
      <trkpt lat="46.77628" lon="-1.86731">
        <ele>7</ele>
        <time>2018-01-13T16:48:52Z</time>
      </trkpt>
      <trkpt lat="46.77632" lon="-1.86756">
        <ele>7</ele>
        <time>2018-01-13T16:49:52Z</time>
      </trkpt>
      <trkpt lat="46.77641" lon="-1.86822">
        <ele>7</ele>
        <time>2018-01-13T16:50:52Z</time>
      </trkpt>
      <trkpt lat="46.7765" lon="-1.86891">
        <ele>7</ele>
        <time>2018-01-13T16:51:52Z</time>
      </trkpt>
      <trkpt lat="46.7766" lon="-1.86961">
        <ele>6</ele>
        <time>2018-01-13T16:52:52Z</time>
      </trkpt>
      <trkpt lat="46.77673" lon="-1.87067">
        <ele>5</ele>
        <time>2018-01-13T16:53:52Z</time>
      </trkpt>
      <trkpt lat="46.77686" lon="-1.87156">
        <ele>5</ele>
        <time>2018-01-13T16:54:52Z</time>
      </trkpt>
      <trkpt lat="46.77691" lon="-1.87204">
        <ele>5</ele>
        <time>2018-01-13T16:55:52Z</time>
      </trkpt>
      <trkpt lat="46.77696" lon="-1.8724">
        <ele>4</ele>
        <time>2018-01-13T16:56:52Z</time>
      </trkpt>
      <trkpt lat="46.77696" lon="-1.87244">
        <ele>4</ele>
        <time>2018-01-13T16:57:52Z</time>
      </trkpt>
      <trkpt lat="46.77705" lon="-1.87303">
        <ele>4</ele>
        <time>2018-01-13T16:58:52Z</time>
      </trkpt>
      <trkpt lat="46.77716" lon="-1.87374">
        <ele>5</ele>
        <time>2018-01-13T16:59:52Z</time>
      </trkpt>
      <trkpt lat="46.77731" lon="-1.87481">
        <ele>5</ele>
        <time>2018-01-13T17:00:52Z</time>
      </trkpt>
      <trkpt lat="46.77739" lon="-1.87534">
        <ele>4</ele>
        <time>2018-01-13T17:01:52Z</time>
      </trkpt>
      <trkpt lat="46.7775" lon="-1.87601">
        <ele>5</ele>
        <time>2018-01-13T17:02:52Z</time>
      </trkpt>
      <trkpt lat="46.77752" lon="-1.87616">
        <ele>5</ele>
        <time>2018-01-13T17:03:52Z</time>
      </trkpt>
      <trkpt lat="46.77758" lon="-1.87653">
        <ele>4</ele>
        <time>2018-01-13T17:04:52Z</time>
      </trkpt>
      <trkpt lat="46.77758" lon="-1.87653">
        <ele>4</ele>
        <time>2018-01-13T17:05:52Z</time>
      </trkpt>
      <trkpt lat="46.77759" lon="-1.87655">
        <ele>4</ele>
        <time>2018-01-13T17:06:52Z</time>
      </trkpt>
      <trkpt lat="46.7776" lon="-1.87656">
        <ele>4</ele>
        <time>2018-01-13T17:07:52Z</time>
      </trkpt>
      <trkpt lat="46.77761" lon="-1.87657">
        <ele>4</ele>
        <time>2018-01-13T17:08:52Z</time>
      </trkpt>
      <trkpt lat="46.77762" lon="-1.87658">
        <ele>4</ele>
        <time>2018-01-13T17:09:52Z</time>
      </trkpt>
      <trkpt lat="46.77763" lon="-1.8766">
        <ele>4</ele>
        <time>2018-01-13T17:10:52Z</time>
      </trkpt>
      <trkpt lat="46.77763" lon="-1.87661">
        <ele>4</ele>
        <time>2018-01-13T17:11:52Z</time>
      </trkpt>
      <trkpt lat="46.77764" lon="-1.87663">
        <ele>4</ele>
        <time>2018-01-13T17:12:52Z</time>
      </trkpt>
      <trkpt lat="46.77765" lon="-1.87665">
        <ele>4</ele>
        <time>2018-01-13T17:13:52Z</time>
      </trkpt>
      <trkpt lat="46.77765" lon="-1.87667">
        <ele>4</ele>
        <time>2018-01-13T17:14:52Z</time>
      </trkpt>
      <trkpt lat="46.77765" lon="-1.87668">
        <ele>4</ele>
        <time>2018-01-13T17:15:52Z</time>
      </trkpt>
      <trkpt lat="46.77766" lon="-1.8767">
        <ele>4</ele>
        <time>2018-01-13T17:16:52Z</time>
      </trkpt>
      <trkpt lat="46.77766" lon="-1.87672">
        <ele>4</ele>
        <time>2018-01-13T17:17:52Z</time>
      </trkpt>
      <trkpt lat="46.77777" lon="-1.8768">
        <ele>4</ele>
        <time>2018-01-13T17:18:52Z</time>
      </trkpt>
      <trkpt lat="46.77791" lon="-1.87691">
        <ele>4</ele>
        <time>2018-01-13T17:19:52Z</time>
      </trkpt>
      <trkpt lat="46.77856" lon="-1.87714">
        <ele>4</ele>
        <time>2018-01-13T17:20:52Z</time>
      </trkpt>
      <trkpt lat="46.77865" lon="-1.87718">
        <ele>4</ele>
        <time>2018-01-13T17:21:52Z</time>
      </trkpt>
      <trkpt lat="46.77912" lon="-1.87736">
        <ele>5</ele>
        <time>2018-01-13T17:22:52Z</time>
      </trkpt>
      <trkpt lat="46.77967" lon="-1.87758">
        <ele>3</ele>
        <time>2018-01-13T17:23:52Z</time>
      </trkpt>
      <trkpt lat="46.77999" lon="-1.87771">
        <ele>2</ele>
        <time>2018-01-13T17:24:52Z</time>
      </trkpt>
      <trkpt lat="46.78034" lon="-1.87785">
        <ele>3</ele>
        <time>2018-01-13T17:25:52Z</time>
      </trkpt>
      <trkpt lat="46.78059" lon="-1.87794">
        <ele>4</ele>
        <time>2018-01-13T17:26:52Z</time>
      </trkpt>
      <trkpt lat="46.78068" lon="-1.87799">
        <ele>4</ele>
        <time>2018-01-13T17:27:52Z</time>
      </trkpt>
      <trkpt lat="46.78082" lon="-1.87805">
        <ele>4</ele>
        <time>2018-01-13T17:28:52Z</time>
      </trkpt>
      <trkpt lat="46.78107" lon="-1.87813">
        <ele>5</ele>
        <time>2018-01-13T17:29:52Z</time>
      </trkpt>
      <trkpt lat="46.78109" lon="-1.87813">
        <ele>5</ele>
        <time>2018-01-13T17:30:52Z</time>
      </trkpt>
      <trkpt lat="46.78184" lon="-1.87842">
        <ele>6</ele>
        <time>2018-01-13T17:31:52Z</time>
      </trkpt>
      <trkpt lat="46.78246" lon="-1.87865">
        <ele>5</ele>
        <time>2018-01-13T17:32:52Z</time>
      </trkpt>
      <trkpt lat="46.7826" lon="-1.8787">
        <ele>5</ele>
        <time>2018-01-13T17:33:52Z</time>
      </trkpt>
      <trkpt lat="46.78302" lon="-1.87884">
        <ele>5</ele>
        <time>2018-01-13T17:34:52Z</time>
      </trkpt>
      <trkpt lat="46.7831" lon="-1.87887">
        <ele>5</ele>
        <time>2018-01-13T17:35:52Z</time>
      </trkpt>
      <trkpt lat="46.78367" lon="-1.87908">
        <ele>6</ele>
        <time>2018-01-13T17:36:52Z</time>
      </trkpt>
      <trkpt lat="46.78401" lon="-1.87921">
        <ele>7</ele>
        <time>2018-01-13T17:37:52Z</time>
      </trkpt>
      <trkpt lat="46.78421" lon="-1.87928">
        <ele>8</ele>
        <time>2018-01-13T17:38:52Z</time>
      </trkpt>
      <trkpt lat="46.78475" lon="-1.87947">
        <ele>6</ele>
        <time>2018-01-13T17:39:52Z</time>
      </trkpt>
      <trkpt lat="46.78501" lon="-1.87957">
        <ele>6</ele>
        <time>2018-01-13T17:40:52Z</time>
      </trkpt>
      <trkpt lat="46.78526" lon="-1.87967">
        <ele>6</ele>
        <time>2018-01-13T17:41:52Z</time>
      </trkpt>
      <trkpt lat="46.78582" lon="-1.8799">
        <ele>6</ele>
        <time>2018-01-13T17:42:52Z</time>
      </trkpt>
      <trkpt lat="46.786" lon="-1.87996">
        <ele>6</ele>
        <time>2018-01-13T17:43:52Z</time>
      </trkpt>
      <trkpt lat="46.78669" lon="-1.88024">
        <ele>5</ele>
        <time>2018-01-13T17:44:52Z</time>
      </trkpt>
      <trkpt lat="46.78706" lon="-1.88037">
        <ele>4</ele>
        <time>2018-01-13T17:45:52Z</time>
      </trkpt>
      <trkpt lat="46.78733" lon="-1.88048">
        <ele>4</ele>
        <time>2018-01-13T17:46:52Z</time>
      </trkpt>
      <trkpt lat="46.78741" lon="-1.88051">
        <ele>4</ele>
        <time>2018-01-13T17:47:52Z</time>
      </trkpt>
      <trkpt lat="46.78749" lon="-1.88056">
        <ele>4</ele>
        <time>2018-01-13T17:48:52Z</time>
      </trkpt>
      <trkpt lat="46.78757" lon="-1.88061">
        <ele>5</ele>
        <time>2018-01-13T17:49:52Z</time>
      </trkpt>
      <trkpt lat="46.78764" lon="-1.88068">
        <ele>5</ele>
        <time>2018-01-13T17:50:52Z</time>
      </trkpt>
      <trkpt lat="46.78771" lon="-1.88075">
        <ele>5</ele>
        <time>2018-01-13T17:51:52Z</time>
      </trkpt>
      <trkpt lat="46.7878" lon="-1.88085">
        <ele>5</ele>
        <time>2018-01-13T17:52:52Z</time>
      </trkpt>
      <trkpt lat="46.78798" lon="-1.88106">
        <ele>5</ele>
        <time>2018-01-13T17:53:52Z</time>
      </trkpt>
      <trkpt lat="46.78808" lon="-1.88119">
        <ele>5</ele>
        <time>2018-01-13T17:54:52Z</time>
      </trkpt>
      <trkpt lat="46.78821" lon="-1.88134">
        <ele>4</ele>
        <time>2018-01-13T17:55:52Z</time>
      </trkpt>
      <trkpt lat="46.78834" lon="-1.88145">
        <ele>4</ele>
        <time>2018-01-13T17:56:52Z</time>
      </trkpt>
      <trkpt lat="46.78857" lon="-1.88171">
        <ele>4</ele>
        <time>2018-01-13T17:57:52Z</time>
      </trkpt>
      <trkpt lat="46.78868" lon="-1.88183">
        <ele>3</ele>
        <time>2018-01-13T17:58:52Z</time>
      </trkpt>
      <trkpt lat="46.78871" lon="-1.88186">
        <ele>3</ele>
        <time>2018-01-13T17:59:52Z</time>
      </trkpt>
      <trkpt lat="46.78876" lon="-1.8819">
        <ele>3</ele>
        <time>2018-01-13T18:00:52Z</time>
      </trkpt>
      <trkpt lat="46.78881" lon="-1.88194">
        <ele>3</ele>
        <time>2018-01-13T18:01:52Z</time>
      </trkpt>
      <trkpt lat="46.78882" lon="-1.88196">
        <ele>3</ele>
        <time>2018-01-13T18:02:52Z</time>
      </trkpt>
      <trkpt lat="46.78889" lon="-1.882">
        <ele>3</ele>
        <time>2018-01-13T18:03:52Z</time>
      </trkpt>
      <trkpt lat="46.78895" lon="-1.88203">
        <ele>3</ele>
        <time>2018-01-13T18:04:52Z</time>
      </trkpt>
      <trkpt lat="46.78895" lon="-1.88203">
        <ele>3</ele>
        <time>2018-01-13T18:05:52Z</time>
      </trkpt>
      <trkpt lat="46.78894" lon="-1.88211">
        <ele>3</ele>
        <time>2018-01-13T18:06:52Z</time>
      </trkpt>
      <trkpt lat="46.78894" lon="-1.88213">
        <ele>3</ele>
        <time>2018-01-13T18:07:52Z</time>
      </trkpt>
      <trkpt lat="46.78893" lon="-1.88216">
        <ele>3</ele>
        <time>2018-01-13T18:08:52Z</time>
      </trkpt>
      <trkpt lat="46.78894" lon="-1.88219">
        <ele>3</ele>
        <time>2018-01-13T18:09:52Z</time>
      </trkpt>
      <trkpt lat="46.78904" lon="-1.88232">
        <ele>4</ele>
        <time>2018-01-13T18:10:52Z</time>
      </trkpt>
      <trkpt lat="46.78918" lon="-1.88252">
        <ele>4</ele>
        <time>2018-01-13T18:11:52Z</time>
      </trkpt>
      <trkpt lat="46.78939" lon="-1.88278">
        <ele>5</ele>
        <time>2018-01-13T18:12:52Z</time>
      </trkpt>
      <trkpt lat="46.78971" lon="-1.88317">
        <ele>6</ele>
        <time>2018-01-13T18:13:52Z</time>
      </trkpt>
      <trkpt lat="46.78978" lon="-1.88325">
        <ele>6</ele>
        <time>2018-01-13T18:14:52Z</time>
      </trkpt>
      <trkpt lat="46.7901" lon="-1.88365">
        <ele>7</ele>
        <time>2018-01-13T18:15:52Z</time>
      </trkpt>
      <trkpt lat="46.79029" lon="-1.88391">
        <ele>7</ele>
        <time>2018-01-13T18:16:52Z</time>
      </trkpt>
      <trkpt lat="46.79039" lon="-1.88404">
        <ele>7</ele>
        <time>2018-01-13T18:17:52Z</time>
      </trkpt>
      <trkpt lat="46.79048" lon="-1.88418">
        <ele>8</ele>
        <time>2018-01-13T18:18:52Z</time>
      </trkpt>
      <trkpt lat="46.79056" lon="-1.88431">
        <ele>8</ele>
        <time>2018-01-13T18:19:52Z</time>
      </trkpt>
      <trkpt lat="46.79063" lon="-1.88445">
        <ele>8</ele>
        <time>2018-01-13T18:20:52Z</time>
      </trkpt>
      <trkpt lat="46.79064" lon="-1.88447">
        <ele>8</ele>
        <time>2018-01-13T18:21:52Z</time>
      </trkpt>
      <trkpt lat="46.79073" lon="-1.88466">
        <ele>8</ele>
        <time>2018-01-13T18:22:52Z</time>
      </trkpt>
      <trkpt lat="46.79087" lon="-1.88497">
        <ele>9</ele>
        <time>2018-01-13T18:23:52Z</time>
      </trkpt>
      <trkpt lat="46.79096" lon="-1.88516">
        <ele>9</ele>
        <time>2018-01-13T18:24:52Z</time>
      </trkpt>
      <trkpt lat="46.79103" lon="-1.88534">
        <ele>9</ele>
        <time>2018-01-13T18:25:52Z</time>
      </trkpt>
      <trkpt lat="46.79109" lon="-1.88552">
        <ele>9</ele>
        <time>2018-01-13T18:26:52Z</time>
      </trkpt>
      <trkpt lat="46.79126" lon="-1.88601">
        <ele>10</ele>
        <time>2018-01-13T18:27:52Z</time>
      </trkpt>
      <trkpt lat="46.79137" lon="-1.88636">
        <ele>10</ele>
        <time>2018-01-13T18:28:52Z</time>
      </trkpt>
      <trkpt lat="46.79155" lon="-1.88689">
        <ele>11</ele>
        <time>2018-01-13T18:29:52Z</time>
      </trkpt>
      <trkpt lat="46.79168" lon="-1.88728">
        <ele>11</ele>
        <time>2018-01-13T18:30:52Z</time>
      </trkpt>
      <trkpt lat="46.79191" lon="-1.888">
        <ele>10</ele>
        <time>2018-01-13T18:31:52Z</time>
      </trkpt>
      <trkpt lat="46.79195" lon="-1.88812">
        <ele>10</ele>
        <time>2018-01-13T18:32:52Z</time>
      </trkpt>
      <trkpt lat="46.79223" lon="-1.88898">
        <ele>10</ele>
        <time>2018-01-13T18:33:52Z</time>
      </trkpt>
      <trkpt lat="46.79238" lon="-1.88948">
        <ele>10</ele>
        <time>2018-01-13T18:34:52Z</time>
      </trkpt>
      <trkpt lat="46.7924" lon="-1.88954">
        <ele>10</ele>
        <time>2018-01-13T18:35:52Z</time>
      </trkpt>
      <trkpt lat="46.79242" lon="-1.8896">
        <ele>10</ele>
        <time>2018-01-13T18:36:52Z</time>
      </trkpt>
      <trkpt lat="46.79246" lon="-1.88972">
        <ele>10</ele>
        <time>2018-01-13T18:37:52Z</time>
      </trkpt>
      <trkpt lat="46.79251" lon="-1.88988">
        <ele>10</ele>
        <time>2018-01-13T18:38:52Z</time>
      </trkpt>
      <trkpt lat="46.79259" lon="-1.89011">
        <ele>10</ele>
        <time>2018-01-13T18:39:52Z</time>
      </trkpt>
      <trkpt lat="46.79269" lon="-1.89045">
        <ele>11</ele>
        <time>2018-01-13T18:40:52Z</time>
      </trkpt>
      <trkpt lat="46.79275" lon="-1.89069">
        <ele>11</ele>
        <time>2018-01-13T18:41:52Z</time>
      </trkpt>
      <trkpt lat="46.79281" lon="-1.8909">
        <ele>11</ele>
        <time>2018-01-13T18:42:52Z</time>
      </trkpt>
      <trkpt lat="46.79287" lon="-1.89116">
        <ele>11</ele>
        <time>2018-01-13T18:43:52Z</time>
      </trkpt>
      <trkpt lat="46.79293" lon="-1.8915">
        <ele>11</ele>
        <time>2018-01-13T18:44:52Z</time>
      </trkpt>
      <trkpt lat="46.79303" lon="-1.89211">
        <ele>11</ele>
        <time>2018-01-13T18:45:52Z</time>
      </trkpt>
      <trkpt lat="46.79316" lon="-1.89292">
        <ele>11</ele>
        <time>2018-01-13T18:46:52Z</time>
      </trkpt>
      <trkpt lat="46.79327" lon="-1.89346">
        <ele>10</ele>
        <time>2018-01-13T18:47:52Z</time>
      </trkpt>
      <trkpt lat="46.79335" lon="-1.89378">
        <ele>10</ele>
        <time>2018-01-13T18:48:52Z</time>
      </trkpt>
      <trkpt lat="46.79338" lon="-1.8939">
        <ele>10</ele>
        <time>2018-01-13T18:49:52Z</time>
      </trkpt>
      <trkpt lat="46.7934" lon="-1.89395">
        <ele>10</ele>
        <time>2018-01-13T18:50:52Z</time>
      </trkpt>
      <trkpt lat="46.79347" lon="-1.89416">
        <ele>10</ele>
        <time>2018-01-13T18:51:52Z</time>
      </trkpt>
      <trkpt lat="46.79353" lon="-1.89434">
        <ele>10</ele>
        <time>2018-01-13T18:52:52Z</time>
      </trkpt>
      <trkpt lat="46.79359" lon="-1.89451">
        <ele>10</ele>
        <time>2018-01-13T18:53:52Z</time>
      </trkpt>
      <trkpt lat="46.79366" lon="-1.89468">
        <ele>11</ele>
        <time>2018-01-13T18:54:52Z</time>
      </trkpt>
      <trkpt lat="46.79367" lon="-1.89473">
        <ele>11</ele>
        <time>2018-01-13T18:55:52Z</time>
      </trkpt>
      <trkpt lat="46.79371" lon="-1.89482">
        <ele>11</ele>
        <time>2018-01-13T18:56:52Z</time>
      </trkpt>
      <trkpt lat="46.79378" lon="-1.89497">
        <ele>11</ele>
        <time>2018-01-13T18:57:52Z</time>
      </trkpt>
      <trkpt lat="46.79394" lon="-1.89527">
        <ele>10</ele>
        <time>2018-01-13T18:58:52Z</time>
      </trkpt>
      <trkpt lat="46.79402" lon="-1.89541">
        <ele>10</ele>
        <time>2018-01-13T18:59:52Z</time>
      </trkpt>
      <trkpt lat="46.79422" lon="-1.89578">
        <ele>10</ele>
        <time>2018-01-13T19:00:52Z</time>
      </trkpt>
      <trkpt lat="46.79431" lon="-1.89596">
        <ele>10</ele>
        <time>2018-01-13T19:01:52Z</time>
      </trkpt>
      <trkpt lat="46.7946" lon="-1.8965">
        <ele>11</ele>
        <time>2018-01-13T19:02:52Z</time>
      </trkpt>
      <trkpt lat="46.79461" lon="-1.89653">
        <ele>11</ele>
        <time>2018-01-13T19:03:52Z</time>
      </trkpt>
      <trkpt lat="46.79468" lon="-1.89665">
        <ele>11</ele>
        <time>2018-01-13T19:04:52Z</time>
      </trkpt>
      <trkpt lat="46.79489" lon="-1.89707">
        <ele>12</ele>
        <time>2018-01-13T19:05:52Z</time>
      </trkpt>
      <trkpt lat="46.79499" lon="-1.89725">
        <ele>12</ele>
        <time>2018-01-13T19:06:52Z</time>
      </trkpt>
      <trkpt lat="46.79512" lon="-1.8975">
        <ele>12</ele>
        <time>2018-01-13T19:07:52Z</time>
      </trkpt>
      <trkpt lat="46.79539" lon="-1.89802">
        <ele>11</ele>
        <time>2018-01-13T19:08:52Z</time>
      </trkpt>
      <trkpt lat="46.79543" lon="-1.89811">
        <ele>11</ele>
        <time>2018-01-13T19:09:52Z</time>
      </trkpt>
      <trkpt lat="46.79549" lon="-1.89822">
        <ele>11</ele>
        <time>2018-01-13T19:10:52Z</time>
      </trkpt>
      <trkpt lat="46.79553" lon="-1.89834">
        <ele>11</ele>
        <time>2018-01-13T19:11:52Z</time>
      </trkpt>
      <trkpt lat="46.79558" lon="-1.89861">
        <ele>11</ele>
        <time>2018-01-13T19:12:52Z</time>
      </trkpt>
      <trkpt lat="46.79568" lon="-1.89907">
        <ele>12</ele>
        <time>2018-01-13T19:13:52Z</time>
      </trkpt>
      <trkpt lat="46.7958" lon="-1.89955">
        <ele>12</ele>
        <time>2018-01-13T19:14:52Z</time>
      </trkpt>
      <trkpt lat="46.79585" lon="-1.89972">
        <ele>12</ele>
        <time>2018-01-13T19:15:52Z</time>
      </trkpt>
      <trkpt lat="46.79588" lon="-1.89986">
        <ele>12</ele>
        <time>2018-01-13T19:16:52Z</time>
      </trkpt>
      <trkpt lat="46.79593" lon="-1.90002">
        <ele>12</ele>
        <time>2018-01-13T19:17:52Z</time>
      </trkpt>
      <trkpt lat="46.79604" lon="-1.90035">
        <ele>11</ele>
        <time>2018-01-13T19:18:52Z</time>
      </trkpt>
      <trkpt lat="46.79609" lon="-1.90046">
        <ele>11</ele>
        <time>2018-01-13T19:19:52Z</time>
      </trkpt>
      <trkpt lat="46.79613" lon="-1.9006">
        <ele>11</ele>
        <time>2018-01-13T19:20:52Z</time>
      </trkpt>
      <trkpt lat="46.79616" lon="-1.90068">
        <ele>11</ele>
        <time>2018-01-13T19:21:52Z</time>
      </trkpt>
      <trkpt lat="46.7962" lon="-1.90078">
        <ele>11</ele>
        <time>2018-01-13T19:22:52Z</time>
      </trkpt>
      <trkpt lat="46.79626" lon="-1.90085">
        <ele>10</ele>
        <time>2018-01-13T19:23:52Z</time>
      </trkpt>
      <trkpt lat="46.79672" lon="-1.90123">
        <ele>10</ele>
        <time>2018-01-13T19:24:52Z</time>
      </trkpt>
      <trkpt lat="46.79736" lon="-1.90172">
        <ele>10</ele>
        <time>2018-01-13T19:25:52Z</time>
      </trkpt>
      <trkpt lat="46.79765" lon="-1.90195">
        <ele>9</ele>
        <time>2018-01-13T19:26:52Z</time>
      </trkpt>
      <trkpt lat="46.79827" lon="-1.90242">
        <ele>10</ele>
        <time>2018-01-13T19:27:52Z</time>
      </trkpt>
      <trkpt lat="46.7988" lon="-1.90284">
        <ele>10</ele>
        <time>2018-01-13T19:28:52Z</time>
      </trkpt>
      <trkpt lat="46.79921" lon="-1.90317">
        <ele>11</ele>
        <time>2018-01-13T19:29:52Z</time>
      </trkpt>
      <trkpt lat="46.79943" lon="-1.90336">
        <ele>11</ele>
        <time>2018-01-13T19:30:52Z</time>
      </trkpt>
      <trkpt lat="46.79953" lon="-1.90345">
        <ele>11</ele>
        <time>2018-01-13T19:31:52Z</time>
      </trkpt>
      <trkpt lat="46.79965" lon="-1.90355">
        <ele>12</ele>
        <time>2018-01-13T19:32:52Z</time>
      </trkpt>
      <trkpt lat="46.79971" lon="-1.9036">
        <ele>12</ele>
        <time>2018-01-13T19:33:52Z</time>
      </trkpt>
      <trkpt lat="46.80005" lon="-1.90401">
        <ele>13</ele>
        <time>2018-01-13T19:34:52Z</time>
      </trkpt>
      <trkpt lat="46.80043" lon="-1.90446">
        <ele>13</ele>
        <time>2018-01-13T19:35:52Z</time>
      </trkpt>
      <trkpt lat="46.80054" lon="-1.9046">
        <ele>13</ele>
        <time>2018-01-13T19:36:52Z</time>
      </trkpt>
      <trkpt lat="46.80088" lon="-1.90502">
        <ele>12</ele>
        <time>2018-01-13T19:37:52Z</time>
      </trkpt>
      <trkpt lat="46.80102" lon="-1.90519">
        <ele>12</ele>
        <time>2018-01-13T19:38:52Z</time>
      </trkpt>
      <trkpt lat="46.80112" lon="-1.90537">
        <ele>13</ele>
        <time>2018-01-13T19:39:52Z</time>
      </trkpt>
      <trkpt lat="46.80139" lon="-1.90599">
        <ele>13</ele>
        <time>2018-01-13T19:40:52Z</time>
      </trkpt>
      <trkpt lat="46.80157" lon="-1.90641">
        <ele>13</ele>
        <time>2018-01-13T19:41:52Z</time>
      </trkpt>
      <trkpt lat="46.80178" lon="-1.90696">
        <ele>12</ele>
        <time>2018-01-13T19:42:52Z</time>
      </trkpt>
      <trkpt lat="46.80213" lon="-1.90784">
        <ele>11</ele>
        <time>2018-01-13T19:43:52Z</time>
      </trkpt>
      <trkpt lat="46.80249" lon="-1.90878">
        <ele>12</ele>
        <time>2018-01-13T19:44:52Z</time>
      </trkpt>
      <trkpt lat="46.80267" lon="-1.90923">
        <ele>12</ele>
        <time>2018-01-13T19:45:52Z</time>
      </trkpt>
      <trkpt lat="46.80272" lon="-1.90939">
        <ele>12</ele>
        <time>2018-01-13T19:46:52Z</time>
      </trkpt>
      <trkpt lat="46.80273" lon="-1.9094">
        <ele>12</ele>
        <time>2018-01-13T19:47:52Z</time>
      </trkpt>
      <trkpt lat="46.80276" lon="-1.90948">
        <ele>12</ele>
        <time>2018-01-13T19:48:52Z</time>
      </trkpt>
      <trkpt lat="46.8028" lon="-1.90962">
        <ele>12</ele>
        <time>2018-01-13T19:49:52Z</time>
      </trkpt>
      <trkpt lat="46.80285" lon="-1.9098">
        <ele>12</ele>
        <time>2018-01-13T19:50:52Z</time>
      </trkpt>
      <trkpt lat="46.80288" lon="-1.90996">
        <ele>12</ele>
        <time>2018-01-13T19:51:52Z</time>
      </trkpt>
      <trkpt lat="46.80288" lon="-1.90998">
        <ele>11</ele>
        <time>2018-01-13T19:52:52Z</time>
      </trkpt>
      <trkpt lat="46.80292" lon="-1.91027">
        <ele>11</ele>
        <time>2018-01-13T19:53:52Z</time>
      </trkpt>
      <trkpt lat="46.80295" lon="-1.91048">
        <ele>10</ele>
        <time>2018-01-13T19:54:52Z</time>
      </trkpt>
      <trkpt lat="46.80298" lon="-1.91076">
        <ele>9</ele>
        <time>2018-01-13T19:55:52Z</time>
      </trkpt>
      <trkpt lat="46.80298" lon="-1.91077">
        <ele>9</ele>
        <time>2018-01-13T19:56:52Z</time>
      </trkpt>
      <trkpt lat="46.80307" lon="-1.9116">
        <ele>8</ele>
        <time>2018-01-13T19:57:52Z</time>
      </trkpt>
      <trkpt lat="46.80315" lon="-1.91235">
        <ele>8</ele>
        <time>2018-01-13T19:58:52Z</time>
      </trkpt>
      <trkpt lat="46.80318" lon="-1.9126">
        <ele>8</ele>
        <time>2018-01-13T19:59:52Z</time>
      </trkpt>
      <trkpt lat="46.80318" lon="-1.91265">
        <ele>8</ele>
        <time>2018-01-13T20:00:52Z</time>
      </trkpt>
      <trkpt lat="46.80321" lon="-1.91277">
        <ele>8</ele>
        <time>2018-01-13T20:01:52Z</time>
      </trkpt>
      <trkpt lat="46.80323" lon="-1.91291">
        <ele>8</ele>
        <time>2018-01-13T20:02:52Z</time>
      </trkpt>
      <trkpt lat="46.80327" lon="-1.9131">
        <ele>8</ele>
        <time>2018-01-13T20:03:52Z</time>
      </trkpt>
      <trkpt lat="46.80333" lon="-1.91328">
        <ele>8</ele>
        <time>2018-01-13T20:04:52Z</time>
      </trkpt>
      <trkpt lat="46.80339" lon="-1.91346">
        <ele>8</ele>
        <time>2018-01-13T20:05:52Z</time>
      </trkpt>
      <trkpt lat="46.80346" lon="-1.91361">
        <ele>8</ele>
        <time>2018-01-13T20:06:52Z</time>
      </trkpt>
      <trkpt lat="46.80351" lon="-1.91372">
        <ele>8</ele>
        <time>2018-01-13T20:07:52Z</time>
      </trkpt>
      <trkpt lat="46.80354" lon="-1.91379">
        <ele>8</ele>
        <time>2018-01-13T20:08:52Z</time>
      </trkpt>
      <trkpt lat="46.80366" lon="-1.91399">
        <ele>8</ele>
        <time>2018-01-13T20:09:52Z</time>
      </trkpt>
      <trkpt lat="46.80384" lon="-1.91425">
        <ele>8</ele>
        <time>2018-01-13T20:10:52Z</time>
      </trkpt>
      <trkpt lat="46.80398" lon="-1.91445">
        <ele>8</ele>
        <time>2018-01-13T20:11:52Z</time>
      </trkpt>
      <trkpt lat="46.80412" lon="-1.91464">
        <ele>8</ele>
        <time>2018-01-13T20:12:52Z</time>
      </trkpt>
      <trkpt lat="46.80458" lon="-1.91527">
        <ele>8</ele>
        <time>2018-01-13T20:13:52Z</time>
      </trkpt>
      <trkpt lat="46.80475" lon="-1.91547">
        <ele>8</ele>
        <time>2018-01-13T20:14:52Z</time>
      </trkpt>
      <trkpt lat="46.80488" lon="-1.91562">
        <ele>8</ele>
        <time>2018-01-13T20:15:52Z</time>
      </trkpt>
      <trkpt lat="46.8051" lon="-1.91583">
        <ele>8</ele>
        <time>2018-01-13T20:16:52Z</time>
      </trkpt>
      <trkpt lat="46.80542" lon="-1.91609">
        <ele>7</ele>
        <time>2018-01-13T20:17:52Z</time>
      </trkpt>
      <trkpt lat="46.80555" lon="-1.91623">
        <ele>7</ele>
        <time>2018-01-13T20:18:52Z</time>
      </trkpt>
      <trkpt lat="46.80569" lon="-1.91638">
        <ele>6</ele>
        <time>2018-01-13T20:19:52Z</time>
      </trkpt>
      <trkpt lat="46.80575" lon="-1.91647">
        <ele>6</ele>
        <time>2018-01-13T20:20:52Z</time>
      </trkpt>
      <trkpt lat="46.80582" lon="-1.91662">
        <ele>6</ele>
        <time>2018-01-13T20:21:52Z</time>
      </trkpt>
      <trkpt lat="46.80585" lon="-1.91669">
        <ele>6</ele>
        <time>2018-01-13T20:22:52Z</time>
      </trkpt>
      <trkpt lat="46.80591" lon="-1.91683">
        <ele>6</ele>
        <time>2018-01-13T20:23:52Z</time>
      </trkpt>
      <trkpt lat="46.80596" lon="-1.91699">
        <ele>5</ele>
        <time>2018-01-13T20:24:52Z</time>
      </trkpt>
      <trkpt lat="46.806" lon="-1.91717">
        <ele>5</ele>
        <time>2018-01-13T20:25:52Z</time>
      </trkpt>
      <trkpt lat="46.80604" lon="-1.91749">
        <ele>5</ele>
        <time>2018-01-13T20:26:52Z</time>
      </trkpt>
      <trkpt lat="46.80607" lon="-1.91785">
        <ele>5</ele>
        <time>2018-01-13T20:27:52Z</time>
      </trkpt>
      <trkpt lat="46.8061" lon="-1.91803">
        <ele>5</ele>
        <time>2018-01-13T20:28:52Z</time>
      </trkpt>
      <trkpt lat="46.80613" lon="-1.91824">
        <ele>5</ele>
        <time>2018-01-13T20:29:52Z</time>
      </trkpt>
      <trkpt lat="46.80617" lon="-1.91842">
        <ele>5</ele>
        <time>2018-01-13T20:30:52Z</time>
      </trkpt>
      <trkpt lat="46.8062" lon="-1.91857">
        <ele>5</ele>
        <time>2018-01-13T20:31:52Z</time>
      </trkpt>
      <trkpt lat="46.80621" lon="-1.91862">
        <ele>5</ele>
        <time>2018-01-13T20:32:52Z</time>
      </trkpt>
      <trkpt lat="46.80627" lon="-1.91883">
        <ele>5</ele>
        <time>2018-01-13T20:33:52Z</time>
      </trkpt>
      <trkpt lat="46.80634" lon="-1.91902">
        <ele>5</ele>
        <time>2018-01-13T20:34:52Z</time>
      </trkpt>
      <trkpt lat="46.8064" lon="-1.91921">
        <ele>5</ele>
        <time>2018-01-13T20:35:52Z</time>
      </trkpt>
      <trkpt lat="46.80652" lon="-1.91948">
        <ele>5</ele>
        <time>2018-01-13T20:36:52Z</time>
      </trkpt>
      <trkpt lat="46.80676" lon="-1.91991">
        <ele>4</ele>
        <time>2018-01-13T20:37:52Z</time>
      </trkpt>
      <trkpt lat="46.807" lon="-1.92035">
        <ele>4</ele>
        <time>2018-01-13T20:38:52Z</time>
      </trkpt>
      <trkpt lat="46.80734" lon="-1.92103">
        <ele>4</ele>
        <time>2018-01-13T20:39:52Z</time>
      </trkpt>
      <trkpt lat="46.80767" lon="-1.92165">
        <ele>4</ele>
        <time>2018-01-13T20:40:52Z</time>
      </trkpt>
      <trkpt lat="46.80773" lon="-1.92177">
        <ele>4</ele>
        <time>2018-01-13T20:41:52Z</time>
      </trkpt>
      <trkpt lat="46.80775" lon="-1.9218">
        <ele>4</ele>
        <time>2018-01-13T20:42:52Z</time>
      </trkpt>
      <trkpt lat="46.80781" lon="-1.92196">
        <ele>4</ele>
        <time>2018-01-13T20:43:52Z</time>
      </trkpt>
      <trkpt lat="46.80789" lon="-1.92216">
        <ele>4</ele>
        <time>2018-01-13T20:44:52Z</time>
      </trkpt>
      <trkpt lat="46.80796" lon="-1.92232">
        <ele>5</ele>
        <time>2018-01-13T20:45:52Z</time>
      </trkpt>
      <trkpt lat="46.80802" lon="-1.92248">
        <ele>5</ele>
        <time>2018-01-13T20:46:52Z</time>
      </trkpt>
      <trkpt lat="46.8081" lon="-1.92272">
        <ele>5</ele>
        <time>2018-01-13T20:47:52Z</time>
      </trkpt>
      <trkpt lat="46.80818" lon="-1.92297">
        <ele>5</ele>
        <time>2018-01-13T20:48:52Z</time>
      </trkpt>
      <trkpt lat="46.80824" lon="-1.92313">
        <ele>5</ele>
        <time>2018-01-13T20:49:52Z</time>
      </trkpt>
      <trkpt lat="46.80828" lon="-1.92327">
        <ele>5</ele>
        <time>2018-01-13T20:50:52Z</time>
      </trkpt>
      <trkpt lat="46.80831" lon="-1.92338">
        <ele>5</ele>
        <time>2018-01-13T20:51:52Z</time>
      </trkpt>
      <trkpt lat="46.80839" lon="-1.92364">
        <ele>5</ele>
        <time>2018-01-13T20:52:52Z</time>
      </trkpt>
      <trkpt lat="46.80844" lon="-1.92383">
        <ele>4</ele>
        <time>2018-01-13T20:53:52Z</time>
      </trkpt>
      <trkpt lat="46.80848" lon="-1.92404">
        <ele>4</ele>
        <time>2018-01-13T20:54:52Z</time>
      </trkpt>
      <trkpt lat="46.80851" lon="-1.92424">
        <ele>4</ele>
        <time>2018-01-13T20:55:52Z</time>
      </trkpt>
      <trkpt lat="46.80852" lon="-1.92442">
        <ele>3</ele>
        <time>2018-01-13T20:56:52Z</time>
      </trkpt>
      <trkpt lat="46.80853" lon="-1.92459">
        <ele>3</ele>
        <time>2018-01-13T20:57:52Z</time>
      </trkpt>
      <trkpt lat="46.80853" lon="-1.92462">
        <ele>3</ele>
        <time>2018-01-13T20:58:52Z</time>
      </trkpt>
      <trkpt lat="46.80853" lon="-1.92478">
        <ele>2</ele>
        <time>2018-01-13T20:59:52Z</time>
      </trkpt>
      <trkpt lat="46.80852" lon="-1.925">
        <ele>2</ele>
        <time>2018-01-13T21:00:52Z</time>
      </trkpt>
      <trkpt lat="46.8085" lon="-1.92539">
        <ele>1</ele>
        <time>2018-01-13T21:01:52Z</time>
      </trkpt>
      <trkpt lat="46.80849" lon="-1.92548">
        <ele>1</ele>
        <time>2018-01-13T21:02:52Z</time>
      </trkpt>
      <trkpt lat="46.80845" lon="-1.92603">
        <ele>2.2</ele>
        <time>2018-01-13T21:03:52Z</time>
      </trkpt>
      <trkpt lat="46.80845" lon="-1.92618">
        <ele>1.9</ele>
        <time>2018-01-13T21:04:52Z</time>
      </trkpt>
      <trkpt lat="46.80846" lon="-1.92633">
        <ele>1.6</ele>
        <time>2018-01-13T21:05:52Z</time>
      </trkpt>
      <trkpt lat="46.80848" lon="-1.92648">
        <ele>1.5</ele>
        <time>2018-01-13T21:06:52Z</time>
      </trkpt>
      <trkpt lat="46.8085" lon="-1.92663">
        <ele>1.4</ele>
        <time>2018-01-13T21:07:52Z</time>
      </trkpt>
      <trkpt lat="46.80854" lon="-1.92678">
        <ele>1.5</ele>
        <time>2018-01-13T21:08:52Z</time>
      </trkpt>
      <trkpt lat="46.80864" lon="-1.92712">
        <ele>1.9</ele>
        <time>2018-01-13T21:09:52Z</time>
      </trkpt>
      <trkpt lat="46.80874" lon="-1.92747">
        <ele>1.5</ele>
        <time>2018-01-13T21:10:52Z</time>
      </trkpt>
      <trkpt lat="46.80881" lon="-1.92775">
        <ele>1.9</ele>
        <time>2018-01-13T21:11:52Z</time>
      </trkpt>
      <trkpt lat="46.80885" lon="-1.92799">
        <ele>1.3</ele>
        <time>2018-01-13T21:12:52Z</time>
      </trkpt>
      <trkpt lat="46.80886" lon="-1.92822">
        <ele>1.1</ele>
        <time>2018-01-13T21:13:52Z</time>
      </trkpt>
      <trkpt lat="46.80885" lon="-1.92842">
        <ele>1.1</ele>
        <time>2018-01-13T21:14:52Z</time>
      </trkpt>
      <trkpt lat="46.80883" lon="-1.92863">
        <ele>1.2</ele>
        <time>2018-01-13T21:15:52Z</time>
      </trkpt>
      <trkpt lat="46.8088" lon="-1.92882">
        <ele>1.1</ele>
        <time>2018-01-13T21:16:52Z</time>
      </trkpt>
      <trkpt lat="46.80875" lon="-1.92901">
        <ele>1.4</ele>
        <time>2018-01-13T21:17:52Z</time>
      </trkpt>
      <trkpt lat="46.80868" lon="-1.92922">
        <ele>1</ele>
        <time>2018-01-13T21:18:52Z</time>
      </trkpt>
      <trkpt lat="46.80857" lon="-1.92955">
        <ele>1</ele>
        <time>2018-01-13T21:19:52Z</time>
      </trkpt>
      <trkpt lat="46.80836" lon="-1.9301">
        <ele>1</ele>
        <time>2018-01-13T21:20:52Z</time>
      </trkpt>
      <trkpt lat="46.80814" lon="-1.93072">
        <ele>1</ele>
        <time>2018-01-13T21:21:52Z</time>
      </trkpt>
      <trkpt lat="46.80805" lon="-1.93096">
        <ele>2.1</ele>
        <time>2018-01-13T21:22:52Z</time>
      </trkpt>
      <trkpt lat="46.80802" lon="-1.93104">
        <ele>1.5</ele>
        <time>2018-01-13T21:23:52Z</time>
      </trkpt>
      <trkpt lat="46.80799" lon="-1.9311">
        <ele>1.1</ele>
        <time>2018-01-13T21:24:52Z</time>
      </trkpt>
      <trkpt lat="46.80798" lon="-1.93115">
        <ele>1.1</ele>
        <time>2018-01-13T21:25:52Z</time>
      </trkpt>
      <trkpt lat="46.80797" lon="-1.93117">
        <ele>1.1</ele>
        <time>2018-01-13T21:26:52Z</time>
      </trkpt>
      <trkpt lat="46.80793" lon="-1.93132">
        <ele>1.4</ele>
        <time>2018-01-13T21:27:52Z</time>
      </trkpt>
      <trkpt lat="46.80789" lon="-1.93147">
        <ele>1.6</ele>
        <time>2018-01-13T21:28:52Z</time>
      </trkpt>
      <trkpt lat="46.80785" lon="-1.93165">
        <ele>2</ele>
        <time>2018-01-13T21:29:52Z</time>
      </trkpt>
      <trkpt lat="46.80781" lon="-1.93183">
        <ele>2</ele>
        <time>2018-01-13T21:30:52Z</time>
      </trkpt>
      <trkpt lat="46.80778" lon="-1.93203">
        <ele>2</ele>
        <time>2018-01-13T21:31:52Z</time>
      </trkpt>
      <trkpt lat="46.80776" lon="-1.93224">
        <ele>2</ele>
        <time>2018-01-13T21:32:52Z</time>
      </trkpt>
      <trkpt lat="46.80775" lon="-1.93249">
        <ele>1.9</ele>
        <time>2018-01-13T21:33:52Z</time>
      </trkpt>
      <trkpt lat="46.80774" lon="-1.93304">
        <ele>1</ele>
        <time>2018-01-13T21:34:52Z</time>
      </trkpt>
      <trkpt lat="46.80773" lon="-1.93346">
        <ele>1</ele>
        <time>2018-01-13T21:35:52Z</time>
      </trkpt>
      <trkpt lat="46.80772" lon="-1.93378">
        <ele>1</ele>
        <time>2018-01-13T21:36:52Z</time>
      </trkpt>
      <trkpt lat="46.80771" lon="-1.93409">
        <ele>1</ele>
        <time>2018-01-13T21:37:52Z</time>
      </trkpt>
      <trkpt lat="46.80769" lon="-1.93455">
        <ele>1</ele>
        <time>2018-01-13T21:38:52Z</time>
      </trkpt>
      <trkpt lat="46.80768" lon="-1.93481">
        <ele>1</ele>
        <time>2018-01-13T21:39:52Z</time>
      </trkpt>
      <trkpt lat="46.80767" lon="-1.93516">
        <ele>1</ele>
        <time>2018-01-13T21:40:52Z</time>
      </trkpt>
      <trkpt lat="46.80766" lon="-1.9355">
        <ele>1</ele>
        <time>2018-01-13T21:41:52Z</time>
      </trkpt>
      <trkpt lat="46.80764" lon="-1.93577">
        <ele>2</ele>
        <time>2018-01-13T21:42:52Z</time>
      </trkpt>
      <trkpt lat="46.80763" lon="-1.93592">
        <ele>2</ele>
        <time>2018-01-13T21:43:52Z</time>
      </trkpt>
      <trkpt lat="46.8076" lon="-1.93608">
        <ele>2</ele>
        <time>2018-01-13T21:44:52Z</time>
      </trkpt>
      <trkpt lat="46.80759" lon="-1.93616">
        <ele>2</ele>
        <time>2018-01-13T21:45:52Z</time>
      </trkpt>
      <trkpt lat="46.80751" lon="-1.93641">
        <ele>2</ele>
        <time>2018-01-13T21:46:52Z</time>
      </trkpt>
      <trkpt lat="46.80738" lon="-1.93674">
        <ele>2</ele>
        <time>2018-01-13T21:47:52Z</time>
      </trkpt>
      <trkpt lat="46.80725" lon="-1.93706">
        <ele>2</ele>
        <time>2018-01-13T21:48:52Z</time>
      </trkpt>
      <trkpt lat="46.80711" lon="-1.93739">
        <ele>1</ele>
        <time>2018-01-13T21:49:52Z</time>
      </trkpt>
      <trkpt lat="46.807" lon="-1.93766">
        <ele>1</ele>
        <time>2018-01-13T21:50:52Z</time>
      </trkpt>
      <trkpt lat="46.80691" lon="-1.93785">
        <ele>1</ele>
        <time>2018-01-13T21:51:52Z</time>
      </trkpt>
      <trkpt lat="46.8068" lon="-1.93812">
        <ele>1.6</ele>
        <time>2018-01-13T21:52:52Z</time>
      </trkpt>
      <trkpt lat="46.80677" lon="-1.93821">
        <ele>1.8</ele>
        <time>2018-01-13T21:53:52Z</time>
      </trkpt>
      <trkpt lat="46.80671" lon="-1.93836">
        <ele>2</ele>
        <time>2018-01-13T21:54:52Z</time>
      </trkpt>
      <trkpt lat="46.80666" lon="-1.93852">
        <ele>2</ele>
        <time>2018-01-13T21:55:52Z</time>
      </trkpt>
      <trkpt lat="46.80661" lon="-1.93872">
        <ele>1.6</ele>
        <time>2018-01-13T21:56:52Z</time>
      </trkpt>
      <trkpt lat="46.80657" lon="-1.93896">
        <ele>1</ele>
        <time>2018-01-13T21:57:52Z</time>
      </trkpt>
      <trkpt lat="46.80653" lon="-1.93929">
        <ele>1</ele>
        <time>2018-01-13T21:58:52Z</time>
      </trkpt>
      <trkpt lat="46.8065" lon="-1.93966">
        <ele>1.5</ele>
        <time>2018-01-13T21:59:52Z</time>
      </trkpt>
      <trkpt lat="46.80647" lon="-1.94004">
        <ele>1.7</ele>
        <time>2018-01-13T22:00:52Z</time>
      </trkpt>
      <trkpt lat="46.80645" lon="-1.94036">
        <ele>1.8</ele>
        <time>2018-01-13T22:01:52Z</time>
      </trkpt>
      <trkpt lat="46.80642" lon="-1.94074">
        <ele>2</ele>
        <time>2018-01-13T22:02:52Z</time>
      </trkpt>
      <trkpt lat="46.80638" lon="-1.94119">
        <ele>1</ele>
        <time>2018-01-13T22:03:52Z</time>
      </trkpt>
      <trkpt lat="46.80635" lon="-1.9416">
        <ele>1</ele>
        <time>2018-01-13T22:04:52Z</time>
      </trkpt>
      <trkpt lat="46.80633" lon="-1.9419">
        <ele>1</ele>
        <time>2018-01-13T22:05:52Z</time>
      </trkpt>
      <trkpt lat="46.80629" lon="-1.94244">
        <ele>1</ele>
        <time>2018-01-13T22:06:52Z</time>
      </trkpt>
      <trkpt lat="46.80625" lon="-1.94294">
        <ele>2</ele>
        <time>2018-01-13T22:07:52Z</time>
      </trkpt>
      <trkpt lat="46.80621" lon="-1.94336">
        <ele>2</ele>
        <time>2018-01-13T22:08:52Z</time>
      </trkpt>
      <trkpt lat="46.80618" lon="-1.94386">
        <ele>1.8</ele>
        <time>2018-01-13T22:09:52Z</time>
      </trkpt>
      <trkpt lat="46.80614" lon="-1.94432">
        <ele>2</ele>
        <time>2018-01-13T22:10:52Z</time>
      </trkpt>
      <trkpt lat="46.80612" lon="-1.94462">
        <ele>2</ele>
        <time>2018-01-13T22:11:52Z</time>
      </trkpt>
      <trkpt lat="46.80608" lon="-1.94516">
        <ele>2</ele>
        <time>2018-01-13T22:12:52Z</time>
      </trkpt>
      <trkpt lat="46.80603" lon="-1.94575">
        <ele>1.2</ele>
        <time>2018-01-13T22:13:52Z</time>
      </trkpt>
      <trkpt lat="46.806" lon="-1.94613">
        <ele>1</ele>
        <time>2018-01-13T22:14:52Z</time>
      </trkpt>
      <trkpt lat="46.80596" lon="-1.94663">
        <ele>1</ele>
        <time>2018-01-13T22:15:52Z</time>
      </trkpt>
      <trkpt lat="46.80593" lon="-1.94712">
        <ele>1</ele>
        <time>2018-01-13T22:16:52Z</time>
      </trkpt>
      <trkpt lat="46.8059" lon="-1.94749">
        <ele>2</ele>
        <time>2018-01-13T22:17:52Z</time>
      </trkpt>
      <trkpt lat="46.8059" lon="-1.94754">
        <ele>1</ele>
        <time>2018-01-13T22:18:52Z</time>
      </trkpt>
      <trkpt lat="46.80588" lon="-1.94779">
        <ele>1</ele>
        <time>2018-01-13T22:19:52Z</time>
      </trkpt>
      <trkpt lat="46.80584" lon="-1.94805">
        <ele>1</ele>
        <time>2018-01-13T22:20:52Z</time>
      </trkpt>
      <trkpt lat="46.80578" lon="-1.94832">
        <ele>1</ele>
        <time>2018-01-13T22:21:52Z</time>
      </trkpt>
      <trkpt lat="46.80568" lon="-1.94861">
        <ele>1</ele>
        <time>2018-01-13T22:22:52Z</time>
      </trkpt>
      <trkpt lat="46.80566" lon="-1.94868">
        <ele>1</ele>
        <time>2018-01-13T22:23:52Z</time>
      </trkpt>
      <trkpt lat="46.80561" lon="-1.9488">
        <ele>1</ele>
        <time>2018-01-13T22:24:52Z</time>
      </trkpt>
      <trkpt lat="46.8055" lon="-1.94908">
        <ele>1</ele>
        <time>2018-01-13T22:25:52Z</time>
      </trkpt>
      <trkpt lat="46.80536" lon="-1.94945">
        <ele>2</ele>
        <time>2018-01-13T22:26:52Z</time>
      </trkpt>
      <trkpt lat="46.80523" lon="-1.9498">
        <ele>1</ele>
        <time>2018-01-13T22:27:52Z</time>
      </trkpt>
      <trkpt lat="46.80512" lon="-1.95008">
        <ele>1</ele>
        <time>2018-01-13T22:28:52Z</time>
      </trkpt>
      <trkpt lat="46.80499" lon="-1.95041">
        <ele>1</ele>
        <time>2018-01-13T22:29:52Z</time>
      </trkpt>
      <trkpt lat="46.80489" lon="-1.95069">
        <ele>2</ele>
        <time>2018-01-13T22:30:52Z</time>
      </trkpt>
      <trkpt lat="46.80477" lon="-1.95099">
        <ele>2</ele>
        <time>2018-01-13T22:31:52Z</time>
      </trkpt>
      <trkpt lat="46.80465" lon="-1.95136">
        <ele>1</ele>
        <time>2018-01-13T22:32:52Z</time>
      </trkpt>
      <trkpt lat="46.80452" lon="-1.9518">
        <ele>1.9</ele>
        <time>2018-01-13T22:33:52Z</time>
      </trkpt>
      <trkpt lat="46.80436" lon="-1.95231">
        <ele>1.3</ele>
        <time>2018-01-13T22:34:52Z</time>
      </trkpt>
      <trkpt lat="46.80427" lon="-1.95265">
        <ele>1.8</ele>
        <time>2018-01-13T22:35:52Z</time>
      </trkpt>
      <trkpt lat="46.80419" lon="-1.95289">
        <ele>2</ele>
        <time>2018-01-13T22:36:52Z</time>
      </trkpt>
      <trkpt lat="46.80411" lon="-1.95312">
        <ele>1.8</ele>
        <time>2018-01-13T22:37:52Z</time>
      </trkpt>
      <trkpt lat="46.80403" lon="-1.9534">
        <ele>1</ele>
        <time>2018-01-13T22:38:52Z</time>
      </trkpt>
      <trkpt lat="46.80389" lon="-1.95384">
        <ele>1</ele>
        <time>2018-01-13T22:39:52Z</time>
      </trkpt>
      <trkpt lat="46.80373" lon="-1.95436">
        <ele>1.3</ele>
        <time>2018-01-13T22:40:52Z</time>
      </trkpt>
      <trkpt lat="46.80355" lon="-1.95493">
        <ele>1.3</ele>
        <time>2018-01-13T22:41:52Z</time>
      </trkpt>
      <trkpt lat="46.80339" lon="-1.95545">
        <ele>1.8</ele>
        <time>2018-01-13T22:42:52Z</time>
      </trkpt>
      <trkpt lat="46.80323" lon="-1.95594">
        <ele>1.8</ele>
        <time>2018-01-13T22:43:52Z</time>
      </trkpt>
      <trkpt lat="46.8031" lon="-1.95636">
        <ele>2</ele>
        <time>2018-01-13T22:44:52Z</time>
      </trkpt>
      <trkpt lat="46.80297" lon="-1.95677">
        <ele>2</ele>
        <time>2018-01-13T22:45:52Z</time>
      </trkpt>
      <trkpt lat="46.80291" lon="-1.95697">
        <ele>2</ele>
        <time>2018-01-13T22:46:52Z</time>
      </trkpt>
      <trkpt lat="46.80288" lon="-1.95704">
        <ele>1.9</ele>
        <time>2018-01-13T22:47:52Z</time>
      </trkpt>
      <trkpt lat="46.80285" lon="-1.95713">
        <ele>1.8</ele>
        <time>2018-01-13T22:48:52Z</time>
      </trkpt>
      <trkpt lat="46.8028" lon="-1.95733">
        <ele>2.3</ele>
        <time>2018-01-13T22:49:52Z</time>
      </trkpt>
      <trkpt lat="46.80275" lon="-1.95756">
        <ele>1</ele>
        <time>2018-01-13T22:50:52Z</time>
      </trkpt>
      <trkpt lat="46.80271" lon="-1.95781">
        <ele>1</ele>
        <time>2018-01-13T22:51:52Z</time>
      </trkpt>
      <trkpt lat="46.80268" lon="-1.95806">
        <ele>1</ele>
        <time>2018-01-13T22:52:52Z</time>
      </trkpt>
      <trkpt lat="46.80266" lon="-1.95828">
        <ele>1</ele>
        <time>2018-01-13T22:53:52Z</time>
      </trkpt>
      <trkpt lat="46.80264" lon="-1.95854">
        <ele>1</ele>
        <time>2018-01-13T22:54:52Z</time>
      </trkpt>
      <trkpt lat="46.8026" lon="-1.95909">
        <ele>1</ele>
        <time>2018-01-13T22:55:52Z</time>
      </trkpt>
      <trkpt lat="46.80254" lon="-1.95975">
        <ele>2</ele>
        <time>2018-01-13T22:56:52Z</time>
      </trkpt>
      <trkpt lat="46.80248" lon="-1.96048">
        <ele>2</ele>
        <time>2018-01-13T22:57:52Z</time>
      </trkpt>
      <trkpt lat="46.80244" lon="-1.96102">
        <ele>1</ele>
        <time>2018-01-13T22:58:52Z</time>
      </trkpt>
      <trkpt lat="46.80242" lon="-1.96122">
        <ele>1</ele>
        <time>2018-01-13T22:59:52Z</time>
      </trkpt>
      <trkpt lat="46.80241" lon="-1.96142">
        <ele>1</ele>
        <time>2018-01-13T23:00:52Z</time>
      </trkpt>
      <trkpt lat="46.80242" lon="-1.9617">
        <ele>2</ele>
        <time>2018-01-13T23:01:52Z</time>
      </trkpt>
      <trkpt lat="46.80244" lon="-1.96202">
        <ele>2</ele>
        <time>2018-01-13T23:02:52Z</time>
      </trkpt>
      <trkpt lat="46.8025" lon="-1.96237">
        <ele>1</ele>
        <time>2018-01-13T23:03:52Z</time>
      </trkpt>
      <trkpt lat="46.80258" lon="-1.96268">
        <ele>1</ele>
        <time>2018-01-13T23:04:52Z</time>
      </trkpt>
      <trkpt lat="46.80265" lon="-1.96289">
        <ele>1</ele>
        <time>2018-01-13T23:05:52Z</time>
      </trkpt>
      <trkpt lat="46.8027" lon="-1.96305">
        <ele>1</ele>
        <time>2018-01-13T23:06:52Z</time>
      </trkpt>
      <trkpt lat="46.80282" lon="-1.96344">
        <ele>1</ele>
        <time>2018-01-13T23:07:52Z</time>
      </trkpt>
      <trkpt lat="46.80289" lon="-1.96365">
        <ele>1</ele>
        <time>2018-01-13T23:08:52Z</time>
      </trkpt>
      <trkpt lat="46.80298" lon="-1.96393">
        <ele>1</ele>
        <time>2018-01-13T23:09:52Z</time>
      </trkpt>
      <trkpt lat="46.80311" lon="-1.96432">
        <ele>2</ele>
        <time>2018-01-13T23:10:52Z</time>
      </trkpt>
      <trkpt lat="46.80323" lon="-1.96471">
        <ele>2</ele>
        <time>2018-01-13T23:11:52Z</time>
      </trkpt>
      <trkpt lat="46.80333" lon="-1.96502">
        <ele>3</ele>
        <time>2018-01-13T23:12:52Z</time>
      </trkpt>
      <trkpt lat="46.80343" lon="-1.96535">
        <ele>3</ele>
        <time>2018-01-13T23:13:52Z</time>
      </trkpt>
      <trkpt lat="46.80352" lon="-1.96566">
        <ele>2</ele>
        <time>2018-01-13T23:14:52Z</time>
      </trkpt>
      <trkpt lat="46.80354" lon="-1.96574">
        <ele>2</ele>
        <time>2018-01-13T23:15:52Z</time>
      </trkpt>
      <trkpt lat="46.80356" lon="-1.96583">
        <ele>2</ele>
        <time>2018-01-13T23:16:52Z</time>
      </trkpt>
      <trkpt lat="46.80524" lon="-1.97308">
        <ele>1</ele>
        <time>2018-01-13T23:17:52Z</time>
      </trkpt>
      <trkpt lat="46.80527" lon="-1.97318">
        <ele>1</ele>
        <time>2018-01-13T23:18:52Z</time>
      </trkpt>
      <trkpt lat="46.80537" lon="-1.97346">
        <ele>1</ele>
        <time>2018-01-13T23:19:52Z</time>
      </trkpt>
      <trkpt lat="46.80554" lon="-1.97385">
        <ele>2</ele>
        <time>2018-01-13T23:20:52Z</time>
      </trkpt>
      <trkpt lat="46.80585" lon="-1.97457">
        <ele>2</ele>
        <time>2018-01-13T23:21:52Z</time>
      </trkpt>
      <trkpt lat="46.80599" lon="-1.97498">
        <ele>2</ele>
        <time>2018-01-13T23:22:52Z</time>
      </trkpt>
      <trkpt lat="46.80603" lon="-1.97512">
        <ele>1</ele>
        <time>2018-01-13T23:23:52Z</time>
      </trkpt>
      <trkpt lat="46.80607" lon="-1.97531">
        <ele>1</ele>
        <time>2018-01-13T23:24:52Z</time>
      </trkpt>
      <trkpt lat="46.8061" lon="-1.97549">
        <ele>1</ele>
        <time>2018-01-13T23:25:52Z</time>
      </trkpt>
      <trkpt lat="46.80612" lon="-1.97567">
        <ele>1</ele>
        <time>2018-01-13T23:26:52Z</time>
      </trkpt>
      <trkpt lat="46.80614" lon="-1.97596">
        <ele>1</ele>
        <time>2018-01-13T23:27:52Z</time>
      </trkpt>
      <trkpt lat="46.80615" lon="-1.97615">
        <ele>1</ele>
        <time>2018-01-13T23:28:52Z</time>
      </trkpt>
      <trkpt lat="46.80612" lon="-1.97659">
        <ele>1</ele>
        <time>2018-01-13T23:29:52Z</time>
      </trkpt>
      <trkpt lat="46.80611" lon="-1.97672">
        <ele>1</ele>
        <time>2018-01-13T23:30:52Z</time>
      </trkpt>
      <trkpt lat="46.80607" lon="-1.97705">
        <ele>1</ele>
        <time>2018-01-13T23:31:52Z</time>
      </trkpt>
      <trkpt lat="46.80602" lon="-1.97728">
        <ele>1</ele>
        <time>2018-01-13T23:32:52Z</time>
      </trkpt>
      <trkpt lat="46.80593" lon="-1.97774">
        <ele>1</ele>
        <time>2018-01-13T23:33:52Z</time>
      </trkpt>
      <trkpt lat="46.80583" lon="-1.97807">
        <ele>1</ele>
        <time>2018-01-13T23:34:52Z</time>
      </trkpt>
      <trkpt lat="46.80571" lon="-1.97842">
        <ele>1</ele>
        <time>2018-01-13T23:35:52Z</time>
      </trkpt>
      <trkpt lat="46.80549" lon="-1.97909">
        <ele>1</ele>
        <time>2018-01-13T23:36:52Z</time>
      </trkpt>
      <trkpt lat="46.80528" lon="-1.97968">
        <ele>1</ele>
        <time>2018-01-13T23:37:52Z</time>
      </trkpt>
      <trkpt lat="46.80525" lon="-1.97978">
        <ele>1</ele>
        <time>2018-01-13T23:38:52Z</time>
      </trkpt>
      <trkpt lat="46.80513" lon="-1.98009">
        <ele>1</ele>
        <time>2018-01-13T23:39:52Z</time>
      </trkpt>
      <trkpt lat="46.80497" lon="-1.98037">
        <ele>1</ele>
        <time>2018-01-13T23:40:52Z</time>
      </trkpt>
      <trkpt lat="46.80479" lon="-1.98066">
        <ele>1</ele>
        <time>2018-01-13T23:41:52Z</time>
      </trkpt>
      <trkpt lat="46.80413" lon="-1.98157">
        <ele>2</ele>
        <time>2018-01-13T23:42:52Z</time>
      </trkpt>
      <trkpt lat="46.80368" lon="-1.98222">
        <ele>2</ele>
        <time>2018-01-13T23:43:52Z</time>
      </trkpt>
      <trkpt lat="46.80368" lon="-1.98222">
        <ele>2</ele>
        <time>2018-01-13T23:44:52Z</time>
      </trkpt>
      <trkpt lat="46.80354" lon="-1.98206">
        <ele>2</ele>
        <time>2018-01-13T23:45:52Z</time>
      </trkpt>
      <trkpt lat="46.8033" lon="-1.98178">
        <ele>1</ele>
        <time>2018-01-13T23:46:52Z</time>
      </trkpt>
      <trkpt lat="46.80307" lon="-1.98155">
        <ele>1</ele>
        <time>2018-01-13T23:47:52Z</time>
      </trkpt>
      <trkpt lat="46.80291" lon="-1.98135">
        <ele>2</ele>
        <time>2018-01-13T23:48:52Z</time>
      </trkpt>
      <trkpt lat="46.8029" lon="-1.98133">
        <ele>2</ele>
        <time>2018-01-13T23:49:52Z</time>
      </trkpt>
      <trkpt lat="46.80276" lon="-1.98119">
        <ele>2</ele>
        <time>2018-01-13T23:50:52Z</time>
      </trkpt>
      <trkpt lat="46.80262" lon="-1.98105">
        <ele>2</ele>
        <time>2018-01-13T23:51:52Z</time>
      </trkpt>
      <trkpt lat="46.80244" lon="-1.98094">
        <ele>2</ele>
        <time>2018-01-13T23:52:52Z</time>
      </trkpt>
      <trkpt lat="46.80226" lon="-1.98085">
        <ele>2</ele>
        <time>2018-01-13T23:53:52Z</time>
      </trkpt>
      <trkpt lat="46.80212" lon="-1.9808">
        <ele>2</ele>
        <time>2018-01-13T23:54:52Z</time>
      </trkpt>
      <trkpt lat="46.80188" lon="-1.9807">
        <ele>2</ele>
        <time>2018-01-13T23:55:52Z</time>
      </trkpt>
      <trkpt lat="46.8016" lon="-1.98058">
        <ele>1</ele>
        <time>2018-01-13T23:56:52Z</time>
      </trkpt>
      <trkpt lat="46.8014" lon="-1.9805">
        <ele>1</ele>
        <time>2018-01-13T23:57:52Z</time>
      </trkpt>
      <trkpt lat="46.80128" lon="-1.98045">
        <ele>1</ele>
        <time>2018-01-13T23:58:52Z</time>
      </trkpt>
      <trkpt lat="46.80126" lon="-1.98045">
        <ele>1</ele>
        <time>2018-01-13T23:59:52Z</time>
      </trkpt>
      <trkpt lat="46.80097" lon="-1.98034">
        <ele>2</ele>
        <time>2018-01-14T00:00:52Z</time>
      </trkpt>
      <trkpt lat="46.80063" lon="-1.98017">
        <ele>2</ele>
        <time>2018-01-14T00:01:52Z</time>
      </trkpt>
      <trkpt lat="46.80035" lon="-1.98003">
        <ele>2.7</ele>
        <time>2018-01-14T00:02:52Z</time>
      </trkpt>
      <trkpt lat="46.80027" lon="-1.97997">
        <ele>2.9</ele>
        <time>2018-01-14T00:03:52Z</time>
      </trkpt>
      <trkpt lat="46.80002" lon="-1.97973">
        <ele>2</ele>
        <time>2018-01-14T00:04:52Z</time>
      </trkpt>
      <trkpt lat="46.79974" lon="-1.9794">
        <ele>2</ele>
        <time>2018-01-14T00:05:52Z</time>
      </trkpt>
      <trkpt lat="46.79972" lon="-1.97938">
        <ele>2</ele>
        <time>2018-01-14T00:06:52Z</time>
      </trkpt>
      <trkpt lat="46.79941" lon="-1.97903">
        <ele>2</ele>
        <time>2018-01-14T00:07:52Z</time>
      </trkpt>
      <trkpt lat="46.79912" lon="-1.97874">
        <ele>2</ele>
        <time>2018-01-14T00:08:52Z</time>
      </trkpt>
      <trkpt lat="46.79879" lon="-1.97853">
        <ele>2</ele>
        <time>2018-01-14T00:09:52Z</time>
      </trkpt>
      <trkpt lat="46.79845" lon="-1.97834">
        <ele>2</ele>
        <time>2018-01-14T00:10:52Z</time>
      </trkpt>
      <trkpt lat="46.79818" lon="-1.97823">
        <ele>2</ele>
        <time>2018-01-14T00:11:52Z</time>
      </trkpt>
      <trkpt lat="46.79791" lon="-1.97817">
        <ele>2</ele>
        <time>2018-01-14T00:12:52Z</time>
      </trkpt>
      <trkpt lat="46.7977" lon="-1.97818">
        <ele>1</ele>
        <time>2018-01-14T00:13:52Z</time>
      </trkpt>
      <trkpt lat="46.79753" lon="-1.97822">
        <ele>1</ele>
        <time>2018-01-14T00:14:52Z</time>
      </trkpt>
      <trkpt lat="46.79728" lon="-1.97832">
        <ele>1</ele>
        <time>2018-01-14T00:15:52Z</time>
      </trkpt>
      <trkpt lat="46.79705" lon="-1.97841">
        <ele>1</ele>
        <time>2018-01-14T00:16:52Z</time>
      </trkpt>
      <trkpt lat="46.79681" lon="-1.97851">
        <ele>1</ele>
        <time>2018-01-14T00:17:52Z</time>
      </trkpt>
      <trkpt lat="46.79642" lon="-1.97867">
        <ele>1</ele>
        <time>2018-01-14T00:18:52Z</time>
      </trkpt>
      <trkpt lat="46.79616" lon="-1.97877">
        <ele>2</ele>
        <time>2018-01-14T00:19:52Z</time>
      </trkpt>
      <trkpt lat="46.7959" lon="-1.97887">
        <ele>2</ele>
        <time>2018-01-14T00:20:52Z</time>
      </trkpt>
      <trkpt lat="46.79571" lon="-1.97892">
        <ele>2</ele>
        <time>2018-01-14T00:21:52Z</time>
      </trkpt>
      <trkpt lat="46.79557" lon="-1.97895">
        <ele>2</ele>
        <time>2018-01-14T00:22:52Z</time>
      </trkpt>
      <trkpt lat="46.79537" lon="-1.97898">
        <ele>1.8</ele>
        <time>2018-01-14T00:23:52Z</time>
      </trkpt>
      <trkpt lat="46.7949" lon="-1.97903">
        <ele>1.8</ele>
        <time>2018-01-14T00:24:52Z</time>
      </trkpt>
      <trkpt lat="46.79423" lon="-1.97912">
        <ele>2</ele>
        <time>2018-01-14T00:25:52Z</time>
      </trkpt>
      <trkpt lat="46.79351" lon="-1.9792">
        <ele>1</ele>
        <time>2018-01-14T00:26:52Z</time>
      </trkpt>
      <trkpt lat="46.79312" lon="-1.97923">
        <ele>1</ele>
        <time>2018-01-14T00:27:52Z</time>
      </trkpt>
      <trkpt lat="46.793" lon="-1.97923">
        <ele>1</ele>
        <time>2018-01-14T00:28:52Z</time>
      </trkpt>
      <trkpt lat="46.79294" lon="-1.97921">
        <ele>1</ele>
        <time>2018-01-14T00:29:52Z</time>
      </trkpt>
      <trkpt lat="46.79291" lon="-1.9792">
        <ele>1</ele>
        <time>2018-01-14T00:30:52Z</time>
      </trkpt>
      <trkpt lat="46.79287" lon="-1.97918">
        <ele>1</ele>
        <time>2018-01-14T00:31:52Z</time>
      </trkpt>
      <trkpt lat="46.79277" lon="-1.97913">
        <ele>1</ele>
        <time>2018-01-14T00:32:52Z</time>
      </trkpt>
      <trkpt lat="46.79273" lon="-1.9791">
        <ele>1</ele>
        <time>2018-01-14T00:33:52Z</time>
      </trkpt>
      <trkpt lat="46.79268" lon="-1.97907">
        <ele>1</ele>
        <time>2018-01-14T00:34:52Z</time>
      </trkpt>
      <trkpt lat="46.79261" lon="-1.97899">
        <ele>1</ele>
        <time>2018-01-14T00:35:52Z</time>
      </trkpt>
      <trkpt lat="46.79256" lon="-1.97893">
        <ele>1</ele>
        <time>2018-01-14T00:36:52Z</time>
      </trkpt>
      <trkpt lat="46.79245" lon="-1.97877">
        <ele>1</ele>
        <time>2018-01-14T00:37:52Z</time>
      </trkpt>
      <trkpt lat="46.79227" lon="-1.97845">
        <ele>1</ele>
        <time>2018-01-14T00:38:52Z</time>
      </trkpt>
      <trkpt lat="46.79202" lon="-1.97797">
        <ele>1</ele>
        <time>2018-01-14T00:39:52Z</time>
      </trkpt>
      <trkpt lat="46.79154" lon="-1.97705">
        <ele>2</ele>
        <time>2018-01-14T00:40:52Z</time>
      </trkpt>
      <trkpt lat="46.79132" lon="-1.97662">
        <ele>1.8</ele>
        <time>2018-01-14T00:41:52Z</time>
      </trkpt>
      <trkpt lat="46.79111" lon="-1.97621">
        <ele>1</ele>
        <time>2018-01-14T00:42:52Z</time>
      </trkpt>
      <trkpt lat="46.79076" lon="-1.97554">
        <ele>1</ele>
        <time>2018-01-14T00:43:52Z</time>
      </trkpt>
      <trkpt lat="46.7907" lon="-1.97542">
        <ele>1</ele>
        <time>2018-01-14T00:44:52Z</time>
      </trkpt>
      <trkpt lat="46.79053" lon="-1.9751">
        <ele>1</ele>
        <time>2018-01-14T00:45:52Z</time>
      </trkpt>
      <trkpt lat="46.7903" lon="-1.97473">
        <ele>1</ele>
        <time>2018-01-14T00:46:52Z</time>
      </trkpt>
      <trkpt lat="46.79006" lon="-1.97445">
        <ele>2</ele>
        <time>2018-01-14T00:47:52Z</time>
      </trkpt>
      <trkpt lat="46.78983" lon="-1.97425">
        <ele>2</ele>
        <time>2018-01-14T00:48:52Z</time>
      </trkpt>
      <trkpt lat="46.78968" lon="-1.97414">
        <ele>2</ele>
        <time>2018-01-14T00:49:52Z</time>
      </trkpt>
      <trkpt lat="46.78959" lon="-1.97409">
        <ele>2</ele>
        <time>2018-01-14T00:50:52Z</time>
      </trkpt>
      <trkpt lat="46.78935" lon="-1.97397">
        <ele>2</ele>
        <time>2018-01-14T00:51:52Z</time>
      </trkpt>
      <trkpt lat="46.78896" lon="-1.97382">
        <ele>3</ele>
        <time>2018-01-14T00:52:52Z</time>
      </trkpt>
      <trkpt lat="46.78859" lon="-1.97368">
        <ele>4</ele>
        <time>2018-01-14T00:53:52Z</time>
      </trkpt>
      <trkpt lat="46.78859" lon="-1.97368">
        <ele>4</ele>
        <time>2018-01-14T00:54:52Z</time>
      </trkpt>
      <trkpt lat="46.78843" lon="-1.97362">
        <ele>5</ele>
        <time>2018-01-14T00:55:52Z</time>
      </trkpt>
      <trkpt lat="46.78761" lon="-1.97331">
        <ele>3</ele>
        <time>2018-01-14T00:56:52Z</time>
      </trkpt>
      <trkpt lat="46.78708" lon="-1.97311">
        <ele>3</ele>
        <time>2018-01-14T00:57:52Z</time>
      </trkpt>
      <trkpt lat="46.78647" lon="-1.97287">
        <ele>3</ele>
        <time>2018-01-14T00:58:52Z</time>
      </trkpt>
      <trkpt lat="46.78638" lon="-1.97284">
        <ele>3</ele>
        <time>2018-01-14T00:59:52Z</time>
      </trkpt>
      <trkpt lat="46.78612" lon="-1.97274">
        <ele>4</ele>
        <time>2018-01-14T01:00:52Z</time>
      </trkpt>
      <trkpt lat="46.78587" lon="-1.97263">
        <ele>5</ele>
        <time>2018-01-14T01:01:52Z</time>
      </trkpt>
      <trkpt lat="46.7852" lon="-1.97238">
        <ele>5</ele>
        <time>2018-01-14T01:02:52Z</time>
      </trkpt>
      <trkpt lat="46.78503" lon="-1.97232">
        <ele>4</ele>
        <time>2018-01-14T01:03:52Z</time>
      </trkpt>
      <trkpt lat="46.78465" lon="-1.97216">
        <ele>4</ele>
        <time>2018-01-14T01:04:52Z</time>
      </trkpt>
      <trkpt lat="46.78423" lon="-1.97197">
        <ele>5</ele>
        <time>2018-01-14T01:05:52Z</time>
      </trkpt>
      <trkpt lat="46.78307" lon="-1.97133">
        <ele>5</ele>
        <time>2018-01-14T01:06:52Z</time>
      </trkpt>
      <trkpt lat="46.78282" lon="-1.97119">
        <ele>4</ele>
        <time>2018-01-14T01:07:52Z</time>
      </trkpt>
      <trkpt lat="46.78249" lon="-1.971">
        <ele>3</ele>
        <time>2018-01-14T01:08:52Z</time>
      </trkpt>
      <trkpt lat="46.7822" lon="-1.97084">
        <ele>3</ele>
        <time>2018-01-14T01:09:52Z</time>
      </trkpt>
      <trkpt lat="46.78207" lon="-1.97077">
        <ele>3</ele>
        <time>2018-01-14T01:10:52Z</time>
      </trkpt>
      <trkpt lat="46.78183" lon="-1.97064">
        <ele>3</ele>
        <time>2018-01-14T01:11:52Z</time>
      </trkpt>
      <trkpt lat="46.78149" lon="-1.97046">
        <ele>4</ele>
        <time>2018-01-14T01:12:52Z</time>
      </trkpt>
      <trkpt lat="46.78108" lon="-1.97022">
        <ele>5</ele>
        <time>2018-01-14T01:13:52Z</time>
      </trkpt>
      <trkpt lat="46.78048" lon="-1.96989">
        <ele>5</ele>
        <time>2018-01-14T01:14:52Z</time>
      </trkpt>
      <trkpt lat="46.77993" lon="-1.96959">
        <ele>4</ele>
        <time>2018-01-14T01:15:52Z</time>
      </trkpt>
      <trkpt lat="46.7796" lon="-1.9694">
        <ele>4</ele>
        <time>2018-01-14T01:16:52Z</time>
      </trkpt>
      <trkpt lat="46.77938" lon="-1.96929">
        <ele>3</ele>
        <time>2018-01-14T01:17:52Z</time>
      </trkpt>
      <trkpt lat="46.77917" lon="-1.96918">
        <ele>3</ele>
        <time>2018-01-14T01:18:52Z</time>
      </trkpt>
      <trkpt lat="46.77886" lon="-1.96906">
        <ele>4</ele>
        <time>2018-01-14T01:19:52Z</time>
      </trkpt>
      <trkpt lat="46.77842" lon="-1.96888">
        <ele>5</ele>
        <time>2018-01-14T01:20:52Z</time>
      </trkpt>
      <trkpt lat="46.77818" lon="-1.96879">
        <ele>5</ele>
        <time>2018-01-14T01:21:52Z</time>
      </trkpt>
      <trkpt lat="46.77782" lon="-1.96865">
        <ele>4</ele>
        <time>2018-01-14T01:22:52Z</time>
      </trkpt>
      <trkpt lat="46.77755" lon="-1.96851">
        <ele>4</ele>
        <time>2018-01-14T01:23:52Z</time>
      </trkpt>
      <trkpt lat="46.77731" lon="-1.96834">
        <ele>4</ele>
        <time>2018-01-14T01:24:52Z</time>
      </trkpt>
      <trkpt lat="46.77701" lon="-1.9681">
        <ele>3</ele>
        <time>2018-01-14T01:25:52Z</time>
      </trkpt>
      <trkpt lat="46.77684" lon="-1.96793">
        <ele>3</ele>
        <time>2018-01-14T01:26:52Z</time>
      </trkpt>
      <trkpt lat="46.77571" lon="-1.96688">
        <ele>5</ele>
        <time>2018-01-14T01:27:52Z</time>
      </trkpt>
      <trkpt lat="46.77524" lon="-1.96644">
        <ele>6</ele>
        <time>2018-01-14T01:28:52Z</time>
      </trkpt>
      <trkpt lat="46.77518" lon="-1.96641">
        <ele>6</ele>
        <time>2018-01-14T01:29:52Z</time>
      </trkpt>
      <trkpt lat="46.77481" lon="-1.96606">
        <ele>6</ele>
        <time>2018-01-14T01:30:52Z</time>
      </trkpt>
      <trkpt lat="46.77477" lon="-1.96599">
        <ele>6</ele>
        <time>2018-01-14T01:31:52Z</time>
      </trkpt>
      <trkpt lat="46.77468" lon="-1.9659">
        <ele>6</ele>
        <time>2018-01-14T01:32:52Z</time>
      </trkpt>
      <trkpt lat="46.77467" lon="-1.96589">
        <ele>6</ele>
        <time>2018-01-14T01:33:52Z</time>
      </trkpt>
      <trkpt lat="46.77365" lon="-1.96485">
        <ele>4</ele>
        <time>2018-01-14T01:34:52Z</time>
      </trkpt>
      <trkpt lat="46.77363" lon="-1.96484">
        <ele>4</ele>
        <time>2018-01-14T01:35:52Z</time>
      </trkpt>
      <trkpt lat="46.77306" lon="-1.96428">
        <ele>5</ele>
        <time>2018-01-14T01:36:52Z</time>
      </trkpt>
      <trkpt lat="46.77281" lon="-1.96404">
        <ele>5</ele>
        <time>2018-01-14T01:37:52Z</time>
      </trkpt>
      <trkpt lat="46.77263" lon="-1.96387">
        <ele>4</ele>
        <time>2018-01-14T01:38:52Z</time>
      </trkpt>
      <trkpt lat="46.77211" lon="-1.96338">
        <ele>5</ele>
        <time>2018-01-14T01:39:52Z</time>
      </trkpt>
      <trkpt lat="46.77186" lon="-1.9632">
        <ele>6</ele>
        <time>2018-01-14T01:40:52Z</time>
      </trkpt>
      <trkpt lat="46.77166" lon="-1.96314">
        <ele>7</ele>
        <time>2018-01-14T01:41:52Z</time>
      </trkpt>
      <trkpt lat="46.77166" lon="-1.96319">
        <ele>7</ele>
        <time>2018-01-14T01:42:52Z</time>
      </trkpt>
      <trkpt lat="46.77166" lon="-1.96322">
        <ele>7</ele>
        <time>2018-01-14T01:43:52Z</time>
      </trkpt>
      <trkpt lat="46.77165" lon="-1.96324">
        <ele>7</ele>
        <time>2018-01-14T01:44:52Z</time>
      </trkpt>
      <trkpt lat="46.77164" lon="-1.96327">
        <ele>7</ele>
        <time>2018-01-14T01:45:52Z</time>
      </trkpt>
      <trkpt lat="46.77162" lon="-1.96328">
        <ele>7</ele>
        <time>2018-01-14T01:46:52Z</time>
      </trkpt>
      <trkpt lat="46.7716" lon="-1.9633">
        <ele>7</ele>
        <time>2018-01-14T01:47:52Z</time>
      </trkpt>
      <trkpt lat="46.77158" lon="-1.9633">
        <ele>7</ele>
        <time>2018-01-14T01:48:52Z</time>
      </trkpt>
      <trkpt lat="46.77156" lon="-1.96329">
        <ele>7</ele>
        <time>2018-01-14T01:49:52Z</time>
      </trkpt>
      <trkpt lat="46.77154" lon="-1.96328">
        <ele>7</ele>
        <time>2018-01-14T01:50:52Z</time>
      </trkpt>
      <trkpt lat="46.77153" lon="-1.96326">
        <ele>7</ele>
        <time>2018-01-14T01:51:52Z</time>
      </trkpt>
      <trkpt lat="46.77152" lon="-1.96324">
        <ele>7</ele>
        <time>2018-01-14T01:52:52Z</time>
      </trkpt>
      <trkpt lat="46.77151" lon="-1.9632">
        <ele>7</ele>
        <time>2018-01-14T01:53:52Z</time>
      </trkpt>
      <trkpt lat="46.77151" lon="-1.96317">
        <ele>6</ele>
        <time>2018-01-14T01:54:52Z</time>
      </trkpt>
      <trkpt lat="46.77151" lon="-1.96315">
        <ele>6</ele>
        <time>2018-01-14T01:55:52Z</time>
      </trkpt>
      <trkpt lat="46.77132" lon="-1.96302">
        <ele>6</ele>
        <time>2018-01-14T01:56:52Z</time>
      </trkpt>
      <trkpt lat="46.77103" lon="-1.96298">
        <ele>6</ele>
        <time>2018-01-14T01:57:52Z</time>
      </trkpt>
      <trkpt lat="46.77029" lon="-1.96289">
        <ele>4</ele>
        <time>2018-01-14T01:58:52Z</time>
      </trkpt>
      <trkpt lat="46.77023" lon="-1.96289">
        <ele>3</ele>
        <time>2018-01-14T01:59:52Z</time>
      </trkpt>
      <trkpt lat="46.76955" lon="-1.96283">
        <ele>3</ele>
        <time>2018-01-14T02:00:52Z</time>
      </trkpt>
      <trkpt lat="46.76928" lon="-1.96281">
        <ele>3</ele>
        <time>2018-01-14T02:01:52Z</time>
      </trkpt>
      <trkpt lat="46.76887" lon="-1.96274">
        <ele>4</ele>
        <time>2018-01-14T02:02:52Z</time>
      </trkpt>
      <trkpt lat="46.76872" lon="-1.96271">
        <ele>3</ele>
        <time>2018-01-14T02:03:52Z</time>
      </trkpt>
      <trkpt lat="46.76817" lon="-1.96263">
        <ele>3</ele>
        <time>2018-01-14T02:04:52Z</time>
      </trkpt>
      <trkpt lat="46.76785" lon="-1.96253">
        <ele>3</ele>
        <time>2018-01-14T02:05:52Z</time>
      </trkpt>
      <trkpt lat="46.76722" lon="-1.9623">
        <ele>3</ele>
        <time>2018-01-14T02:06:52Z</time>
      </trkpt>
      <trkpt lat="46.76618" lon="-1.96189">
        <ele>4</ele>
        <time>2018-01-14T02:07:52Z</time>
      </trkpt>
      <trkpt lat="46.76539" lon="-1.9616">
        <ele>3</ele>
        <time>2018-01-14T02:08:52Z</time>
      </trkpt>
      <trkpt lat="46.76513" lon="-1.9615">
        <ele>3</ele>
        <time>2018-01-14T02:09:52Z</time>
      </trkpt>
      <trkpt lat="46.76485" lon="-1.96139">
        <ele>2</ele>
        <time>2018-01-14T02:10:52Z</time>
      </trkpt>
      <trkpt lat="46.76435" lon="-1.96123">
        <ele>2</ele>
        <time>2018-01-14T02:11:52Z</time>
      </trkpt>
      <trkpt lat="46.76431" lon="-1.96121">
        <ele>2</ele>
        <time>2018-01-14T02:12:52Z</time>
      </trkpt>
      <trkpt lat="46.76411" lon="-1.96114">
        <ele>2</ele>
        <time>2018-01-14T02:13:52Z</time>
      </trkpt>
      <trkpt lat="46.76383" lon="-1.96105">
        <ele>2</ele>
        <time>2018-01-14T02:14:52Z</time>
      </trkpt>
      <trkpt lat="46.76353" lon="-1.96093">
        <ele>3</ele>
        <time>2018-01-14T02:15:52Z</time>
      </trkpt>
      <trkpt lat="46.76325" lon="-1.9608">
        <ele>3</ele>
        <time>2018-01-14T02:16:52Z</time>
      </trkpt>
      <trkpt lat="46.76318" lon="-1.96076">
        <ele>3</ele>
        <time>2018-01-14T02:17:52Z</time>
      </trkpt>
      <trkpt lat="46.76308" lon="-1.9607">
        <ele>3</ele>
        <time>2018-01-14T02:18:52Z</time>
      </trkpt>
      <trkpt lat="46.76286" lon="-1.96055">
        <ele>3</ele>
        <time>2018-01-14T02:19:52Z</time>
      </trkpt>
      <trkpt lat="46.76249" lon="-1.96029">
        <ele>4</ele>
        <time>2018-01-14T02:20:52Z</time>
      </trkpt>
      <trkpt lat="46.76226" lon="-1.96014">
        <ele>4</ele>
        <time>2018-01-14T02:21:52Z</time>
      </trkpt>
      <trkpt lat="46.76203" lon="-1.96002">
        <ele>4</ele>
        <time>2018-01-14T02:22:52Z</time>
      </trkpt>
      <trkpt lat="46.76153" lon="-1.95979">
        <ele>3</ele>
        <time>2018-01-14T02:23:52Z</time>
      </trkpt>
      <trkpt lat="46.76101" lon="-1.95956">
        <ele>4</ele>
        <time>2018-01-14T02:24:52Z</time>
      </trkpt>
      <trkpt lat="46.76057" lon="-1.95938">
        <ele>5</ele>
        <time>2018-01-14T02:25:52Z</time>
      </trkpt>
      <trkpt lat="46.7605" lon="-1.95936">
        <ele>5</ele>
        <time>2018-01-14T02:26:52Z</time>
      </trkpt>
      <trkpt lat="46.76034" lon="-1.95931">
        <ele>5</ele>
        <time>2018-01-14T02:27:52Z</time>
      </trkpt>
      <trkpt lat="46.7602" lon="-1.95927">
        <ele>5</ele>
        <time>2018-01-14T02:28:52Z</time>
      </trkpt>
      <trkpt lat="46.76002" lon="-1.95925">
        <ele>6</ele>
        <time>2018-01-14T02:29:52Z</time>
      </trkpt>
      <trkpt lat="46.75982" lon="-1.95923">
        <ele>5</ele>
        <time>2018-01-14T02:30:52Z</time>
      </trkpt>
      <trkpt lat="46.75927" lon="-1.9592">
        <ele>4</ele>
        <time>2018-01-14T02:31:52Z</time>
      </trkpt>
      <trkpt lat="46.75906" lon="-1.9592">
        <ele>4</ele>
        <time>2018-01-14T02:32:52Z</time>
      </trkpt>
      <trkpt lat="46.75903" lon="-1.9592">
        <ele>4</ele>
        <time>2018-01-14T02:33:52Z</time>
      </trkpt>
      <trkpt lat="46.75857" lon="-1.95917">
        <ele>3</ele>
        <time>2018-01-14T02:34:52Z</time>
      </trkpt>
      <trkpt lat="46.75855" lon="-1.95917">
        <ele>3</ele>
        <time>2018-01-14T02:35:52Z</time>
      </trkpt>
      <trkpt lat="46.75766" lon="-1.95913">
        <ele>2</ele>
        <time>2018-01-14T02:36:52Z</time>
      </trkpt>
      <trkpt lat="46.75724" lon="-1.95909">
        <ele>3</ele>
        <time>2018-01-14T02:37:52Z</time>
      </trkpt>
      <trkpt lat="46.75696" lon="-1.95905">
        <ele>3</ele>
        <time>2018-01-14T02:38:52Z</time>
      </trkpt>
      <trkpt lat="46.75657" lon="-1.95895">
        <ele>3</ele>
        <time>2018-01-14T02:39:52Z</time>
      </trkpt>
      <trkpt lat="46.75612" lon="-1.95882">
        <ele>2</ele>
        <time>2018-01-14T02:40:52Z</time>
      </trkpt>
      <trkpt lat="46.75565" lon="-1.95868">
        <ele>1</ele>
        <time>2018-01-14T02:41:52Z</time>
      </trkpt>
      <trkpt lat="46.75564" lon="-1.95868">
        <ele>1</ele>
        <time>2018-01-14T02:42:52Z</time>
      </trkpt>
      <trkpt lat="46.7553" lon="-1.95855">
        <ele>2</ele>
        <time>2018-01-14T02:43:52Z</time>
      </trkpt>
      <trkpt lat="46.75522" lon="-1.95849">
        <ele>2</ele>
        <time>2018-01-14T02:44:52Z</time>
      </trkpt>
      <trkpt lat="46.75506" lon="-1.9584">
        <ele>3</ele>
        <time>2018-01-14T02:45:52Z</time>
      </trkpt>
      <trkpt lat="46.75477" lon="-1.95826">
        <ele>2</ele>
        <time>2018-01-14T02:46:52Z</time>
      </trkpt>
      <trkpt lat="46.75427" lon="-1.95799">
        <ele>2</ele>
        <time>2018-01-14T02:47:52Z</time>
      </trkpt>
      <trkpt lat="46.75367" lon="-1.95767">
        <ele>1</ele>
        <time>2018-01-14T02:48:52Z</time>
      </trkpt>
      <trkpt lat="46.75348" lon="-1.95757">
        <ele>1</ele>
        <time>2018-01-14T02:49:52Z</time>
      </trkpt>
      <trkpt lat="46.7531" lon="-1.95737">
        <ele>1</ele>
        <time>2018-01-14T02:50:52Z</time>
      </trkpt>
      <trkpt lat="46.75274" lon="-1.9572">
        <ele>1</ele>
        <time>2018-01-14T02:51:52Z</time>
      </trkpt>
      <trkpt lat="46.75243" lon="-1.95711">
        <ele>1</ele>
        <time>2018-01-14T02:52:52Z</time>
      </trkpt>
      <trkpt lat="46.75236" lon="-1.95709">
        <ele>1</ele>
        <time>2018-01-14T02:53:52Z</time>
      </trkpt>
      <trkpt lat="46.75217" lon="-1.95706">
        <ele>2</ele>
        <time>2018-01-14T02:54:52Z</time>
      </trkpt>
      <trkpt lat="46.75193" lon="-1.95706">
        <ele>1</ele>
        <time>2018-01-14T02:55:52Z</time>
      </trkpt>
      <trkpt lat="46.75163" lon="-1.95705">
        <ele>1</ele>
        <time>2018-01-14T02:56:52Z</time>
      </trkpt>
      <trkpt lat="46.75128" lon="-1.95704">
        <ele>1</ele>
        <time>2018-01-14T02:57:52Z</time>
      </trkpt>
      <trkpt lat="46.75102" lon="-1.95701">
        <ele>1</ele>
        <time>2018-01-14T02:58:52Z</time>
      </trkpt>
      <trkpt lat="46.7508" lon="-1.95696">
        <ele>1</ele>
        <time>2018-01-14T02:59:52Z</time>
      </trkpt>
      <trkpt lat="46.75053" lon="-1.95686">
        <ele>1</ele>
        <time>2018-01-14T03:00:52Z</time>
      </trkpt>
      <trkpt lat="46.75029" lon="-1.95675">
        <ele>1</ele>
        <time>2018-01-14T03:01:52Z</time>
      </trkpt>
      <trkpt lat="46.74994" lon="-1.95658">
        <ele>2</ele>
        <time>2018-01-14T03:02:52Z</time>
      </trkpt>
      <trkpt lat="46.74953" lon="-1.95639">
        <ele>1</ele>
        <time>2018-01-14T03:03:52Z</time>
      </trkpt>
      <trkpt lat="46.74928" lon="-1.95627">
        <ele>1</ele>
        <time>2018-01-14T03:04:52Z</time>
      </trkpt>
      <trkpt lat="46.7492" lon="-1.95623">
        <ele>1</ele>
        <time>2018-01-14T03:05:52Z</time>
      </trkpt>
      <trkpt lat="46.74893" lon="-1.95608">
        <ele>1</ele>
        <time>2018-01-14T03:06:52Z</time>
      </trkpt>
      <trkpt lat="46.74872" lon="-1.95599">
        <ele>1</ele>
        <time>2018-01-14T03:07:52Z</time>
      </trkpt>
      <trkpt lat="46.74848" lon="-1.95588">
        <ele>2</ele>
        <time>2018-01-14T03:08:52Z</time>
      </trkpt>
      <trkpt lat="46.74826" lon="-1.9558">
        <ele>2</ele>
        <time>2018-01-14T03:09:52Z</time>
      </trkpt>
      <trkpt lat="46.74806" lon="-1.95574">
        <ele>2</ele>
        <time>2018-01-14T03:10:52Z</time>
      </trkpt>
      <trkpt lat="46.74785" lon="-1.95572">
        <ele>1</ele>
        <time>2018-01-14T03:11:52Z</time>
      </trkpt>
      <trkpt lat="46.74771" lon="-1.9557">
        <ele>1</ele>
        <time>2018-01-14T03:12:52Z</time>
      </trkpt>
      <trkpt lat="46.74762" lon="-1.95571">
        <ele>1</ele>
        <time>2018-01-14T03:13:52Z</time>
      </trkpt>
      <trkpt lat="46.74738" lon="-1.95572">
        <ele>1</ele>
        <time>2018-01-14T03:14:52Z</time>
      </trkpt>
      <trkpt lat="46.74708" lon="-1.95575">
        <ele>2</ele>
        <time>2018-01-14T03:15:52Z</time>
      </trkpt>
      <trkpt lat="46.74688" lon="-1.95576">
        <ele>2</ele>
        <time>2018-01-14T03:16:52Z</time>
      </trkpt>
      <trkpt lat="46.74666" lon="-1.95578">
        <ele>2</ele>
        <time>2018-01-14T03:17:52Z</time>
      </trkpt>
      <trkpt lat="46.74644" lon="-1.95576">
        <ele>2</ele>
        <time>2018-01-14T03:18:52Z</time>
      </trkpt>
      <trkpt lat="46.7462" lon="-1.95573">
        <ele>2</ele>
        <time>2018-01-14T03:19:52Z</time>
      </trkpt>
      <trkpt lat="46.74591" lon="-1.95567">
        <ele>3</ele>
        <time>2018-01-14T03:20:52Z</time>
      </trkpt>
      <trkpt lat="46.74567" lon="-1.95561">
        <ele>3</ele>
        <time>2018-01-14T03:21:52Z</time>
      </trkpt>
      <trkpt lat="46.74531" lon="-1.95554">
        <ele>2</ele>
        <time>2018-01-14T03:22:52Z</time>
      </trkpt>
      <trkpt lat="46.74509" lon="-1.95549">
        <ele>2</ele>
        <time>2018-01-14T03:23:52Z</time>
      </trkpt>
      <trkpt lat="46.74493" lon="-1.95545">
        <ele>2</ele>
        <time>2018-01-14T03:24:52Z</time>
      </trkpt>
      <trkpt lat="46.74484" lon="-1.95541">
        <ele>1</ele>
        <time>2018-01-14T03:25:52Z</time>
      </trkpt>
      <trkpt lat="46.7448" lon="-1.9554">
        <ele>1</ele>
        <time>2018-01-14T03:26:52Z</time>
      </trkpt>
      <trkpt lat="46.74469" lon="-1.95537">
        <ele>1</ele>
        <time>2018-01-14T03:27:52Z</time>
      </trkpt>
      <trkpt lat="46.74469" lon="-1.95537">
        <ele>1</ele>
        <time>2018-01-14T03:28:52Z</time>
      </trkpt>
      <trkpt lat="46.74468" lon="-1.95542">
        <ele>2</ele>
        <time>2018-01-14T03:29:52Z</time>
      </trkpt>
      <trkpt lat="46.74466" lon="-1.95544">
        <ele>2</ele>
        <time>2018-01-14T03:30:52Z</time>
      </trkpt>
      <trkpt lat="46.74464" lon="-1.95547">
        <ele>2</ele>
        <time>2018-01-14T03:31:52Z</time>
      </trkpt>
      <trkpt lat="46.74461" lon="-1.95548">
        <ele>2</ele>
        <time>2018-01-14T03:32:52Z</time>
      </trkpt>
      <trkpt lat="46.74457" lon="-1.95548">
        <ele>1</ele>
        <time>2018-01-14T03:33:52Z</time>
      </trkpt>
      <trkpt lat="46.74452" lon="-1.95546">
        <ele>1</ele>
        <time>2018-01-14T03:34:52Z</time>
      </trkpt>
      <trkpt lat="46.74448" lon="-1.95542">
        <ele>1</ele>
        <time>2018-01-14T03:35:52Z</time>
      </trkpt>
      <trkpt lat="46.74447" lon="-1.95537">
        <ele>2</ele>
        <time>2018-01-14T03:36:52Z</time>
      </trkpt>
      <trkpt lat="46.74447" lon="-1.9553">
        <ele>2</ele>
        <time>2018-01-14T03:37:52Z</time>
      </trkpt>
      <trkpt lat="46.74432" lon="-1.95514">
        <ele>2</ele>
        <time>2018-01-14T03:38:52Z</time>
      </trkpt>
      <trkpt lat="46.74425" lon="-1.95511">
        <ele>2</ele>
        <time>2018-01-14T03:39:52Z</time>
      </trkpt>
      <trkpt lat="46.74416" lon="-1.95507">
        <ele>2</ele>
        <time>2018-01-14T03:40:52Z</time>
      </trkpt>
      <trkpt lat="46.74394" lon="-1.95502">
        <ele>2</ele>
        <time>2018-01-14T03:41:52Z</time>
      </trkpt>
      <trkpt lat="46.74368" lon="-1.95497">
        <ele>1</ele>
        <time>2018-01-14T03:42:52Z</time>
      </trkpt>
      <trkpt lat="46.7433" lon="-1.9549">
        <ele>1</ele>
        <time>2018-01-14T03:43:52Z</time>
      </trkpt>
      <trkpt lat="46.74293" lon="-1.95482">
        <ele>1</ele>
        <time>2018-01-14T03:44:52Z</time>
      </trkpt>
      <trkpt lat="46.74259" lon="-1.95474">
        <ele>1</ele>
        <time>2018-01-14T03:45:52Z</time>
      </trkpt>
      <trkpt lat="46.74234" lon="-1.95466">
        <ele>1</ele>
        <time>2018-01-14T03:46:52Z</time>
      </trkpt>
      <trkpt lat="46.74206" lon="-1.95455">
        <ele>2</ele>
        <time>2018-01-14T03:47:52Z</time>
      </trkpt>
      <trkpt lat="46.74188" lon="-1.95446">
        <ele>2</ele>
        <time>2018-01-14T03:48:52Z</time>
      </trkpt>
      <trkpt lat="46.74158" lon="-1.95432">
        <ele>2</ele>
        <time>2018-01-14T03:49:52Z</time>
      </trkpt>
      <trkpt lat="46.74136" lon="-1.95419">
        <ele>2</ele>
        <time>2018-01-14T03:50:52Z</time>
      </trkpt>
      <trkpt lat="46.74111" lon="-1.95404">
        <ele>3</ele>
        <time>2018-01-14T03:51:52Z</time>
      </trkpt>
      <trkpt lat="46.74106" lon="-1.954">
        <ele>3</ele>
        <time>2018-01-14T03:52:52Z</time>
      </trkpt>
      <trkpt lat="46.74095" lon="-1.95392">
        <ele>4</ele>
        <time>2018-01-14T03:53:52Z</time>
      </trkpt>
      <trkpt lat="46.7408" lon="-1.95382">
        <ele>5</ele>
        <time>2018-01-14T03:54:52Z</time>
      </trkpt>
      <trkpt lat="46.74062" lon="-1.9537">
        <ele>5</ele>
        <time>2018-01-14T03:55:52Z</time>
      </trkpt>
      <trkpt lat="46.74038" lon="-1.95351">
        <ele>5</ele>
        <time>2018-01-14T03:56:52Z</time>
      </trkpt>
      <trkpt lat="46.7402" lon="-1.95337">
        <ele>5</ele>
        <time>2018-01-14T03:57:52Z</time>
      </trkpt>
      <trkpt lat="46.74006" lon="-1.95327">
        <ele>5</ele>
        <time>2018-01-14T03:58:52Z</time>
      </trkpt>
      <trkpt lat="46.73984" lon="-1.95313">
        <ele>4</ele>
        <time>2018-01-14T03:59:52Z</time>
      </trkpt>
      <trkpt lat="46.73962" lon="-1.95302">
        <ele>4</ele>
        <time>2018-01-14T04:00:52Z</time>
      </trkpt>
      <trkpt lat="46.73939" lon="-1.95292">
        <ele>4</ele>
        <time>2018-01-14T04:01:52Z</time>
      </trkpt>
      <trkpt lat="46.7391" lon="-1.95281">
        <ele>3</ele>
        <time>2018-01-14T04:02:52Z</time>
      </trkpt>
      <trkpt lat="46.7389" lon="-1.95273">
        <ele>3</ele>
        <time>2018-01-14T04:03:52Z</time>
      </trkpt>
      <trkpt lat="46.73862" lon="-1.95261">
        <ele>3</ele>
        <time>2018-01-14T04:04:52Z</time>
      </trkpt>
      <trkpt lat="46.73826" lon="-1.95246">
        <ele>3</ele>
        <time>2018-01-14T04:05:52Z</time>
      </trkpt>
      <trkpt lat="46.73804" lon="-1.95237">
        <ele>4</ele>
        <time>2018-01-14T04:06:52Z</time>
      </trkpt>
      <trkpt lat="46.73784" lon="-1.95228">
        <ele>4</ele>
        <time>2018-01-14T04:07:52Z</time>
      </trkpt>
      <trkpt lat="46.73762" lon="-1.95218">
        <ele>4</ele>
        <time>2018-01-14T04:08:52Z</time>
      </trkpt>
      <trkpt lat="46.73742" lon="-1.95206">
        <ele>4</ele>
        <time>2018-01-14T04:09:52Z</time>
      </trkpt>
      <trkpt lat="46.73714" lon="-1.95191">
        <ele>3</ele>
        <time>2018-01-14T04:10:52Z</time>
      </trkpt>
      <trkpt lat="46.73687" lon="-1.95175">
        <ele>3</ele>
        <time>2018-01-14T04:11:52Z</time>
      </trkpt>
      <trkpt lat="46.73663" lon="-1.95161">
        <ele>3</ele>
        <time>2018-01-14T04:12:52Z</time>
      </trkpt>
      <trkpt lat="46.73662" lon="-1.9516">
        <ele>3</ele>
        <time>2018-01-14T04:13:52Z</time>
      </trkpt>
      <trkpt lat="46.73634" lon="-1.95144">
        <ele>2</ele>
        <time>2018-01-14T04:14:52Z</time>
      </trkpt>
      <trkpt lat="46.73609" lon="-1.9513">
        <ele>2</ele>
        <time>2018-01-14T04:15:52Z</time>
      </trkpt>
      <trkpt lat="46.73589" lon="-1.95117">
        <ele>2</ele>
        <time>2018-01-14T04:16:52Z</time>
      </trkpt>
      <trkpt lat="46.73573" lon="-1.95108">
        <ele>2</ele>
        <time>2018-01-14T04:17:52Z</time>
      </trkpt>
      <trkpt lat="46.73559" lon="-1.951">
        <ele>3</ele>
        <time>2018-01-14T04:18:52Z</time>
      </trkpt>
      <trkpt lat="46.73533" lon="-1.95087">
        <ele>3</ele>
        <time>2018-01-14T04:19:52Z</time>
      </trkpt>
      <trkpt lat="46.73524" lon="-1.95083">
        <ele>4</ele>
        <time>2018-01-14T04:20:52Z</time>
      </trkpt>
      <trkpt lat="46.73513" lon="-1.95077">
        <ele>4</ele>
        <time>2018-01-14T04:21:52Z</time>
      </trkpt>
      <trkpt lat="46.73507" lon="-1.95073">
        <ele>4</ele>
        <time>2018-01-14T04:22:52Z</time>
      </trkpt>
      <trkpt lat="46.73501" lon="-1.95069">
        <ele>4</ele>
        <time>2018-01-14T04:23:52Z</time>
      </trkpt>
      <trkpt lat="46.73497" lon="-1.95067">
        <ele>4</ele>
        <time>2018-01-14T04:24:52Z</time>
      </trkpt>
      <trkpt lat="46.7349" lon="-1.95067">
        <ele>4</ele>
        <time>2018-01-14T04:25:52Z</time>
      </trkpt>
      <trkpt lat="46.73483" lon="-1.95069">
        <ele>4</ele>
        <time>2018-01-14T04:26:52Z</time>
      </trkpt>
      <trkpt lat="46.73475" lon="-1.9507">
        <ele>4</ele>
        <time>2018-01-14T04:27:52Z</time>
      </trkpt>
      <trkpt lat="46.7347" lon="-1.9507">
        <ele>4</ele>
        <time>2018-01-14T04:28:52Z</time>
      </trkpt>
      <trkpt lat="46.73467" lon="-1.95069">
        <ele>4</ele>
        <time>2018-01-14T04:29:52Z</time>
      </trkpt>
      <trkpt lat="46.73456" lon="-1.95066">
        <ele>5</ele>
        <time>2018-01-14T04:30:52Z</time>
      </trkpt>
      <trkpt lat="46.73447" lon="-1.95064">
        <ele>5</ele>
        <time>2018-01-14T04:31:52Z</time>
      </trkpt>
      <trkpt lat="46.73421" lon="-1.9506">
        <ele>5</ele>
        <time>2018-01-14T04:32:52Z</time>
      </trkpt>
      <trkpt lat="46.73413" lon="-1.95056">
        <ele>5</ele>
        <time>2018-01-14T04:33:52Z</time>
      </trkpt>
      <trkpt lat="46.73392" lon="-1.95052">
        <ele>4</ele>
        <time>2018-01-14T04:34:52Z</time>
      </trkpt>
      <trkpt lat="46.73347" lon="-1.95044">
        <ele>4</ele>
        <time>2018-01-14T04:35:52Z</time>
      </trkpt>
      <trkpt lat="46.73309" lon="-1.95037">
        <ele>4</ele>
        <time>2018-01-14T04:36:52Z</time>
      </trkpt>
      <trkpt lat="46.73267" lon="-1.95029">
        <ele>4</ele>
        <time>2018-01-14T04:37:52Z</time>
      </trkpt>
      <trkpt lat="46.73184" lon="-1.95014">
        <ele>6</ele>
        <time>2018-01-14T04:38:52Z</time>
      </trkpt>
      <trkpt lat="46.73133" lon="-1.95002">
        <ele>7</ele>
        <time>2018-01-14T04:39:52Z</time>
      </trkpt>
      <trkpt lat="46.73121" lon="-1.95001">
        <ele>7</ele>
        <time>2018-01-14T04:40:52Z</time>
      </trkpt>
      <trkpt lat="46.73114" lon="-1.94997">
        <ele>7</ele>
        <time>2018-01-14T04:41:52Z</time>
      </trkpt>
      <trkpt lat="46.73055" lon="-1.94978">
        <ele>7</ele>
        <time>2018-01-14T04:42:52Z</time>
      </trkpt>
      <trkpt lat="46.73025" lon="-1.94967">
        <ele>6</ele>
        <time>2018-01-14T04:43:52Z</time>
      </trkpt>
      <trkpt lat="46.73" lon="-1.94957">
        <ele>5</ele>
        <time>2018-01-14T04:44:52Z</time>
      </trkpt>
      <trkpt lat="46.7298" lon="-1.9495">
        <ele>5</ele>
        <time>2018-01-14T04:45:52Z</time>
      </trkpt>
      <trkpt lat="46.72956" lon="-1.94942">
        <ele>5</ele>
        <time>2018-01-14T04:46:52Z</time>
      </trkpt>
      <trkpt lat="46.72938" lon="-1.94935">
        <ele>4</ele>
        <time>2018-01-14T04:47:52Z</time>
      </trkpt>
      <trkpt lat="46.72925" lon="-1.9493">
        <ele>4</ele>
        <time>2018-01-14T04:48:52Z</time>
      </trkpt>
      <trkpt lat="46.72917" lon="-1.94928">
        <ele>4</ele>
        <time>2018-01-14T04:49:52Z</time>
      </trkpt>
      <trkpt lat="46.72906" lon="-1.94925">
        <ele>4</ele>
        <time>2018-01-14T04:50:52Z</time>
      </trkpt>
      <trkpt lat="46.72898" lon="-1.94923">
        <ele>4</ele>
        <time>2018-01-14T04:51:52Z</time>
      </trkpt>
      <trkpt lat="46.72891" lon="-1.94922">
        <ele>4</ele>
        <time>2018-01-14T04:52:52Z</time>
      </trkpt>
      <trkpt lat="46.72884" lon="-1.94922">
        <ele>4</ele>
        <time>2018-01-14T04:53:52Z</time>
      </trkpt>
      <trkpt lat="46.72852" lon="-1.94927">
        <ele>4</ele>
        <time>2018-01-14T04:54:52Z</time>
      </trkpt>
      <trkpt lat="46.72831" lon="-1.94934">
        <ele>4</ele>
        <time>2018-01-14T04:55:52Z</time>
      </trkpt>
      <trkpt lat="46.72823" lon="-1.94937">
        <ele>4</ele>
        <time>2018-01-14T04:56:52Z</time>
      </trkpt>
      <trkpt lat="46.72811" lon="-1.94943">
        <ele>4</ele>
        <time>2018-01-14T04:57:52Z</time>
      </trkpt>
      <trkpt lat="46.72811" lon="-1.94943">
        <ele>4</ele>
        <time>2018-01-14T04:58:52Z</time>
      </trkpt>
      <trkpt lat="46.7281" lon="-1.94944">
        <ele>4</ele>
        <time>2018-01-14T04:59:52Z</time>
      </trkpt>
      <trkpt lat="46.7281" lon="-1.94946">
        <ele>4</ele>
        <time>2018-01-14T05:00:52Z</time>
      </trkpt>
      <trkpt lat="46.72809" lon="-1.94947">
        <ele>4</ele>
        <time>2018-01-14T05:01:52Z</time>
      </trkpt>
      <trkpt lat="46.72808" lon="-1.94949">
        <ele>4</ele>
        <time>2018-01-14T05:02:52Z</time>
      </trkpt>
      <trkpt lat="46.72807" lon="-1.9495">
        <ele>4</ele>
        <time>2018-01-14T05:03:52Z</time>
      </trkpt>
      <trkpt lat="46.72806" lon="-1.94952">
        <ele>4</ele>
        <time>2018-01-14T05:04:52Z</time>
      </trkpt>
      <trkpt lat="46.72805" lon="-1.94953">
        <ele>4</ele>
        <time>2018-01-14T05:05:52Z</time>
      </trkpt>
      <trkpt lat="46.72804" lon="-1.94955">
        <ele>4</ele>
        <time>2018-01-14T05:06:52Z</time>
      </trkpt>
      <trkpt lat="46.72801" lon="-1.94958">
        <ele>4</ele>
        <time>2018-01-14T05:07:52Z</time>
      </trkpt>
      <trkpt lat="46.72798" lon="-1.94961">
        <ele>4</ele>
        <time>2018-01-14T05:08:52Z</time>
      </trkpt>
      <trkpt lat="46.72795" lon="-1.94963">
        <ele>4</ele>
        <time>2018-01-14T05:09:52Z</time>
      </trkpt>
      <trkpt lat="46.72792" lon="-1.94965">
        <ele>4</ele>
        <time>2018-01-14T05:10:52Z</time>
      </trkpt>
      <trkpt lat="46.72788" lon="-1.94966">
        <ele>4</ele>
        <time>2018-01-14T05:11:52Z</time>
      </trkpt>
      <trkpt lat="46.72784" lon="-1.94967">
        <ele>4</ele>
        <time>2018-01-14T05:12:52Z</time>
      </trkpt>
      <trkpt lat="46.72781" lon="-1.94967">
        <ele>4</ele>
        <time>2018-01-14T05:13:52Z</time>
      </trkpt>
      <trkpt lat="46.72777" lon="-1.94967">
        <ele>4</ele>
        <time>2018-01-14T05:14:52Z</time>
      </trkpt>
      <trkpt lat="46.72776" lon="-1.94967">
        <ele>4</ele>
        <time>2018-01-14T05:15:52Z</time>
      </trkpt>
      <trkpt lat="46.72775" lon="-1.94966">
        <ele>4</ele>
        <time>2018-01-14T05:16:52Z</time>
      </trkpt>
      <trkpt lat="46.72774" lon="-1.94966">
        <ele>4</ele>
        <time>2018-01-14T05:17:52Z</time>
      </trkpt>
      <trkpt lat="46.72773" lon="-1.94966">
        <ele>4</ele>
        <time>2018-01-14T05:18:52Z</time>
      </trkpt>
      <trkpt lat="46.72772" lon="-1.94965">
        <ele>4</ele>
        <time>2018-01-14T05:19:52Z</time>
      </trkpt>
      <trkpt lat="46.72771" lon="-1.94965">
        <ele>4</ele>
        <time>2018-01-14T05:20:52Z</time>
      </trkpt>
      <trkpt lat="46.7277" lon="-1.94964">
        <ele>4</ele>
        <time>2018-01-14T05:21:52Z</time>
      </trkpt>
      <trkpt lat="46.72768" lon="-1.94964">
        <ele>4</ele>
        <time>2018-01-14T05:22:52Z</time>
      </trkpt>
      <trkpt lat="46.72767" lon="-1.94963">
        <ele>4</ele>
        <time>2018-01-14T05:23:52Z</time>
      </trkpt>
      <trkpt lat="46.72766" lon="-1.94962">
        <ele>4</ele>
        <time>2018-01-14T05:24:52Z</time>
      </trkpt>
      <trkpt lat="46.72765" lon="-1.94961">
        <ele>4</ele>
        <time>2018-01-14T05:25:52Z</time>
      </trkpt>
      <trkpt lat="46.72764" lon="-1.94961">
        <ele>4</ele>
        <time>2018-01-14T05:26:52Z</time>
      </trkpt>
      <trkpt lat="46.72763" lon="-1.9496">
        <ele>4</ele>
        <time>2018-01-14T05:27:52Z</time>
      </trkpt>
      <trkpt lat="46.72762" lon="-1.94959">
        <ele>4</ele>
        <time>2018-01-14T05:28:52Z</time>
      </trkpt>
      <trkpt lat="46.72761" lon="-1.94958">
        <ele>4</ele>
        <time>2018-01-14T05:29:52Z</time>
      </trkpt>
      <trkpt lat="46.72758" lon="-1.94954">
        <ele>4</ele>
        <time>2018-01-14T05:30:52Z</time>
      </trkpt>
      <trkpt lat="46.72755" lon="-1.94949">
        <ele>4</ele>
        <time>2018-01-14T05:31:52Z</time>
      </trkpt>
      <trkpt lat="46.72753" lon="-1.94944">
        <ele>4</ele>
        <time>2018-01-14T05:32:52Z</time>
      </trkpt>
      <trkpt lat="46.72751" lon="-1.94939">
        <ele>4</ele>
        <time>2018-01-14T05:33:52Z</time>
      </trkpt>
      <trkpt lat="46.7275" lon="-1.94933">
        <ele>4</ele>
        <time>2018-01-14T05:34:52Z</time>
      </trkpt>
      <trkpt lat="46.72749" lon="-1.94927">
        <ele>4</ele>
        <time>2018-01-14T05:35:52Z</time>
      </trkpt>
      <trkpt lat="46.72748" lon="-1.94921">
        <ele>4</ele>
        <time>2018-01-14T05:36:52Z</time>
      </trkpt>
      <trkpt lat="46.72749" lon="-1.94915">
        <ele>4</ele>
        <time>2018-01-14T05:37:52Z</time>
      </trkpt>
      <trkpt lat="46.72749" lon="-1.94912">
        <ele>4</ele>
        <time>2018-01-14T05:38:52Z</time>
      </trkpt>
      <trkpt lat="46.7275" lon="-1.94909">
        <ele>4</ele>
        <time>2018-01-14T05:39:52Z</time>
      </trkpt>
      <trkpt lat="46.72751" lon="-1.94905">
        <ele>4</ele>
        <time>2018-01-14T05:40:52Z</time>
      </trkpt>
      <trkpt lat="46.72752" lon="-1.94902">
        <ele>4</ele>
        <time>2018-01-14T05:41:52Z</time>
      </trkpt>
      <trkpt lat="46.72753" lon="-1.94899">
        <ele>4</ele>
        <time>2018-01-14T05:42:52Z</time>
      </trkpt>
      <trkpt lat="46.72754" lon="-1.94897">
        <ele>4</ele>
        <time>2018-01-14T05:43:52Z</time>
      </trkpt>
      <trkpt lat="46.72755" lon="-1.94894">
        <ele>5</ele>
        <time>2018-01-14T05:44:52Z</time>
      </trkpt>
      <trkpt lat="46.72756" lon="-1.94891">
        <ele>5</ele>
        <time>2018-01-14T05:45:52Z</time>
      </trkpt>
      <trkpt lat="46.72757" lon="-1.94873">
        <ele>5</ele>
        <time>2018-01-14T05:46:52Z</time>
      </trkpt>
      <trkpt lat="46.72756" lon="-1.94856">
        <ele>5</ele>
        <time>2018-01-14T05:47:52Z</time>
      </trkpt>
      <trkpt lat="46.72755" lon="-1.94851">
        <ele>5</ele>
        <time>2018-01-14T05:48:52Z</time>
      </trkpt>
      <trkpt lat="46.72755" lon="-1.94848">
        <ele>6</ele>
        <time>2018-01-14T05:49:52Z</time>
      </trkpt>
      <trkpt lat="46.72754" lon="-1.94845">
        <ele>6</ele>
        <time>2018-01-14T05:50:52Z</time>
      </trkpt>
      <trkpt lat="46.72753" lon="-1.94842">
        <ele>6</ele>
        <time>2018-01-14T05:51:52Z</time>
      </trkpt>
      <trkpt lat="46.72751" lon="-1.94838">
        <ele>6</ele>
        <time>2018-01-14T05:52:52Z</time>
      </trkpt>
      <trkpt lat="46.72748" lon="-1.94831">
        <ele>6</ele>
        <time>2018-01-14T05:53:52Z</time>
      </trkpt>
      <trkpt lat="46.72745" lon="-1.94823">
        <ele>5</ele>
        <time>2018-01-14T05:54:52Z</time>
      </trkpt>
      <trkpt lat="46.72674" lon="-1.94695">
        <ele>4</ele>
        <time>2018-01-14T05:55:52Z</time>
      </trkpt>
      <trkpt lat="46.7266" lon="-1.94672">
        <ele>4</ele>
        <time>2018-01-14T05:56:52Z</time>
      </trkpt>
      <trkpt lat="46.72583" lon="-1.94534">
        <ele>4</ele>
        <time>2018-01-14T05:57:52Z</time>
      </trkpt>
      <trkpt lat="46.72545" lon="-1.94468">
        <ele>4</ele>
        <time>2018-01-14T05:58:52Z</time>
      </trkpt>
      <trkpt lat="46.72541" lon="-1.94464">
        <ele>4</ele>
        <time>2018-01-14T05:59:52Z</time>
      </trkpt>
      <trkpt lat="46.72495" lon="-1.94381">
        <ele>4</ele>
        <time>2018-01-14T06:00:52Z</time>
      </trkpt>
      <trkpt lat="46.72467" lon="-1.94332">
        <ele>4</ele>
        <time>2018-01-14T06:01:52Z</time>
      </trkpt>
      <trkpt lat="46.72457" lon="-1.94315">
        <ele>4</ele>
        <time>2018-01-14T06:02:52Z</time>
      </trkpt>
      <trkpt lat="46.72435" lon="-1.94276">
        <ele>4</ele>
        <time>2018-01-14T06:03:52Z</time>
      </trkpt>
      <trkpt lat="46.72404" lon="-1.94221">
        <ele>4</ele>
        <time>2018-01-14T06:04:52Z</time>
      </trkpt>
      <trkpt lat="46.72396" lon="-1.94206">
        <ele>3</ele>
        <time>2018-01-14T06:05:52Z</time>
      </trkpt>
      <trkpt lat="46.72383" lon="-1.94183">
        <ele>3</ele>
        <time>2018-01-14T06:06:52Z</time>
      </trkpt>
      <trkpt lat="46.72378" lon="-1.94176">
        <ele>4</ele>
        <time>2018-01-14T06:07:52Z</time>
      </trkpt>
      <trkpt lat="46.72376" lon="-1.94172">
        <ele>4</ele>
        <time>2018-01-14T06:08:52Z</time>
      </trkpt>
      <trkpt lat="46.72373" lon="-1.94167">
        <ele>4</ele>
        <time>2018-01-14T06:09:52Z</time>
      </trkpt>
      <trkpt lat="46.7237" lon="-1.94162">
        <ele>4</ele>
        <time>2018-01-14T06:10:52Z</time>
      </trkpt>
      <trkpt lat="46.72366" lon="-1.94156">
        <ele>4</ele>
        <time>2018-01-14T06:11:52Z</time>
      </trkpt>
      <trkpt lat="46.7236" lon="-1.94146">
        <ele>4</ele>
        <time>2018-01-14T06:12:52Z</time>
      </trkpt>
      <trkpt lat="46.72357" lon="-1.94138">
        <ele>4</ele>
        <time>2018-01-14T06:13:52Z</time>
      </trkpt>
      <trkpt lat="46.72354" lon="-1.94133">
        <ele>4</ele>
        <time>2018-01-14T06:14:52Z</time>
      </trkpt>
      <trkpt lat="46.7235" lon="-1.94128">
        <ele>4</ele>
        <time>2018-01-14T06:15:52Z</time>
      </trkpt>
      <trkpt lat="46.72346" lon="-1.94123">
        <ele>4</ele>
        <time>2018-01-14T06:16:52Z</time>
      </trkpt>
      <trkpt lat="46.72342" lon="-1.94117">
        <ele>4</ele>
        <time>2018-01-14T06:17:52Z</time>
      </trkpt>
      <trkpt lat="46.72334" lon="-1.94107">
        <ele>4</ele>
        <time>2018-01-14T06:18:52Z</time>
      </trkpt>
      <trkpt lat="46.72327" lon="-1.94099">
        <ele>4</ele>
        <time>2018-01-14T06:19:52Z</time>
      </trkpt>
      <trkpt lat="46.72321" lon="-1.94092">
        <ele>4</ele>
        <time>2018-01-14T06:20:52Z</time>
      </trkpt>
      <trkpt lat="46.72313" lon="-1.94083">
        <ele>4</ele>
        <time>2018-01-14T06:21:52Z</time>
      </trkpt>
      <trkpt lat="46.72306" lon="-1.94075">
        <ele>3</ele>
        <time>2018-01-14T06:22:52Z</time>
      </trkpt>
      <trkpt lat="46.723" lon="-1.94069">
        <ele>3</ele>
        <time>2018-01-14T06:23:52Z</time>
      </trkpt>
      <trkpt lat="46.72291" lon="-1.94061">
        <ele>3</ele>
        <time>2018-01-14T06:24:52Z</time>
      </trkpt>
      <trkpt lat="46.72278" lon="-1.94048">
        <ele>2</ele>
        <time>2018-01-14T06:25:52Z</time>
      </trkpt>
      <trkpt lat="46.72271" lon="-1.94043">
        <ele>2</ele>
        <time>2018-01-14T06:26:52Z</time>
      </trkpt>
      <trkpt lat="46.72262" lon="-1.94035">
        <ele>2</ele>
        <time>2018-01-14T06:27:52Z</time>
      </trkpt>
      <trkpt lat="46.72254" lon="-1.94029">
        <ele>2</ele>
        <time>2018-01-14T06:28:52Z</time>
      </trkpt>
      <trkpt lat="46.72248" lon="-1.94024">
        <ele>2</ele>
        <time>2018-01-14T06:29:52Z</time>
      </trkpt>
      <trkpt lat="46.72241" lon="-1.94019">
        <ele>2</ele>
        <time>2018-01-14T06:30:52Z</time>
      </trkpt>
      <trkpt lat="46.72235" lon="-1.94014">
        <ele>1</ele>
        <time>2018-01-14T06:31:52Z</time>
      </trkpt>
      <trkpt lat="46.72228" lon="-1.94009">
        <ele>1</ele>
        <time>2018-01-14T06:32:52Z</time>
      </trkpt>
      <trkpt lat="46.72222" lon="-1.94005">
        <ele>1</ele>
        <time>2018-01-14T06:33:52Z</time>
      </trkpt>
      <trkpt lat="46.72214" lon="-1.94">
        <ele>1</ele>
        <time>2018-01-14T06:34:52Z</time>
      </trkpt>
      <trkpt lat="46.72208" lon="-1.93997">
        <ele>2</ele>
        <time>2018-01-14T06:35:52Z</time>
      </trkpt>
      <trkpt lat="46.72201" lon="-1.93993">
        <ele>2</ele>
        <time>2018-01-14T06:36:52Z</time>
      </trkpt>
      <trkpt lat="46.72195" lon="-1.9399">
        <ele>2</ele>
        <time>2018-01-14T06:37:52Z</time>
      </trkpt>
      <trkpt lat="46.72191" lon="-1.93987">
        <ele>2</ele>
        <time>2018-01-14T06:38:52Z</time>
      </trkpt>
      <trkpt lat="46.72187" lon="-1.93985">
        <ele>2</ele>
        <time>2018-01-14T06:39:52Z</time>
      </trkpt>
      <trkpt lat="46.72183" lon="-1.93983">
        <ele>2</ele>
        <time>2018-01-14T06:40:52Z</time>
      </trkpt>
      <trkpt lat="46.72178" lon="-1.93981">
        <ele>2</ele>
        <time>2018-01-14T06:41:52Z</time>
      </trkpt>
      <trkpt lat="46.72174" lon="-1.93979">
        <ele>2</ele>
        <time>2018-01-14T06:42:52Z</time>
      </trkpt>
      <trkpt lat="46.72167" lon="-1.93976">
        <ele>2</ele>
        <time>2018-01-14T06:43:52Z</time>
      </trkpt>
      <trkpt lat="46.72158" lon="-1.93972">
        <ele>2</ele>
        <time>2018-01-14T06:44:52Z</time>
      </trkpt>
      <trkpt lat="46.72149" lon="-1.93969">
        <ele>2</ele>
        <time>2018-01-14T06:45:52Z</time>
      </trkpt>
      <trkpt lat="46.72139" lon="-1.93966">
        <ele>2</ele>
        <time>2018-01-14T06:46:52Z</time>
      </trkpt>
      <trkpt lat="46.72129" lon="-1.93963">
        <ele>2</ele>
        <time>2018-01-14T06:47:52Z</time>
      </trkpt>
      <trkpt lat="46.72117" lon="-1.93959">
        <ele>2</ele>
        <time>2018-01-14T06:48:52Z</time>
      </trkpt>
      <trkpt lat="46.72106" lon="-1.93957">
        <ele>2</ele>
        <time>2018-01-14T06:49:52Z</time>
      </trkpt>
      <trkpt lat="46.72094" lon="-1.93955">
        <ele>2</ele>
        <time>2018-01-14T06:50:52Z</time>
      </trkpt>
      <trkpt lat="46.72086" lon="-1.93954">
        <ele>2</ele>
        <time>2018-01-14T06:51:52Z</time>
      </trkpt>
      <trkpt lat="46.7208" lon="-1.93953">
        <ele>2</ele>
        <time>2018-01-14T06:52:52Z</time>
      </trkpt>
      <trkpt lat="46.7207" lon="-1.93952">
        <ele>2</ele>
        <time>2018-01-14T06:53:52Z</time>
      </trkpt>
      <trkpt lat="46.72062" lon="-1.93951">
        <ele>2</ele>
        <time>2018-01-14T06:54:52Z</time>
      </trkpt>
      <trkpt lat="46.72054" lon="-1.93951">
        <ele>2</ele>
        <time>2018-01-14T06:55:52Z</time>
      </trkpt>
      <trkpt lat="46.72049" lon="-1.93951">
        <ele>2</ele>
        <time>2018-01-14T06:56:52Z</time>
      </trkpt>
      <trkpt lat="46.72043" lon="-1.9395">
        <ele>2</ele>
        <time>2018-01-14T06:57:52Z</time>
      </trkpt>
      <trkpt lat="46.72036" lon="-1.9395">
        <ele>2</ele>
        <time>2018-01-14T06:58:52Z</time>
      </trkpt>
      <trkpt lat="46.72029" lon="-1.93951">
        <ele>2</ele>
        <time>2018-01-14T06:59:52Z</time>
      </trkpt>
      <trkpt lat="46.72021" lon="-1.93951">
        <ele>2</ele>
        <time>2018-01-14T07:00:52Z</time>
      </trkpt>
      <trkpt lat="46.72012" lon="-1.93952">
        <ele>2</ele>
        <time>2018-01-14T07:01:52Z</time>
      </trkpt>
      <trkpt lat="46.71994" lon="-1.93954">
        <ele>2</ele>
        <time>2018-01-14T07:02:52Z</time>
      </trkpt>
      <trkpt lat="46.71981" lon="-1.93957">
        <ele>2</ele>
        <time>2018-01-14T07:03:52Z</time>
      </trkpt>
      <trkpt lat="46.71967" lon="-1.93959">
        <ele>2</ele>
        <time>2018-01-14T07:04:52Z</time>
      </trkpt>
      <trkpt lat="46.71946" lon="-1.93964">
        <ele>1</ele>
        <time>2018-01-14T07:05:52Z</time>
      </trkpt>
      <trkpt lat="46.71884" lon="-1.93978">
        <ele>1</ele>
        <time>2018-01-14T07:06:52Z</time>
      </trkpt>
      <trkpt lat="46.71876" lon="-1.9398">
        <ele>1</ele>
        <time>2018-01-14T07:07:52Z</time>
      </trkpt>
      <trkpt lat="46.71843" lon="-1.93992">
        <ele>1</ele>
        <time>2018-01-14T07:08:52Z</time>
      </trkpt>
      <trkpt lat="46.7184" lon="-1.93994">
        <ele>1</ele>
        <time>2018-01-14T07:09:52Z</time>
      </trkpt>
      <trkpt lat="46.71837" lon="-1.93996">
        <ele>1</ele>
        <time>2018-01-14T07:10:52Z</time>
      </trkpt>
      <trkpt lat="46.71834" lon="-1.93997">
        <ele>1</ele>
        <time>2018-01-14T07:11:52Z</time>
      </trkpt>
      <trkpt lat="46.71824" lon="-1.94003">
        <ele>1</ele>
        <time>2018-01-14T07:12:52Z</time>
      </trkpt>
      <trkpt lat="46.71824" lon="-1.94004">
        <ele>1</ele>
        <time>2018-01-14T07:13:52Z</time>
      </trkpt>
      <trkpt lat="46.71823" lon="-1.94004">
        <ele>1</ele>
        <time>2018-01-14T07:14:52Z</time>
      </trkpt>
      <trkpt lat="46.71823" lon="-1.94005">
        <ele>1</ele>
        <time>2018-01-14T07:15:52Z</time>
      </trkpt>
      <trkpt lat="46.71822" lon="-1.94007">
        <ele>1</ele>
        <time>2018-01-14T07:16:52Z</time>
      </trkpt>
      <trkpt lat="46.71821" lon="-1.94008">
        <ele>1</ele>
        <time>2018-01-14T07:17:52Z</time>
      </trkpt>
      <trkpt lat="46.7182" lon="-1.94009">
        <ele>1</ele>
        <time>2018-01-14T07:18:52Z</time>
      </trkpt>
      <trkpt lat="46.71819" lon="-1.9401">
        <ele>1</ele>
        <time>2018-01-14T07:19:52Z</time>
      </trkpt>
      <trkpt lat="46.71818" lon="-1.94011">
        <ele>1</ele>
        <time>2018-01-14T07:20:52Z</time>
      </trkpt>
      <trkpt lat="46.71817" lon="-1.94012">
        <ele>1</ele>
        <time>2018-01-14T07:21:52Z</time>
      </trkpt>
      <trkpt lat="46.71816" lon="-1.94013">
        <ele>1</ele>
        <time>2018-01-14T07:22:52Z</time>
      </trkpt>
      <trkpt lat="46.71815" lon="-1.94014">
        <ele>1</ele>
        <time>2018-01-14T07:23:52Z</time>
      </trkpt>
      <trkpt lat="46.71814" lon="-1.94014">
        <ele>1</ele>
        <time>2018-01-14T07:24:52Z</time>
      </trkpt>
      <trkpt lat="46.71814" lon="-1.94015">
        <ele>1</ele>
        <time>2018-01-14T07:25:52Z</time>
      </trkpt>
      <trkpt lat="46.71813" lon="-1.94015">
        <ele>1</ele>
        <time>2018-01-14T07:26:52Z</time>
      </trkpt>
      <trkpt lat="46.71812" lon="-1.94015">
        <ele>1</ele>
        <time>2018-01-14T07:27:52Z</time>
      </trkpt>
      <trkpt lat="46.7181" lon="-1.94015">
        <ele>1</ele>
        <time>2018-01-14T07:28:52Z</time>
      </trkpt>
      <trkpt lat="46.71809" lon="-1.94015">
        <ele>1</ele>
        <time>2018-01-14T07:29:52Z</time>
      </trkpt>
      <trkpt lat="46.71808" lon="-1.94015">
        <ele>1</ele>
        <time>2018-01-14T07:30:52Z</time>
      </trkpt>
      <trkpt lat="46.71807" lon="-1.94015">
        <ele>1</ele>
        <time>2018-01-14T07:31:52Z</time>
      </trkpt>
      <trkpt lat="46.71807" lon="-1.94014">
        <ele>1</ele>
        <time>2018-01-14T07:32:52Z</time>
      </trkpt>
      <trkpt lat="46.71806" lon="-1.94014">
        <ele>1</ele>
        <time>2018-01-14T07:33:52Z</time>
      </trkpt>
      <trkpt lat="46.71805" lon="-1.94013">
        <ele>1</ele>
        <time>2018-01-14T07:34:52Z</time>
      </trkpt>
      <trkpt lat="46.71804" lon="-1.94013">
        <ele>1</ele>
        <time>2018-01-14T07:35:52Z</time>
      </trkpt>
      <trkpt lat="46.71803" lon="-1.94012">
        <ele>1</ele>
        <time>2018-01-14T07:36:52Z</time>
      </trkpt>
      <trkpt lat="46.71802" lon="-1.94011">
        <ele>1</ele>
        <time>2018-01-14T07:37:52Z</time>
      </trkpt>
      <trkpt lat="46.71801" lon="-1.9401">
        <ele>1</ele>
        <time>2018-01-14T07:38:52Z</time>
      </trkpt>
      <trkpt lat="46.71801" lon="-1.94009">
        <ele>1</ele>
        <time>2018-01-14T07:39:52Z</time>
      </trkpt>
      <trkpt lat="46.718" lon="-1.94009">
        <ele>1</ele>
        <time>2018-01-14T07:40:52Z</time>
      </trkpt>
      <trkpt lat="46.718" lon="-1.94008">
        <ele>1</ele>
        <time>2018-01-14T07:41:52Z</time>
      </trkpt>
      <trkpt lat="46.71795" lon="-1.94007">
        <ele>1</ele>
        <time>2018-01-14T07:42:52Z</time>
      </trkpt>
      <trkpt lat="46.71793" lon="-1.94007">
        <ele>1</ele>
        <time>2018-01-14T07:43:52Z</time>
      </trkpt>
      <trkpt lat="46.7179" lon="-1.94007">
        <ele>1</ele>
        <time>2018-01-14T07:44:52Z</time>
      </trkpt>
      <trkpt lat="46.71787" lon="-1.94007">
        <ele>1</ele>
        <time>2018-01-14T07:45:52Z</time>
      </trkpt>
      <trkpt lat="46.71784" lon="-1.94007">
        <ele>1</ele>
        <time>2018-01-14T07:46:52Z</time>
      </trkpt>
      <trkpt lat="46.71782" lon="-1.94007">
        <ele>1</ele>
        <time>2018-01-14T07:47:52Z</time>
      </trkpt>
      <trkpt lat="46.71743" lon="-1.94011">
        <ele>2</ele>
        <time>2018-01-14T07:48:52Z</time>
      </trkpt>
      <trkpt lat="46.71736" lon="-1.94013">
        <ele>2</ele>
        <time>2018-01-14T07:49:52Z</time>
      </trkpt>
      <trkpt lat="46.71362" lon="-1.94099">
        <ele>4</ele>
        <time>2018-01-14T07:50:52Z</time>
      </trkpt>
      <trkpt lat="46.71344" lon="-1.94103">
        <ele>4</ele>
        <time>2018-01-14T07:51:52Z</time>
      </trkpt>
      <trkpt lat="46.71263" lon="-1.94122">
        <ele>2</ele>
        <time>2018-01-14T07:52:52Z</time>
      </trkpt>
      <trkpt lat="46.71093" lon="-1.94162">
        <ele>1</ele>
        <time>2018-01-14T07:53:52Z</time>
      </trkpt>
      <trkpt lat="46.71004" lon="-1.94182">
        <ele>2</ele>
        <time>2018-01-14T07:54:52Z</time>
      </trkpt>
      <trkpt lat="46.70987" lon="-1.94186">
        <ele>2</ele>
        <time>2018-01-14T07:55:52Z</time>
      </trkpt>
      <trkpt lat="46.7097" lon="-1.94189">
        <ele>3</ele>
        <time>2018-01-14T07:56:52Z</time>
      </trkpt>
      <trkpt lat="46.7093" lon="-1.94197">
        <ele>4</ele>
        <time>2018-01-14T07:57:52Z</time>
      </trkpt>
      <trkpt lat="46.70887" lon="-1.94205">
        <ele>4</ele>
        <time>2018-01-14T07:58:52Z</time>
      </trkpt>
      <trkpt lat="46.70869" lon="-1.94208">
        <ele>5</ele>
        <time>2018-01-14T07:59:52Z</time>
      </trkpt>
      <trkpt lat="46.70857" lon="-1.94209">
        <ele>5</ele>
        <time>2018-01-14T08:00:52Z</time>
      </trkpt>
      <trkpt lat="46.70847" lon="-1.94211">
        <ele>5</ele>
        <time>2018-01-14T08:01:52Z</time>
      </trkpt>
      <trkpt lat="46.70834" lon="-1.94212">
        <ele>5</ele>
        <time>2018-01-14T08:02:52Z</time>
      </trkpt>
      <trkpt lat="46.70823" lon="-1.94213">
        <ele>5</ele>
        <time>2018-01-14T08:03:52Z</time>
      </trkpt>
      <trkpt lat="46.70812" lon="-1.94214">
        <ele>5</ele>
        <time>2018-01-14T08:04:52Z</time>
      </trkpt>
      <trkpt lat="46.70799" lon="-1.94216">
        <ele>5</ele>
        <time>2018-01-14T08:05:52Z</time>
      </trkpt>
      <trkpt lat="46.70783" lon="-1.94217">
        <ele>6</ele>
        <time>2018-01-14T08:06:52Z</time>
      </trkpt>
      <trkpt lat="46.70775" lon="-1.94218">
        <ele>6</ele>
        <time>2018-01-14T08:07:52Z</time>
      </trkpt>
      <trkpt lat="46.70767" lon="-1.94218">
        <ele>6</ele>
        <time>2018-01-14T08:08:52Z</time>
      </trkpt>
      <trkpt lat="46.70763" lon="-1.94218">
        <ele>6</ele>
        <time>2018-01-14T08:09:52Z</time>
      </trkpt>
      <trkpt lat="46.70758" lon="-1.94219">
        <ele>6</ele>
        <time>2018-01-14T08:10:52Z</time>
      </trkpt>
      <trkpt lat="46.70753" lon="-1.94219">
        <ele>6</ele>
        <time>2018-01-14T08:11:52Z</time>
      </trkpt>
      <trkpt lat="46.70747" lon="-1.94219">
        <ele>6</ele>
        <time>2018-01-14T08:12:52Z</time>
      </trkpt>
      <trkpt lat="46.70742" lon="-1.94219">
        <ele>6</ele>
        <time>2018-01-14T08:13:52Z</time>
      </trkpt>
      <trkpt lat="46.70737" lon="-1.94219">
        <ele>6</ele>
        <time>2018-01-14T08:14:52Z</time>
      </trkpt>
      <trkpt lat="46.70732" lon="-1.94219">
        <ele>6</ele>
        <time>2018-01-14T08:15:52Z</time>
      </trkpt>
      <trkpt lat="46.70726" lon="-1.94219">
        <ele>6</ele>
        <time>2018-01-14T08:16:52Z</time>
      </trkpt>
      <trkpt lat="46.70706" lon="-1.94229">
        <ele>6</ele>
        <time>2018-01-14T08:17:52Z</time>
      </trkpt>
      <trkpt lat="46.70706" lon="-1.94229">
        <ele>6</ele>
        <time>2018-01-14T08:18:52Z</time>
      </trkpt>
      <trkpt lat="46.70706" lon="-1.9423">
        <ele>5</ele>
        <time>2018-01-14T08:19:52Z</time>
      </trkpt>
      <trkpt lat="46.70705" lon="-1.9423">
        <ele>5</ele>
        <time>2018-01-14T08:20:52Z</time>
      </trkpt>
      <trkpt lat="46.70705" lon="-1.94231">
        <ele>5</ele>
        <time>2018-01-14T08:21:52Z</time>
      </trkpt>
      <trkpt lat="46.70705" lon="-1.94232">
        <ele>5</ele>
        <time>2018-01-14T08:22:52Z</time>
      </trkpt>
      <trkpt lat="46.70704" lon="-1.94232">
        <ele>5</ele>
        <time>2018-01-14T08:23:52Z</time>
      </trkpt>
      <trkpt lat="46.70704" lon="-1.94233">
        <ele>5</ele>
        <time>2018-01-14T08:24:52Z</time>
      </trkpt>
      <trkpt lat="46.70703" lon="-1.94234">
        <ele>5</ele>
        <time>2018-01-14T08:25:52Z</time>
      </trkpt>
      <trkpt lat="46.70703" lon="-1.94235">
        <ele>5</ele>
        <time>2018-01-14T08:26:52Z</time>
      </trkpt>
      <trkpt lat="46.70702" lon="-1.94235">
        <ele>5</ele>
        <time>2018-01-14T08:27:52Z</time>
      </trkpt>
      <trkpt lat="46.70702" lon="-1.94236">
        <ele>5</ele>
        <time>2018-01-14T08:28:52Z</time>
      </trkpt>
      <trkpt lat="46.70701" lon="-1.94236">
        <ele>5</ele>
        <time>2018-01-14T08:29:52Z</time>
      </trkpt>
      <trkpt lat="46.707" lon="-1.94237">
        <ele>5</ele>
        <time>2018-01-14T08:30:52Z</time>
      </trkpt>
      <trkpt lat="46.70699" lon="-1.94237">
        <ele>5</ele>
        <time>2018-01-14T08:31:52Z</time>
      </trkpt>
      <trkpt lat="46.70698" lon="-1.94237">
        <ele>5</ele>
        <time>2018-01-14T08:32:52Z</time>
      </trkpt>
      <trkpt lat="46.70697" lon="-1.94237">
        <ele>5</ele>
        <time>2018-01-14T08:33:52Z</time>
      </trkpt>
      <trkpt lat="46.70696" lon="-1.94237">
        <ele>5</ele>
        <time>2018-01-14T08:34:52Z</time>
      </trkpt>
      <trkpt lat="46.70695" lon="-1.94237">
        <ele>5</ele>
        <time>2018-01-14T08:35:52Z</time>
      </trkpt>
      <trkpt lat="46.70694" lon="-1.94237">
        <ele>5</ele>
        <time>2018-01-14T08:36:52Z</time>
      </trkpt>
      <trkpt lat="46.70693" lon="-1.94236">
        <ele>5</ele>
        <time>2018-01-14T08:37:52Z</time>
      </trkpt>
      <trkpt lat="46.70692" lon="-1.94236">
        <ele>5</ele>
        <time>2018-01-14T08:38:52Z</time>
      </trkpt>
      <trkpt lat="46.70692" lon="-1.94235">
        <ele>5</ele>
        <time>2018-01-14T08:39:52Z</time>
      </trkpt>
      <trkpt lat="46.70691" lon="-1.94235">
        <ele>5</ele>
        <time>2018-01-14T08:40:52Z</time>
      </trkpt>
      <trkpt lat="46.70691" lon="-1.94234">
        <ele>5</ele>
        <time>2018-01-14T08:41:52Z</time>
      </trkpt>
      <trkpt lat="46.7069" lon="-1.94234">
        <ele>5</ele>
        <time>2018-01-14T08:42:52Z</time>
      </trkpt>
      <trkpt lat="46.7069" lon="-1.94233">
        <ele>5</ele>
        <time>2018-01-14T08:43:52Z</time>
      </trkpt>
      <trkpt lat="46.70689" lon="-1.94233">
        <ele>5</ele>
        <time>2018-01-14T08:44:52Z</time>
      </trkpt>
      <trkpt lat="46.70689" lon="-1.94232">
        <ele>5</ele>
        <time>2018-01-14T08:45:52Z</time>
      </trkpt>
      <trkpt lat="46.70689" lon="-1.94231">
        <ele>5</ele>
        <time>2018-01-14T08:46:52Z</time>
      </trkpt>
      <trkpt lat="46.70688" lon="-1.9423">
        <ele>5</ele>
        <time>2018-01-14T08:47:52Z</time>
      </trkpt>
      <trkpt lat="46.70688" lon="-1.94229">
        <ele>6</ele>
        <time>2018-01-14T08:48:52Z</time>
      </trkpt>
      <trkpt lat="46.70687" lon="-1.94228">
        <ele>6</ele>
        <time>2018-01-14T08:49:52Z</time>
      </trkpt>
      <trkpt lat="46.70678" lon="-1.94222">
        <ele>6</ele>
        <time>2018-01-14T08:50:52Z</time>
      </trkpt>
      <trkpt lat="46.70676" lon="-1.94221">
        <ele>6</ele>
        <time>2018-01-14T08:51:52Z</time>
      </trkpt>
      <trkpt lat="46.70674" lon="-1.9422">
        <ele>6</ele>
        <time>2018-01-14T08:52:52Z</time>
      </trkpt>
      <trkpt lat="46.70672" lon="-1.9422">
        <ele>6</ele>
        <time>2018-01-14T08:53:52Z</time>
      </trkpt>
      <trkpt lat="46.7066" lon="-1.94214">
        <ele>6</ele>
        <time>2018-01-14T08:54:52Z</time>
      </trkpt>
      <trkpt lat="46.70649" lon="-1.94213">
        <ele>6</ele>
        <time>2018-01-14T08:55:52Z</time>
      </trkpt>
      <trkpt lat="46.70641" lon="-1.94212">
        <ele>5</ele>
        <time>2018-01-14T08:56:52Z</time>
      </trkpt>
      <trkpt lat="46.70635" lon="-1.94211">
        <ele>5</ele>
        <time>2018-01-14T08:57:52Z</time>
      </trkpt>
      <trkpt lat="46.70629" lon="-1.9421">
        <ele>5</ele>
        <time>2018-01-14T08:58:52Z</time>
      </trkpt>
      <trkpt lat="46.70624" lon="-1.94209">
        <ele>5</ele>
        <time>2018-01-14T08:59:52Z</time>
      </trkpt>
      <trkpt lat="46.70617" lon="-1.94208">
        <ele>5</ele>
        <time>2018-01-14T09:00:52Z</time>
      </trkpt>
      <trkpt lat="46.70607" lon="-1.94205">
        <ele>5</ele>
        <time>2018-01-14T09:01:52Z</time>
      </trkpt>
      <trkpt lat="46.70598" lon="-1.94204">
        <ele>5</ele>
        <time>2018-01-14T09:02:52Z</time>
      </trkpt>
      <trkpt lat="46.70588" lon="-1.94201">
        <ele>5</ele>
        <time>2018-01-14T09:03:52Z</time>
      </trkpt>
      <trkpt lat="46.70577" lon="-1.94199">
        <ele>5</ele>
        <time>2018-01-14T09:04:52Z</time>
      </trkpt>
      <trkpt lat="46.70568" lon="-1.94196">
        <ele>5</ele>
        <time>2018-01-14T09:05:52Z</time>
      </trkpt>
      <trkpt lat="46.70562" lon="-1.94194">
        <ele>4</ele>
        <time>2018-01-14T09:06:52Z</time>
      </trkpt>
      <trkpt lat="46.70555" lon="-1.94192">
        <ele>4</ele>
        <time>2018-01-14T09:07:52Z</time>
      </trkpt>
      <trkpt lat="46.70549" lon="-1.9419">
        <ele>4</ele>
        <time>2018-01-14T09:08:52Z</time>
      </trkpt>
      <trkpt lat="46.70544" lon="-1.94189">
        <ele>4</ele>
        <time>2018-01-14T09:09:52Z</time>
      </trkpt>
      <trkpt lat="46.70539" lon="-1.94187">
        <ele>4</ele>
        <time>2018-01-14T09:10:52Z</time>
      </trkpt>
      <trkpt lat="46.70534" lon="-1.94185">
        <ele>4</ele>
        <time>2018-01-14T09:11:52Z</time>
      </trkpt>
      <trkpt lat="46.70528" lon="-1.94183">
        <ele>4</ele>
        <time>2018-01-14T09:12:52Z</time>
      </trkpt>
      <trkpt lat="46.70522" lon="-1.94181">
        <ele>4</ele>
        <time>2018-01-14T09:13:52Z</time>
      </trkpt>
      <trkpt lat="46.70515" lon="-1.94178">
        <ele>4</ele>
        <time>2018-01-14T09:14:52Z</time>
      </trkpt>
      <trkpt lat="46.70506" lon="-1.94174">
        <ele>4</ele>
        <time>2018-01-14T09:15:52Z</time>
      </trkpt>
      <trkpt lat="46.705" lon="-1.94171">
        <ele>4</ele>
        <time>2018-01-14T09:16:52Z</time>
      </trkpt>
      <trkpt lat="46.70494" lon="-1.94169">
        <ele>4</ele>
        <time>2018-01-14T09:17:52Z</time>
      </trkpt>
      <trkpt lat="46.70489" lon="-1.94166">
        <ele>4</ele>
        <time>2018-01-14T09:18:52Z</time>
      </trkpt>
      <trkpt lat="46.70485" lon="-1.94164">
        <ele>4</ele>
        <time>2018-01-14T09:19:52Z</time>
      </trkpt>
      <trkpt lat="46.70481" lon="-1.94162">
        <ele>4</ele>
        <time>2018-01-14T09:20:52Z</time>
      </trkpt>
      <trkpt lat="46.70476" lon="-1.94159">
        <ele>4</ele>
        <time>2018-01-14T09:21:52Z</time>
      </trkpt>
      <trkpt lat="46.70467" lon="-1.94154">
        <ele>5</ele>
        <time>2018-01-14T09:22:52Z</time>
      </trkpt>
      <trkpt lat="46.70458" lon="-1.94149">
        <ele>5</ele>
        <time>2018-01-14T09:23:52Z</time>
      </trkpt>
      <trkpt lat="46.70452" lon="-1.94145">
        <ele>5</ele>
        <time>2018-01-14T09:24:52Z</time>
      </trkpt>
      <trkpt lat="46.70447" lon="-1.94142">
        <ele>5</ele>
        <time>2018-01-14T09:25:52Z</time>
      </trkpt>
      <trkpt lat="46.7044" lon="-1.94137">
        <ele>5</ele>
        <time>2018-01-14T09:26:52Z</time>
      </trkpt>
      <trkpt lat="46.70434" lon="-1.94132">
        <ele>5</ele>
        <time>2018-01-14T09:27:52Z</time>
      </trkpt>
      <trkpt lat="46.70428" lon="-1.94128">
        <ele>5</ele>
        <time>2018-01-14T09:28:52Z</time>
      </trkpt>
      <trkpt lat="46.70423" lon="-1.94124">
        <ele>5</ele>
        <time>2018-01-14T09:29:52Z</time>
      </trkpt>
      <trkpt lat="46.70416" lon="-1.94119">
        <ele>5</ele>
        <time>2018-01-14T09:30:52Z</time>
      </trkpt>
      <trkpt lat="46.70411" lon="-1.94114">
        <ele>5</ele>
        <time>2018-01-14T09:31:52Z</time>
      </trkpt>
      <trkpt lat="46.70405" lon="-1.94109">
        <ele>4</ele>
        <time>2018-01-14T09:32:52Z</time>
      </trkpt>
      <trkpt lat="46.70396" lon="-1.94101">
        <ele>4</ele>
        <time>2018-01-14T09:33:52Z</time>
      </trkpt>
      <trkpt lat="46.70393" lon="-1.94098">
        <ele>4</ele>
        <time>2018-01-14T09:34:52Z</time>
      </trkpt>
      <trkpt lat="46.7039" lon="-1.94095">
        <ele>4</ele>
        <time>2018-01-14T09:35:52Z</time>
      </trkpt>
      <trkpt lat="46.70387" lon="-1.94093">
        <ele>4</ele>
        <time>2018-01-14T09:36:52Z</time>
      </trkpt>
      <trkpt lat="46.70384" lon="-1.9409">
        <ele>4</ele>
        <time>2018-01-14T09:37:52Z</time>
      </trkpt>
      <trkpt lat="46.70382" lon="-1.94087">
        <ele>4</ele>
        <time>2018-01-14T09:38:52Z</time>
      </trkpt>
      <trkpt lat="46.7038" lon="-1.94085">
        <ele>4</ele>
        <time>2018-01-14T09:39:52Z</time>
      </trkpt>
      <trkpt lat="46.70374" lon="-1.94079">
        <ele>4</ele>
        <time>2018-01-14T09:40:52Z</time>
      </trkpt>
      <trkpt lat="46.70368" lon="-1.94075">
        <ele>4</ele>
        <time>2018-01-14T09:41:52Z</time>
      </trkpt>
      <trkpt lat="46.70364" lon="-1.94071">
        <ele>4</ele>
        <time>2018-01-14T09:42:52Z</time>
      </trkpt>
      <trkpt lat="46.7036" lon="-1.94066">
        <ele>4</ele>
        <time>2018-01-14T09:43:52Z</time>
      </trkpt>
      <trkpt lat="46.70354" lon="-1.9406">
        <ele>4</ele>
        <time>2018-01-14T09:44:52Z</time>
      </trkpt>
      <trkpt lat="46.70346" lon="-1.9405">
        <ele>4</ele>
        <time>2018-01-14T09:45:52Z</time>
      </trkpt>
      <trkpt lat="46.70337" lon="-1.94039">
        <ele>3</ele>
        <time>2018-01-14T09:46:52Z</time>
      </trkpt>
      <trkpt lat="46.70331" lon="-1.94032">
        <ele>3</ele>
        <time>2018-01-14T09:47:52Z</time>
      </trkpt>
      <trkpt lat="46.70326" lon="-1.94025">
        <ele>3</ele>
        <time>2018-01-14T09:48:52Z</time>
      </trkpt>
      <trkpt lat="46.70321" lon="-1.94019">
        <ele>3</ele>
        <time>2018-01-14T09:49:52Z</time>
      </trkpt>
      <trkpt lat="46.70316" lon="-1.94013">
        <ele>3</ele>
        <time>2018-01-14T09:50:52Z</time>
      </trkpt>
      <trkpt lat="46.70311" lon="-1.94006">
        <ele>3</ele>
        <time>2018-01-14T09:51:52Z</time>
      </trkpt>
      <trkpt lat="46.70307" lon="-1.94">
        <ele>3</ele>
        <time>2018-01-14T09:52:52Z</time>
      </trkpt>
      <trkpt lat="46.70292" lon="-1.93977">
        <ele>3</ele>
        <time>2018-01-14T09:53:52Z</time>
      </trkpt>
      <trkpt lat="46.70281" lon="-1.93959">
        <ele>3</ele>
        <time>2018-01-14T09:54:52Z</time>
      </trkpt>
      <trkpt lat="46.70277" lon="-1.93952">
        <ele>3</ele>
        <time>2018-01-14T09:55:52Z</time>
      </trkpt>
      <trkpt lat="46.70273" lon="-1.93946">
        <ele>3</ele>
        <time>2018-01-14T09:56:52Z</time>
      </trkpt>
      <trkpt lat="46.7027" lon="-1.93941">
        <ele>2</ele>
        <time>2018-01-14T09:57:52Z</time>
      </trkpt>
      <trkpt lat="46.70267" lon="-1.93937">
        <ele>2</ele>
        <time>2018-01-14T09:58:52Z</time>
      </trkpt>
      <trkpt lat="46.70262" lon="-1.93932">
        <ele>2</ele>
        <time>2018-01-14T09:59:52Z</time>
      </trkpt>
      <trkpt lat="46.70262" lon="-1.93932">
        <ele>2</ele>
        <time>2018-01-14T10:00:52Z</time>
      </trkpt>
      <trkpt lat="46.70261" lon="-1.93932">
        <ele>2</ele>
        <time>2018-01-14T10:01:52Z</time>
      </trkpt>
      <trkpt lat="46.7026" lon="-1.93932">
        <ele>2</ele>
        <time>2018-01-14T10:02:52Z</time>
      </trkpt>
      <trkpt lat="46.70259" lon="-1.93932">
        <ele>2</ele>
        <time>2018-01-14T10:03:52Z</time>
      </trkpt>
      <trkpt lat="46.70257" lon="-1.93932">
        <ele>2</ele>
        <time>2018-01-14T10:04:52Z</time>
      </trkpt>
      <trkpt lat="46.70256" lon="-1.93932">
        <ele>2</ele>
        <time>2018-01-14T10:05:52Z</time>
      </trkpt>
      <trkpt lat="46.70255" lon="-1.93931">
        <ele>2</ele>
        <time>2018-01-14T10:06:52Z</time>
      </trkpt>
      <trkpt lat="46.70254" lon="-1.93931">
        <ele>2</ele>
        <time>2018-01-14T10:07:52Z</time>
      </trkpt>
      <trkpt lat="46.70252" lon="-1.9393">
        <ele>2</ele>
        <time>2018-01-14T10:08:52Z</time>
      </trkpt>
      <trkpt lat="46.70251" lon="-1.93928">
        <ele>2</ele>
        <time>2018-01-14T10:09:52Z</time>
      </trkpt>
      <trkpt lat="46.70249" lon="-1.93927">
        <ele>2</ele>
        <time>2018-01-14T10:10:52Z</time>
      </trkpt>
      <trkpt lat="46.70248" lon="-1.93926">
        <ele>2</ele>
        <time>2018-01-14T10:11:52Z</time>
      </trkpt>
      <trkpt lat="46.70247" lon="-1.93925">
        <ele>2</ele>
        <time>2018-01-14T10:12:52Z</time>
      </trkpt>
      <trkpt lat="46.70247" lon="-1.93924">
        <ele>2</ele>
        <time>2018-01-14T10:13:52Z</time>
      </trkpt>
      <trkpt lat="46.70246" lon="-1.93922">
        <ele>2</ele>
        <time>2018-01-14T10:14:52Z</time>
      </trkpt>
      <trkpt lat="46.70245" lon="-1.93921">
        <ele>2</ele>
        <time>2018-01-14T10:15:52Z</time>
      </trkpt>
      <trkpt lat="46.70244" lon="-1.93919">
        <ele>2</ele>
        <time>2018-01-14T10:16:52Z</time>
      </trkpt>
      <trkpt lat="46.70244" lon="-1.93917">
        <ele>2</ele>
        <time>2018-01-14T10:17:52Z</time>
      </trkpt>
      <trkpt lat="46.70243" lon="-1.93916">
        <ele>2</ele>
        <time>2018-01-14T10:18:52Z</time>
      </trkpt>
      <trkpt lat="46.70243" lon="-1.93914">
        <ele>2</ele>
        <time>2018-01-14T10:19:52Z</time>
      </trkpt>
      <trkpt lat="46.70243" lon="-1.93912">
        <ele>2</ele>
        <time>2018-01-14T10:20:52Z</time>
      </trkpt>
      <trkpt lat="46.70242" lon="-1.9391">
        <ele>2</ele>
        <time>2018-01-14T10:21:52Z</time>
      </trkpt>
      <trkpt lat="46.70242" lon="-1.93906">
        <ele>2</ele>
        <time>2018-01-14T10:22:52Z</time>
      </trkpt>
      <trkpt lat="46.70243" lon="-1.93905">
        <ele>2</ele>
        <time>2018-01-14T10:23:52Z</time>
      </trkpt>
      <trkpt lat="46.70243" lon="-1.93903">
        <ele>2</ele>
        <time>2018-01-14T10:24:52Z</time>
      </trkpt>
      <trkpt lat="46.70243" lon="-1.93902">
        <ele>2</ele>
        <time>2018-01-14T10:25:52Z</time>
      </trkpt>
      <trkpt lat="46.70244" lon="-1.939">
        <ele>2</ele>
        <time>2018-01-14T10:26:52Z</time>
      </trkpt>
      <trkpt lat="46.70244" lon="-1.93899">
        <ele>2</ele>
        <time>2018-01-14T10:27:52Z</time>
      </trkpt>
      <trkpt lat="46.70245" lon="-1.93897">
        <ele>3</ele>
        <time>2018-01-14T10:28:52Z</time>
      </trkpt>
      <trkpt lat="46.70245" lon="-1.93896">
        <ele>3</ele>
        <time>2018-01-14T10:29:52Z</time>
      </trkpt>
      <trkpt lat="46.70246" lon="-1.93894">
        <ele>3</ele>
        <time>2018-01-14T10:30:52Z</time>
      </trkpt>
      <trkpt lat="46.70246" lon="-1.93889">
        <ele>3</ele>
        <time>2018-01-14T10:31:52Z</time>
      </trkpt>
      <trkpt lat="46.70245" lon="-1.93885">
        <ele>3</ele>
        <time>2018-01-14T10:32:52Z</time>
      </trkpt>
      <trkpt lat="46.70245" lon="-1.93882">
        <ele>3</ele>
        <time>2018-01-14T10:33:52Z</time>
      </trkpt>
      <trkpt lat="46.70244" lon="-1.93878">
        <ele>3</ele>
        <time>2018-01-14T10:34:52Z</time>
      </trkpt>
      <trkpt lat="46.70244" lon="-1.93875">
        <ele>3</ele>
        <time>2018-01-14T10:35:52Z</time>
      </trkpt>
      <trkpt lat="46.70243" lon="-1.93871">
        <ele>3</ele>
        <time>2018-01-14T10:36:52Z</time>
      </trkpt>
      <trkpt lat="46.70241" lon="-1.93867">
        <ele>3</ele>
        <time>2018-01-14T10:37:52Z</time>
      </trkpt>
      <trkpt lat="46.70241" lon="-1.93864">
        <ele>3</ele>
        <time>2018-01-14T10:38:52Z</time>
      </trkpt>
      <trkpt lat="46.70238" lon="-1.93857">
        <ele>3</ele>
        <time>2018-01-14T10:39:52Z</time>
      </trkpt>
      <trkpt lat="46.70224" lon="-1.93811">
        <ele>4</ele>
        <time>2018-01-14T10:40:52Z</time>
      </trkpt>
      <trkpt lat="46.7022" lon="-1.93799">
        <ele>3</ele>
        <time>2018-01-14T10:41:52Z</time>
      </trkpt>
      <trkpt lat="46.70218" lon="-1.93792">
        <ele>3</ele>
        <time>2018-01-14T10:42:52Z</time>
      </trkpt>
      <trkpt lat="46.70216" lon="-1.93784">
        <ele>3</ele>
        <time>2018-01-14T10:43:52Z</time>
      </trkpt>
      <trkpt lat="46.70214" lon="-1.93775">
        <ele>3</ele>
        <time>2018-01-14T10:44:52Z</time>
      </trkpt>
      <trkpt lat="46.70211" lon="-1.93767">
        <ele>3</ele>
        <time>2018-01-14T10:45:52Z</time>
      </trkpt>
      <trkpt lat="46.70203" lon="-1.93733">
        <ele>3</ele>
        <time>2018-01-14T10:46:52Z</time>
      </trkpt>
      <trkpt lat="46.70194" lon="-1.93693">
        <ele>2</ele>
        <time>2018-01-14T10:47:52Z</time>
      </trkpt>
      <trkpt lat="46.70183" lon="-1.93647">
        <ele>1</ele>
        <time>2018-01-14T10:48:52Z</time>
      </trkpt>
      <trkpt lat="46.70173" lon="-1.936">
        <ele>1</ele>
        <time>2018-01-14T10:49:52Z</time>
      </trkpt>
      <trkpt lat="46.70157" lon="-1.93532">
        <ele>1</ele>
        <time>2018-01-14T10:50:52Z</time>
      </trkpt>
      <trkpt lat="46.70136" lon="-1.93442">
        <ele>1</ele>
        <time>2018-01-14T10:51:52Z</time>
      </trkpt>
      <trkpt lat="46.70134" lon="-1.93434">
        <ele>1</ele>
        <time>2018-01-14T10:52:52Z</time>
      </trkpt>
      <trkpt lat="46.70132" lon="-1.93425">
        <ele>1</ele>
        <time>2018-01-14T10:53:52Z</time>
      </trkpt>
      <trkpt lat="46.7013" lon="-1.93419">
        <ele>1</ele>
        <time>2018-01-14T10:54:52Z</time>
      </trkpt>
      <trkpt lat="46.70129" lon="-1.93416">
        <ele>1</ele>
        <time>2018-01-14T10:55:52Z</time>
      </trkpt>
      <trkpt lat="46.70128" lon="-1.93414">
        <ele>1</ele>
        <time>2018-01-14T10:56:52Z</time>
      </trkpt>
      <trkpt lat="46.70127" lon="-1.93411">
        <ele>1</ele>
        <time>2018-01-14T10:57:52Z</time>
      </trkpt>
      <trkpt lat="46.70125" lon="-1.93409">
        <ele>1</ele>
        <time>2018-01-14T10:58:52Z</time>
      </trkpt>
      <trkpt lat="46.70125" lon="-1.93409">
        <ele>1</ele>
        <time>2018-01-14T10:59:52Z</time>
      </trkpt>
      <trkpt lat="46.70124" lon="-1.93408">
        <ele>2</ele>
        <time>2018-01-14T11:00:52Z</time>
      </trkpt>
      <trkpt lat="46.70123" lon="-1.93408">
        <ele>2</ele>
        <time>2018-01-14T11:01:52Z</time>
      </trkpt>
      <trkpt lat="46.70122" lon="-1.93407">
        <ele>2</ele>
        <time>2018-01-14T11:02:52Z</time>
      </trkpt>
      <trkpt lat="46.70121" lon="-1.93407">
        <ele>2</ele>
        <time>2018-01-14T11:03:52Z</time>
      </trkpt>
      <trkpt lat="46.7012" lon="-1.93406">
        <ele>2</ele>
        <time>2018-01-14T11:04:52Z</time>
      </trkpt>
      <trkpt lat="46.7012" lon="-1.93405">
        <ele>2</ele>
        <time>2018-01-14T11:05:52Z</time>
      </trkpt>
      <trkpt lat="46.70119" lon="-1.93405">
        <ele>2</ele>
        <time>2018-01-14T11:06:52Z</time>
      </trkpt>
      <trkpt lat="46.70107" lon="-1.93404">
        <ele>2</ele>
        <time>2018-01-14T11:07:52Z</time>
      </trkpt>
      <trkpt lat="46.701" lon="-1.93405">
        <ele>2</ele>
        <time>2018-01-14T11:08:52Z</time>
      </trkpt>
      <trkpt lat="46.70092" lon="-1.93406">
        <ele>2</ele>
        <time>2018-01-14T11:09:52Z</time>
      </trkpt>
      <trkpt lat="46.70088" lon="-1.93406">
        <ele>2</ele>
        <time>2018-01-14T11:10:52Z</time>
      </trkpt>
      <trkpt lat="46.70085" lon="-1.93405">
        <ele>2</ele>
        <time>2018-01-14T11:11:52Z</time>
      </trkpt>
      <trkpt lat="46.70083" lon="-1.93405">
        <ele>2</ele>
        <time>2018-01-14T11:12:52Z</time>
      </trkpt>
      <trkpt lat="46.70062" lon="-1.93405">
        <ele>2</ele>
        <time>2018-01-14T11:13:52Z</time>
      </trkpt>
      <trkpt lat="46.70062" lon="-1.93406">
        <ele>2</ele>
        <time>2018-01-14T11:14:52Z</time>
      </trkpt>
      <trkpt lat="46.70062" lon="-1.93407">
        <ele>2</ele>
        <time>2018-01-14T11:15:52Z</time>
      </trkpt>
      <trkpt lat="46.70062" lon="-1.93408">
        <ele>2</ele>
        <time>2018-01-14T11:16:52Z</time>
      </trkpt>
      <trkpt lat="46.70062" lon="-1.93409">
        <ele>2</ele>
        <time>2018-01-14T11:17:52Z</time>
      </trkpt>
      <trkpt lat="46.70062" lon="-1.9341">
        <ele>2</ele>
        <time>2018-01-14T11:18:52Z</time>
      </trkpt>
      <trkpt lat="46.70061" lon="-1.9341">
        <ele>2</ele>
        <time>2018-01-14T11:19:52Z</time>
      </trkpt>
      <trkpt lat="46.70061" lon="-1.93411">
        <ele>2</ele>
        <time>2018-01-14T11:20:52Z</time>
      </trkpt>
      <trkpt lat="46.7006" lon="-1.93411">
        <ele>2</ele>
        <time>2018-01-14T11:21:52Z</time>
      </trkpt>
      <trkpt lat="46.7006" lon="-1.93412">
        <ele>2</ele>
        <time>2018-01-14T11:22:52Z</time>
      </trkpt>
      <trkpt lat="46.70059" lon="-1.93412">
        <ele>2</ele>
        <time>2018-01-14T11:23:52Z</time>
      </trkpt>
      <trkpt lat="46.70059" lon="-1.93413">
        <ele>2</ele>
        <time>2018-01-14T11:24:52Z</time>
      </trkpt>
      <trkpt lat="46.70058" lon="-1.93413">
        <ele>2</ele>
        <time>2018-01-14T11:25:52Z</time>
      </trkpt>
      <trkpt lat="46.70057" lon="-1.93413">
        <ele>2</ele>
        <time>2018-01-14T11:26:52Z</time>
      </trkpt>
      <trkpt lat="46.70056" lon="-1.93413">
        <ele>2</ele>
        <time>2018-01-14T11:27:52Z</time>
      </trkpt>
      <trkpt lat="46.70055" lon="-1.93413">
        <ele>2</ele>
        <time>2018-01-14T11:28:52Z</time>
      </trkpt>
      <trkpt lat="46.70055" lon="-1.93412">
        <ele>2</ele>
        <time>2018-01-14T11:29:52Z</time>
      </trkpt>
      <trkpt lat="46.70054" lon="-1.93412">
        <ele>2</ele>
        <time>2018-01-14T11:30:52Z</time>
      </trkpt>
      <trkpt lat="46.70054" lon="-1.93411">
        <ele>2</ele>
        <time>2018-01-14T11:31:52Z</time>
      </trkpt>
      <trkpt lat="46.70053" lon="-1.93411">
        <ele>2</ele>
        <time>2018-01-14T11:32:52Z</time>
      </trkpt>
      <trkpt lat="46.70053" lon="-1.9341">
        <ele>2</ele>
        <time>2018-01-14T11:33:52Z</time>
      </trkpt>
      <trkpt lat="46.70053" lon="-1.93409">
        <ele>2</ele>
        <time>2018-01-14T11:34:52Z</time>
      </trkpt>
      <trkpt lat="46.70052" lon="-1.93409">
        <ele>2</ele>
        <time>2018-01-14T11:35:52Z</time>
      </trkpt>
      <trkpt lat="46.70052" lon="-1.93408">
        <ele>2</ele>
        <time>2018-01-14T11:36:52Z</time>
      </trkpt>
      <trkpt lat="46.70052" lon="-1.93407">
        <ele>2</ele>
        <time>2018-01-14T11:37:52Z</time>
      </trkpt>
      <trkpt lat="46.70052" lon="-1.93406">
        <ele>2</ele>
        <time>2018-01-14T11:38:52Z</time>
      </trkpt>
      <trkpt lat="46.70052" lon="-1.93405">
        <ele>2</ele>
        <time>2018-01-14T11:39:52Z</time>
      </trkpt>
      <trkpt lat="46.70046" lon="-1.93402">
        <ele>2</ele>
        <time>2018-01-14T11:40:52Z</time>
      </trkpt>
      <trkpt lat="46.70043" lon="-1.93401">
        <ele>2</ele>
        <time>2018-01-14T11:41:52Z</time>
      </trkpt>
      <trkpt lat="46.70041" lon="-1.934">
        <ele>2</ele>
        <time>2018-01-14T11:42:52Z</time>
      </trkpt>
      <trkpt lat="46.70038" lon="-1.93398">
        <ele>2</ele>
        <time>2018-01-14T11:43:52Z</time>
      </trkpt>
      <trkpt lat="46.70036" lon="-1.93397">
        <ele>2</ele>
        <time>2018-01-14T11:44:52Z</time>
      </trkpt>
      <trkpt lat="46.70033" lon="-1.93394">
        <ele>2</ele>
        <time>2018-01-14T11:45:52Z</time>
      </trkpt>
      <trkpt lat="46.7003" lon="-1.93391">
        <ele>3</ele>
        <time>2018-01-14T11:46:52Z</time>
      </trkpt>
      <trkpt lat="46.70028" lon="-1.93388">
        <ele>3</ele>
        <time>2018-01-14T11:47:52Z</time>
      </trkpt>
      <trkpt lat="46.70025" lon="-1.93386">
        <ele>3</ele>
        <time>2018-01-14T11:48:52Z</time>
      </trkpt>
      <trkpt lat="46.70023" lon="-1.93384">
        <ele>3</ele>
        <time>2018-01-14T11:49:52Z</time>
      </trkpt>
      <trkpt lat="46.7002" lon="-1.93382">
        <ele>3</ele>
        <time>2018-01-14T11:50:52Z</time>
      </trkpt>
      <trkpt lat="46.70015" lon="-1.9338">
        <ele>3</ele>
        <time>2018-01-14T11:51:52Z</time>
      </trkpt>
      <trkpt lat="46.70002" lon="-1.93375">
        <ele>3</ele>
        <time>2018-01-14T11:52:52Z</time>
      </trkpt>
      <trkpt lat="46.69987" lon="-1.93369">
        <ele>3</ele>
        <time>2018-01-14T11:53:52Z</time>
      </trkpt>
      <trkpt lat="46.69982" lon="-1.93367">
        <ele>3</ele>
        <time>2018-01-14T11:54:52Z</time>
      </trkpt>
      <trkpt lat="46.69979" lon="-1.93366">
        <ele>3</ele>
        <time>2018-01-14T11:55:52Z</time>
      </trkpt>
      <trkpt lat="46.69978" lon="-1.93366">
        <ele>3</ele>
        <time>2018-01-14T11:56:52Z</time>
      </trkpt>
      <trkpt lat="46.69976" lon="-1.93367">
        <ele>4</ele>
        <time>2018-01-14T11:57:52Z</time>
      </trkpt>
      <trkpt lat="46.69973" lon="-1.93367">
        <ele>4</ele>
        <time>2018-01-14T11:58:52Z</time>
      </trkpt>
      <trkpt lat="46.69969" lon="-1.9337">
        <ele>4</ele>
        <time>2018-01-14T11:59:52Z</time>
      </trkpt>
      <trkpt lat="46.69963" lon="-1.93373">
        <ele>4</ele>
        <time>2018-01-14T12:00:52Z</time>
      </trkpt>
      <trkpt lat="46.69958" lon="-1.93375">
        <ele>4</ele>
        <time>2018-01-14T12:01:52Z</time>
      </trkpt>
      <trkpt lat="46.69953" lon="-1.93377">
        <ele>4</ele>
        <time>2018-01-14T12:02:52Z</time>
      </trkpt>
      <trkpt lat="46.69949" lon="-1.93379">
        <ele>4</ele>
        <time>2018-01-14T12:03:52Z</time>
      </trkpt>
      <trkpt lat="46.69944" lon="-1.93381">
        <ele>4</ele>
        <time>2018-01-14T12:04:52Z</time>
      </trkpt>
      <trkpt lat="46.69935" lon="-1.93382">
        <ele>4</ele>
        <time>2018-01-14T12:05:52Z</time>
      </trkpt>
      <trkpt lat="46.69925" lon="-1.93383">
        <ele>4</ele>
        <time>2018-01-14T12:06:52Z</time>
      </trkpt>
      <trkpt lat="46.69922" lon="-1.93383">
        <ele>4</ele>
        <time>2018-01-14T12:07:52Z</time>
      </trkpt>
      <trkpt lat="46.69915" lon="-1.93383">
        <ele>4</ele>
        <time>2018-01-14T12:08:52Z</time>
      </trkpt>
    </trkseg>
  </trk>
</gpx>